<?xml version="1.0" encoding="UTF-8" standalone="no" ?>
<gpx xmlns="http://www.topografix.com/GPX/1/1" xmlns:xsi="http://www.w3.org/2001/XMLSchema-instance" xsi:schemaLocation="http://www.topografix.com/GPX/1/1 http://www.topografix.com/GPX/1/1/gpx.xsd" version="1.1" creator="VisuGPX - https://www.visugpx.com">
  <metadata>
    <name>Melisey 30/10/14</name>
    <desc><![CDATA[Haute-Saône avec Béa, Bruno, Clémentine et Cédric.
Après la pause]]></desc>
  </metadata>
  <trk>
    <name><![CDATA[Melisey 30/10/14_1]]></name>
    <trkseg>
      <trkpt lat="47.83826" lon="6.66704">
        <ele>540</ele>
        <time>2014-10-30T11:50:12.1Z</time>
      </trkpt>
      <trkpt lat="47.83828" lon="6.66701">
        <ele>540</ele>
        <time>2014-10-30T11:50:14.1Z</time>
      </trkpt>
      <trkpt lat="47.83832" lon="6.66702">
        <ele>541</ele>
        <time>2014-10-30T11:50:17.1Z</time>
      </trkpt>
      <trkpt lat="47.83835" lon="6.66704">
        <ele>541</ele>
        <time>2014-10-30T11:50:19.1Z</time>
      </trkpt>
      <trkpt lat="47.83838" lon="6.66703">
        <ele>542</ele>
        <time>2014-10-30T11:50:22.1Z</time>
      </trkpt>
      <trkpt lat="47.83838" lon="6.66703">
        <ele>541</ele>
        <time>2014-10-30T11:50:25.1Z</time>
      </trkpt>
      <trkpt lat="47.8384" lon="6.66702">
        <ele>541</ele>
        <time>2014-10-30T11:50:28.1Z</time>
      </trkpt>
      <trkpt lat="47.8384" lon="6.66702">
        <ele>541</ele>
        <time>2014-10-30T11:50:30.1Z</time>
      </trkpt>
      <trkpt lat="47.8384" lon="6.66702">
        <ele>541</ele>
        <time>2014-10-30T11:50:33.1Z</time>
      </trkpt>
      <trkpt lat="47.83841" lon="6.66702">
        <ele>541</ele>
        <time>2014-10-30T11:50:36.1Z</time>
      </trkpt>
      <trkpt lat="47.83841" lon="6.66702">
        <ele>541</ele>
        <time>2014-10-30T11:50:38.1Z</time>
      </trkpt>
      <trkpt lat="47.83841" lon="6.66702">
        <ele>541</ele>
        <time>2014-10-30T11:50:42.1Z</time>
      </trkpt>
      <trkpt lat="47.83841" lon="6.66702">
        <ele>541</ele>
        <time>2014-10-30T11:50:45.1Z</time>
      </trkpt>
      <trkpt lat="47.83841" lon="6.66703">
        <ele>541</ele>
        <time>2014-10-30T11:50:48.1Z</time>
      </trkpt>
      <trkpt lat="47.83842" lon="6.66705">
        <ele>542</ele>
        <time>2014-10-30T11:50:51.1Z</time>
      </trkpt>
      <trkpt lat="47.83841" lon="6.66706">
        <ele>542</ele>
        <time>2014-10-30T11:50:53.1Z</time>
      </trkpt>
      <trkpt lat="47.8384" lon="6.66705">
        <ele>542</ele>
        <time>2014-10-30T11:50:56.1Z</time>
      </trkpt>
      <trkpt lat="47.8384" lon="6.66705">
        <ele>542</ele>
        <time>2014-10-30T11:50:58.1Z</time>
      </trkpt>
      <trkpt lat="47.8384" lon="6.66706">
        <ele>542</ele>
        <time>2014-10-30T11:51:01.1Z</time>
      </trkpt>
      <trkpt lat="47.83839" lon="6.66706">
        <ele>542</ele>
        <time>2014-10-30T11:51:03.1Z</time>
      </trkpt>
      <trkpt lat="47.83839" lon="6.66706">
        <ele>542</ele>
        <time>2014-10-30T11:51:06.1Z</time>
      </trkpt>
      <trkpt lat="47.83839" lon="6.66706">
        <ele>542</ele>
        <time>2014-10-30T11:51:09.1Z</time>
      </trkpt>
      <trkpt lat="47.83839" lon="6.66706">
        <ele>542</ele>
        <time>2014-10-30T11:51:12.1Z</time>
      </trkpt>
      <trkpt lat="47.83839" lon="6.66706">
        <ele>542</ele>
        <time>2014-10-30T11:51:16.1Z</time>
      </trkpt>
      <trkpt lat="47.83838" lon="6.66706">
        <ele>542</ele>
        <time>2014-10-30T11:51:19.1Z</time>
      </trkpt>
      <trkpt lat="47.83836" lon="6.6671">
        <ele>542</ele>
        <time>2014-10-30T11:51:22.1Z</time>
      </trkpt>
      <trkpt lat="47.83837" lon="6.66714">
        <ele>542</ele>
        <time>2014-10-30T11:51:24.1Z</time>
      </trkpt>
      <trkpt lat="47.83844" lon="6.66717">
        <ele>542</ele>
        <time>2014-10-30T11:51:27.1Z</time>
      </trkpt>
      <trkpt lat="47.8385" lon="6.66716">
        <ele>541</ele>
        <time>2014-10-30T11:51:29.1Z</time>
      </trkpt>
      <trkpt lat="47.83859" lon="6.6672">
        <ele>541</ele>
        <time>2014-10-30T11:51:32.1Z</time>
      </trkpt>
      <trkpt lat="47.83869" lon="6.66728">
        <ele>541</ele>
        <time>2014-10-30T11:51:35.1Z</time>
      </trkpt>
      <trkpt lat="47.83876" lon="6.66738">
        <ele>541</ele>
        <time>2014-10-30T11:51:37.1Z</time>
      </trkpt>
      <trkpt lat="47.83888" lon="6.66755">
        <ele>540</ele>
        <time>2014-10-30T11:51:40.1Z</time>
      </trkpt>
      <trkpt lat="47.83895" lon="6.66769">
        <ele>540</ele>
        <time>2014-10-30T11:51:42.1Z</time>
      </trkpt>
      <trkpt lat="47.83905" lon="6.66791">
        <ele>540</ele>
        <time>2014-10-30T11:51:45.1Z</time>
      </trkpt>
      <trkpt lat="47.83912" lon="6.66812">
        <ele>540</ele>
        <time>2014-10-30T11:51:48.1Z</time>
      </trkpt>
      <trkpt lat="47.83919" lon="6.66832">
        <ele>540</ele>
        <time>2014-10-30T11:51:51.1Z</time>
      </trkpt>
      <trkpt lat="47.83928" lon="6.66852">
        <ele>540</ele>
        <time>2014-10-30T11:51:54.1Z</time>
      </trkpt>
      <trkpt lat="47.83936" lon="6.66865">
        <ele>540</ele>
        <time>2014-10-30T11:51:56.1Z</time>
      </trkpt>
      <trkpt lat="47.83942" lon="6.66878">
        <ele>540</ele>
        <time>2014-10-30T11:51:58.1Z</time>
      </trkpt>
      <trkpt lat="47.8395" lon="6.66895">
        <ele>541</ele>
        <time>2014-10-30T11:52:01.1Z</time>
      </trkpt>
      <trkpt lat="47.83957" lon="6.6691">
        <ele>542</ele>
        <time>2014-10-30T11:52:04.1Z</time>
      </trkpt>
      <trkpt lat="47.83965" lon="6.66927">
        <ele>543</ele>
        <time>2014-10-30T11:52:07.1Z</time>
      </trkpt>
      <trkpt lat="47.83972" lon="6.66938">
        <ele>543</ele>
        <time>2014-10-30T11:52:09.1Z</time>
      </trkpt>
      <trkpt lat="47.83979" lon="6.66948">
        <ele>543</ele>
        <time>2014-10-30T11:52:11.1Z</time>
      </trkpt>
      <trkpt lat="47.83984" lon="6.66956">
        <ele>543</ele>
        <time>2014-10-30T11:52:13.1Z</time>
      </trkpt>
      <trkpt lat="47.83992" lon="6.66968">
        <ele>543</ele>
        <time>2014-10-30T11:52:16.1Z</time>
      </trkpt>
      <trkpt lat="47.83999" lon="6.66985">
        <ele>542</ele>
        <time>2014-10-30T11:52:19.1Z</time>
      </trkpt>
      <trkpt lat="47.84006" lon="6.67005">
        <ele>541</ele>
        <time>2014-10-30T11:52:22.1Z</time>
      </trkpt>
      <trkpt lat="47.84004" lon="6.67021">
        <ele>540</ele>
        <time>2014-10-30T11:52:24.1Z</time>
      </trkpt>
      <trkpt lat="47.83994" lon="6.67032">
        <ele>539</ele>
        <time>2014-10-30T11:52:26.1Z</time>
      </trkpt>
      <trkpt lat="47.83985" lon="6.67051">
        <ele>539</ele>
        <time>2014-10-30T11:52:29.1Z</time>
      </trkpt>
      <trkpt lat="47.83984" lon="6.67063">
        <ele>539</ele>
        <time>2014-10-30T11:52:31.1Z</time>
      </trkpt>
      <trkpt lat="47.83987" lon="6.67086">
        <ele>539</ele>
        <time>2014-10-30T11:52:34.1Z</time>
      </trkpt>
      <trkpt lat="47.83989" lon="6.671">
        <ele>539</ele>
        <time>2014-10-30T11:52:36.1Z</time>
      </trkpt>
      <trkpt lat="47.83991" lon="6.6712">
        <ele>538</ele>
        <time>2014-10-30T11:52:38.1Z</time>
      </trkpt>
      <trkpt lat="47.83989" lon="6.67143">
        <ele>537</ele>
        <time>2014-10-30T11:52:40.1Z</time>
      </trkpt>
      <trkpt lat="47.8398" lon="6.67174">
        <ele>535</ele>
        <time>2014-10-30T11:52:43.1Z</time>
      </trkpt>
      <trkpt lat="47.83973" lon="6.67207">
        <ele>533</ele>
        <time>2014-10-30T11:52:46.1Z</time>
      </trkpt>
      <trkpt lat="47.83974" lon="6.67232">
        <ele>532</ele>
        <time>2014-10-30T11:52:48.1Z</time>
      </trkpt>
      <trkpt lat="47.83975" lon="6.67269">
        <ele>531</ele>
        <time>2014-10-30T11:52:51.1Z</time>
      </trkpt>
      <trkpt lat="47.83971" lon="6.6729">
        <ele>531</ele>
        <time>2014-10-30T11:52:53.1Z</time>
      </trkpt>
      <trkpt lat="47.83966" lon="6.67321">
        <ele>530</ele>
        <time>2014-10-30T11:52:56.1Z</time>
      </trkpt>
      <trkpt lat="47.83961" lon="6.67348">
        <ele>531</ele>
        <time>2014-10-30T11:52:59.1Z</time>
      </trkpt>
      <trkpt lat="47.83957" lon="6.67368">
        <ele>531</ele>
        <time>2014-10-30T11:53:01.1Z</time>
      </trkpt>
      <trkpt lat="47.83953" lon="6.67392">
        <ele>531</ele>
        <time>2014-10-30T11:53:04.1Z</time>
      </trkpt>
      <trkpt lat="47.83953" lon="6.67409">
        <ele>531</ele>
        <time>2014-10-30T11:53:06.1Z</time>
      </trkpt>
      <trkpt lat="47.83964" lon="6.67425">
        <ele>531</ele>
        <time>2014-10-30T11:53:09.1Z</time>
      </trkpt>
      <trkpt lat="47.83974" lon="6.67429">
        <ele>531</ele>
        <time>2014-10-30T11:53:11.1Z</time>
      </trkpt>
      <trkpt lat="47.83989" lon="6.67439">
        <ele>531</ele>
        <time>2014-10-30T11:53:14.1Z</time>
      </trkpt>
      <trkpt lat="47.84004" lon="6.6745">
        <ele>531</ele>
        <time>2014-10-30T11:53:17.1Z</time>
      </trkpt>
      <trkpt lat="47.84014" lon="6.67459">
        <ele>531</ele>
        <time>2014-10-30T11:53:19.1Z</time>
      </trkpt>
      <trkpt lat="47.84031" lon="6.67474">
        <ele>530</ele>
        <time>2014-10-30T11:53:22.1Z</time>
      </trkpt>
      <trkpt lat="47.84049" lon="6.67493">
        <ele>529</ele>
        <time>2014-10-30T11:53:25.1Z</time>
      </trkpt>
      <trkpt lat="47.8406" lon="6.6751">
        <ele>528</ele>
        <time>2014-10-30T11:53:27.1Z</time>
      </trkpt>
      <trkpt lat="47.84075" lon="6.6754">
        <ele>527</ele>
        <time>2014-10-30T11:53:30.1Z</time>
      </trkpt>
      <trkpt lat="47.84082" lon="6.67561">
        <ele>527</ele>
        <time>2014-10-30T11:53:32.1Z</time>
      </trkpt>
      <trkpt lat="47.84086" lon="6.67585">
        <ele>526</ele>
        <time>2014-10-30T11:53:34.1Z</time>
      </trkpt>
      <trkpt lat="47.84087" lon="6.6762">
        <ele>525</ele>
        <time>2014-10-30T11:53:37.1Z</time>
      </trkpt>
      <trkpt lat="47.84089" lon="6.67651">
        <ele>525</ele>
        <time>2014-10-30T11:53:40.1Z</time>
      </trkpt>
      <trkpt lat="47.84093" lon="6.67682">
        <ele>524</ele>
        <time>2014-10-30T11:53:43.1Z</time>
      </trkpt>
      <trkpt lat="47.84098" lon="6.67701">
        <ele>524</ele>
        <time>2014-10-30T11:53:45.1Z</time>
      </trkpt>
      <trkpt lat="47.84101" lon="6.67719">
        <ele>524</ele>
        <time>2014-10-30T11:53:47.1Z</time>
      </trkpt>
      <trkpt lat="47.84098" lon="6.67737">
        <ele>524</ele>
        <time>2014-10-30T11:53:49.1Z</time>
      </trkpt>
      <trkpt lat="47.84091" lon="6.67762">
        <ele>524</ele>
        <time>2014-10-30T11:53:52.1Z</time>
      </trkpt>
      <trkpt lat="47.84086" lon="6.67776">
        <ele>523</ele>
        <time>2014-10-30T11:53:54.1Z</time>
      </trkpt>
      <trkpt lat="47.8408" lon="6.67791">
        <ele>523</ele>
        <time>2014-10-30T11:53:56.1Z</time>
      </trkpt>
      <trkpt lat="47.84071" lon="6.67803">
        <ele>523</ele>
        <time>2014-10-30T11:53:58.1Z</time>
      </trkpt>
      <trkpt lat="47.84054" lon="6.67822">
        <ele>523</ele>
        <time>2014-10-30T11:54:01.1Z</time>
      </trkpt>
      <trkpt lat="47.84045" lon="6.67846">
        <ele>522</ele>
        <time>2014-10-30T11:54:04.1Z</time>
      </trkpt>
      <trkpt lat="47.84041" lon="6.67867">
        <ele>523</ele>
        <time>2014-10-30T11:54:07.1Z</time>
      </trkpt>
      <trkpt lat="47.8404" lon="6.67886">
        <ele>524</ele>
        <time>2014-10-30T11:54:10.1Z</time>
      </trkpt>
      <trkpt lat="47.84042" lon="6.67902">
        <ele>525</ele>
        <time>2014-10-30T11:54:13.1Z</time>
      </trkpt>
      <trkpt lat="47.84046" lon="6.67918">
        <ele>524</ele>
        <time>2014-10-30T11:54:16.1Z</time>
      </trkpt>
      <trkpt lat="47.8405" lon="6.6793">
        <ele>525</ele>
        <time>2014-10-30T11:54:18.1Z</time>
      </trkpt>
      <trkpt lat="47.84052" lon="6.6795">
        <ele>525</ele>
        <time>2014-10-30T11:54:21.1Z</time>
      </trkpt>
      <trkpt lat="47.84052" lon="6.67969">
        <ele>525</ele>
        <time>2014-10-30T11:54:24.1Z</time>
      </trkpt>
      <trkpt lat="47.8405" lon="6.67981">
        <ele>525</ele>
        <time>2014-10-30T11:54:26.1Z</time>
      </trkpt>
      <trkpt lat="47.84047" lon="6.67994">
        <ele>525</ele>
        <time>2014-10-30T11:54:28.1Z</time>
      </trkpt>
      <trkpt lat="47.84047" lon="6.68019">
        <ele>524</ele>
        <time>2014-10-30T11:54:31.1Z</time>
      </trkpt>
      <trkpt lat="47.84059" lon="6.68041">
        <ele>521</ele>
        <time>2014-10-30T11:54:34.1Z</time>
      </trkpt>
      <trkpt lat="47.84073" lon="6.68055">
        <ele>518</ele>
        <time>2014-10-30T11:54:36.1Z</time>
      </trkpt>
      <trkpt lat="47.84089" lon="6.68071">
        <ele>516</ele>
        <time>2014-10-30T11:54:38.1Z</time>
      </trkpt>
      <trkpt lat="47.84107" lon="6.68094">
        <ele>514</ele>
        <time>2014-10-30T11:54:41.1Z</time>
      </trkpt>
      <trkpt lat="47.84113" lon="6.68108">
        <ele>513</ele>
        <time>2014-10-30T11:54:43.1Z</time>
      </trkpt>
      <trkpt lat="47.84107" lon="6.68124">
        <ele>513</ele>
        <time>2014-10-30T11:54:46.1Z</time>
      </trkpt>
      <trkpt lat="47.84098" lon="6.6813">
        <ele>513</ele>
        <time>2014-10-30T11:54:48.1Z</time>
      </trkpt>
      <trkpt lat="47.8409" lon="6.68138">
        <ele>513</ele>
        <time>2014-10-30T11:54:51.1Z</time>
      </trkpt>
      <trkpt lat="47.84081" lon="6.68147">
        <ele>514</ele>
        <time>2014-10-30T11:54:54.1Z</time>
      </trkpt>
      <trkpt lat="47.84071" lon="6.68156">
        <ele>514</ele>
        <time>2014-10-30T11:54:57.1Z</time>
      </trkpt>
      <trkpt lat="47.84066" lon="6.68162">
        <ele>514</ele>
        <time>2014-10-30T11:55:00.1Z</time>
      </trkpt>
      <trkpt lat="47.84061" lon="6.68166">
        <ele>514</ele>
        <time>2014-10-30T11:55:02.1Z</time>
      </trkpt>
      <trkpt lat="47.84051" lon="6.6817">
        <ele>513</ele>
        <time>2014-10-30T11:55:05.1Z</time>
      </trkpt>
      <trkpt lat="47.84045" lon="6.68174">
        <ele>513</ele>
        <time>2014-10-30T11:55:07.1Z</time>
      </trkpt>
      <trkpt lat="47.84031" lon="6.68181">
        <ele>513</ele>
        <time>2014-10-30T11:55:10.1Z</time>
      </trkpt>
      <trkpt lat="47.84021" lon="6.68186">
        <ele>512</ele>
        <time>2014-10-30T11:55:12.1Z</time>
      </trkpt>
      <trkpt lat="47.84007" lon="6.68195">
        <ele>511</ele>
        <time>2014-10-30T11:55:15.1Z</time>
      </trkpt>
      <trkpt lat="47.83998" lon="6.68201">
        <ele>511</ele>
        <time>2014-10-30T11:55:17.1Z</time>
      </trkpt>
      <trkpt lat="47.83991" lon="6.6821">
        <ele>510</ele>
        <time>2014-10-30T11:55:19.1Z</time>
      </trkpt>
      <trkpt lat="47.83981" lon="6.68229">
        <ele>510</ele>
        <time>2014-10-30T11:55:22.1Z</time>
      </trkpt>
      <trkpt lat="47.83975" lon="6.68245">
        <ele>509</ele>
        <time>2014-10-30T11:55:24.1Z</time>
      </trkpt>
      <trkpt lat="47.83968" lon="6.68267">
        <ele>508</ele>
        <time>2014-10-30T11:55:27.1Z</time>
      </trkpt>
      <trkpt lat="47.83961" lon="6.68289">
        <ele>508</ele>
        <time>2014-10-30T11:55:30.1Z</time>
      </trkpt>
      <trkpt lat="47.83957" lon="6.68302">
        <ele>509</ele>
        <time>2014-10-30T11:55:32.1Z</time>
      </trkpt>
      <trkpt lat="47.83952" lon="6.68322">
        <ele>509</ele>
        <time>2014-10-30T11:55:35.1Z</time>
      </trkpt>
      <trkpt lat="47.83948" lon="6.68335">
        <ele>508</ele>
        <time>2014-10-30T11:55:37.1Z</time>
      </trkpt>
      <trkpt lat="47.83943" lon="6.68358">
        <ele>508</ele>
        <time>2014-10-30T11:55:40.1Z</time>
      </trkpt>
      <trkpt lat="47.83941" lon="6.68373">
        <ele>509</ele>
        <time>2014-10-30T11:55:42.1Z</time>
      </trkpt>
      <trkpt lat="47.83936" lon="6.68395">
        <ele>510</ele>
        <time>2014-10-30T11:55:45.1Z</time>
      </trkpt>
      <trkpt lat="47.83934" lon="6.68413">
        <ele>510</ele>
        <time>2014-10-30T11:55:48.1Z</time>
      </trkpt>
      <trkpt lat="47.83934" lon="6.68429">
        <ele>511</ele>
        <time>2014-10-30T11:55:51.1Z</time>
      </trkpt>
      <trkpt lat="47.83932" lon="6.68438">
        <ele>512</ele>
        <time>2014-10-30T11:55:53.1Z</time>
      </trkpt>
      <trkpt lat="47.83925" lon="6.68448">
        <ele>512</ele>
        <time>2014-10-30T11:55:56.1Z</time>
      </trkpt>
      <trkpt lat="47.83921" lon="6.68454">
        <ele>512</ele>
        <time>2014-10-30T11:55:58.1Z</time>
      </trkpt>
      <trkpt lat="47.83912" lon="6.68462">
        <ele>512</ele>
        <time>2014-10-30T11:56:01.1Z</time>
      </trkpt>
      <trkpt lat="47.83907" lon="6.68467">
        <ele>512</ele>
        <time>2014-10-30T11:56:03.1Z</time>
      </trkpt>
      <trkpt lat="47.83897" lon="6.68474">
        <ele>511</ele>
        <time>2014-10-30T11:56:06.1Z</time>
      </trkpt>
      <trkpt lat="47.83892" lon="6.68479">
        <ele>510</ele>
        <time>2014-10-30T11:56:08.1Z</time>
      </trkpt>
      <trkpt lat="47.83882" lon="6.68494">
        <ele>510</ele>
        <time>2014-10-30T11:56:11.1Z</time>
      </trkpt>
      <trkpt lat="47.83875" lon="6.68505">
        <ele>509</ele>
        <time>2014-10-30T11:56:13.1Z</time>
      </trkpt>
      <trkpt lat="47.83869" lon="6.68517">
        <ele>509</ele>
        <time>2014-10-30T11:56:15.1Z</time>
      </trkpt>
      <trkpt lat="47.8386" lon="6.68538">
        <ele>507</ele>
        <time>2014-10-30T11:56:18.1Z</time>
      </trkpt>
      <trkpt lat="47.8385" lon="6.68555">
        <ele>507</ele>
        <time>2014-10-30T11:56:21.1Z</time>
      </trkpt>
      <trkpt lat="47.83846" lon="6.68566">
        <ele>505</ele>
        <time>2014-10-30T11:56:24.1Z</time>
      </trkpt>
      <trkpt lat="47.83841" lon="6.68572">
        <ele>505</ele>
        <time>2014-10-30T11:56:26.1Z</time>
      </trkpt>
      <trkpt lat="47.83836" lon="6.6858">
        <ele>504</ele>
        <time>2014-10-30T11:56:29.1Z</time>
      </trkpt>
      <trkpt lat="47.83834" lon="6.68586">
        <ele>503</ele>
        <time>2014-10-30T11:56:31.1Z</time>
      </trkpt>
      <trkpt lat="47.8383" lon="6.68599">
        <ele>502</ele>
        <time>2014-10-30T11:56:34.1Z</time>
      </trkpt>
      <trkpt lat="47.83828" lon="6.6861">
        <ele>500</ele>
        <time>2014-10-30T11:56:37.1Z</time>
      </trkpt>
      <trkpt lat="47.83825" lon="6.68623">
        <ele>499</ele>
        <time>2014-10-30T11:56:40.1Z</time>
      </trkpt>
      <trkpt lat="47.83823" lon="6.68635">
        <ele>497</ele>
        <time>2014-10-30T11:56:43.1Z</time>
      </trkpt>
      <trkpt lat="47.83823" lon="6.68648">
        <ele>495</ele>
        <time>2014-10-30T11:56:46.1Z</time>
      </trkpt>
      <trkpt lat="47.83824" lon="6.68659">
        <ele>494</ele>
        <time>2014-10-30T11:56:49.1Z</time>
      </trkpt>
      <trkpt lat="47.83823" lon="6.6867">
        <ele>492</ele>
        <time>2014-10-30T11:56:52.1Z</time>
      </trkpt>
      <trkpt lat="47.83825" lon="6.68677">
        <ele>492</ele>
        <time>2014-10-30T11:56:55.1Z</time>
      </trkpt>
      <trkpt lat="47.83828" lon="6.68684">
        <ele>491</ele>
        <time>2014-10-30T11:56:58.1Z</time>
      </trkpt>
      <trkpt lat="47.83831" lon="6.6869">
        <ele>492</ele>
        <time>2014-10-30T11:57:01.1Z</time>
      </trkpt>
      <trkpt lat="47.83836" lon="6.68696">
        <ele>493</ele>
        <time>2014-10-30T11:57:04.1Z</time>
      </trkpt>
      <trkpt lat="47.83838" lon="6.68701">
        <ele>494</ele>
        <time>2014-10-30T11:57:06.1Z</time>
      </trkpt>
      <trkpt lat="47.83838" lon="6.68704">
        <ele>494</ele>
        <time>2014-10-30T11:57:08.1Z</time>
      </trkpt>
      <trkpt lat="47.83839" lon="6.68709">
        <ele>495</ele>
        <time>2014-10-30T11:57:11.1Z</time>
      </trkpt>
      <trkpt lat="47.8384" lon="6.68712">
        <ele>495</ele>
        <time>2014-10-30T11:57:13.1Z</time>
      </trkpt>
      <trkpt lat="47.83842" lon="6.68717">
        <ele>496</ele>
        <time>2014-10-30T11:57:16.1Z</time>
      </trkpt>
      <trkpt lat="47.83844" lon="6.68722">
        <ele>496</ele>
        <time>2014-10-30T11:57:19.1Z</time>
      </trkpt>
      <trkpt lat="47.83844" lon="6.68727">
        <ele>497</ele>
        <time>2014-10-30T11:57:22.1Z</time>
      </trkpt>
      <trkpt lat="47.83845" lon="6.68732">
        <ele>497</ele>
        <time>2014-10-30T11:57:25.1Z</time>
      </trkpt>
      <trkpt lat="47.83846" lon="6.68736">
        <ele>498</ele>
        <time>2014-10-30T11:57:28.1Z</time>
      </trkpt>
      <trkpt lat="47.83846" lon="6.68738">
        <ele>499</ele>
        <time>2014-10-30T11:57:31.1Z</time>
      </trkpt>
      <trkpt lat="47.83846" lon="6.68739">
        <ele>498</ele>
        <time>2014-10-30T11:57:33.1Z</time>
      </trkpt>
      <trkpt lat="47.83846" lon="6.6874">
        <ele>498</ele>
        <time>2014-10-30T11:57:36.1Z</time>
      </trkpt>
      <trkpt lat="47.83847" lon="6.6874">
        <ele>498</ele>
        <time>2014-10-30T11:57:38.1Z</time>
      </trkpt>
      <trkpt lat="47.83847" lon="6.68742">
        <ele>498</ele>
        <time>2014-10-30T11:57:41.1Z</time>
      </trkpt>
      <trkpt lat="47.83848" lon="6.68742">
        <ele>498</ele>
        <time>2014-10-30T11:57:43.1Z</time>
      </trkpt>
      <trkpt lat="47.83848" lon="6.68742">
        <ele>498</ele>
        <time>2014-10-30T11:57:46.1Z</time>
      </trkpt>
      <trkpt lat="47.83848" lon="6.68742">
        <ele>498</ele>
        <time>2014-10-30T11:57:49.1Z</time>
      </trkpt>
      <trkpt lat="47.83849" lon="6.68742">
        <ele>498</ele>
        <time>2014-10-30T11:57:52.1Z</time>
      </trkpt>
      <trkpt lat="47.83849" lon="6.68743">
        <ele>499</ele>
        <time>2014-10-30T11:57:54.1Z</time>
      </trkpt>
      <trkpt lat="47.8385" lon="6.68742">
        <ele>499</ele>
        <time>2014-10-30T11:57:57.1Z</time>
      </trkpt>
      <trkpt lat="47.83851" lon="6.68742">
        <ele>499</ele>
        <time>2014-10-30T11:58:00.1Z</time>
      </trkpt>
      <trkpt lat="47.83851" lon="6.68742">
        <ele>498</ele>
        <time>2014-10-30T11:58:02.1Z</time>
      </trkpt>
      <trkpt lat="47.83852" lon="6.68743">
        <ele>498</ele>
        <time>2014-10-30T11:58:05.1Z</time>
      </trkpt>
      <trkpt lat="47.83852" lon="6.68743">
        <ele>499</ele>
        <time>2014-10-30T11:58:07.1Z</time>
      </trkpt>
      <trkpt lat="47.83853" lon="6.68744">
        <ele>499</ele>
        <time>2014-10-30T11:58:10.1Z</time>
      </trkpt>
      <trkpt lat="47.83854" lon="6.68745">
        <ele>499</ele>
        <time>2014-10-30T11:58:13.1Z</time>
      </trkpt>
      <trkpt lat="47.83854" lon="6.68747">
        <ele>498</ele>
        <time>2014-10-30T11:58:16.1Z</time>
      </trkpt>
      <trkpt lat="47.83854" lon="6.68749">
        <ele>499</ele>
        <time>2014-10-30T11:58:19.1Z</time>
      </trkpt>
      <trkpt lat="47.83855" lon="6.6875">
        <ele>499</ele>
        <time>2014-10-30T11:58:21.1Z</time>
      </trkpt>
      <trkpt lat="47.83857" lon="6.68753">
        <ele>499</ele>
        <time>2014-10-30T11:58:23.1Z</time>
      </trkpt>
      <trkpt lat="47.83858" lon="6.68758">
        <ele>499</ele>
        <time>2014-10-30T11:58:25.1Z</time>
      </trkpt>
      <trkpt lat="47.83862" lon="6.68766">
        <ele>498</ele>
        <time>2014-10-30T11:58:28.1Z</time>
      </trkpt>
      <trkpt lat="47.83866" lon="6.68774">
        <ele>499</ele>
        <time>2014-10-30T11:58:31.1Z</time>
      </trkpt>
      <trkpt lat="47.8387" lon="6.68779">
        <ele>500</ele>
        <time>2014-10-30T11:58:33.1Z</time>
      </trkpt>
      <trkpt lat="47.83873" lon="6.68784">
        <ele>502</ele>
        <time>2014-10-30T11:58:36.1Z</time>
      </trkpt>
      <trkpt lat="47.83876" lon="6.68789">
        <ele>503</ele>
        <time>2014-10-30T11:58:39.1Z</time>
      </trkpt>
      <trkpt lat="47.8388" lon="6.68795">
        <ele>503</ele>
        <time>2014-10-30T11:58:42.1Z</time>
      </trkpt>
      <trkpt lat="47.83883" lon="6.688">
        <ele>504</ele>
        <time>2014-10-30T11:58:45.1Z</time>
      </trkpt>
      <trkpt lat="47.83887" lon="6.68805">
        <ele>504</ele>
        <time>2014-10-30T11:58:48.1Z</time>
      </trkpt>
      <trkpt lat="47.83889" lon="6.68809">
        <ele>504</ele>
        <time>2014-10-30T11:58:50.1Z</time>
      </trkpt>
      <trkpt lat="47.83892" lon="6.68812">
        <ele>504</ele>
        <time>2014-10-30T11:58:52.1Z</time>
      </trkpt>
      <trkpt lat="47.83896" lon="6.68816">
        <ele>505</ele>
        <time>2014-10-30T11:58:55.1Z</time>
      </trkpt>
      <trkpt lat="47.83898" lon="6.68819">
        <ele>505</ele>
        <time>2014-10-30T11:58:57.1Z</time>
      </trkpt>
      <trkpt lat="47.83902" lon="6.68823">
        <ele>506</ele>
        <time>2014-10-30T11:59:00.1Z</time>
      </trkpt>
      <trkpt lat="47.83905" lon="6.68826">
        <ele>507</ele>
        <time>2014-10-30T11:59:03.1Z</time>
      </trkpt>
      <trkpt lat="47.83907" lon="6.68828">
        <ele>507</ele>
        <time>2014-10-30T11:59:05.1Z</time>
      </trkpt>
      <trkpt lat="47.8391" lon="6.68831">
        <ele>507</ele>
        <time>2014-10-30T11:59:08.1Z</time>
      </trkpt>
      <trkpt lat="47.83913" lon="6.68833">
        <ele>508</ele>
        <time>2014-10-30T11:59:11.1Z</time>
      </trkpt>
      <trkpt lat="47.83915" lon="6.68835">
        <ele>509</ele>
        <time>2014-10-30T11:59:14.1Z</time>
      </trkpt>
      <trkpt lat="47.83915" lon="6.68837">
        <ele>509</ele>
        <time>2014-10-30T11:59:16.1Z</time>
      </trkpt>
      <trkpt lat="47.83916" lon="6.68838">
        <ele>510</ele>
        <time>2014-10-30T11:59:18.1Z</time>
      </trkpt>
      <trkpt lat="47.83919" lon="6.6884">
        <ele>510</ele>
        <time>2014-10-30T11:59:21.1Z</time>
      </trkpt>
      <trkpt lat="47.83921" lon="6.68841">
        <ele>510</ele>
        <time>2014-10-30T11:59:24.1Z</time>
      </trkpt>
      <trkpt lat="47.83923" lon="6.68841">
        <ele>510</ele>
        <time>2014-10-30T11:59:26.1Z</time>
      </trkpt>
      <trkpt lat="47.83926" lon="6.68842">
        <ele>511</ele>
        <time>2014-10-30T11:59:29.1Z</time>
      </trkpt>
      <trkpt lat="47.83927" lon="6.68842">
        <ele>511</ele>
        <time>2014-10-30T11:59:32.1Z</time>
      </trkpt>
      <trkpt lat="47.83928" lon="6.68843">
        <ele>511</ele>
        <time>2014-10-30T11:59:34.1Z</time>
      </trkpt>
      <trkpt lat="47.83928" lon="6.68844">
        <ele>511</ele>
        <time>2014-10-30T11:59:37.1Z</time>
      </trkpt>
      <trkpt lat="47.83929" lon="6.68844">
        <ele>511</ele>
        <time>2014-10-30T11:59:40.1Z</time>
      </trkpt>
      <trkpt lat="47.83929" lon="6.68845">
        <ele>511</ele>
        <time>2014-10-30T11:59:43.1Z</time>
      </trkpt>
      <trkpt lat="47.8393" lon="6.68845">
        <ele>511</ele>
        <time>2014-10-30T11:59:46.1Z</time>
      </trkpt>
      <trkpt lat="47.83931" lon="6.68846">
        <ele>512</ele>
        <time>2014-10-30T11:59:48.1Z</time>
      </trkpt>
      <trkpt lat="47.83935" lon="6.68847">
        <ele>512</ele>
        <time>2014-10-30T11:59:51.1Z</time>
      </trkpt>
      <trkpt lat="47.83939" lon="6.68848">
        <ele>512</ele>
        <time>2014-10-30T11:59:54.1Z</time>
      </trkpt>
      <trkpt lat="47.83942" lon="6.68849">
        <ele>512</ele>
        <time>2014-10-30T11:59:57.1Z</time>
      </trkpt>
      <trkpt lat="47.83943" lon="6.68849">
        <ele>512</ele>
        <time>2014-10-30T11:59:59.1Z</time>
      </trkpt>
      <trkpt lat="47.83944" lon="6.6885">
        <ele>512</ele>
        <time>2014-10-30T12:00:02.1Z</time>
      </trkpt>
      <trkpt lat="47.83944" lon="6.6885">
        <ele>512</ele>
        <time>2014-10-30T12:00:04.1Z</time>
      </trkpt>
      <trkpt lat="47.83945" lon="6.6885">
        <ele>512</ele>
        <time>2014-10-30T12:00:07.1Z</time>
      </trkpt>
      <trkpt lat="47.83947" lon="6.68852">
        <ele>512</ele>
        <time>2014-10-30T12:00:10.1Z</time>
      </trkpt>
      <trkpt lat="47.8395" lon="6.68852">
        <ele>512</ele>
        <time>2014-10-30T12:00:12.1Z</time>
      </trkpt>
      <trkpt lat="47.83955" lon="6.68854">
        <ele>512</ele>
        <time>2014-10-30T12:00:15.1Z</time>
      </trkpt>
      <trkpt lat="47.83958" lon="6.68854">
        <ele>512</ele>
        <time>2014-10-30T12:00:17.1Z</time>
      </trkpt>
      <trkpt lat="47.83962" lon="6.68853">
        <ele>512</ele>
        <time>2014-10-30T12:00:19.1Z</time>
      </trkpt>
      <trkpt lat="47.83966" lon="6.68853">
        <ele>512</ele>
        <time>2014-10-30T12:00:22.1Z</time>
      </trkpt>
      <trkpt lat="47.8397" lon="6.6885">
        <ele>512</ele>
        <time>2014-10-30T12:00:25.1Z</time>
      </trkpt>
      <trkpt lat="47.83974" lon="6.68844">
        <ele>512</ele>
        <time>2014-10-30T12:00:28.1Z</time>
      </trkpt>
      <trkpt lat="47.83978" lon="6.6884">
        <ele>513</ele>
        <time>2014-10-30T12:00:30.1Z</time>
      </trkpt>
      <trkpt lat="47.83981" lon="6.68834">
        <ele>513</ele>
        <time>2014-10-30T12:00:32.1Z</time>
      </trkpt>
      <trkpt lat="47.8399" lon="6.68825">
        <ele>513</ele>
        <time>2014-10-30T12:00:35.1Z</time>
      </trkpt>
      <trkpt lat="47.83997" lon="6.68819">
        <ele>513</ele>
        <time>2014-10-30T12:00:37.1Z</time>
      </trkpt>
      <trkpt lat="47.84007" lon="6.68803">
        <ele>510</ele>
        <time>2014-10-30T12:00:40.1Z</time>
      </trkpt>
      <trkpt lat="47.84018" lon="6.68789">
        <ele>509</ele>
        <time>2014-10-30T12:00:43.1Z</time>
      </trkpt>
      <trkpt lat="47.84025" lon="6.68777">
        <ele>509</ele>
        <time>2014-10-30T12:00:45.1Z</time>
      </trkpt>
      <trkpt lat="47.84039" lon="6.68759">
        <ele>509</ele>
        <time>2014-10-30T12:00:48.1Z</time>
      </trkpt>
      <trkpt lat="47.84051" lon="6.6874">
        <ele>509</ele>
        <time>2014-10-30T12:00:51.1Z</time>
      </trkpt>
      <trkpt lat="47.84061" lon="6.68722">
        <ele>509</ele>
        <time>2014-10-30T12:00:54.1Z</time>
      </trkpt>
      <trkpt lat="47.84067" lon="6.6871">
        <ele>510</ele>
        <time>2014-10-30T12:00:57.1Z</time>
      </trkpt>
      <trkpt lat="47.84074" lon="6.687">
        <ele>511</ele>
        <time>2014-10-30T12:01:00.1Z</time>
      </trkpt>
      <trkpt lat="47.8408" lon="6.68689">
        <ele>512</ele>
        <time>2014-10-30T12:01:03.1Z</time>
      </trkpt>
      <trkpt lat="47.84084" lon="6.68681">
        <ele>512</ele>
        <time>2014-10-30T12:01:05.1Z</time>
      </trkpt>
      <trkpt lat="47.84087" lon="6.68674">
        <ele>513</ele>
        <time>2014-10-30T12:01:07.1Z</time>
      </trkpt>
      <trkpt lat="47.84093" lon="6.68667">
        <ele>514</ele>
        <time>2014-10-30T12:01:10.1Z</time>
      </trkpt>
      <trkpt lat="47.84099" lon="6.68665">
        <ele>515</ele>
        <time>2014-10-30T12:01:13.1Z</time>
      </trkpt>
      <trkpt lat="47.84103" lon="6.68663">
        <ele>516</ele>
        <time>2014-10-30T12:01:16.1Z</time>
      </trkpt>
      <trkpt lat="47.84107" lon="6.68663">
        <ele>517</ele>
        <time>2014-10-30T12:01:19.1Z</time>
      </trkpt>
      <trkpt lat="47.84112" lon="6.68665">
        <ele>517</ele>
        <time>2014-10-30T12:01:22.1Z</time>
      </trkpt>
      <trkpt lat="47.84117" lon="6.6867">
        <ele>517</ele>
        <time>2014-10-30T12:01:24.1Z</time>
      </trkpt>
      <trkpt lat="47.84126" lon="6.68675">
        <ele>516</ele>
        <time>2014-10-30T12:01:27.1Z</time>
      </trkpt>
      <trkpt lat="47.84133" lon="6.68677">
        <ele>516</ele>
        <time>2014-10-30T12:01:29.1Z</time>
      </trkpt>
      <trkpt lat="47.84143" lon="6.68678">
        <ele>516</ele>
        <time>2014-10-30T12:01:32.1Z</time>
      </trkpt>
      <trkpt lat="47.8415" lon="6.68681">
        <ele>516</ele>
        <time>2014-10-30T12:01:35.1Z</time>
      </trkpt>
      <trkpt lat="47.84157" lon="6.68684">
        <ele>517</ele>
        <time>2014-10-30T12:01:38.1Z</time>
      </trkpt>
      <trkpt lat="47.84161" lon="6.68684">
        <ele>517</ele>
        <time>2014-10-30T12:01:40.1Z</time>
      </trkpt>
      <trkpt lat="47.84164" lon="6.68686">
        <ele>518</ele>
        <time>2014-10-30T12:01:42.1Z</time>
      </trkpt>
      <trkpt lat="47.8417" lon="6.68689">
        <ele>518</ele>
        <time>2014-10-30T12:01:45.1Z</time>
      </trkpt>
      <trkpt lat="47.84173" lon="6.6869">
        <ele>519</ele>
        <time>2014-10-30T12:01:47.1Z</time>
      </trkpt>
      <trkpt lat="47.84178" lon="6.68691">
        <ele>519</ele>
        <time>2014-10-30T12:01:50.1Z</time>
      </trkpt>
      <trkpt lat="47.84182" lon="6.68691">
        <ele>520</ele>
        <time>2014-10-30T12:01:52.1Z</time>
      </trkpt>
      <trkpt lat="47.84184" lon="6.68689">
        <ele>521</ele>
        <time>2014-10-30T12:01:54.1Z</time>
      </trkpt>
      <trkpt lat="47.84187" lon="6.68685">
        <ele>521</ele>
        <time>2014-10-30T12:01:57.1Z</time>
      </trkpt>
      <trkpt lat="47.84187" lon="6.68681">
        <ele>522</ele>
        <time>2014-10-30T12:01:59.1Z</time>
      </trkpt>
      <trkpt lat="47.84188" lon="6.68676">
        <ele>522</ele>
        <time>2014-10-30T12:02:02.1Z</time>
      </trkpt>
      <trkpt lat="47.84189" lon="6.68671">
        <ele>523</ele>
        <time>2014-10-30T12:02:05.1Z</time>
      </trkpt>
      <trkpt lat="47.84191" lon="6.68666">
        <ele>523</ele>
        <time>2014-10-30T12:02:08.1Z</time>
      </trkpt>
      <trkpt lat="47.84193" lon="6.68661">
        <ele>524</ele>
        <time>2014-10-30T12:02:11.1Z</time>
      </trkpt>
      <trkpt lat="47.84196" lon="6.68656">
        <ele>524</ele>
        <time>2014-10-30T12:02:14.1Z</time>
      </trkpt>
      <trkpt lat="47.84198" lon="6.68651">
        <ele>525</ele>
        <time>2014-10-30T12:02:17.1Z</time>
      </trkpt>
      <trkpt lat="47.84199" lon="6.68648">
        <ele>525</ele>
        <time>2014-10-30T12:02:19.1Z</time>
      </trkpt>
      <trkpt lat="47.842" lon="6.68645">
        <ele>525</ele>
        <time>2014-10-30T12:02:21.1Z</time>
      </trkpt>
      <trkpt lat="47.84202" lon="6.6864">
        <ele>525</ele>
        <time>2014-10-30T12:02:24.1Z</time>
      </trkpt>
      <trkpt lat="47.84203" lon="6.68637">
        <ele>525</ele>
        <time>2014-10-30T12:02:27.1Z</time>
      </trkpt>
      <trkpt lat="47.84205" lon="6.68634">
        <ele>526</ele>
        <time>2014-10-30T12:02:29.1Z</time>
      </trkpt>
      <trkpt lat="47.84206" lon="6.6863">
        <ele>526</ele>
        <time>2014-10-30T12:02:32.1Z</time>
      </trkpt>
      <trkpt lat="47.84207" lon="6.68627">
        <ele>527</ele>
        <time>2014-10-30T12:02:34.1Z</time>
      </trkpt>
      <trkpt lat="47.84208" lon="6.68623">
        <ele>527</ele>
        <time>2014-10-30T12:02:37.1Z</time>
      </trkpt>
      <trkpt lat="47.84209" lon="6.6862">
        <ele>527</ele>
        <time>2014-10-30T12:02:39.1Z</time>
      </trkpt>
      <trkpt lat="47.84211" lon="6.68617">
        <ele>528</ele>
        <time>2014-10-30T12:02:42.1Z</time>
      </trkpt>
      <trkpt lat="47.84212" lon="6.68614">
        <ele>528</ele>
        <time>2014-10-30T12:02:45.1Z</time>
      </trkpt>
      <trkpt lat="47.84212" lon="6.68611">
        <ele>529</ele>
        <time>2014-10-30T12:02:47.1Z</time>
      </trkpt>
      <trkpt lat="47.84214" lon="6.68609">
        <ele>529</ele>
        <time>2014-10-30T12:02:50.1Z</time>
      </trkpt>
      <trkpt lat="47.84215" lon="6.68607">
        <ele>529</ele>
        <time>2014-10-30T12:02:52.1Z</time>
      </trkpt>
      <trkpt lat="47.84216" lon="6.68605">
        <ele>530</ele>
        <time>2014-10-30T12:02:54.1Z</time>
      </trkpt>
      <trkpt lat="47.84218" lon="6.68602">
        <ele>531</ele>
        <time>2014-10-30T12:02:57.1Z</time>
      </trkpt>
      <trkpt lat="47.8422" lon="6.68601">
        <ele>532</ele>
        <time>2014-10-30T12:03:00.1Z</time>
      </trkpt>
      <trkpt lat="47.84222" lon="6.686">
        <ele>532</ele>
        <time>2014-10-30T12:03:02.1Z</time>
      </trkpt>
      <trkpt lat="47.84224" lon="6.68598">
        <ele>532</ele>
        <time>2014-10-30T12:03:05.1Z</time>
      </trkpt>
      <trkpt lat="47.84226" lon="6.68596">
        <ele>533</ele>
        <time>2014-10-30T12:03:08.1Z</time>
      </trkpt>
      <trkpt lat="47.84227" lon="6.68596">
        <ele>533</ele>
        <time>2014-10-30T12:03:10.1Z</time>
      </trkpt>
      <trkpt lat="47.8423" lon="6.68594">
        <ele>533</ele>
        <time>2014-10-30T12:03:13.1Z</time>
      </trkpt>
      <trkpt lat="47.84232" lon="6.68593">
        <ele>533</ele>
        <time>2014-10-30T12:03:15.1Z</time>
      </trkpt>
      <trkpt lat="47.84235" lon="6.68592">
        <ele>534</ele>
        <time>2014-10-30T12:03:18.1Z</time>
      </trkpt>
      <trkpt lat="47.84237" lon="6.6859">
        <ele>534</ele>
        <time>2014-10-30T12:03:21.1Z</time>
      </trkpt>
      <trkpt lat="47.84239" lon="6.68589">
        <ele>535</ele>
        <time>2014-10-30T12:03:24.1Z</time>
      </trkpt>
      <trkpt lat="47.8424" lon="6.68588">
        <ele>535</ele>
        <time>2014-10-30T12:03:26.1Z</time>
      </trkpt>
      <trkpt lat="47.84242" lon="6.68586">
        <ele>535</ele>
        <time>2014-10-30T12:03:28.1Z</time>
      </trkpt>
      <trkpt lat="47.84243" lon="6.68585">
        <ele>535</ele>
        <time>2014-10-30T12:03:30.1Z</time>
      </trkpt>
      <trkpt lat="47.84246" lon="6.68583">
        <ele>536</ele>
        <time>2014-10-30T12:03:33.1Z</time>
      </trkpt>
      <trkpt lat="47.84247" lon="6.68581">
        <ele>536</ele>
        <time>2014-10-30T12:03:35.1Z</time>
      </trkpt>
      <trkpt lat="47.84248" lon="6.68578">
        <ele>536</ele>
        <time>2014-10-30T12:03:37.1Z</time>
      </trkpt>
      <trkpt lat="47.8425" lon="6.68576">
        <ele>535</ele>
        <time>2014-10-30T12:03:39.1Z</time>
      </trkpt>
      <trkpt lat="47.84252" lon="6.68574">
        <ele>536</ele>
        <time>2014-10-30T12:03:42.1Z</time>
      </trkpt>
      <trkpt lat="47.84254" lon="6.68574">
        <ele>536</ele>
        <time>2014-10-30T12:03:44.1Z</time>
      </trkpt>
      <trkpt lat="47.84256" lon="6.68573">
        <ele>537</ele>
        <time>2014-10-30T12:03:46.1Z</time>
      </trkpt>
      <trkpt lat="47.84258" lon="6.68574">
        <ele>537</ele>
        <time>2014-10-30T12:03:48.1Z</time>
      </trkpt>
      <trkpt lat="47.84261" lon="6.68574">
        <ele>537</ele>
        <time>2014-10-30T12:03:51.1Z</time>
      </trkpt>
      <trkpt lat="47.84264" lon="6.68574">
        <ele>537</ele>
        <time>2014-10-30T12:03:53.1Z</time>
      </trkpt>
      <trkpt lat="47.84268" lon="6.68574">
        <ele>538</ele>
        <time>2014-10-30T12:03:56.1Z</time>
      </trkpt>
      <trkpt lat="47.84271" lon="6.68574">
        <ele>538</ele>
        <time>2014-10-30T12:03:58.1Z</time>
      </trkpt>
      <trkpt lat="47.84275" lon="6.68574">
        <ele>538</ele>
        <time>2014-10-30T12:04:01.1Z</time>
      </trkpt>
      <trkpt lat="47.84278" lon="6.68576">
        <ele>538</ele>
        <time>2014-10-30T12:04:04.1Z</time>
      </trkpt>
      <trkpt lat="47.84281" lon="6.68576">
        <ele>539</ele>
        <time>2014-10-30T12:04:06.1Z</time>
      </trkpt>
      <trkpt lat="47.84285" lon="6.68578">
        <ele>539</ele>
        <time>2014-10-30T12:04:09.1Z</time>
      </trkpt>
      <trkpt lat="47.84287" lon="6.68579">
        <ele>539</ele>
        <time>2014-10-30T12:04:12.1Z</time>
      </trkpt>
      <trkpt lat="47.84288" lon="6.68579">
        <ele>539</ele>
        <time>2014-10-30T12:04:14.1Z</time>
      </trkpt>
      <trkpt lat="47.84289" lon="6.68579">
        <ele>539</ele>
        <time>2014-10-30T12:04:17.1Z</time>
      </trkpt>
      <trkpt lat="47.84291" lon="6.68581">
        <ele>539</ele>
        <time>2014-10-30T12:04:20.1Z</time>
      </trkpt>
      <trkpt lat="47.84294" lon="6.68584">
        <ele>539</ele>
        <time>2014-10-30T12:04:22.1Z</time>
      </trkpt>
      <trkpt lat="47.84298" lon="6.68587">
        <ele>539</ele>
        <time>2014-10-30T12:04:25.1Z</time>
      </trkpt>
      <trkpt lat="47.84301" lon="6.68591">
        <ele>540</ele>
        <time>2014-10-30T12:04:28.1Z</time>
      </trkpt>
      <trkpt lat="47.84302" lon="6.68593">
        <ele>540</ele>
        <time>2014-10-30T12:04:30.1Z</time>
      </trkpt>
      <trkpt lat="47.84305" lon="6.68595">
        <ele>541</ele>
        <time>2014-10-30T12:04:33.1Z</time>
      </trkpt>
      <trkpt lat="47.84307" lon="6.68597">
        <ele>541</ele>
        <time>2014-10-30T12:04:35.1Z</time>
      </trkpt>
      <trkpt lat="47.8431" lon="6.68598">
        <ele>541</ele>
        <time>2014-10-30T12:04:37.1Z</time>
      </trkpt>
      <trkpt lat="47.84314" lon="6.68602">
        <ele>542</ele>
        <time>2014-10-30T12:04:40.1Z</time>
      </trkpt>
      <trkpt lat="47.84316" lon="6.68604">
        <ele>542</ele>
        <time>2014-10-30T12:04:42.1Z</time>
      </trkpt>
      <trkpt lat="47.84318" lon="6.68607">
        <ele>542</ele>
        <time>2014-10-30T12:04:44.1Z</time>
      </trkpt>
      <trkpt lat="47.84322" lon="6.6861">
        <ele>543</ele>
        <time>2014-10-30T12:04:47.1Z</time>
      </trkpt>
      <trkpt lat="47.84324" lon="6.68611">
        <ele>543</ele>
        <time>2014-10-30T12:04:49.1Z</time>
      </trkpt>
      <trkpt lat="47.84327" lon="6.68613">
        <ele>543</ele>
        <time>2014-10-30T12:04:51.1Z</time>
      </trkpt>
      <trkpt lat="47.84331" lon="6.68616">
        <ele>543</ele>
        <time>2014-10-30T12:04:54.1Z</time>
      </trkpt>
      <trkpt lat="47.84333" lon="6.68619">
        <ele>544</ele>
        <time>2014-10-30T12:04:56.1Z</time>
      </trkpt>
      <trkpt lat="47.84337" lon="6.68621">
        <ele>544</ele>
        <time>2014-10-30T12:04:59.1Z</time>
      </trkpt>
      <trkpt lat="47.8434" lon="6.68625">
        <ele>544</ele>
        <time>2014-10-30T12:05:02.1Z</time>
      </trkpt>
      <trkpt lat="47.84343" lon="6.68628">
        <ele>545</ele>
        <time>2014-10-30T12:05:05.1Z</time>
      </trkpt>
      <trkpt lat="47.84348" lon="6.68631">
        <ele>545</ele>
        <time>2014-10-30T12:05:08.1Z</time>
      </trkpt>
      <trkpt lat="47.8435" lon="6.68633">
        <ele>545</ele>
        <time>2014-10-30T12:05:10.1Z</time>
      </trkpt>
      <trkpt lat="47.84355" lon="6.68636">
        <ele>546</ele>
        <time>2014-10-30T12:05:13.1Z</time>
      </trkpt>
      <trkpt lat="47.84359" lon="6.68639">
        <ele>546</ele>
        <time>2014-10-30T12:05:16.1Z</time>
      </trkpt>
      <trkpt lat="47.84362" lon="6.68641">
        <ele>546</ele>
        <time>2014-10-30T12:05:18.1Z</time>
      </trkpt>
      <trkpt lat="47.84367" lon="6.68644">
        <ele>546</ele>
        <time>2014-10-30T12:05:21.1Z</time>
      </trkpt>
      <trkpt lat="47.8437" lon="6.68646">
        <ele>547</ele>
        <time>2014-10-30T12:05:23.1Z</time>
      </trkpt>
      <trkpt lat="47.84375" lon="6.68649">
        <ele>547</ele>
        <time>2014-10-30T12:05:26.1Z</time>
      </trkpt>
      <trkpt lat="47.8438" lon="6.68651">
        <ele>547</ele>
        <time>2014-10-30T12:05:29.1Z</time>
      </trkpt>
      <trkpt lat="47.84384" lon="6.68654">
        <ele>548</ele>
        <time>2014-10-30T12:05:31.1Z</time>
      </trkpt>
      <trkpt lat="47.84387" lon="6.68655">
        <ele>548</ele>
        <time>2014-10-30T12:05:33.1Z</time>
      </trkpt>
      <trkpt lat="47.8439" lon="6.68657">
        <ele>548</ele>
        <time>2014-10-30T12:05:35.1Z</time>
      </trkpt>
      <trkpt lat="47.84395" lon="6.6866">
        <ele>548</ele>
        <time>2014-10-30T12:05:38.1Z</time>
      </trkpt>
      <trkpt lat="47.844" lon="6.68664">
        <ele>549</ele>
        <time>2014-10-30T12:05:41.1Z</time>
      </trkpt>
      <trkpt lat="47.84405" lon="6.68667">
        <ele>549</ele>
        <time>2014-10-30T12:05:44.1Z</time>
      </trkpt>
      <trkpt lat="47.84409" lon="6.68669">
        <ele>549</ele>
        <time>2014-10-30T12:05:46.1Z</time>
      </trkpt>
      <trkpt lat="47.84414" lon="6.68672">
        <ele>549</ele>
        <time>2014-10-30T12:05:49.1Z</time>
      </trkpt>
      <trkpt lat="47.84419" lon="6.68674">
        <ele>549</ele>
        <time>2014-10-30T12:05:52.1Z</time>
      </trkpt>
      <trkpt lat="47.84423" lon="6.68675">
        <ele>550</ele>
        <time>2014-10-30T12:05:54.1Z</time>
      </trkpt>
      <trkpt lat="47.84427" lon="6.68676">
        <ele>550</ele>
        <time>2014-10-30T12:05:57.1Z</time>
      </trkpt>
      <trkpt lat="47.84431" lon="6.68678">
        <ele>551</ele>
        <time>2014-10-30T12:06:00.1Z</time>
      </trkpt>
      <trkpt lat="47.84435" lon="6.68679">
        <ele>551</ele>
        <time>2014-10-30T12:06:03.1Z</time>
      </trkpt>
      <trkpt lat="47.84438" lon="6.6868">
        <ele>552</ele>
        <time>2014-10-30T12:06:06.1Z</time>
      </trkpt>
      <trkpt lat="47.84441" lon="6.6868">
        <ele>553</ele>
        <time>2014-10-30T12:06:09.1Z</time>
      </trkpt>
      <trkpt lat="47.84443" lon="6.6868">
        <ele>553</ele>
        <time>2014-10-30T12:06:11.1Z</time>
      </trkpt>
      <trkpt lat="47.84445" lon="6.68681">
        <ele>554</ele>
        <time>2014-10-30T12:06:13.1Z</time>
      </trkpt>
      <trkpt lat="47.84449" lon="6.68682">
        <ele>554</ele>
        <time>2014-10-30T12:06:16.1Z</time>
      </trkpt>
      <trkpt lat="47.84451" lon="6.68683">
        <ele>554</ele>
        <time>2014-10-30T12:06:18.1Z</time>
      </trkpt>
      <trkpt lat="47.84455" lon="6.68683">
        <ele>554</ele>
        <time>2014-10-30T12:06:21.1Z</time>
      </trkpt>
      <trkpt lat="47.84457" lon="6.68684">
        <ele>554</ele>
        <time>2014-10-30T12:06:23.1Z</time>
      </trkpt>
      <trkpt lat="47.84461" lon="6.68686">
        <ele>555</ele>
        <time>2014-10-30T12:06:26.1Z</time>
      </trkpt>
      <trkpt lat="47.84465" lon="6.68686">
        <ele>555</ele>
        <time>2014-10-30T12:06:29.1Z</time>
      </trkpt>
      <trkpt lat="47.84467" lon="6.68688">
        <ele>556</ele>
        <time>2014-10-30T12:06:31.1Z</time>
      </trkpt>
      <trkpt lat="47.84471" lon="6.68688">
        <ele>556</ele>
        <time>2014-10-30T12:06:34.1Z</time>
      </trkpt>
      <trkpt lat="47.84473" lon="6.68688">
        <ele>557</ele>
        <time>2014-10-30T12:06:37.1Z</time>
      </trkpt>
      <trkpt lat="47.84475" lon="6.68689">
        <ele>557</ele>
        <time>2014-10-30T12:06:39.1Z</time>
      </trkpt>
      <trkpt lat="47.84478" lon="6.68688">
        <ele>557</ele>
        <time>2014-10-30T12:06:42.1Z</time>
      </trkpt>
      <trkpt lat="47.84481" lon="6.68689">
        <ele>558</ele>
        <time>2014-10-30T12:06:45.1Z</time>
      </trkpt>
      <trkpt lat="47.84483" lon="6.68688">
        <ele>558</ele>
        <time>2014-10-30T12:06:47.1Z</time>
      </trkpt>
      <trkpt lat="47.84483" lon="6.68688">
        <ele>558</ele>
        <time>2014-10-30T12:06:49.1Z</time>
      </trkpt>
      <trkpt lat="47.84485" lon="6.68688">
        <ele>558</ele>
        <time>2014-10-30T12:06:52.1Z</time>
      </trkpt>
      <trkpt lat="47.84485" lon="6.68688">
        <ele>558</ele>
        <time>2014-10-30T12:06:54.1Z</time>
      </trkpt>
      <trkpt lat="47.84486" lon="6.68688">
        <ele>559</ele>
        <time>2014-10-30T12:06:57.1Z</time>
      </trkpt>
      <trkpt lat="47.84486" lon="6.68688">
        <ele>559</ele>
        <time>2014-10-30T12:07:00.1Z</time>
      </trkpt>
      <trkpt lat="47.84486" lon="6.68687">
        <ele>559</ele>
        <time>2014-10-30T12:07:02.1Z</time>
      </trkpt>
      <trkpt lat="47.84487" lon="6.68687">
        <ele>559</ele>
        <time>2014-10-30T12:07:04.1Z</time>
      </trkpt>
      <trkpt lat="47.84488" lon="6.68687">
        <ele>559</ele>
        <time>2014-10-30T12:07:07.1Z</time>
      </trkpt>
      <trkpt lat="47.8449" lon="6.68686">
        <ele>559</ele>
        <time>2014-10-30T12:07:10.1Z</time>
      </trkpt>
      <trkpt lat="47.84492" lon="6.68686">
        <ele>559</ele>
        <time>2014-10-30T12:07:12.1Z</time>
      </trkpt>
      <trkpt lat="47.84496" lon="6.68685">
        <ele>559</ele>
        <time>2014-10-30T12:07:15.1Z</time>
      </trkpt>
      <trkpt lat="47.84501" lon="6.68683">
        <ele>559</ele>
        <time>2014-10-30T12:07:18.1Z</time>
      </trkpt>
      <trkpt lat="47.84507" lon="6.68681">
        <ele>560</ele>
        <time>2014-10-30T12:07:21.1Z</time>
      </trkpt>
      <trkpt lat="47.84511" lon="6.68681">
        <ele>560</ele>
        <time>2014-10-30T12:07:23.1Z</time>
      </trkpt>
      <trkpt lat="47.84515" lon="6.68681">
        <ele>560</ele>
        <time>2014-10-30T12:07:25.1Z</time>
      </trkpt>
      <trkpt lat="47.84519" lon="6.6868">
        <ele>560</ele>
        <time>2014-10-30T12:07:27.1Z</time>
      </trkpt>
      <trkpt lat="47.84527" lon="6.68678">
        <ele>560</ele>
        <time>2014-10-30T12:07:30.1Z</time>
      </trkpt>
      <trkpt lat="47.84536" lon="6.68677">
        <ele>559</ele>
        <time>2014-10-30T12:07:33.1Z</time>
      </trkpt>
      <trkpt lat="47.84543" lon="6.68675">
        <ele>559</ele>
        <time>2014-10-30T12:07:35.1Z</time>
      </trkpt>
      <trkpt lat="47.84551" lon="6.6867">
        <ele>558</ele>
        <time>2014-10-30T12:07:38.1Z</time>
      </trkpt>
      <trkpt lat="47.84555" lon="6.68666">
        <ele>558</ele>
        <time>2014-10-30T12:07:40.1Z</time>
      </trkpt>
      <trkpt lat="47.84563" lon="6.68659">
        <ele>558</ele>
        <time>2014-10-30T12:07:43.1Z</time>
      </trkpt>
      <trkpt lat="47.84568" lon="6.68653">
        <ele>558</ele>
        <time>2014-10-30T12:07:45.1Z</time>
      </trkpt>
      <trkpt lat="47.84572" lon="6.68647">
        <ele>558</ele>
        <time>2014-10-30T12:07:47.1Z</time>
      </trkpt>
      <trkpt lat="47.84576" lon="6.68641">
        <ele>558</ele>
        <time>2014-10-30T12:07:49.1Z</time>
      </trkpt>
      <trkpt lat="47.84583" lon="6.68635">
        <ele>559</ele>
        <time>2014-10-30T12:07:52.1Z</time>
      </trkpt>
      <trkpt lat="47.84588" lon="6.68632">
        <ele>559</ele>
        <time>2014-10-30T12:07:54.1Z</time>
      </trkpt>
      <trkpt lat="47.84594" lon="6.6863">
        <ele>560</ele>
        <time>2014-10-30T12:07:57.1Z</time>
      </trkpt>
      <trkpt lat="47.846" lon="6.68629">
        <ele>561</ele>
        <time>2014-10-30T12:08:00.1Z</time>
      </trkpt>
      <trkpt lat="47.84607" lon="6.68629">
        <ele>561</ele>
        <time>2014-10-30T12:08:03.1Z</time>
      </trkpt>
      <trkpt lat="47.84615" lon="6.68628">
        <ele>561</ele>
        <time>2014-10-30T12:08:06.1Z</time>
      </trkpt>
      <trkpt lat="47.84622" lon="6.68627">
        <ele>560</ele>
        <time>2014-10-30T12:08:08.1Z</time>
      </trkpt>
      <trkpt lat="47.84634" lon="6.68626">
        <ele>560</ele>
        <time>2014-10-30T12:08:11.1Z</time>
      </trkpt>
      <trkpt lat="47.84645" lon="6.68626">
        <ele>559</ele>
        <time>2014-10-30T12:08:14.1Z</time>
      </trkpt>
      <trkpt lat="47.84653" lon="6.68627">
        <ele>560</ele>
        <time>2014-10-30T12:08:16.1Z</time>
      </trkpt>
      <trkpt lat="47.84665" lon="6.68629">
        <ele>560</ele>
        <time>2014-10-30T12:08:19.1Z</time>
      </trkpt>
      <trkpt lat="47.84677" lon="6.68631">
        <ele>560</ele>
        <time>2014-10-30T12:08:22.1Z</time>
      </trkpt>
      <trkpt lat="47.84684" lon="6.68629">
        <ele>560</ele>
        <time>2014-10-30T12:08:24.1Z</time>
      </trkpt>
      <trkpt lat="47.84692" lon="6.68626">
        <ele>559</ele>
        <time>2014-10-30T12:08:26.1Z</time>
      </trkpt>
      <trkpt lat="47.84708" lon="6.68621">
        <ele>558</ele>
        <time>2014-10-30T12:08:29.1Z</time>
      </trkpt>
      <trkpt lat="47.84724" lon="6.68616">
        <ele>557</ele>
        <time>2014-10-30T12:08:32.1Z</time>
      </trkpt>
      <trkpt lat="47.84734" lon="6.6861">
        <ele>556</ele>
        <time>2014-10-30T12:08:34.1Z</time>
      </trkpt>
      <trkpt lat="47.84747" lon="6.68602">
        <ele>557</ele>
        <time>2014-10-30T12:08:37.1Z</time>
      </trkpt>
      <trkpt lat="47.8476" lon="6.68594">
        <ele>557</ele>
        <time>2014-10-30T12:08:40.1Z</time>
      </trkpt>
      <trkpt lat="47.84768" lon="6.68591">
        <ele>558</ele>
        <time>2014-10-30T12:08:42.1Z</time>
      </trkpt>
      <trkpt lat="47.8478" lon="6.68589">
        <ele>558</ele>
        <time>2014-10-30T12:08:45.1Z</time>
      </trkpt>
      <trkpt lat="47.8479" lon="6.68584">
        <ele>558</ele>
        <time>2014-10-30T12:08:48.1Z</time>
      </trkpt>
      <trkpt lat="47.84798" lon="6.6858">
        <ele>559</ele>
        <time>2014-10-30T12:08:51.1Z</time>
      </trkpt>
      <trkpt lat="47.84803" lon="6.68583">
        <ele>559</ele>
        <time>2014-10-30T12:08:53.1Z</time>
      </trkpt>
      <trkpt lat="47.84808" lon="6.68588">
        <ele>560</ele>
        <time>2014-10-30T12:08:55.1Z</time>
      </trkpt>
      <trkpt lat="47.84815" lon="6.68597">
        <ele>560</ele>
        <time>2014-10-30T12:08:58.1Z</time>
      </trkpt>
      <trkpt lat="47.84821" lon="6.68605">
        <ele>561</ele>
        <time>2014-10-30T12:09:01.1Z</time>
      </trkpt>
      <trkpt lat="47.84826" lon="6.68613">
        <ele>561</ele>
        <time>2014-10-30T12:09:03.1Z</time>
      </trkpt>
      <trkpt lat="47.84829" lon="6.6862">
        <ele>561</ele>
        <time>2014-10-30T12:09:05.1Z</time>
      </trkpt>
      <trkpt lat="47.84837" lon="6.68631">
        <ele>561</ele>
        <time>2014-10-30T12:09:08.1Z</time>
      </trkpt>
      <trkpt lat="47.84842" lon="6.68637">
        <ele>561</ele>
        <time>2014-10-30T12:09:10.1Z</time>
      </trkpt>
      <trkpt lat="47.8485" lon="6.68645">
        <ele>561</ele>
        <time>2014-10-30T12:09:13.1Z</time>
      </trkpt>
      <trkpt lat="47.84861" lon="6.68649">
        <ele>561</ele>
        <time>2014-10-30T12:09:16.1Z</time>
      </trkpt>
      <trkpt lat="47.84872" lon="6.68649">
        <ele>561</ele>
        <time>2014-10-30T12:09:19.1Z</time>
      </trkpt>
      <trkpt lat="47.84883" lon="6.68651">
        <ele>561</ele>
        <time>2014-10-30T12:09:22.1Z</time>
      </trkpt>
      <trkpt lat="47.84891" lon="6.68649">
        <ele>561</ele>
        <time>2014-10-30T12:09:24.1Z</time>
      </trkpt>
      <trkpt lat="47.84898" lon="6.68647">
        <ele>561</ele>
        <time>2014-10-30T12:09:26.1Z</time>
      </trkpt>
      <trkpt lat="47.84909" lon="6.68643">
        <ele>561</ele>
        <time>2014-10-30T12:09:29.1Z</time>
      </trkpt>
      <trkpt lat="47.84916" lon="6.68642">
        <ele>562</ele>
        <time>2014-10-30T12:09:32.1Z</time>
      </trkpt>
      <trkpt lat="47.84919" lon="6.68643">
        <ele>562</ele>
        <time>2014-10-30T12:09:34.1Z</time>
      </trkpt>
      <trkpt lat="47.84922" lon="6.68646">
        <ele>563</ele>
        <time>2014-10-30T12:09:36.1Z</time>
      </trkpt>
      <trkpt lat="47.84926" lon="6.68649">
        <ele>563</ele>
        <time>2014-10-30T12:09:38.1Z</time>
      </trkpt>
      <trkpt lat="47.84929" lon="6.68652">
        <ele>563</ele>
        <time>2014-10-30T12:09:40.1Z</time>
      </trkpt>
      <trkpt lat="47.84935" lon="6.68656">
        <ele>563</ele>
        <time>2014-10-30T12:09:43.1Z</time>
      </trkpt>
      <trkpt lat="47.84943" lon="6.6866">
        <ele>563</ele>
        <time>2014-10-30T12:09:46.1Z</time>
      </trkpt>
      <trkpt lat="47.84954" lon="6.68663">
        <ele>563</ele>
        <time>2014-10-30T12:09:49.1Z</time>
      </trkpt>
      <trkpt lat="47.84961" lon="6.68668">
        <ele>563</ele>
        <time>2014-10-30T12:09:51.1Z</time>
      </trkpt>
      <trkpt lat="47.84971" lon="6.68676">
        <ele>563</ele>
        <time>2014-10-30T12:09:54.1Z</time>
      </trkpt>
      <trkpt lat="47.84978" lon="6.68682">
        <ele>563</ele>
        <time>2014-10-30T12:09:56.1Z</time>
      </trkpt>
      <trkpt lat="47.84985" lon="6.68688">
        <ele>563</ele>
        <time>2014-10-30T12:09:58.1Z</time>
      </trkpt>
      <trkpt lat="47.84994" lon="6.68696">
        <ele>563</ele>
        <time>2014-10-30T12:10:01.1Z</time>
      </trkpt>
      <trkpt lat="47.85003" lon="6.68704">
        <ele>563</ele>
        <time>2014-10-30T12:10:04.1Z</time>
      </trkpt>
      <trkpt lat="47.85013" lon="6.68709">
        <ele>564</ele>
        <time>2014-10-30T12:10:07.1Z</time>
      </trkpt>
      <trkpt lat="47.85021" lon="6.68711">
        <ele>563</ele>
        <time>2014-10-30T12:10:09.1Z</time>
      </trkpt>
      <trkpt lat="47.85029" lon="6.68713">
        <ele>563</ele>
        <time>2014-10-30T12:10:11.1Z</time>
      </trkpt>
      <trkpt lat="47.85041" lon="6.68718">
        <ele>563</ele>
        <time>2014-10-30T12:10:14.1Z</time>
      </trkpt>
      <trkpt lat="47.85049" lon="6.68721">
        <ele>563</ele>
        <time>2014-10-30T12:10:16.1Z</time>
      </trkpt>
      <trkpt lat="47.85057" lon="6.68725">
        <ele>563</ele>
        <time>2014-10-30T12:10:18.1Z</time>
      </trkpt>
      <trkpt lat="47.85065" lon="6.68729">
        <ele>563</ele>
        <time>2014-10-30T12:10:20.1Z</time>
      </trkpt>
      <trkpt lat="47.85073" lon="6.68733">
        <ele>563</ele>
        <time>2014-10-30T12:10:22.1Z</time>
      </trkpt>
      <trkpt lat="47.8508" lon="6.68738">
        <ele>564</ele>
        <time>2014-10-30T12:10:24.1Z</time>
      </trkpt>
      <trkpt lat="47.85088" lon="6.68743">
        <ele>564</ele>
        <time>2014-10-30T12:10:26.1Z</time>
      </trkpt>
      <trkpt lat="47.85094" lon="6.68748">
        <ele>565</ele>
        <time>2014-10-30T12:10:28.1Z</time>
      </trkpt>
      <trkpt lat="47.85101" lon="6.68754">
        <ele>565</ele>
        <time>2014-10-30T12:10:30.1Z</time>
      </trkpt>
      <trkpt lat="47.85109" lon="6.68764">
        <ele>565</ele>
        <time>2014-10-30T12:10:33.1Z</time>
      </trkpt>
      <trkpt lat="47.85112" lon="6.68773">
        <ele>566</ele>
        <time>2014-10-30T12:10:35.1Z</time>
      </trkpt>
      <trkpt lat="47.85114" lon="6.68785">
        <ele>567</ele>
        <time>2014-10-30T12:10:38.1Z</time>
      </trkpt>
      <trkpt lat="47.85114" lon="6.68794">
        <ele>567</ele>
        <time>2014-10-30T12:10:40.1Z</time>
      </trkpt>
      <trkpt lat="47.85113" lon="6.68801">
        <ele>568</ele>
        <time>2014-10-30T12:10:42.1Z</time>
      </trkpt>
      <trkpt lat="47.85113" lon="6.68809">
        <ele>568</ele>
        <time>2014-10-30T12:10:44.1Z</time>
      </trkpt>
      <trkpt lat="47.85113" lon="6.68819">
        <ele>569</ele>
        <time>2014-10-30T12:10:47.1Z</time>
      </trkpt>
      <trkpt lat="47.85115" lon="6.68828">
        <ele>570</ele>
        <time>2014-10-30T12:10:50.1Z</time>
      </trkpt>
      <trkpt lat="47.85118" lon="6.68832">
        <ele>570</ele>
        <time>2014-10-30T12:10:52.1Z</time>
      </trkpt>
      <trkpt lat="47.8512" lon="6.68838">
        <ele>571</ele>
        <time>2014-10-30T12:10:55.1Z</time>
      </trkpt>
      <trkpt lat="47.85124" lon="6.68842">
        <ele>571</ele>
        <time>2014-10-30T12:10:58.1Z</time>
      </trkpt>
      <trkpt lat="47.85128" lon="6.68845">
        <ele>572</ele>
        <time>2014-10-30T12:11:01.1Z</time>
      </trkpt>
      <trkpt lat="47.8513" lon="6.68847">
        <ele>572</ele>
        <time>2014-10-30T12:11:03.1Z</time>
      </trkpt>
      <trkpt lat="47.85135" lon="6.68849">
        <ele>572</ele>
        <time>2014-10-30T12:11:06.1Z</time>
      </trkpt>
      <trkpt lat="47.85137" lon="6.6885">
        <ele>573</ele>
        <time>2014-10-30T12:11:08.1Z</time>
      </trkpt>
      <trkpt lat="47.85139" lon="6.6885">
        <ele>573</ele>
        <time>2014-10-30T12:11:10.1Z</time>
      </trkpt>
      <trkpt lat="47.85141" lon="6.6885">
        <ele>574</ele>
        <time>2014-10-30T12:11:12.1Z</time>
      </trkpt>
      <trkpt lat="47.85144" lon="6.68849">
        <ele>574</ele>
        <time>2014-10-30T12:11:14.1Z</time>
      </trkpt>
      <trkpt lat="47.85146" lon="6.68849">
        <ele>575</ele>
        <time>2014-10-30T12:11:16.1Z</time>
      </trkpt>
      <trkpt lat="47.85149" lon="6.68849">
        <ele>575</ele>
        <time>2014-10-30T12:11:18.1Z</time>
      </trkpt>
      <trkpt lat="47.85153" lon="6.68849">
        <ele>575</ele>
        <time>2014-10-30T12:11:21.1Z</time>
      </trkpt>
      <trkpt lat="47.85155" lon="6.68848">
        <ele>575</ele>
        <time>2014-10-30T12:11:23.1Z</time>
      </trkpt>
      <trkpt lat="47.85159" lon="6.68848">
        <ele>575</ele>
        <time>2014-10-30T12:11:25.1Z</time>
      </trkpt>
      <trkpt lat="47.85162" lon="6.68847">
        <ele>576</ele>
        <time>2014-10-30T12:11:28.1Z</time>
      </trkpt>
      <trkpt lat="47.85166" lon="6.68848">
        <ele>576</ele>
        <time>2014-10-30T12:11:31.1Z</time>
      </trkpt>
      <trkpt lat="47.8517" lon="6.68848">
        <ele>577</ele>
        <time>2014-10-30T12:11:34.1Z</time>
      </trkpt>
      <trkpt lat="47.85173" lon="6.68847">
        <ele>577</ele>
        <time>2014-10-30T12:11:36.1Z</time>
      </trkpt>
      <trkpt lat="47.85176" lon="6.68846">
        <ele>578</ele>
        <time>2014-10-30T12:11:38.1Z</time>
      </trkpt>
      <trkpt lat="47.85181" lon="6.68845">
        <ele>579</ele>
        <time>2014-10-30T12:11:41.1Z</time>
      </trkpt>
      <trkpt lat="47.85185" lon="6.68843">
        <ele>579</ele>
        <time>2014-10-30T12:11:44.1Z</time>
      </trkpt>
      <trkpt lat="47.85189" lon="6.68842">
        <ele>579</ele>
        <time>2014-10-30T12:11:46.1Z</time>
      </trkpt>
      <trkpt lat="47.85194" lon="6.68841">
        <ele>579</ele>
        <time>2014-10-30T12:11:49.1Z</time>
      </trkpt>
      <trkpt lat="47.85197" lon="6.68841">
        <ele>580</ele>
        <time>2014-10-30T12:11:51.1Z</time>
      </trkpt>
      <trkpt lat="47.85204" lon="6.68839">
        <ele>580</ele>
        <time>2014-10-30T12:11:54.1Z</time>
      </trkpt>
      <trkpt lat="47.85207" lon="6.68839">
        <ele>580</ele>
        <time>2014-10-30T12:11:56.1Z</time>
      </trkpt>
      <trkpt lat="47.85213" lon="6.68838">
        <ele>580</ele>
        <time>2014-10-30T12:11:59.1Z</time>
      </trkpt>
      <trkpt lat="47.85218" lon="6.68839">
        <ele>580</ele>
        <time>2014-10-30T12:12:01.1Z</time>
      </trkpt>
      <trkpt lat="47.85226" lon="6.68841">
        <ele>580</ele>
        <time>2014-10-30T12:12:04.1Z</time>
      </trkpt>
      <trkpt lat="47.85231" lon="6.68842">
        <ele>580</ele>
        <time>2014-10-30T12:12:06.1Z</time>
      </trkpt>
      <trkpt lat="47.85237" lon="6.68845">
        <ele>580</ele>
        <time>2014-10-30T12:12:09.1Z</time>
      </trkpt>
      <trkpt lat="47.85242" lon="6.6885">
        <ele>581</ele>
        <time>2014-10-30T12:12:12.1Z</time>
      </trkpt>
      <trkpt lat="47.85248" lon="6.68855">
        <ele>581</ele>
        <time>2014-10-30T12:12:15.1Z</time>
      </trkpt>
      <trkpt lat="47.85255" lon="6.6886">
        <ele>581</ele>
        <time>2014-10-30T12:12:18.1Z</time>
      </trkpt>
      <trkpt lat="47.8526" lon="6.68863">
        <ele>581</ele>
        <time>2014-10-30T12:12:20.1Z</time>
      </trkpt>
      <trkpt lat="47.85265" lon="6.68866">
        <ele>581</ele>
        <time>2014-10-30T12:12:22.1Z</time>
      </trkpt>
      <trkpt lat="47.85269" lon="6.68868">
        <ele>582</ele>
        <time>2014-10-30T12:12:24.1Z</time>
      </trkpt>
      <trkpt lat="47.85277" lon="6.6887">
        <ele>582</ele>
        <time>2014-10-30T12:12:27.1Z</time>
      </trkpt>
      <trkpt lat="47.85286" lon="6.68873">
        <ele>582</ele>
        <time>2014-10-30T12:12:30.1Z</time>
      </trkpt>
      <trkpt lat="47.85294" lon="6.68876">
        <ele>583</ele>
        <time>2014-10-30T12:12:33.1Z</time>
      </trkpt>
      <trkpt lat="47.853" lon="6.68878">
        <ele>583</ele>
        <time>2014-10-30T12:12:35.1Z</time>
      </trkpt>
      <trkpt lat="47.85309" lon="6.68883">
        <ele>583</ele>
        <time>2014-10-30T12:12:38.1Z</time>
      </trkpt>
      <trkpt lat="47.85317" lon="6.68887">
        <ele>583</ele>
        <time>2014-10-30T12:12:41.1Z</time>
      </trkpt>
      <trkpt lat="47.85325" lon="6.68891">
        <ele>582</ele>
        <time>2014-10-30T12:12:43.1Z</time>
      </trkpt>
      <trkpt lat="47.85332" lon="6.68895">
        <ele>582</ele>
        <time>2014-10-30T12:12:45.1Z</time>
      </trkpt>
      <trkpt lat="47.8534" lon="6.68899">
        <ele>582</ele>
        <time>2014-10-30T12:12:47.1Z</time>
      </trkpt>
      <trkpt lat="47.8535" lon="6.68905">
        <ele>581</ele>
        <time>2014-10-30T12:12:49.1Z</time>
      </trkpt>
      <trkpt lat="47.8536" lon="6.68915">
        <ele>580</ele>
        <time>2014-10-30T12:12:51.1Z</time>
      </trkpt>
      <trkpt lat="47.85369" lon="6.68936">
        <ele>579</ele>
        <time>2014-10-30T12:12:54.1Z</time>
      </trkpt>
      <trkpt lat="47.85376" lon="6.68949">
        <ele>578</ele>
        <time>2014-10-30T12:12:56.1Z</time>
      </trkpt>
      <trkpt lat="47.85383" lon="6.68962">
        <ele>577</ele>
        <time>2014-10-30T12:12:58.1Z</time>
      </trkpt>
      <trkpt lat="47.85393" lon="6.68973">
        <ele>577</ele>
        <time>2014-10-30T12:13:00.1Z</time>
      </trkpt>
      <trkpt lat="47.85409" lon="6.68987">
        <ele>577</ele>
        <time>2014-10-30T12:13:03.1Z</time>
      </trkpt>
      <trkpt lat="47.85426" lon="6.69001">
        <ele>576</ele>
        <time>2014-10-30T12:13:06.1Z</time>
      </trkpt>
      <trkpt lat="47.85441" lon="6.69018">
        <ele>577</ele>
        <time>2014-10-30T12:13:09.1Z</time>
      </trkpt>
      <trkpt lat="47.85453" lon="6.69035">
        <ele>577</ele>
        <time>2014-10-30T12:13:12.1Z</time>
      </trkpt>
      <trkpt lat="47.85461" lon="6.69044">
        <ele>577</ele>
        <time>2014-10-30T12:13:14.1Z</time>
      </trkpt>
      <trkpt lat="47.85467" lon="6.69057">
        <ele>578</ele>
        <time>2014-10-30T12:13:17.1Z</time>
      </trkpt>
      <trkpt lat="47.85469" lon="6.69066">
        <ele>579</ele>
        <time>2014-10-30T12:13:19.1Z</time>
      </trkpt>
      <trkpt lat="47.85471" lon="6.69076">
        <ele>580</ele>
        <time>2014-10-30T12:13:21.1Z</time>
      </trkpt>
      <trkpt lat="47.85471" lon="6.69085">
        <ele>581</ele>
        <time>2014-10-30T12:13:23.1Z</time>
      </trkpt>
      <trkpt lat="47.85472" lon="6.69097">
        <ele>581</ele>
        <time>2014-10-30T12:13:26.1Z</time>
      </trkpt>
      <trkpt lat="47.85472" lon="6.69104">
        <ele>582</ele>
        <time>2014-10-30T12:13:28.1Z</time>
      </trkpt>
      <trkpt lat="47.85474" lon="6.69116">
        <ele>583</ele>
        <time>2014-10-30T12:13:31.1Z</time>
      </trkpt>
      <trkpt lat="47.85475" lon="6.69124">
        <ele>583</ele>
        <time>2014-10-30T12:13:33.1Z</time>
      </trkpt>
      <trkpt lat="47.85476" lon="6.69131">
        <ele>583</ele>
        <time>2014-10-30T12:13:35.1Z</time>
      </trkpt>
      <trkpt lat="47.8548" lon="6.69141">
        <ele>583</ele>
        <time>2014-10-30T12:13:38.1Z</time>
      </trkpt>
      <trkpt lat="47.85483" lon="6.69147">
        <ele>584</ele>
        <time>2014-10-30T12:13:40.1Z</time>
      </trkpt>
      <trkpt lat="47.85485" lon="6.69154">
        <ele>584</ele>
        <time>2014-10-30T12:13:42.1Z</time>
      </trkpt>
      <trkpt lat="47.85491" lon="6.69166">
        <ele>584</ele>
        <time>2014-10-30T12:13:45.1Z</time>
      </trkpt>
      <trkpt lat="47.85495" lon="6.69175">
        <ele>584</ele>
        <time>2014-10-30T12:13:47.1Z</time>
      </trkpt>
      <trkpt lat="47.85502" lon="6.69187">
        <ele>583</ele>
        <time>2014-10-30T12:13:50.1Z</time>
      </trkpt>
      <trkpt lat="47.85508" lon="6.69197">
        <ele>584</ele>
        <time>2014-10-30T12:13:53.1Z</time>
      </trkpt>
      <trkpt lat="47.85514" lon="6.69204">
        <ele>584</ele>
        <time>2014-10-30T12:13:56.1Z</time>
      </trkpt>
      <trkpt lat="47.85517" lon="6.69208">
        <ele>585</ele>
        <time>2014-10-30T12:13:58.1Z</time>
      </trkpt>
      <trkpt lat="47.8552" lon="6.69212">
        <ele>586</ele>
        <time>2014-10-30T12:14:00.1Z</time>
      </trkpt>
      <trkpt lat="47.85523" lon="6.69218">
        <ele>586</ele>
        <time>2014-10-30T12:14:02.1Z</time>
      </trkpt>
      <trkpt lat="47.85526" lon="6.69224">
        <ele>587</ele>
        <time>2014-10-30T12:14:05.1Z</time>
      </trkpt>
      <trkpt lat="47.85528" lon="6.69227">
        <ele>587</ele>
        <time>2014-10-30T12:14:07.1Z</time>
      </trkpt>
      <trkpt lat="47.85531" lon="6.69234">
        <ele>588</ele>
        <time>2014-10-30T12:14:10.1Z</time>
      </trkpt>
      <trkpt lat="47.85534" lon="6.69238">
        <ele>588</ele>
        <time>2014-10-30T12:14:12.1Z</time>
      </trkpt>
      <trkpt lat="47.85535" lon="6.69241">
        <ele>588</ele>
        <time>2014-10-30T12:14:14.1Z</time>
      </trkpt>
      <trkpt lat="47.85538" lon="6.69247">
        <ele>588</ele>
        <time>2014-10-30T12:14:17.1Z</time>
      </trkpt>
      <trkpt lat="47.85542" lon="6.69251">
        <ele>589</ele>
        <time>2014-10-30T12:14:19.1Z</time>
      </trkpt>
      <trkpt lat="47.85545" lon="6.69256">
        <ele>589</ele>
        <time>2014-10-30T12:14:21.1Z</time>
      </trkpt>
      <trkpt lat="47.8555" lon="6.69261">
        <ele>589</ele>
        <time>2014-10-30T12:14:24.1Z</time>
      </trkpt>
      <trkpt lat="47.85553" lon="6.69264">
        <ele>589</ele>
        <time>2014-10-30T12:14:26.1Z</time>
      </trkpt>
      <trkpt lat="47.85557" lon="6.69267">
        <ele>590</ele>
        <time>2014-10-30T12:14:29.1Z</time>
      </trkpt>
      <trkpt lat="47.85559" lon="6.6927">
        <ele>590</ele>
        <time>2014-10-30T12:14:31.1Z</time>
      </trkpt>
      <trkpt lat="47.85561" lon="6.69272">
        <ele>591</ele>
        <time>2014-10-30T12:14:33.1Z</time>
      </trkpt>
      <trkpt lat="47.85565" lon="6.69275">
        <ele>591</ele>
        <time>2014-10-30T12:14:36.1Z</time>
      </trkpt>
      <trkpt lat="47.85569" lon="6.69278">
        <ele>592</ele>
        <time>2014-10-30T12:14:39.1Z</time>
      </trkpt>
      <trkpt lat="47.85572" lon="6.69282">
        <ele>593</ele>
        <time>2014-10-30T12:14:42.1Z</time>
      </trkpt>
      <trkpt lat="47.85575" lon="6.69285">
        <ele>593</ele>
        <time>2014-10-30T12:14:44.1Z</time>
      </trkpt>
      <trkpt lat="47.85579" lon="6.69288">
        <ele>593</ele>
        <time>2014-10-30T12:14:47.1Z</time>
      </trkpt>
      <trkpt lat="47.85581" lon="6.69289">
        <ele>593</ele>
        <time>2014-10-30T12:14:49.1Z</time>
      </trkpt>
      <trkpt lat="47.85585" lon="6.69292">
        <ele>594</ele>
        <time>2014-10-30T12:14:52.1Z</time>
      </trkpt>
      <trkpt lat="47.85588" lon="6.69296">
        <ele>594</ele>
        <time>2014-10-30T12:14:55.1Z</time>
      </trkpt>
      <trkpt lat="47.85591" lon="6.69298">
        <ele>594</ele>
        <time>2014-10-30T12:14:57.1Z</time>
      </trkpt>
      <trkpt lat="47.85597" lon="6.693">
        <ele>594</ele>
        <time>2014-10-30T12:15:00.1Z</time>
      </trkpt>
      <trkpt lat="47.85601" lon="6.69301">
        <ele>594</ele>
        <time>2014-10-30T12:15:02.1Z</time>
      </trkpt>
      <trkpt lat="47.85608" lon="6.69303">
        <ele>594</ele>
        <time>2014-10-30T12:15:05.1Z</time>
      </trkpt>
      <trkpt lat="47.85613" lon="6.69305">
        <ele>594</ele>
        <time>2014-10-30T12:15:08.1Z</time>
      </trkpt>
      <trkpt lat="47.85619" lon="6.69308">
        <ele>595</ele>
        <time>2014-10-30T12:15:11.1Z</time>
      </trkpt>
      <trkpt lat="47.85624" lon="6.6931">
        <ele>595</ele>
        <time>2014-10-30T12:15:13.1Z</time>
      </trkpt>
      <trkpt lat="47.8563" lon="6.69312">
        <ele>595</ele>
        <time>2014-10-30T12:15:16.1Z</time>
      </trkpt>
      <trkpt lat="47.85636" lon="6.69313">
        <ele>596</ele>
        <time>2014-10-30T12:15:19.1Z</time>
      </trkpt>
      <trkpt lat="47.8564" lon="6.69314">
        <ele>596</ele>
        <time>2014-10-30T12:15:22.1Z</time>
      </trkpt>
      <trkpt lat="47.85646" lon="6.69314">
        <ele>596</ele>
        <time>2014-10-30T12:15:25.1Z</time>
      </trkpt>
      <trkpt lat="47.85652" lon="6.69315">
        <ele>596</ele>
        <time>2014-10-30T12:15:28.1Z</time>
      </trkpt>
      <trkpt lat="47.85659" lon="6.69316">
        <ele>596</ele>
        <time>2014-10-30T12:15:31.1Z</time>
      </trkpt>
      <trkpt lat="47.85662" lon="6.69316">
        <ele>596</ele>
        <time>2014-10-30T12:15:33.1Z</time>
      </trkpt>
      <trkpt lat="47.85666" lon="6.69317">
        <ele>597</ele>
        <time>2014-10-30T12:15:35.1Z</time>
      </trkpt>
      <trkpt lat="47.85671" lon="6.69318">
        <ele>597</ele>
        <time>2014-10-30T12:15:38.1Z</time>
      </trkpt>
      <trkpt lat="47.85675" lon="6.69317">
        <ele>597</ele>
        <time>2014-10-30T12:15:40.1Z</time>
      </trkpt>
      <trkpt lat="47.85681" lon="6.69319">
        <ele>597</ele>
        <time>2014-10-30T12:15:43.1Z</time>
      </trkpt>
      <trkpt lat="47.85688" lon="6.69319">
        <ele>598</ele>
        <time>2014-10-30T12:15:46.1Z</time>
      </trkpt>
      <trkpt lat="47.85694" lon="6.6932">
        <ele>599</ele>
        <time>2014-10-30T12:15:49.1Z</time>
      </trkpt>
      <trkpt lat="47.85697" lon="6.6932">
        <ele>599</ele>
        <time>2014-10-30T12:15:51.1Z</time>
      </trkpt>
      <trkpt lat="47.85703" lon="6.69322">
        <ele>600</ele>
        <time>2014-10-30T12:15:54.1Z</time>
      </trkpt>
      <trkpt lat="47.85707" lon="6.69323">
        <ele>599</ele>
        <time>2014-10-30T12:15:56.1Z</time>
      </trkpt>
      <trkpt lat="47.85714" lon="6.69327">
        <ele>599</ele>
        <time>2014-10-30T12:15:59.1Z</time>
      </trkpt>
      <trkpt lat="47.85717" lon="6.69332">
        <ele>599</ele>
        <time>2014-10-30T12:16:01.1Z</time>
      </trkpt>
      <trkpt lat="47.85719" lon="6.69337">
        <ele>599</ele>
        <time>2014-10-30T12:16:03.1Z</time>
      </trkpt>
      <trkpt lat="47.85719" lon="6.69345">
        <ele>600</ele>
        <time>2014-10-30T12:16:06.1Z</time>
      </trkpt>
      <trkpt lat="47.8572" lon="6.69351">
        <ele>600</ele>
        <time>2014-10-30T12:16:08.1Z</time>
      </trkpt>
      <trkpt lat="47.8572" lon="6.69357">
        <ele>600</ele>
        <time>2014-10-30T12:16:10.1Z</time>
      </trkpt>
      <trkpt lat="47.8572" lon="6.69367">
        <ele>600</ele>
        <time>2014-10-30T12:16:13.1Z</time>
      </trkpt>
      <trkpt lat="47.85722" lon="6.69376">
        <ele>601</ele>
        <time>2014-10-30T12:16:16.1Z</time>
      </trkpt>
      <trkpt lat="47.85724" lon="6.69381">
        <ele>601</ele>
        <time>2014-10-30T12:16:18.1Z</time>
      </trkpt>
      <trkpt lat="47.85727" lon="6.69385">
        <ele>601</ele>
        <time>2014-10-30T12:16:20.1Z</time>
      </trkpt>
      <trkpt lat="47.85729" lon="6.6939">
        <ele>601</ele>
        <time>2014-10-30T12:16:22.1Z</time>
      </trkpt>
      <trkpt lat="47.85731" lon="6.69394">
        <ele>601</ele>
        <time>2014-10-30T12:16:24.1Z</time>
      </trkpt>
      <trkpt lat="47.85734" lon="6.69401">
        <ele>602</ele>
        <time>2014-10-30T12:16:27.1Z</time>
      </trkpt>
      <trkpt lat="47.85738" lon="6.69408">
        <ele>603</ele>
        <time>2014-10-30T12:16:30.1Z</time>
      </trkpt>
      <trkpt lat="47.85741" lon="6.69414">
        <ele>604</ele>
        <time>2014-10-30T12:16:33.1Z</time>
      </trkpt>
      <trkpt lat="47.85743" lon="6.69421">
        <ele>604</ele>
        <time>2014-10-30T12:16:36.1Z</time>
      </trkpt>
      <trkpt lat="47.85744" lon="6.69425">
        <ele>604</ele>
        <time>2014-10-30T12:16:38.1Z</time>
      </trkpt>
      <trkpt lat="47.85746" lon="6.69433">
        <ele>605</ele>
        <time>2014-10-30T12:16:41.1Z</time>
      </trkpt>
      <trkpt lat="47.85747" lon="6.69438">
        <ele>605</ele>
        <time>2014-10-30T12:16:43.1Z</time>
      </trkpt>
      <trkpt lat="47.8575" lon="6.69446">
        <ele>605</ele>
        <time>2014-10-30T12:16:46.1Z</time>
      </trkpt>
      <trkpt lat="47.85752" lon="6.69452">
        <ele>605</ele>
        <time>2014-10-30T12:16:48.1Z</time>
      </trkpt>
      <trkpt lat="47.85754" lon="6.69458">
        <ele>605</ele>
        <time>2014-10-30T12:16:50.1Z</time>
      </trkpt>
      <trkpt lat="47.85759" lon="6.69467">
        <ele>604</ele>
        <time>2014-10-30T12:16:53.1Z</time>
      </trkpt>
      <trkpt lat="47.85762" lon="6.69476">
        <ele>605</ele>
        <time>2014-10-30T12:16:56.1Z</time>
      </trkpt>
      <trkpt lat="47.85765" lon="6.69482">
        <ele>605</ele>
        <time>2014-10-30T12:16:58.1Z</time>
      </trkpt>
      <trkpt lat="47.85769" lon="6.6949">
        <ele>605</ele>
        <time>2014-10-30T12:17:01.1Z</time>
      </trkpt>
      <trkpt lat="47.85774" lon="6.69498">
        <ele>606</ele>
        <time>2014-10-30T12:17:04.1Z</time>
      </trkpt>
      <trkpt lat="47.85778" lon="6.69501">
        <ele>606</ele>
        <time>2014-10-30T12:17:06.1Z</time>
      </trkpt>
      <trkpt lat="47.85787" lon="6.69508">
        <ele>606</ele>
        <time>2014-10-30T12:17:09.1Z</time>
      </trkpt>
      <trkpt lat="47.85797" lon="6.69514">
        <ele>606</ele>
        <time>2014-10-30T12:17:12.1Z</time>
      </trkpt>
      <trkpt lat="47.85805" lon="6.69516">
        <ele>605</ele>
        <time>2014-10-30T12:17:14.1Z</time>
      </trkpt>
      <trkpt lat="47.85813" lon="6.69516">
        <ele>605</ele>
        <time>2014-10-30T12:17:17.1Z</time>
      </trkpt>
      <trkpt lat="47.85819" lon="6.69513">
        <ele>605</ele>
        <time>2014-10-30T12:17:20.1Z</time>
      </trkpt>
      <trkpt lat="47.85826" lon="6.69509">
        <ele>605</ele>
        <time>2014-10-30T12:17:23.1Z</time>
      </trkpt>
      <trkpt lat="47.85836" lon="6.69512">
        <ele>605</ele>
        <time>2014-10-30T12:17:26.1Z</time>
      </trkpt>
      <trkpt lat="47.85841" lon="6.69521">
        <ele>604</ele>
        <time>2014-10-30T12:17:28.1Z</time>
      </trkpt>
      <trkpt lat="47.85848" lon="6.69534">
        <ele>604</ele>
        <time>2014-10-30T12:17:31.1Z</time>
      </trkpt>
      <trkpt lat="47.85859" lon="6.69546">
        <ele>604</ele>
        <time>2014-10-30T12:17:34.1Z</time>
      </trkpt>
      <trkpt lat="47.85872" lon="6.69553">
        <ele>604</ele>
        <time>2014-10-30T12:17:37.1Z</time>
      </trkpt>
      <trkpt lat="47.85879" lon="6.69556">
        <ele>604</ele>
        <time>2014-10-30T12:17:39.1Z</time>
      </trkpt>
      <trkpt lat="47.85888" lon="6.69559">
        <ele>604</ele>
        <time>2014-10-30T12:17:42.1Z</time>
      </trkpt>
      <trkpt lat="47.85893" lon="6.6956">
        <ele>604</ele>
        <time>2014-10-30T12:17:44.1Z</time>
      </trkpt>
      <trkpt lat="47.85897" lon="6.69562">
        <ele>605</ele>
        <time>2014-10-30T12:17:46.1Z</time>
      </trkpt>
      <trkpt lat="47.85903" lon="6.69564">
        <ele>606</ele>
        <time>2014-10-30T12:17:49.1Z</time>
      </trkpt>
      <trkpt lat="47.8591" lon="6.69567">
        <ele>607</ele>
        <time>2014-10-30T12:17:52.1Z</time>
      </trkpt>
      <trkpt lat="47.85915" lon="6.69569">
        <ele>608</ele>
        <time>2014-10-30T12:17:54.1Z</time>
      </trkpt>
      <trkpt lat="47.85922" lon="6.69573">
        <ele>607</ele>
        <time>2014-10-30T12:17:57.1Z</time>
      </trkpt>
      <trkpt lat="47.8593" lon="6.69579">
        <ele>607</ele>
        <time>2014-10-30T12:18:00.1Z</time>
      </trkpt>
      <trkpt lat="47.85937" lon="6.69588">
        <ele>608</ele>
        <time>2014-10-30T12:18:03.1Z</time>
      </trkpt>
      <trkpt lat="47.85942" lon="6.69595">
        <ele>608</ele>
        <time>2014-10-30T12:18:06.1Z</time>
      </trkpt>
      <trkpt lat="47.85947" lon="6.696">
        <ele>608</ele>
        <time>2014-10-30T12:18:09.1Z</time>
      </trkpt>
      <trkpt lat="47.85953" lon="6.69606">
        <ele>608</ele>
        <time>2014-10-30T12:18:12.1Z</time>
      </trkpt>
      <trkpt lat="47.85957" lon="6.69612">
        <ele>608</ele>
        <time>2014-10-30T12:18:14.1Z</time>
      </trkpt>
      <trkpt lat="47.85965" lon="6.69621">
        <ele>608</ele>
        <time>2014-10-30T12:18:17.1Z</time>
      </trkpt>
      <trkpt lat="47.8597" lon="6.69625">
        <ele>608</ele>
        <time>2014-10-30T12:18:19.1Z</time>
      </trkpt>
      <trkpt lat="47.85977" lon="6.69632">
        <ele>608</ele>
        <time>2014-10-30T12:18:22.1Z</time>
      </trkpt>
      <trkpt lat="47.85981" lon="6.69637">
        <ele>608</ele>
        <time>2014-10-30T12:18:24.1Z</time>
      </trkpt>
      <trkpt lat="47.85989" lon="6.69644">
        <ele>608</ele>
        <time>2014-10-30T12:18:27.1Z</time>
      </trkpt>
      <trkpt lat="47.85995" lon="6.69649">
        <ele>609</ele>
        <time>2014-10-30T12:18:29.1Z</time>
      </trkpt>
      <trkpt lat="47.86003" lon="6.69655">
        <ele>609</ele>
        <time>2014-10-30T12:18:32.1Z</time>
      </trkpt>
      <trkpt lat="47.8601" lon="6.69658">
        <ele>609</ele>
        <time>2014-10-30T12:18:34.1Z</time>
      </trkpt>
      <trkpt lat="47.86016" lon="6.69662">
        <ele>609</ele>
        <time>2014-10-30T12:18:36.1Z</time>
      </trkpt>
      <trkpt lat="47.86026" lon="6.69667">
        <ele>609</ele>
        <time>2014-10-30T12:18:39.1Z</time>
      </trkpt>
      <trkpt lat="47.86034" lon="6.69673">
        <ele>609</ele>
        <time>2014-10-30T12:18:42.1Z</time>
      </trkpt>
      <trkpt lat="47.86041" lon="6.69678">
        <ele>610</ele>
        <time>2014-10-30T12:18:45.1Z</time>
      </trkpt>
      <trkpt lat="47.86047" lon="6.69684">
        <ele>610</ele>
        <time>2014-10-30T12:18:48.1Z</time>
      </trkpt>
      <trkpt lat="47.86054" lon="6.69688">
        <ele>611</ele>
        <time>2014-10-30T12:18:51.1Z</time>
      </trkpt>
      <trkpt lat="47.86061" lon="6.69693">
        <ele>611</ele>
        <time>2014-10-30T12:18:54.1Z</time>
      </trkpt>
      <trkpt lat="47.86064" lon="6.69696">
        <ele>612</ele>
        <time>2014-10-30T12:18:56.1Z</time>
      </trkpt>
      <trkpt lat="47.86067" lon="6.69698">
        <ele>612</ele>
        <time>2014-10-30T12:18:58.1Z</time>
      </trkpt>
      <trkpt lat="47.8607" lon="6.697">
        <ele>612</ele>
        <time>2014-10-30T12:19:01.1Z</time>
      </trkpt>
      <trkpt lat="47.86073" lon="6.69702">
        <ele>613</ele>
        <time>2014-10-30T12:19:03.1Z</time>
      </trkpt>
      <trkpt lat="47.86076" lon="6.69707">
        <ele>613</ele>
        <time>2014-10-30T12:19:06.1Z</time>
      </trkpt>
      <trkpt lat="47.86081" lon="6.69713">
        <ele>614</ele>
        <time>2014-10-30T12:19:09.1Z</time>
      </trkpt>
      <trkpt lat="47.86086" lon="6.69719">
        <ele>613</ele>
        <time>2014-10-30T12:19:11.1Z</time>
      </trkpt>
      <trkpt lat="47.86094" lon="6.69727">
        <ele>613</ele>
        <time>2014-10-30T12:19:14.1Z</time>
      </trkpt>
      <trkpt lat="47.86099" lon="6.69734">
        <ele>613</ele>
        <time>2014-10-30T12:19:16.1Z</time>
      </trkpt>
      <trkpt lat="47.86105" lon="6.69739">
        <ele>613</ele>
        <time>2014-10-30T12:19:18.1Z</time>
      </trkpt>
      <trkpt lat="47.86113" lon="6.69745">
        <ele>613</ele>
        <time>2014-10-30T12:19:21.1Z</time>
      </trkpt>
      <trkpt lat="47.86121" lon="6.69749">
        <ele>613</ele>
        <time>2014-10-30T12:19:24.1Z</time>
      </trkpt>
      <trkpt lat="47.86132" lon="6.69749">
        <ele>613</ele>
        <time>2014-10-30T12:19:27.1Z</time>
      </trkpt>
      <trkpt lat="47.86146" lon="6.69746">
        <ele>613</ele>
        <time>2014-10-30T12:19:30.1Z</time>
      </trkpt>
      <trkpt lat="47.86162" lon="6.69742">
        <ele>613</ele>
        <time>2014-10-30T12:19:33.1Z</time>
      </trkpt>
      <trkpt lat="47.86176" lon="6.69737">
        <ele>611</ele>
        <time>2014-10-30T12:19:35.1Z</time>
      </trkpt>
      <trkpt lat="47.86192" lon="6.6973">
        <ele>610</ele>
        <time>2014-10-30T12:19:37.1Z</time>
      </trkpt>
      <trkpt lat="47.86211" lon="6.69723">
        <ele>608</ele>
        <time>2014-10-30T12:19:40.1Z</time>
      </trkpt>
      <trkpt lat="47.86215" lon="6.69722">
        <ele>606</ele>
        <time>2014-10-30T12:19:42.1Z</time>
      </trkpt>
      <trkpt lat="47.86217" lon="6.69723">
        <ele>606</ele>
        <time>2014-10-30T12:19:45.1Z</time>
      </trkpt>
      <trkpt lat="47.86219" lon="6.69723">
        <ele>607</ele>
        <time>2014-10-30T12:19:48.1Z</time>
      </trkpt>
      <trkpt lat="47.8622" lon="6.69723">
        <ele>607</ele>
        <time>2014-10-30T12:19:50.1Z</time>
      </trkpt>
      <trkpt lat="47.86221" lon="6.69723">
        <ele>607</ele>
        <time>2014-10-30T12:19:53.1Z</time>
      </trkpt>
      <trkpt lat="47.86222" lon="6.69722">
        <ele>607</ele>
        <time>2014-10-30T12:19:56.1Z</time>
      </trkpt>
      <trkpt lat="47.86222" lon="6.69722">
        <ele>607</ele>
        <time>2014-10-30T12:19:58.1Z</time>
      </trkpt>
      <trkpt lat="47.86222" lon="6.69721">
        <ele>607</ele>
        <time>2014-10-30T12:20:00.1Z</time>
      </trkpt>
      <trkpt lat="47.86222" lon="6.69721">
        <ele>607</ele>
        <time>2014-10-30T12:20:03.1Z</time>
      </trkpt>
      <trkpt lat="47.86223" lon="6.6972">
        <ele>607</ele>
        <time>2014-10-30T12:20:05.1Z</time>
      </trkpt>
      <trkpt lat="47.86223" lon="6.6972">
        <ele>607</ele>
        <time>2014-10-30T12:20:08.1Z</time>
      </trkpt>
      <trkpt lat="47.86223" lon="6.6972">
        <ele>607</ele>
        <time>2014-10-30T12:20:10.1Z</time>
      </trkpt>
      <trkpt lat="47.86223" lon="6.6972">
        <ele>607</ele>
        <time>2014-10-30T12:20:14.1Z</time>
      </trkpt>
      <trkpt lat="47.86223" lon="6.6972">
        <ele>607</ele>
        <time>2014-10-30T12:20:17.1Z</time>
      </trkpt>
      <trkpt lat="47.86224" lon="6.6972">
        <ele>607</ele>
        <time>2014-10-30T12:20:20.1Z</time>
      </trkpt>
      <trkpt lat="47.86224" lon="6.69719">
        <ele>607</ele>
        <time>2014-10-30T12:20:23.1Z</time>
      </trkpt>
      <trkpt lat="47.86225" lon="6.69718">
        <ele>607</ele>
        <time>2014-10-30T12:20:25.1Z</time>
      </trkpt>
      <trkpt lat="47.86226" lon="6.69715">
        <ele>606</ele>
        <time>2014-10-30T12:20:27.1Z</time>
      </trkpt>
      <trkpt lat="47.86229" lon="6.69711">
        <ele>607</ele>
        <time>2014-10-30T12:20:29.1Z</time>
      </trkpt>
      <trkpt lat="47.86231" lon="6.69707">
        <ele>607</ele>
        <time>2014-10-30T12:20:31.1Z</time>
      </trkpt>
      <trkpt lat="47.86234" lon="6.69702">
        <ele>608</ele>
        <time>2014-10-30T12:20:34.1Z</time>
      </trkpt>
      <trkpt lat="47.86236" lon="6.69697">
        <ele>609</ele>
        <time>2014-10-30T12:20:36.1Z</time>
      </trkpt>
      <trkpt lat="47.86238" lon="6.69692">
        <ele>610</ele>
        <time>2014-10-30T12:20:39.1Z</time>
      </trkpt>
      <trkpt lat="47.86241" lon="6.69685">
        <ele>610</ele>
        <time>2014-10-30T12:20:42.1Z</time>
      </trkpt>
      <trkpt lat="47.86243" lon="6.69677">
        <ele>610</ele>
        <time>2014-10-30T12:20:45.1Z</time>
      </trkpt>
      <trkpt lat="47.86246" lon="6.69672">
        <ele>610</ele>
        <time>2014-10-30T12:20:47.1Z</time>
      </trkpt>
      <trkpt lat="47.86249" lon="6.69667">
        <ele>610</ele>
        <time>2014-10-30T12:20:49.1Z</time>
      </trkpt>
      <trkpt lat="47.86254" lon="6.69664">
        <ele>610</ele>
        <time>2014-10-30T12:20:51.1Z</time>
      </trkpt>
      <trkpt lat="47.86259" lon="6.69662">
        <ele>610</ele>
        <time>2014-10-30T12:20:53.1Z</time>
      </trkpt>
      <trkpt lat="47.86266" lon="6.69663">
        <ele>609</ele>
        <time>2014-10-30T12:20:56.1Z</time>
      </trkpt>
      <trkpt lat="47.86269" lon="6.6966">
        <ele>609</ele>
        <time>2014-10-30T12:20:58.1Z</time>
      </trkpt>
      <trkpt lat="47.86272" lon="6.69654">
        <ele>609</ele>
        <time>2014-10-30T12:21:00.1Z</time>
      </trkpt>
      <trkpt lat="47.86276" lon="6.69645">
        <ele>609</ele>
        <time>2014-10-30T12:21:03.1Z</time>
      </trkpt>
      <trkpt lat="47.8628" lon="6.69639">
        <ele>609</ele>
        <time>2014-10-30T12:21:05.1Z</time>
      </trkpt>
      <trkpt lat="47.86285" lon="6.69629">
        <ele>609</ele>
        <time>2014-10-30T12:21:08.1Z</time>
      </trkpt>
      <trkpt lat="47.86285" lon="6.69619">
        <ele>608</ele>
        <time>2014-10-30T12:21:10.1Z</time>
      </trkpt>
      <trkpt lat="47.86282" lon="6.69605">
        <ele>608</ele>
        <time>2014-10-30T12:21:13.1Z</time>
      </trkpt>
      <trkpt lat="47.86278" lon="6.6959">
        <ele>607</ele>
        <time>2014-10-30T12:21:16.1Z</time>
      </trkpt>
      <trkpt lat="47.86276" lon="6.69584">
        <ele>607</ele>
        <time>2014-10-30T12:21:18.1Z</time>
      </trkpt>
      <trkpt lat="47.86275" lon="6.69579">
        <ele>607</ele>
        <time>2014-10-30T12:21:21.1Z</time>
      </trkpt>
      <trkpt lat="47.86275" lon="6.69577">
        <ele>607</ele>
        <time>2014-10-30T12:21:23.1Z</time>
      </trkpt>
      <trkpt lat="47.86274" lon="6.69575">
        <ele>607</ele>
        <time>2014-10-30T12:21:25.1Z</time>
      </trkpt>
      <trkpt lat="47.86274" lon="6.69573">
        <ele>607</ele>
        <time>2014-10-30T12:21:28.1Z</time>
      </trkpt>
      <trkpt lat="47.86274" lon="6.69571">
        <ele>607</ele>
        <time>2014-10-30T12:21:31.1Z</time>
      </trkpt>
      <trkpt lat="47.86273" lon="6.69569">
        <ele>606</ele>
        <time>2014-10-30T12:21:34.1Z</time>
      </trkpt>
      <trkpt lat="47.86273" lon="6.69569">
        <ele>606</ele>
        <time>2014-10-30T12:21:36.1Z</time>
      </trkpt>
      <trkpt lat="47.86273" lon="6.69568">
        <ele>606</ele>
        <time>2014-10-30T12:21:38.1Z</time>
      </trkpt>
      <trkpt lat="47.86276" lon="6.69565">
        <ele>607</ele>
        <time>2014-10-30T12:21:41.1Z</time>
      </trkpt>
      <trkpt lat="47.86277" lon="6.69569">
        <ele>607</ele>
        <time>2014-10-30T12:21:43.1Z</time>
      </trkpt>
      <trkpt lat="47.86277" lon="6.69572">
        <ele>607</ele>
        <time>2014-10-30T12:21:45.1Z</time>
      </trkpt>
      <trkpt lat="47.86277" lon="6.69579">
        <ele>607</ele>
        <time>2014-10-30T12:21:48.1Z</time>
      </trkpt>
      <trkpt lat="47.86278" lon="6.69584">
        <ele>607</ele>
        <time>2014-10-30T12:21:51.1Z</time>
      </trkpt>
      <trkpt lat="47.86279" lon="6.69587">
        <ele>607</ele>
        <time>2014-10-30T12:21:54.1Z</time>
      </trkpt>
      <trkpt lat="47.8628" lon="6.6959">
        <ele>608</ele>
        <time>2014-10-30T12:21:57.1Z</time>
      </trkpt>
      <trkpt lat="47.86281" lon="6.69594">
        <ele>608</ele>
        <time>2014-10-30T12:22:00.1Z</time>
      </trkpt>
      <trkpt lat="47.86283" lon="6.69598">
        <ele>608</ele>
        <time>2014-10-30T12:22:02.1Z</time>
      </trkpt>
      <trkpt lat="47.86282" lon="6.69602">
        <ele>608</ele>
        <time>2014-10-30T12:22:05.1Z</time>
      </trkpt>
      <trkpt lat="47.86283" lon="6.69603">
        <ele>608</ele>
        <time>2014-10-30T12:22:07.1Z</time>
      </trkpt>
      <trkpt lat="47.86284" lon="6.69604">
        <ele>608</ele>
        <time>2014-10-30T12:22:10.1Z</time>
      </trkpt>
      <trkpt lat="47.86283" lon="6.69604">
        <ele>608</ele>
        <time>2014-10-30T12:22:13.1Z</time>
      </trkpt>
      <trkpt lat="47.86282" lon="6.69605">
        <ele>608</ele>
        <time>2014-10-30T12:22:15.1Z</time>
      </trkpt>
      <trkpt lat="47.86282" lon="6.69605">
        <ele>608</ele>
        <time>2014-10-30T12:22:18.1Z</time>
      </trkpt>
      <trkpt lat="47.86281" lon="6.69606">
        <ele>609</ele>
        <time>2014-10-30T12:22:21.1Z</time>
      </trkpt>
      <trkpt lat="47.86281" lon="6.69606">
        <ele>609</ele>
        <time>2014-10-30T12:22:23.1Z</time>
      </trkpt>
      <trkpt lat="47.86281" lon="6.69607">
        <ele>609</ele>
        <time>2014-10-30T12:22:26.1Z</time>
      </trkpt>
      <trkpt lat="47.8628" lon="6.69608">
        <ele>609</ele>
        <time>2014-10-30T12:22:29.1Z</time>
      </trkpt>
      <trkpt lat="47.8628" lon="6.69608">
        <ele>609</ele>
        <time>2014-10-30T12:22:31.1Z</time>
      </trkpt>
      <trkpt lat="47.86279" lon="6.69608">
        <ele>609</ele>
        <time>2014-10-30T12:22:34.1Z</time>
      </trkpt>
      <trkpt lat="47.86278" lon="6.69611">
        <ele>609</ele>
        <time>2014-10-30T12:22:37.1Z</time>
      </trkpt>
      <trkpt lat="47.86278" lon="6.69612">
        <ele>609</ele>
        <time>2014-10-30T12:22:40.1Z</time>
      </trkpt>
      <trkpt lat="47.86279" lon="6.69614">
        <ele>609</ele>
        <time>2014-10-30T12:22:42.1Z</time>
      </trkpt>
      <trkpt lat="47.86279" lon="6.69614">
        <ele>609</ele>
        <time>2014-10-30T12:22:44.1Z</time>
      </trkpt>
      <trkpt lat="47.8628" lon="6.69615">
        <ele>609</ele>
        <time>2014-10-30T12:22:46.1Z</time>
      </trkpt>
      <trkpt lat="47.8628" lon="6.69616">
        <ele>609</ele>
        <time>2014-10-30T12:22:49.1Z</time>
      </trkpt>
      <trkpt lat="47.86281" lon="6.69616">
        <ele>609</ele>
        <time>2014-10-30T12:22:52.1Z</time>
      </trkpt>
      <trkpt lat="47.86282" lon="6.69616">
        <ele>609</ele>
        <time>2014-10-30T12:22:55.1Z</time>
      </trkpt>
      <trkpt lat="47.86282" lon="6.69616">
        <ele>609</ele>
        <time>2014-10-30T12:22:58.1Z</time>
      </trkpt>
      <trkpt lat="47.86283" lon="6.69616">
        <ele>608</ele>
        <time>2014-10-30T12:23:01.1Z</time>
      </trkpt>
      <trkpt lat="47.86283" lon="6.69616">
        <ele>608</ele>
        <time>2014-10-30T12:23:04.1Z</time>
      </trkpt>
      <trkpt lat="47.86284" lon="6.69616">
        <ele>608</ele>
        <time>2014-10-30T12:23:06.1Z</time>
      </trkpt>
      <trkpt lat="47.86284" lon="6.69616">
        <ele>608</ele>
        <time>2014-10-30T12:23:09.1Z</time>
      </trkpt>
      <trkpt lat="47.86285" lon="6.69616">
        <ele>608</ele>
        <time>2014-10-30T12:23:12.1Z</time>
      </trkpt>
      <trkpt lat="47.86285" lon="6.69616">
        <ele>609</ele>
        <time>2014-10-30T12:23:14.1Z</time>
      </trkpt>
      <trkpt lat="47.86285" lon="6.69616">
        <ele>609</ele>
        <time>2014-10-30T12:23:16.1Z</time>
      </trkpt>
      <trkpt lat="47.86286" lon="6.69616">
        <ele>609</ele>
        <time>2014-10-30T12:23:18.1Z</time>
      </trkpt>
      <trkpt lat="47.86286" lon="6.69615">
        <ele>609</ele>
        <time>2014-10-30T12:23:21.1Z</time>
      </trkpt>
      <trkpt lat="47.86286" lon="6.69614">
        <ele>609</ele>
        <time>2014-10-30T12:23:24.1Z</time>
      </trkpt>
      <trkpt lat="47.86286" lon="6.69613">
        <ele>609</ele>
        <time>2014-10-30T12:23:27.1Z</time>
      </trkpt>
      <trkpt lat="47.86286" lon="6.69613">
        <ele>609</ele>
        <time>2014-10-30T12:23:31.1Z</time>
      </trkpt>
      <trkpt lat="47.86285" lon="6.69612">
        <ele>608</ele>
        <time>2014-10-30T12:23:34.1Z</time>
      </trkpt>
      <trkpt lat="47.86285" lon="6.69612">
        <ele>609</ele>
        <time>2014-10-30T12:23:37.1Z</time>
      </trkpt>
      <trkpt lat="47.86286" lon="6.69613">
        <ele>609</ele>
        <time>2014-10-30T12:23:39.1Z</time>
      </trkpt>
      <trkpt lat="47.86286" lon="6.69614">
        <ele>609</ele>
        <time>2014-10-30T12:23:42.1Z</time>
      </trkpt>
      <trkpt lat="47.86286" lon="6.69615">
        <ele>609</ele>
        <time>2014-10-30T12:23:45.1Z</time>
      </trkpt>
      <trkpt lat="47.86287" lon="6.69617">
        <ele>608</ele>
        <time>2014-10-30T12:23:48.1Z</time>
      </trkpt>
      <trkpt lat="47.86287" lon="6.69617">
        <ele>608</ele>
        <time>2014-10-30T12:23:51.1Z</time>
      </trkpt>
      <trkpt lat="47.86287" lon="6.69617">
        <ele>608</ele>
        <time>2014-10-30T12:23:53.1Z</time>
      </trkpt>
      <trkpt lat="47.86287" lon="6.69617">
        <ele>608</ele>
        <time>2014-10-30T12:23:56.1Z</time>
      </trkpt>
      <trkpt lat="47.86288" lon="6.69615">
        <ele>608</ele>
        <time>2014-10-30T12:23:59.1Z</time>
      </trkpt>
      <trkpt lat="47.86289" lon="6.6961">
        <ele>609</ele>
        <time>2014-10-30T12:24:01.1Z</time>
      </trkpt>
      <trkpt lat="47.86289" lon="6.69604">
        <ele>608</ele>
        <time>2014-10-30T12:24:03.1Z</time>
      </trkpt>
      <trkpt lat="47.86291" lon="6.69597">
        <ele>608</ele>
        <time>2014-10-30T12:24:06.1Z</time>
      </trkpt>
      <trkpt lat="47.86297" lon="6.69585">
        <ele>607</ele>
        <time>2014-10-30T12:24:08.1Z</time>
      </trkpt>
      <trkpt lat="47.86302" lon="6.69581">
        <ele>607</ele>
        <time>2014-10-30T12:24:11.1Z</time>
      </trkpt>
      <trkpt lat="47.86305" lon="6.6958">
        <ele>607</ele>
        <time>2014-10-30T12:24:13.1Z</time>
      </trkpt>
      <trkpt lat="47.86312" lon="6.69576">
        <ele>606</ele>
        <time>2014-10-30T12:24:16.1Z</time>
      </trkpt>
      <trkpt lat="47.86317" lon="6.69572">
        <ele>606</ele>
        <time>2014-10-30T12:24:18.1Z</time>
      </trkpt>
      <trkpt lat="47.86326" lon="6.69569">
        <ele>605</ele>
        <time>2014-10-30T12:24:21.1Z</time>
      </trkpt>
      <trkpt lat="47.86332" lon="6.69566">
        <ele>604</ele>
        <time>2014-10-30T12:24:23.1Z</time>
      </trkpt>
      <trkpt lat="47.86338" lon="6.69563">
        <ele>602</ele>
        <time>2014-10-30T12:24:26.1Z</time>
      </trkpt>
      <trkpt lat="47.86341" lon="6.69562">
        <ele>601</ele>
        <time>2014-10-30T12:24:28.1Z</time>
      </trkpt>
      <trkpt lat="47.86341" lon="6.69561">
        <ele>600</ele>
        <time>2014-10-30T12:24:30.1Z</time>
      </trkpt>
      <trkpt lat="47.86342" lon="6.69561">
        <ele>600</ele>
        <time>2014-10-30T12:24:33.1Z</time>
      </trkpt>
      <trkpt lat="47.86342" lon="6.6956">
        <ele>600</ele>
        <time>2014-10-30T12:24:35.1Z</time>
      </trkpt>
      <trkpt lat="47.86343" lon="6.69559">
        <ele>600</ele>
        <time>2014-10-30T12:24:38.1Z</time>
      </trkpt>
      <trkpt lat="47.86343" lon="6.69558">
        <ele>601</ele>
        <time>2014-10-30T12:24:41.1Z</time>
      </trkpt>
      <trkpt lat="47.86344" lon="6.69558">
        <ele>601</ele>
        <time>2014-10-30T12:24:43.1Z</time>
      </trkpt>
      <trkpt lat="47.86345" lon="6.69557">
        <ele>600</ele>
        <time>2014-10-30T12:24:45.1Z</time>
      </trkpt>
      <trkpt lat="47.86345" lon="6.69557">
        <ele>600</ele>
        <time>2014-10-30T12:24:48.1Z</time>
      </trkpt>
      <trkpt lat="47.86346" lon="6.69556">
        <ele>600</ele>
        <time>2014-10-30T12:24:51.1Z</time>
      </trkpt>
      <trkpt lat="47.86346" lon="6.69556">
        <ele>600</ele>
        <time>2014-10-30T12:24:54.1Z</time>
      </trkpt>
      <trkpt lat="47.86347" lon="6.69555">
        <ele>600</ele>
        <time>2014-10-30T12:24:56.1Z</time>
      </trkpt>
      <trkpt lat="47.86347" lon="6.69554">
        <ele>601</ele>
        <time>2014-10-30T12:24:58.1Z</time>
      </trkpt>
      <trkpt lat="47.86348" lon="6.69554">
        <ele>600</ele>
        <time>2014-10-30T12:25:02.1Z</time>
      </trkpt>
      <trkpt lat="47.86348" lon="6.69554">
        <ele>600</ele>
        <time>2014-10-30T12:25:04.1Z</time>
      </trkpt>
      <trkpt lat="47.86348" lon="6.69554">
        <ele>600</ele>
        <time>2014-10-30T12:25:07.1Z</time>
      </trkpt>
      <trkpt lat="47.86348" lon="6.69553">
        <ele>601</ele>
        <time>2014-10-30T12:25:09.1Z</time>
      </trkpt>
      <trkpt lat="47.86348" lon="6.69553">
        <ele>601</ele>
        <time>2014-10-30T12:25:12.1Z</time>
      </trkpt>
      <trkpt lat="47.86348" lon="6.69553">
        <ele>601</ele>
        <time>2014-10-30T12:25:14.1Z</time>
      </trkpt>
      <trkpt lat="47.86349" lon="6.69553">
        <ele>600</ele>
        <time>2014-10-30T12:25:18.1Z</time>
      </trkpt>
      <trkpt lat="47.86349" lon="6.69553">
        <ele>600</ele>
        <time>2014-10-30T12:25:21.1Z</time>
      </trkpt>
      <trkpt lat="47.86349" lon="6.69553">
        <ele>601</ele>
        <time>2014-10-30T12:25:27.1Z</time>
      </trkpt>
      <trkpt lat="47.86349" lon="6.69553">
        <ele>600</ele>
        <time>2014-10-30T12:25:29.1Z</time>
      </trkpt>
      <trkpt lat="47.86349" lon="6.69553">
        <ele>600</ele>
        <time>2014-10-30T12:25:32.1Z</time>
      </trkpt>
      <trkpt lat="47.86349" lon="6.69554">
        <ele>600</ele>
        <time>2014-10-30T12:25:36.1Z</time>
      </trkpt>
      <trkpt lat="47.86349" lon="6.69554">
        <ele>601</ele>
        <time>2014-10-30T12:25:39.1Z</time>
      </trkpt>
      <trkpt lat="47.86349" lon="6.69554">
        <ele>600</ele>
        <time>2014-10-30T12:25:42.1Z</time>
      </trkpt>
      <trkpt lat="47.86349" lon="6.69554">
        <ele>600</ele>
        <time>2014-10-30T12:25:45.1Z</time>
      </trkpt>
      <trkpt lat="47.86349" lon="6.69555">
        <ele>600</ele>
        <time>2014-10-30T12:25:49.1Z</time>
      </trkpt>
      <trkpt lat="47.86349" lon="6.69555">
        <ele>600</ele>
        <time>2014-10-30T12:25:53.1Z</time>
      </trkpt>
      <trkpt lat="47.86349" lon="6.69555">
        <ele>600</ele>
        <time>2014-10-30T12:25:55.1Z</time>
      </trkpt>
      <trkpt lat="47.86348" lon="6.69555">
        <ele>600</ele>
        <time>2014-10-30T12:25:58.1Z</time>
      </trkpt>
      <trkpt lat="47.86348" lon="6.69555">
        <ele>600</ele>
        <time>2014-10-30T12:26:01.1Z</time>
      </trkpt>
      <trkpt lat="47.86348" lon="6.69556">
        <ele>600</ele>
        <time>2014-10-30T12:26:03.1Z</time>
      </trkpt>
      <trkpt lat="47.86347" lon="6.69556">
        <ele>600</ele>
        <time>2014-10-30T12:26:07.1Z</time>
      </trkpt>
      <trkpt lat="47.86347" lon="6.69556">
        <ele>600</ele>
        <time>2014-10-30T12:26:09.1Z</time>
      </trkpt>
      <trkpt lat="47.86347" lon="6.69556">
        <ele>600</ele>
        <time>2014-10-30T12:26:12.1Z</time>
      </trkpt>
      <trkpt lat="47.86347" lon="6.69555">
        <ele>601</ele>
        <time>2014-10-30T12:26:15.1Z</time>
      </trkpt>
      <trkpt lat="47.86353" lon="6.69552">
        <ele>600</ele>
        <time>2014-10-30T12:26:17.1Z</time>
      </trkpt>
      <trkpt lat="47.86361" lon="6.69547">
        <ele>600</ele>
        <time>2014-10-30T12:26:20.1Z</time>
      </trkpt>
      <trkpt lat="47.86372" lon="6.69538">
        <ele>598</ele>
        <time>2014-10-30T12:26:23.1Z</time>
      </trkpt>
      <trkpt lat="47.86375" lon="6.69526">
        <ele>596</ele>
        <time>2014-10-30T12:26:26.1Z</time>
      </trkpt>
      <trkpt lat="47.86378" lon="6.69518">
        <ele>593</ele>
        <time>2014-10-30T12:26:28.1Z</time>
      </trkpt>
      <trkpt lat="47.86378" lon="6.69518">
        <ele>592</ele>
        <time>2014-10-30T12:26:30.1Z</time>
      </trkpt>
      <trkpt lat="47.86378" lon="6.69518">
        <ele>591</ele>
        <time>2014-10-30T12:26:33.1Z</time>
      </trkpt>
      <trkpt lat="47.86378" lon="6.69517">
        <ele>591</ele>
        <time>2014-10-30T12:26:35.1Z</time>
      </trkpt>
      <trkpt lat="47.86378" lon="6.69517">
        <ele>591</ele>
        <time>2014-10-30T12:26:39.1Z</time>
      </trkpt>
      <trkpt lat="47.86378" lon="6.69517">
        <ele>591</ele>
        <time>2014-10-30T12:26:41.1Z</time>
      </trkpt>
      <trkpt lat="47.86378" lon="6.69517">
        <ele>592</ele>
        <time>2014-10-30T12:26:46.1Z</time>
      </trkpt>
      <trkpt lat="47.86379" lon="6.69517">
        <ele>592</ele>
        <time>2014-10-30T12:26:48.1Z</time>
      </trkpt>
      <trkpt lat="47.86379" lon="6.69516">
        <ele>592</ele>
        <time>2014-10-30T12:26:51.1Z</time>
      </trkpt>
      <trkpt lat="47.86378" lon="6.69517">
        <ele>592</ele>
        <time>2014-10-30T12:26:53.1Z</time>
      </trkpt>
      <trkpt lat="47.86378" lon="6.69517">
        <ele>592</ele>
        <time>2014-10-30T12:26:55.1Z</time>
      </trkpt>
      <trkpt lat="47.86378" lon="6.69517">
        <ele>592</ele>
        <time>2014-10-30T12:26:58.1Z</time>
      </trkpt>
      <trkpt lat="47.86377" lon="6.69517">
        <ele>592</ele>
        <time>2014-10-30T12:27:01.1Z</time>
      </trkpt>
      <trkpt lat="47.86377" lon="6.69517">
        <ele>592</ele>
        <time>2014-10-30T12:27:04.1Z</time>
      </trkpt>
      <trkpt lat="47.86377" lon="6.69517">
        <ele>592</ele>
        <time>2014-10-30T12:27:06.1Z</time>
      </trkpt>
      <trkpt lat="47.86377" lon="6.69517">
        <ele>591</ele>
        <time>2014-10-30T12:27:09.1Z</time>
      </trkpt>
      <trkpt lat="47.86377" lon="6.69517">
        <ele>591</ele>
        <time>2014-10-30T12:27:12.1Z</time>
      </trkpt>
      <trkpt lat="47.86376" lon="6.69517">
        <ele>591</ele>
        <time>2014-10-30T12:27:14.1Z</time>
      </trkpt>
      <trkpt lat="47.86376" lon="6.69517">
        <ele>592</ele>
        <time>2014-10-30T12:27:19.1Z</time>
      </trkpt>
      <trkpt lat="47.86376" lon="6.69516">
        <ele>591</ele>
        <time>2014-10-30T12:27:24.1Z</time>
      </trkpt>
      <trkpt lat="47.86376" lon="6.69516">
        <ele>591</ele>
        <time>2014-10-30T12:27:27.1Z</time>
      </trkpt>
      <trkpt lat="47.86376" lon="6.69516">
        <ele>591</ele>
        <time>2014-10-30T12:27:30.1Z</time>
      </trkpt>
      <trkpt lat="47.86375" lon="6.69516">
        <ele>592</ele>
        <time>2014-10-30T12:27:33.1Z</time>
      </trkpt>
      <trkpt lat="47.86375" lon="6.69516">
        <ele>592</ele>
        <time>2014-10-30T12:27:37.1Z</time>
      </trkpt>
      <trkpt lat="47.86375" lon="6.69516">
        <ele>592</ele>
        <time>2014-10-30T12:27:39.1Z</time>
      </trkpt>
      <trkpt lat="47.86375" lon="6.69516">
        <ele>592</ele>
        <time>2014-10-30T12:27:42.1Z</time>
      </trkpt>
      <trkpt lat="47.86374" lon="6.69516">
        <ele>592</ele>
        <time>2014-10-30T12:27:45.1Z</time>
      </trkpt>
      <trkpt lat="47.86373" lon="6.69516">
        <ele>592</ele>
        <time>2014-10-30T12:27:47.1Z</time>
      </trkpt>
      <trkpt lat="47.86372" lon="6.69518">
        <ele>591</ele>
        <time>2014-10-30T12:27:50.1Z</time>
      </trkpt>
      <trkpt lat="47.86372" lon="6.69519">
        <ele>592</ele>
        <time>2014-10-30T12:27:53.1Z</time>
      </trkpt>
      <trkpt lat="47.86372" lon="6.69519">
        <ele>592</ele>
        <time>2014-10-30T12:27:55.1Z</time>
      </trkpt>
      <trkpt lat="47.86372" lon="6.69519">
        <ele>592</ele>
        <time>2014-10-30T12:27:57.1Z</time>
      </trkpt>
      <trkpt lat="47.86372" lon="6.6952">
        <ele>593</ele>
        <time>2014-10-30T12:28:00.1Z</time>
      </trkpt>
      <trkpt lat="47.86373" lon="6.69522">
        <ele>593</ele>
        <time>2014-10-30T12:28:02.1Z</time>
      </trkpt>
      <trkpt lat="47.86374" lon="6.69527">
        <ele>593</ele>
        <time>2014-10-30T12:28:04.1Z</time>
      </trkpt>
      <trkpt lat="47.86375" lon="6.6953">
        <ele>594</ele>
        <time>2014-10-30T12:28:07.1Z</time>
      </trkpt>
      <trkpt lat="47.86375" lon="6.69533">
        <ele>594</ele>
        <time>2014-10-30T12:28:09.1Z</time>
      </trkpt>
      <trkpt lat="47.86375" lon="6.69535">
        <ele>595</ele>
        <time>2014-10-30T12:28:12.1Z</time>
      </trkpt>
      <trkpt lat="47.86374" lon="6.69539">
        <ele>595</ele>
        <time>2014-10-30T12:28:15.1Z</time>
      </trkpt>
      <trkpt lat="47.86372" lon="6.69542">
        <ele>595</ele>
        <time>2014-10-30T12:28:17.1Z</time>
      </trkpt>
      <trkpt lat="47.86371" lon="6.69543">
        <ele>596</ele>
        <time>2014-10-30T12:28:20.1Z</time>
      </trkpt>
      <trkpt lat="47.8637" lon="6.69545">
        <ele>596</ele>
        <time>2014-10-30T12:28:22.1Z</time>
      </trkpt>
      <trkpt lat="47.86368" lon="6.69547">
        <ele>597</ele>
        <time>2014-10-30T12:28:25.1Z</time>
      </trkpt>
      <trkpt lat="47.86366" lon="6.69549">
        <ele>597</ele>
        <time>2014-10-30T12:28:28.1Z</time>
      </trkpt>
      <trkpt lat="47.86364" lon="6.6955">
        <ele>598</ele>
        <time>2014-10-30T12:28:30.1Z</time>
      </trkpt>
      <trkpt lat="47.86362" lon="6.69552">
        <ele>599</ele>
        <time>2014-10-30T12:28:33.1Z</time>
      </trkpt>
      <trkpt lat="47.86361" lon="6.69554">
        <ele>599</ele>
        <time>2014-10-30T12:28:35.1Z</time>
      </trkpt>
      <trkpt lat="47.86359" lon="6.69555">
        <ele>599</ele>
        <time>2014-10-30T12:28:38.1Z</time>
      </trkpt>
      <trkpt lat="47.86356" lon="6.69556">
        <ele>599</ele>
        <time>2014-10-30T12:28:41.1Z</time>
      </trkpt>
      <trkpt lat="47.86354" lon="6.69557">
        <ele>599</ele>
        <time>2014-10-30T12:28:43.1Z</time>
      </trkpt>
      <trkpt lat="47.86352" lon="6.69559">
        <ele>600</ele>
        <time>2014-10-30T12:28:45.1Z</time>
      </trkpt>
      <trkpt lat="47.8635" lon="6.69561">
        <ele>600</ele>
        <time>2014-10-30T12:28:48.1Z</time>
      </trkpt>
      <trkpt lat="47.86348" lon="6.69562">
        <ele>601</ele>
        <time>2014-10-30T12:28:51.1Z</time>
      </trkpt>
      <trkpt lat="47.86346" lon="6.69563">
        <ele>601</ele>
        <time>2014-10-30T12:28:54.1Z</time>
      </trkpt>
      <trkpt lat="47.86345" lon="6.69565">
        <ele>601</ele>
        <time>2014-10-30T12:28:56.1Z</time>
      </trkpt>
      <trkpt lat="47.86342" lon="6.69566">
        <ele>602</ele>
        <time>2014-10-30T12:28:59.1Z</time>
      </trkpt>
      <trkpt lat="47.86341" lon="6.69567">
        <ele>602</ele>
        <time>2014-10-30T12:29:01.1Z</time>
      </trkpt>
      <trkpt lat="47.86338" lon="6.69567">
        <ele>603</ele>
        <time>2014-10-30T12:29:03.1Z</time>
      </trkpt>
      <trkpt lat="47.86336" lon="6.69567">
        <ele>603</ele>
        <time>2014-10-30T12:29:06.1Z</time>
      </trkpt>
      <trkpt lat="47.86335" lon="6.69568">
        <ele>603</ele>
        <time>2014-10-30T12:29:08.1Z</time>
      </trkpt>
      <trkpt lat="47.86333" lon="6.69569">
        <ele>603</ele>
        <time>2014-10-30T12:29:11.1Z</time>
      </trkpt>
      <trkpt lat="47.86331" lon="6.6957">
        <ele>604</ele>
        <time>2014-10-30T12:29:13.1Z</time>
      </trkpt>
      <trkpt lat="47.8633" lon="6.6957">
        <ele>604</ele>
        <time>2014-10-30T12:29:15.1Z</time>
      </trkpt>
      <trkpt lat="47.86328" lon="6.6957">
        <ele>604</ele>
        <time>2014-10-30T12:29:17.1Z</time>
      </trkpt>
      <trkpt lat="47.86327" lon="6.69571">
        <ele>604</ele>
        <time>2014-10-30T12:29:20.1Z</time>
      </trkpt>
      <trkpt lat="47.86325" lon="6.69571">
        <ele>605</ele>
        <time>2014-10-30T12:29:22.1Z</time>
      </trkpt>
      <trkpt lat="47.86324" lon="6.69572">
        <ele>605</ele>
        <time>2014-10-30T12:29:26.1Z</time>
      </trkpt>
      <trkpt lat="47.86322" lon="6.69573">
        <ele>606</ele>
        <time>2014-10-30T12:29:28.1Z</time>
      </trkpt>
      <trkpt lat="47.86321" lon="6.69574">
        <ele>606</ele>
        <time>2014-10-30T12:29:31.1Z</time>
      </trkpt>
      <trkpt lat="47.8632" lon="6.69574">
        <ele>606</ele>
        <time>2014-10-30T12:29:33.1Z</time>
      </trkpt>
      <trkpt lat="47.86317" lon="6.69573">
        <ele>607</ele>
        <time>2014-10-30T12:29:35.1Z</time>
      </trkpt>
      <trkpt lat="47.86317" lon="6.69573">
        <ele>607</ele>
        <time>2014-10-30T12:29:37.1Z</time>
      </trkpt>
      <trkpt lat="47.86316" lon="6.69573">
        <ele>607</ele>
        <time>2014-10-30T12:29:41.1Z</time>
      </trkpt>
      <trkpt lat="47.86314" lon="6.69574">
        <ele>607</ele>
        <time>2014-10-30T12:29:43.1Z</time>
      </trkpt>
      <trkpt lat="47.86311" lon="6.69573">
        <ele>607</ele>
        <time>2014-10-30T12:29:47.1Z</time>
      </trkpt>
      <trkpt lat="47.86308" lon="6.69573">
        <ele>607</ele>
        <time>2014-10-30T12:29:49.1Z</time>
      </trkpt>
      <trkpt lat="47.86305" lon="6.69573">
        <ele>607</ele>
        <time>2014-10-30T12:29:51.1Z</time>
      </trkpt>
      <trkpt lat="47.86303" lon="6.69573">
        <ele>607</ele>
        <time>2014-10-30T12:29:53.1Z</time>
      </trkpt>
      <trkpt lat="47.86301" lon="6.69575">
        <ele>607</ele>
        <time>2014-10-30T12:29:55.1Z</time>
      </trkpt>
      <trkpt lat="47.86298" lon="6.69578">
        <ele>607</ele>
        <time>2014-10-30T12:29:57.1Z</time>
      </trkpt>
      <trkpt lat="47.86295" lon="6.69582">
        <ele>607</ele>
        <time>2014-10-30T12:29:59.1Z</time>
      </trkpt>
      <trkpt lat="47.86293" lon="6.69585">
        <ele>607</ele>
        <time>2014-10-30T12:30:01.1Z</time>
      </trkpt>
      <trkpt lat="47.86292" lon="6.6959">
        <ele>607</ele>
        <time>2014-10-30T12:30:04.1Z</time>
      </trkpt>
      <trkpt lat="47.86292" lon="6.69591">
        <ele>608</ele>
        <time>2014-10-30T12:30:08.1Z</time>
      </trkpt>
      <trkpt lat="47.86291" lon="6.69593">
        <ele>608</ele>
        <time>2014-10-30T12:30:10.1Z</time>
      </trkpt>
      <trkpt lat="47.86291" lon="6.69596">
        <ele>609</ele>
        <time>2014-10-30T12:30:13.1Z</time>
      </trkpt>
      <trkpt lat="47.86291" lon="6.69602">
        <ele>609</ele>
        <time>2014-10-30T12:30:16.1Z</time>
      </trkpt>
      <trkpt lat="47.8629" lon="6.69609">
        <ele>608</ele>
        <time>2014-10-30T12:30:19.1Z</time>
      </trkpt>
      <trkpt lat="47.86288" lon="6.69616">
        <ele>608</ele>
        <time>2014-10-30T12:30:21.1Z</time>
      </trkpt>
      <trkpt lat="47.86287" lon="6.6962">
        <ele>609</ele>
        <time>2014-10-30T12:30:24.1Z</time>
      </trkpt>
      <trkpt lat="47.86286" lon="6.69624">
        <ele>609</ele>
        <time>2014-10-30T12:30:26.1Z</time>
      </trkpt>
      <trkpt lat="47.86284" lon="6.69631">
        <ele>610</ele>
        <time>2014-10-30T12:30:29.1Z</time>
      </trkpt>
      <trkpt lat="47.86282" lon="6.69639">
        <ele>610</ele>
        <time>2014-10-30T12:30:31.1Z</time>
      </trkpt>
      <trkpt lat="47.86279" lon="6.69646">
        <ele>610</ele>
        <time>2014-10-30T12:30:34.1Z</time>
      </trkpt>
      <trkpt lat="47.86276" lon="6.69648">
        <ele>609</ele>
        <time>2014-10-30T12:30:36.1Z</time>
      </trkpt>
      <trkpt lat="47.86272" lon="6.69647">
        <ele>609</ele>
        <time>2014-10-30T12:30:39.1Z</time>
      </trkpt>
      <trkpt lat="47.86269" lon="6.69646">
        <ele>609</ele>
        <time>2014-10-30T12:30:41.1Z</time>
      </trkpt>
      <trkpt lat="47.86266" lon="6.69646">
        <ele>610</ele>
        <time>2014-10-30T12:30:44.1Z</time>
      </trkpt>
      <trkpt lat="47.86261" lon="6.69648">
        <ele>610</ele>
        <time>2014-10-30T12:30:46.1Z</time>
      </trkpt>
      <trkpt lat="47.86258" lon="6.69651">
        <ele>610</ele>
        <time>2014-10-30T12:30:48.1Z</time>
      </trkpt>
      <trkpt lat="47.86255" lon="6.69655">
        <ele>610</ele>
        <time>2014-10-30T12:30:51.1Z</time>
      </trkpt>
      <trkpt lat="47.86253" lon="6.6966">
        <ele>610</ele>
        <time>2014-10-30T12:30:53.1Z</time>
      </trkpt>
      <trkpt lat="47.86249" lon="6.69668">
        <ele>610</ele>
        <time>2014-10-30T12:30:55.1Z</time>
      </trkpt>
      <trkpt lat="47.86246" lon="6.69675">
        <ele>610</ele>
        <time>2014-10-30T12:30:57.1Z</time>
      </trkpt>
      <trkpt lat="47.86244" lon="6.69682">
        <ele>610</ele>
        <time>2014-10-30T12:31:00.1Z</time>
      </trkpt>
      <trkpt lat="47.8624" lon="6.69695">
        <ele>610</ele>
        <time>2014-10-30T12:31:02.1Z</time>
      </trkpt>
      <trkpt lat="47.86235" lon="6.69705">
        <ele>610</ele>
        <time>2014-10-30T12:31:04.1Z</time>
      </trkpt>
      <trkpt lat="47.86226" lon="6.6972">
        <ele>608</ele>
        <time>2014-10-30T12:31:07.1Z</time>
      </trkpt>
      <trkpt lat="47.86222" lon="6.69717">
        <ele>607</ele>
        <time>2014-10-30T12:31:10.1Z</time>
      </trkpt>
      <trkpt lat="47.86221" lon="6.69715">
        <ele>607</ele>
        <time>2014-10-30T12:31:12.1Z</time>
      </trkpt>
      <trkpt lat="47.86221" lon="6.69716">
        <ele>607</ele>
        <time>2014-10-30T12:31:15.1Z</time>
      </trkpt>
      <trkpt lat="47.86221" lon="6.69716">
        <ele>607</ele>
        <time>2014-10-30T12:31:19.1Z</time>
      </trkpt>
      <trkpt lat="47.8622" lon="6.69716">
        <ele>607</ele>
        <time>2014-10-30T12:31:21.1Z</time>
      </trkpt>
      <trkpt lat="47.86219" lon="6.69717">
        <ele>607</ele>
        <time>2014-10-30T12:31:23.1Z</time>
      </trkpt>
      <trkpt lat="47.86219" lon="6.69717">
        <ele>607</ele>
        <time>2014-10-30T12:31:25.1Z</time>
      </trkpt>
      <trkpt lat="47.86219" lon="6.69717">
        <ele>607</ele>
        <time>2014-10-30T12:31:28.1Z</time>
      </trkpt>
      <trkpt lat="47.86219" lon="6.69717">
        <ele>607</ele>
        <time>2014-10-30T12:31:31.1Z</time>
      </trkpt>
      <trkpt lat="47.86219" lon="6.69717">
        <ele>608</ele>
        <time>2014-10-30T12:31:33.1Z</time>
      </trkpt>
      <trkpt lat="47.86219" lon="6.69717">
        <ele>607</ele>
        <time>2014-10-30T12:31:36.1Z</time>
      </trkpt>
      <trkpt lat="47.86219" lon="6.69717">
        <ele>607</ele>
        <time>2014-10-30T12:31:38.1Z</time>
      </trkpt>
      <trkpt lat="47.86219" lon="6.69718">
        <ele>607</ele>
        <time>2014-10-30T12:31:41.1Z</time>
      </trkpt>
      <trkpt lat="47.86218" lon="6.69715">
        <ele>607</ele>
        <time>2014-10-30T12:31:43.1Z</time>
      </trkpt>
      <trkpt lat="47.86216" lon="6.69711">
        <ele>607</ele>
        <time>2014-10-30T12:31:46.1Z</time>
      </trkpt>
      <trkpt lat="47.86212" lon="6.69703">
        <ele>607</ele>
        <time>2014-10-30T12:31:48.1Z</time>
      </trkpt>
      <trkpt lat="47.86209" lon="6.69697">
        <ele>606</ele>
        <time>2014-10-30T12:31:50.1Z</time>
      </trkpt>
      <trkpt lat="47.86205" lon="6.69692">
        <ele>606</ele>
        <time>2014-10-30T12:31:53.1Z</time>
      </trkpt>
      <trkpt lat="47.86202" lon="6.69685">
        <ele>606</ele>
        <time>2014-10-30T12:31:55.1Z</time>
      </trkpt>
      <trkpt lat="47.86198" lon="6.69679">
        <ele>606</ele>
        <time>2014-10-30T12:31:57.1Z</time>
      </trkpt>
      <trkpt lat="47.86193" lon="6.69668">
        <ele>607</ele>
        <time>2014-10-30T12:31:59.1Z</time>
      </trkpt>
      <trkpt lat="47.86188" lon="6.69656">
        <ele>607</ele>
        <time>2014-10-30T12:32:02.1Z</time>
      </trkpt>
      <trkpt lat="47.86184" lon="6.69647">
        <ele>606</ele>
        <time>2014-10-30T12:32:04.1Z</time>
      </trkpt>
      <trkpt lat="47.86178" lon="6.69634">
        <ele>607</ele>
        <time>2014-10-30T12:32:07.1Z</time>
      </trkpt>
      <trkpt lat="47.86174" lon="6.69625">
        <ele>607</ele>
        <time>2014-10-30T12:32:09.1Z</time>
      </trkpt>
      <trkpt lat="47.86169" lon="6.69614">
        <ele>607</ele>
        <time>2014-10-30T12:32:13.1Z</time>
      </trkpt>
      <trkpt lat="47.86163" lon="6.69604">
        <ele>607</ele>
        <time>2014-10-30T12:32:15.1Z</time>
      </trkpt>
      <trkpt lat="47.86157" lon="6.69597">
        <ele>607</ele>
        <time>2014-10-30T12:32:18.1Z</time>
      </trkpt>
      <trkpt lat="47.86154" lon="6.69594">
        <ele>607</ele>
        <time>2014-10-30T12:32:20.1Z</time>
      </trkpt>
      <trkpt lat="47.86151" lon="6.69589">
        <ele>607</ele>
        <time>2014-10-30T12:32:23.1Z</time>
      </trkpt>
      <trkpt lat="47.86143" lon="6.69578">
        <ele>606</ele>
        <time>2014-10-30T12:32:26.1Z</time>
      </trkpt>
      <trkpt lat="47.86136" lon="6.69573">
        <ele>605</ele>
        <time>2014-10-30T12:32:29.1Z</time>
      </trkpt>
      <trkpt lat="47.86131" lon="6.69567">
        <ele>604</ele>
        <time>2014-10-30T12:32:31.1Z</time>
      </trkpt>
      <trkpt lat="47.86127" lon="6.69563">
        <ele>603</ele>
        <time>2014-10-30T12:32:33.1Z</time>
      </trkpt>
      <trkpt lat="47.86123" lon="6.69559">
        <ele>603</ele>
        <time>2014-10-30T12:32:36.1Z</time>
      </trkpt>
      <trkpt lat="47.86111" lon="6.69554">
        <ele>602</ele>
        <time>2014-10-30T12:32:38.1Z</time>
      </trkpt>
      <trkpt lat="47.86101" lon="6.69546">
        <ele>601</ele>
        <time>2014-10-30T12:32:42.1Z</time>
      </trkpt>
      <trkpt lat="47.86096" lon="6.69535">
        <ele>600</ele>
        <time>2014-10-30T12:32:44.1Z</time>
      </trkpt>
      <trkpt lat="47.86088" lon="6.69521">
        <ele>599</ele>
        <time>2014-10-30T12:32:46.1Z</time>
      </trkpt>
      <trkpt lat="47.86081" lon="6.69512">
        <ele>598</ele>
        <time>2014-10-30T12:32:49.1Z</time>
      </trkpt>
      <trkpt lat="47.8607" lon="6.69501">
        <ele>597</ele>
        <time>2014-10-30T12:32:51.1Z</time>
      </trkpt>
      <trkpt lat="47.86063" lon="6.69494">
        <ele>597</ele>
        <time>2014-10-30T12:32:54.1Z</time>
      </trkpt>
      <trkpt lat="47.86058" lon="6.69491">
        <ele>597</ele>
        <time>2014-10-30T12:32:56.1Z</time>
      </trkpt>
      <trkpt lat="47.86055" lon="6.69488">
        <ele>597</ele>
        <time>2014-10-30T12:32:59.1Z</time>
      </trkpt>
      <trkpt lat="47.86047" lon="6.69485">
        <ele>597</ele>
        <time>2014-10-30T12:33:01.1Z</time>
      </trkpt>
      <trkpt lat="47.86041" lon="6.69481">
        <ele>596</ele>
        <time>2014-10-30T12:33:04.1Z</time>
      </trkpt>
      <trkpt lat="47.86037" lon="6.69478">
        <ele>596</ele>
        <time>2014-10-30T12:33:06.1Z</time>
      </trkpt>
      <trkpt lat="47.86029" lon="6.69473">
        <ele>596</ele>
        <time>2014-10-30T12:33:10.1Z</time>
      </trkpt>
      <trkpt lat="47.86025" lon="6.69468">
        <ele>596</ele>
        <time>2014-10-30T12:33:12.1Z</time>
      </trkpt>
      <trkpt lat="47.86023" lon="6.69466">
        <ele>596</ele>
        <time>2014-10-30T12:33:14.1Z</time>
      </trkpt>
      <trkpt lat="47.86022" lon="6.69465">
        <ele>596</ele>
        <time>2014-10-30T12:33:16.1Z</time>
      </trkpt>
      <trkpt lat="47.86021" lon="6.69463">
        <ele>596</ele>
        <time>2014-10-30T12:33:18.1Z</time>
      </trkpt>
      <trkpt lat="47.8602" lon="6.69463">
        <ele>596</ele>
        <time>2014-10-30T12:33:20.1Z</time>
      </trkpt>
      <trkpt lat="47.8602" lon="6.69462">
        <ele>596</ele>
        <time>2014-10-30T12:33:23.1Z</time>
      </trkpt>
      <trkpt lat="47.86019" lon="6.69461">
        <ele>596</ele>
        <time>2014-10-30T12:33:25.1Z</time>
      </trkpt>
      <trkpt lat="47.86018" lon="6.69461">
        <ele>596</ele>
        <time>2014-10-30T12:33:27.1Z</time>
      </trkpt>
      <trkpt lat="47.86016" lon="6.69461">
        <ele>596</ele>
        <time>2014-10-30T12:33:30.1Z</time>
      </trkpt>
      <trkpt lat="47.86016" lon="6.6946">
        <ele>596</ele>
        <time>2014-10-30T12:33:32.1Z</time>
      </trkpt>
      <trkpt lat="47.86015" lon="6.6946">
        <ele>596</ele>
        <time>2014-10-30T12:33:35.1Z</time>
      </trkpt>
      <trkpt lat="47.86014" lon="6.69459">
        <ele>596</ele>
        <time>2014-10-30T12:33:37.1Z</time>
      </trkpt>
      <trkpt lat="47.86013" lon="6.69459">
        <ele>596</ele>
        <time>2014-10-30T12:33:39.1Z</time>
      </trkpt>
      <trkpt lat="47.86012" lon="6.69459">
        <ele>596</ele>
        <time>2014-10-30T12:33:42.1Z</time>
      </trkpt>
      <trkpt lat="47.8601" lon="6.69458">
        <ele>596</ele>
        <time>2014-10-30T12:33:44.1Z</time>
      </trkpt>
      <trkpt lat="47.86006" lon="6.69457">
        <ele>596</ele>
        <time>2014-10-30T12:33:46.1Z</time>
      </trkpt>
      <trkpt lat="47.86002" lon="6.69455">
        <ele>596</ele>
        <time>2014-10-30T12:33:48.1Z</time>
      </trkpt>
      <trkpt lat="47.85997" lon="6.69454">
        <ele>596</ele>
        <time>2014-10-30T12:33:51.1Z</time>
      </trkpt>
      <trkpt lat="47.85988" lon="6.69453">
        <ele>596</ele>
        <time>2014-10-30T12:33:53.1Z</time>
      </trkpt>
      <trkpt lat="47.8598" lon="6.69448">
        <ele>595</ele>
        <time>2014-10-30T12:33:55.1Z</time>
      </trkpt>
      <trkpt lat="47.85974" lon="6.69444">
        <ele>595</ele>
        <time>2014-10-30T12:33:57.1Z</time>
      </trkpt>
      <trkpt lat="47.85964" lon="6.69433">
        <ele>594</ele>
        <time>2014-10-30T12:34:00.1Z</time>
      </trkpt>
      <trkpt lat="47.8596" lon="6.69425">
        <ele>593</ele>
        <time>2014-10-30T12:34:02.1Z</time>
      </trkpt>
      <trkpt lat="47.85957" lon="6.69419">
        <ele>593</ele>
        <time>2014-10-30T12:34:04.1Z</time>
      </trkpt>
      <trkpt lat="47.85952" lon="6.69414">
        <ele>593</ele>
        <time>2014-10-30T12:34:07.1Z</time>
      </trkpt>
      <trkpt lat="47.85946" lon="6.69403">
        <ele>593</ele>
        <time>2014-10-30T12:34:09.1Z</time>
      </trkpt>
      <trkpt lat="47.85943" lon="6.69394">
        <ele>594</ele>
        <time>2014-10-30T12:34:11.1Z</time>
      </trkpt>
      <trkpt lat="47.8594" lon="6.69384">
        <ele>594</ele>
        <time>2014-10-30T12:34:13.1Z</time>
      </trkpt>
      <trkpt lat="47.85936" lon="6.69366">
        <ele>594</ele>
        <time>2014-10-30T12:34:16.1Z</time>
      </trkpt>
      <trkpt lat="47.85933" lon="6.69355">
        <ele>593</ele>
        <time>2014-10-30T12:34:18.1Z</time>
      </trkpt>
      <trkpt lat="47.85929" lon="6.6934">
        <ele>592</ele>
        <time>2014-10-30T12:34:21.1Z</time>
      </trkpt>
      <trkpt lat="47.85925" lon="6.69331">
        <ele>592</ele>
        <time>2014-10-30T12:34:24.1Z</time>
      </trkpt>
      <trkpt lat="47.85916" lon="6.69315">
        <ele>592</ele>
        <time>2014-10-30T12:34:26.1Z</time>
      </trkpt>
      <trkpt lat="47.85912" lon="6.69304">
        <ele>591</ele>
        <time>2014-10-30T12:34:28.1Z</time>
      </trkpt>
      <trkpt lat="47.85909" lon="6.69295">
        <ele>591</ele>
        <time>2014-10-30T12:34:30.1Z</time>
      </trkpt>
      <trkpt lat="47.85903" lon="6.6928">
        <ele>590</ele>
        <time>2014-10-30T12:34:33.1Z</time>
      </trkpt>
      <trkpt lat="47.85901" lon="6.69268">
        <ele>590</ele>
        <time>2014-10-30T12:34:36.1Z</time>
      </trkpt>
      <trkpt lat="47.85899" lon="6.69255">
        <ele>590</ele>
        <time>2014-10-30T12:34:38.1Z</time>
      </trkpt>
      <trkpt lat="47.85891" lon="6.6924">
        <ele>590</ele>
        <time>2014-10-30T12:34:40.1Z</time>
      </trkpt>
      <trkpt lat="47.85885" lon="6.69234">
        <ele>590</ele>
        <time>2014-10-30T12:34:42.1Z</time>
      </trkpt>
      <trkpt lat="47.85875" lon="6.69228">
        <ele>589</ele>
        <time>2014-10-30T12:34:45.1Z</time>
      </trkpt>
      <trkpt lat="47.85868" lon="6.69218">
        <ele>589</ele>
        <time>2014-10-30T12:34:48.1Z</time>
      </trkpt>
      <trkpt lat="47.85867" lon="6.69209">
        <ele>589</ele>
        <time>2014-10-30T12:34:50.1Z</time>
      </trkpt>
      <trkpt lat="47.85867" lon="6.69194">
        <ele>590</ele>
        <time>2014-10-30T12:34:53.1Z</time>
      </trkpt>
      <trkpt lat="47.85873" lon="6.69184">
        <ele>589</ele>
        <time>2014-10-30T12:34:55.1Z</time>
      </trkpt>
      <trkpt lat="47.85876" lon="6.69172">
        <ele>588</ele>
        <time>2014-10-30T12:34:57.1Z</time>
      </trkpt>
      <trkpt lat="47.85881" lon="6.69147">
        <ele>586</ele>
        <time>2014-10-30T12:35:00.1Z</time>
      </trkpt>
      <trkpt lat="47.85888" lon="6.69129">
        <ele>584</ele>
        <time>2014-10-30T12:35:03.1Z</time>
      </trkpt>
      <trkpt lat="47.85898" lon="6.69099">
        <ele>582</ele>
        <time>2014-10-30T12:35:05.1Z</time>
      </trkpt>
      <trkpt lat="47.85905" lon="6.69079">
        <ele>581</ele>
        <time>2014-10-30T12:35:07.1Z</time>
      </trkpt>
      <trkpt lat="47.85909" lon="6.69059">
        <ele>580</ele>
        <time>2014-10-30T12:35:09.1Z</time>
      </trkpt>
      <trkpt lat="47.85909" lon="6.69033">
        <ele>579</ele>
        <time>2014-10-30T12:35:12.1Z</time>
      </trkpt>
      <trkpt lat="47.85907" lon="6.69015">
        <ele>579</ele>
        <time>2014-10-30T12:35:14.1Z</time>
      </trkpt>
      <trkpt lat="47.85903" lon="6.6899">
        <ele>579</ele>
        <time>2014-10-30T12:35:17.1Z</time>
      </trkpt>
      <trkpt lat="47.859" lon="6.68974">
        <ele>579</ele>
        <time>2014-10-30T12:35:19.1Z</time>
      </trkpt>
      <trkpt lat="47.85897" lon="6.6895">
        <ele>579</ele>
        <time>2014-10-30T12:35:22.1Z</time>
      </trkpt>
      <trkpt lat="47.85891" lon="6.68927">
        <ele>579</ele>
        <time>2014-10-30T12:35:26.1Z</time>
      </trkpt>
      <trkpt lat="47.85887" lon="6.68912">
        <ele>579</ele>
        <time>2014-10-30T12:35:28.1Z</time>
      </trkpt>
      <trkpt lat="47.85883" lon="6.68896">
        <ele>579</ele>
        <time>2014-10-30T12:35:30.1Z</time>
      </trkpt>
      <trkpt lat="47.85879" lon="6.6888">
        <ele>579</ele>
        <time>2014-10-30T12:35:32.1Z</time>
      </trkpt>
      <trkpt lat="47.85874" lon="6.68856">
        <ele>580</ele>
        <time>2014-10-30T12:35:34.1Z</time>
      </trkpt>
      <trkpt lat="47.85872" lon="6.6884">
        <ele>579</ele>
        <time>2014-10-30T12:35:36.1Z</time>
      </trkpt>
      <trkpt lat="47.85871" lon="6.68815">
        <ele>578</ele>
        <time>2014-10-30T12:35:39.1Z</time>
      </trkpt>
      <trkpt lat="47.85871" lon="6.68799">
        <ele>578</ele>
        <time>2014-10-30T12:35:41.1Z</time>
      </trkpt>
      <trkpt lat="47.85871" lon="6.68783">
        <ele>577</ele>
        <time>2014-10-30T12:35:43.1Z</time>
      </trkpt>
      <trkpt lat="47.8587" lon="6.68767">
        <ele>577</ele>
        <time>2014-10-30T12:35:45.1Z</time>
      </trkpt>
      <trkpt lat="47.85871" lon="6.68742">
        <ele>576</ele>
        <time>2014-10-30T12:35:48.1Z</time>
      </trkpt>
      <trkpt lat="47.85878" lon="6.6872">
        <ele>576</ele>
        <time>2014-10-30T12:35:51.1Z</time>
      </trkpt>
      <trkpt lat="47.85883" lon="6.68709">
        <ele>575</ele>
        <time>2014-10-30T12:35:53.1Z</time>
      </trkpt>
      <trkpt lat="47.85888" lon="6.68698">
        <ele>575</ele>
        <time>2014-10-30T12:35:55.1Z</time>
      </trkpt>
      <trkpt lat="47.85891" lon="6.6869">
        <ele>575</ele>
        <time>2014-10-30T12:35:57.1Z</time>
      </trkpt>
      <trkpt lat="47.85892" lon="6.68682">
        <ele>575</ele>
        <time>2014-10-30T12:36:00.1Z</time>
      </trkpt>
      <trkpt lat="47.8589" lon="6.68681">
        <ele>575</ele>
        <time>2014-10-30T12:36:02.1Z</time>
      </trkpt>
      <trkpt lat="47.85888" lon="6.68682">
        <ele>576</ele>
        <time>2014-10-30T12:36:05.1Z</time>
      </trkpt>
      <trkpt lat="47.85884" lon="6.68682">
        <ele>576</ele>
        <time>2014-10-30T12:36:07.1Z</time>
      </trkpt>
      <trkpt lat="47.8588" lon="6.68681">
        <ele>578</ele>
        <time>2014-10-30T12:36:10.1Z</time>
      </trkpt>
      <trkpt lat="47.85877" lon="6.68681">
        <ele>578</ele>
        <time>2014-10-30T12:36:12.1Z</time>
      </trkpt>
      <trkpt lat="47.85873" lon="6.68681">
        <ele>579</ele>
        <time>2014-10-30T12:36:15.1Z</time>
      </trkpt>
      <trkpt lat="47.8587" lon="6.68682">
        <ele>579</ele>
        <time>2014-10-30T12:36:17.1Z</time>
      </trkpt>
      <trkpt lat="47.85866" lon="6.68682">
        <ele>580</ele>
        <time>2014-10-30T12:36:20.1Z</time>
      </trkpt>
      <trkpt lat="47.85862" lon="6.68683">
        <ele>581</ele>
        <time>2014-10-30T12:36:23.1Z</time>
      </trkpt>
      <trkpt lat="47.8586" lon="6.68683">
        <ele>581</ele>
        <time>2014-10-30T12:36:25.1Z</time>
      </trkpt>
      <trkpt lat="47.85857" lon="6.68684">
        <ele>581</ele>
        <time>2014-10-30T12:36:28.1Z</time>
      </trkpt>
      <trkpt lat="47.85852" lon="6.68685">
        <ele>581</ele>
        <time>2014-10-30T12:36:30.1Z</time>
      </trkpt>
      <trkpt lat="47.85848" lon="6.68686">
        <ele>581</ele>
        <time>2014-10-30T12:36:33.1Z</time>
      </trkpt>
      <trkpt lat="47.85844" lon="6.68686">
        <ele>582</ele>
        <time>2014-10-30T12:36:35.1Z</time>
      </trkpt>
      <trkpt lat="47.8584" lon="6.68686">
        <ele>582</ele>
        <time>2014-10-30T12:36:38.1Z</time>
      </trkpt>
      <trkpt lat="47.85838" lon="6.68686">
        <ele>583</ele>
        <time>2014-10-30T12:36:40.1Z</time>
      </trkpt>
      <trkpt lat="47.85834" lon="6.68686">
        <ele>583</ele>
        <time>2014-10-30T12:36:43.1Z</time>
      </trkpt>
      <trkpt lat="47.85831" lon="6.68687">
        <ele>583</ele>
        <time>2014-10-30T12:36:46.1Z</time>
      </trkpt>
      <trkpt lat="47.85828" lon="6.68687">
        <ele>584</ele>
        <time>2014-10-30T12:36:48.1Z</time>
      </trkpt>
      <trkpt lat="47.85826" lon="6.68688">
        <ele>584</ele>
        <time>2014-10-30T12:36:50.1Z</time>
      </trkpt>
      <trkpt lat="47.85822" lon="6.68689">
        <ele>584</ele>
        <time>2014-10-30T12:36:53.1Z</time>
      </trkpt>
      <trkpt lat="47.85819" lon="6.6869">
        <ele>584</ele>
        <time>2014-10-30T12:36:56.1Z</time>
      </trkpt>
      <trkpt lat="47.85815" lon="6.68691">
        <ele>584</ele>
        <time>2014-10-30T12:36:59.1Z</time>
      </trkpt>
      <trkpt lat="47.85811" lon="6.68692">
        <ele>585</ele>
        <time>2014-10-30T12:37:02.1Z</time>
      </trkpt>
      <trkpt lat="47.85809" lon="6.68692">
        <ele>585</ele>
        <time>2014-10-30T12:37:04.1Z</time>
      </trkpt>
      <trkpt lat="47.85805" lon="6.68693">
        <ele>586</ele>
        <time>2014-10-30T12:37:07.1Z</time>
      </trkpt>
      <trkpt lat="47.85802" lon="6.68693">
        <ele>586</ele>
        <time>2014-10-30T12:37:10.1Z</time>
      </trkpt>
      <trkpt lat="47.85799" lon="6.68694">
        <ele>587</ele>
        <time>2014-10-30T12:37:13.1Z</time>
      </trkpt>
      <trkpt lat="47.85796" lon="6.68694">
        <ele>587</ele>
        <time>2014-10-30T12:37:15.1Z</time>
      </trkpt>
      <trkpt lat="47.85794" lon="6.68695">
        <ele>587</ele>
        <time>2014-10-30T12:37:17.1Z</time>
      </trkpt>
      <trkpt lat="47.85791" lon="6.68695">
        <ele>587</ele>
        <time>2014-10-30T12:37:20.1Z</time>
      </trkpt>
      <trkpt lat="47.85788" lon="6.68696">
        <ele>588</ele>
        <time>2014-10-30T12:37:23.1Z</time>
      </trkpt>
      <trkpt lat="47.85786" lon="6.68695">
        <ele>589</ele>
        <time>2014-10-30T12:37:26.1Z</time>
      </trkpt>
      <trkpt lat="47.85783" lon="6.68697">
        <ele>589</ele>
        <time>2014-10-30T12:37:29.1Z</time>
      </trkpt>
      <trkpt lat="47.8578" lon="6.68697">
        <ele>589</ele>
        <time>2014-10-30T12:37:31.1Z</time>
      </trkpt>
      <trkpt lat="47.85777" lon="6.68697">
        <ele>590</ele>
        <time>2014-10-30T12:37:34.1Z</time>
      </trkpt>
      <trkpt lat="47.85775" lon="6.68698">
        <ele>590</ele>
        <time>2014-10-30T12:37:37.1Z</time>
      </trkpt>
      <trkpt lat="47.85772" lon="6.68698">
        <ele>590</ele>
        <time>2014-10-30T12:37:39.1Z</time>
      </trkpt>
      <trkpt lat="47.8577" lon="6.68698">
        <ele>591</ele>
        <time>2014-10-30T12:37:41.1Z</time>
      </trkpt>
      <trkpt lat="47.85767" lon="6.68699">
        <ele>591</ele>
        <time>2014-10-30T12:37:44.1Z</time>
      </trkpt>
      <trkpt lat="47.85764" lon="6.68698">
        <ele>592</ele>
        <time>2014-10-30T12:37:46.1Z</time>
      </trkpt>
      <trkpt lat="47.85762" lon="6.68699">
        <ele>592</ele>
        <time>2014-10-30T12:37:48.1Z</time>
      </trkpt>
      <trkpt lat="47.85758" lon="6.68698">
        <ele>592</ele>
        <time>2014-10-30T12:37:51.1Z</time>
      </trkpt>
      <trkpt lat="47.85754" lon="6.68698">
        <ele>592</ele>
        <time>2014-10-30T12:37:54.1Z</time>
      </trkpt>
      <trkpt lat="47.85751" lon="6.68695">
        <ele>592</ele>
        <time>2014-10-30T12:37:57.1Z</time>
      </trkpt>
      <trkpt lat="47.85751" lon="6.68692">
        <ele>592</ele>
        <time>2014-10-30T12:37:59.1Z</time>
      </trkpt>
      <trkpt lat="47.8575" lon="6.6869">
        <ele>593</ele>
        <time>2014-10-30T12:38:01.1Z</time>
      </trkpt>
      <trkpt lat="47.85748" lon="6.68685">
        <ele>592</ele>
        <time>2014-10-30T12:38:04.1Z</time>
      </trkpt>
      <trkpt lat="47.85747" lon="6.68681">
        <ele>592</ele>
        <time>2014-10-30T12:38:06.1Z</time>
      </trkpt>
      <trkpt lat="47.85745" lon="6.68677">
        <ele>592</ele>
        <time>2014-10-30T12:38:09.1Z</time>
      </trkpt>
      <trkpt lat="47.85743" lon="6.68671">
        <ele>592</ele>
        <time>2014-10-30T12:38:11.1Z</time>
      </trkpt>
      <trkpt lat="47.85741" lon="6.68665">
        <ele>593</ele>
        <time>2014-10-30T12:38:14.1Z</time>
      </trkpt>
      <trkpt lat="47.85739" lon="6.6866">
        <ele>593</ele>
        <time>2014-10-30T12:38:16.1Z</time>
      </trkpt>
      <trkpt lat="47.85736" lon="6.68653">
        <ele>593</ele>
        <time>2014-10-30T12:38:19.1Z</time>
      </trkpt>
      <trkpt lat="47.85734" lon="6.68649">
        <ele>593</ele>
        <time>2014-10-30T12:38:21.1Z</time>
      </trkpt>
      <trkpt lat="47.85731" lon="6.68643">
        <ele>593</ele>
        <time>2014-10-30T12:38:24.1Z</time>
      </trkpt>
      <trkpt lat="47.85729" lon="6.68636">
        <ele>593</ele>
        <time>2014-10-30T12:38:27.1Z</time>
      </trkpt>
      <trkpt lat="47.85728" lon="6.68632">
        <ele>593</ele>
        <time>2014-10-30T12:38:29.1Z</time>
      </trkpt>
      <trkpt lat="47.85728" lon="6.68627">
        <ele>593</ele>
        <time>2014-10-30T12:38:31.1Z</time>
      </trkpt>
      <trkpt lat="47.85726" lon="6.68622">
        <ele>593</ele>
        <time>2014-10-30T12:38:33.1Z</time>
      </trkpt>
      <trkpt lat="47.85725" lon="6.68614">
        <ele>593</ele>
        <time>2014-10-30T12:38:36.1Z</time>
      </trkpt>
      <trkpt lat="47.85725" lon="6.68605">
        <ele>593</ele>
        <time>2014-10-30T12:38:39.1Z</time>
      </trkpt>
      <trkpt lat="47.85725" lon="6.68599">
        <ele>593</ele>
        <time>2014-10-30T12:38:41.1Z</time>
      </trkpt>
      <trkpt lat="47.85725" lon="6.68593">
        <ele>594</ele>
        <time>2014-10-30T12:38:43.1Z</time>
      </trkpt>
      <trkpt lat="47.85724" lon="6.68581">
        <ele>594</ele>
        <time>2014-10-30T12:38:46.1Z</time>
      </trkpt>
      <trkpt lat="47.85724" lon="6.68573">
        <ele>593</ele>
        <time>2014-10-30T12:38:48.1Z</time>
      </trkpt>
      <trkpt lat="47.85724" lon="6.68566">
        <ele>594</ele>
        <time>2014-10-30T12:38:51.1Z</time>
      </trkpt>
      <trkpt lat="47.85722" lon="6.68553">
        <ele>593</ele>
        <time>2014-10-30T12:38:53.1Z</time>
      </trkpt>
      <trkpt lat="47.8572" lon="6.68545">
        <ele>593</ele>
        <time>2014-10-30T12:38:55.1Z</time>
      </trkpt>
      <trkpt lat="47.8572" lon="6.68537">
        <ele>594</ele>
        <time>2014-10-30T12:38:57.1Z</time>
      </trkpt>
      <trkpt lat="47.85719" lon="6.68528">
        <ele>594</ele>
        <time>2014-10-30T12:38:59.1Z</time>
      </trkpt>
      <trkpt lat="47.85715" lon="6.68513">
        <ele>594</ele>
        <time>2014-10-30T12:39:02.1Z</time>
      </trkpt>
      <trkpt lat="47.85714" lon="6.68505">
        <ele>594</ele>
        <time>2014-10-30T12:39:04.1Z</time>
      </trkpt>
      <trkpt lat="47.85711" lon="6.68492">
        <ele>594</ele>
        <time>2014-10-30T12:39:07.1Z</time>
      </trkpt>
      <trkpt lat="47.85705" lon="6.68478">
        <ele>593</ele>
        <time>2014-10-30T12:39:10.1Z</time>
      </trkpt>
      <trkpt lat="47.85701" lon="6.68469">
        <ele>593</ele>
        <time>2014-10-30T12:39:12.1Z</time>
      </trkpt>
      <trkpt lat="47.85697" lon="6.68459">
        <ele>593</ele>
        <time>2014-10-30T12:39:14.1Z</time>
      </trkpt>
      <trkpt lat="47.85693" lon="6.6845">
        <ele>594</ele>
        <time>2014-10-30T12:39:16.1Z</time>
      </trkpt>
      <trkpt lat="47.85687" lon="6.68442">
        <ele>594</ele>
        <time>2014-10-30T12:39:18.1Z</time>
      </trkpt>
      <trkpt lat="47.8568" lon="6.68429">
        <ele>594</ele>
        <time>2014-10-30T12:39:21.1Z</time>
      </trkpt>
      <trkpt lat="47.85673" lon="6.68416">
        <ele>593</ele>
        <time>2014-10-30T12:39:24.1Z</time>
      </trkpt>
      <trkpt lat="47.85668" lon="6.68401">
        <ele>592</ele>
        <time>2014-10-30T12:39:27.1Z</time>
      </trkpt>
      <trkpt lat="47.85666" lon="6.68392">
        <ele>592</ele>
        <time>2014-10-30T12:39:29.1Z</time>
      </trkpt>
      <trkpt lat="47.85664" lon="6.68382">
        <ele>592</ele>
        <time>2014-10-30T12:39:31.1Z</time>
      </trkpt>
      <trkpt lat="47.85661" lon="6.68369">
        <ele>591</ele>
        <time>2014-10-30T12:39:33.1Z</time>
      </trkpt>
      <trkpt lat="47.85658" lon="6.68355">
        <ele>591</ele>
        <time>2014-10-30T12:39:35.1Z</time>
      </trkpt>
      <trkpt lat="47.85655" lon="6.68341">
        <ele>591</ele>
        <time>2014-10-30T12:39:37.1Z</time>
      </trkpt>
      <trkpt lat="47.8565" lon="6.68319">
        <ele>590</ele>
        <time>2014-10-30T12:39:40.1Z</time>
      </trkpt>
      <trkpt lat="47.85645" lon="6.68306">
        <ele>590</ele>
        <time>2014-10-30T12:39:42.1Z</time>
      </trkpt>
      <trkpt lat="47.85638" lon="6.68285">
        <ele>590</ele>
        <time>2014-10-30T12:39:45.1Z</time>
      </trkpt>
      <trkpt lat="47.85635" lon="6.6827">
        <ele>590</ele>
        <time>2014-10-30T12:39:47.1Z</time>
      </trkpt>
      <trkpt lat="47.85627" lon="6.68247">
        <ele>589</ele>
        <time>2014-10-30T12:39:50.1Z</time>
      </trkpt>
      <trkpt lat="47.8562" lon="6.68223">
        <ele>588</ele>
        <time>2014-10-30T12:39:53.1Z</time>
      </trkpt>
      <trkpt lat="47.85618" lon="6.68207">
        <ele>588</ele>
        <time>2014-10-30T12:39:55.1Z</time>
      </trkpt>
      <trkpt lat="47.85614" lon="6.68192">
        <ele>588</ele>
        <time>2014-10-30T12:39:57.1Z</time>
      </trkpt>
      <trkpt lat="47.85603" lon="6.68167">
        <ele>587</ele>
        <time>2014-10-30T12:40:00.1Z</time>
      </trkpt>
      <trkpt lat="47.85595" lon="6.68153">
        <ele>587</ele>
        <time>2014-10-30T12:40:02.1Z</time>
      </trkpt>
      <trkpt lat="47.85586" lon="6.68139">
        <ele>586</ele>
        <time>2014-10-30T12:40:04.1Z</time>
      </trkpt>
      <trkpt lat="47.85575" lon="6.68122">
        <ele>585</ele>
        <time>2014-10-30T12:40:07.1Z</time>
      </trkpt>
      <trkpt lat="47.85566" lon="6.68111">
        <ele>584</ele>
        <time>2014-10-30T12:40:09.1Z</time>
      </trkpt>
      <trkpt lat="47.85556" lon="6.681">
        <ele>583</ele>
        <time>2014-10-30T12:40:11.1Z</time>
      </trkpt>
      <trkpt lat="47.8554" lon="6.68087">
        <ele>581</ele>
        <time>2014-10-30T12:40:14.1Z</time>
      </trkpt>
      <trkpt lat="47.85526" lon="6.68078">
        <ele>580</ele>
        <time>2014-10-30T12:40:17.1Z</time>
      </trkpt>
      <trkpt lat="47.8552" lon="6.68067">
        <ele>580</ele>
        <time>2014-10-30T12:40:19.1Z</time>
      </trkpt>
      <trkpt lat="47.85516" lon="6.68056">
        <ele>579</ele>
        <time>2014-10-30T12:40:21.1Z</time>
      </trkpt>
      <trkpt lat="47.85511" lon="6.68037">
        <ele>577</ele>
        <time>2014-10-30T12:40:24.1Z</time>
      </trkpt>
      <trkpt lat="47.85504" lon="6.68015">
        <ele>575</ele>
        <time>2014-10-30T12:40:27.1Z</time>
      </trkpt>
      <trkpt lat="47.85499" lon="6.68003">
        <ele>574</ele>
        <time>2014-10-30T12:40:29.1Z</time>
      </trkpt>
      <trkpt lat="47.85494" lon="6.67993">
        <ele>573</ele>
        <time>2014-10-30T12:40:31.1Z</time>
      </trkpt>
      <trkpt lat="47.8549" lon="6.67988">
        <ele>572</ele>
        <time>2014-10-30T12:40:34.1Z</time>
      </trkpt>
      <trkpt lat="47.85486" lon="6.67982">
        <ele>570</ele>
        <time>2014-10-30T12:40:36.1Z</time>
      </trkpt>
      <trkpt lat="47.8548" lon="6.67971">
        <ele>569</ele>
        <time>2014-10-30T12:40:38.1Z</time>
      </trkpt>
      <trkpt lat="47.85473" lon="6.6795">
        <ele>567</ele>
        <time>2014-10-30T12:40:41.1Z</time>
      </trkpt>
      <trkpt lat="47.8546" lon="6.6793">
        <ele>564</ele>
        <time>2014-10-30T12:40:44.1Z</time>
      </trkpt>
      <trkpt lat="47.85453" lon="6.67919">
        <ele>562</ele>
        <time>2014-10-30T12:40:46.1Z</time>
      </trkpt>
      <trkpt lat="47.85451" lon="6.67898">
        <ele>559</ele>
        <time>2014-10-30T12:40:49.1Z</time>
      </trkpt>
      <trkpt lat="47.85447" lon="6.6788">
        <ele>556</ele>
        <time>2014-10-30T12:40:52.1Z</time>
      </trkpt>
      <trkpt lat="47.8544" lon="6.67877">
        <ele>554</ele>
        <time>2014-10-30T12:40:54.1Z</time>
      </trkpt>
      <trkpt lat="47.85429" lon="6.67873">
        <ele>552</ele>
        <time>2014-10-30T12:40:56.1Z</time>
      </trkpt>
      <trkpt lat="47.8541" lon="6.67868">
        <ele>549</ele>
        <time>2014-10-30T12:40:59.1Z</time>
      </trkpt>
      <trkpt lat="47.85397" lon="6.67867">
        <ele>547</ele>
        <time>2014-10-30T12:41:01.1Z</time>
      </trkpt>
      <trkpt lat="47.85385" lon="6.67863">
        <ele>545</ele>
        <time>2014-10-30T12:41:04.1Z</time>
      </trkpt>
      <trkpt lat="47.85373" lon="6.67861">
        <ele>544</ele>
        <time>2014-10-30T12:41:07.1Z</time>
      </trkpt>
      <trkpt lat="47.85364" lon="6.67851">
        <ele>543</ele>
        <time>2014-10-30T12:41:09.1Z</time>
      </trkpt>
      <trkpt lat="47.85355" lon="6.67833">
        <ele>541</ele>
        <time>2014-10-30T12:41:11.1Z</time>
      </trkpt>
      <trkpt lat="47.85349" lon="6.67814">
        <ele>538</ele>
        <time>2014-10-30T12:41:13.1Z</time>
      </trkpt>
      <trkpt lat="47.85341" lon="6.6778">
        <ele>535</ele>
        <time>2014-10-30T12:41:16.1Z</time>
      </trkpt>
      <trkpt lat="47.85335" lon="6.67756">
        <ele>534</ele>
        <time>2014-10-30T12:41:18.1Z</time>
      </trkpt>
      <trkpt lat="47.85329" lon="6.67734">
        <ele>533</ele>
        <time>2014-10-30T12:41:20.1Z</time>
      </trkpt>
      <trkpt lat="47.85324" lon="6.67722">
        <ele>533</ele>
        <time>2014-10-30T12:41:22.1Z</time>
      </trkpt>
      <trkpt lat="47.85319" lon="6.67716">
        <ele>534</ele>
        <time>2014-10-30T12:41:25.1Z</time>
      </trkpt>
      <trkpt lat="47.85316" lon="6.67714">
        <ele>534</ele>
        <time>2014-10-30T12:41:27.1Z</time>
      </trkpt>
      <trkpt lat="47.85312" lon="6.67713">
        <ele>534</ele>
        <time>2014-10-30T12:41:29.1Z</time>
      </trkpt>
      <trkpt lat="47.8531" lon="6.67712">
        <ele>534</ele>
        <time>2014-10-30T12:41:31.1Z</time>
      </trkpt>
      <trkpt lat="47.85308" lon="6.6771">
        <ele>534</ele>
        <time>2014-10-30T12:41:33.1Z</time>
      </trkpt>
      <trkpt lat="47.85304" lon="6.67708">
        <ele>534</ele>
        <time>2014-10-30T12:41:36.1Z</time>
      </trkpt>
      <trkpt lat="47.85302" lon="6.67707">
        <ele>534</ele>
        <time>2014-10-30T12:41:38.1Z</time>
      </trkpt>
      <trkpt lat="47.85299" lon="6.67706">
        <ele>534</ele>
        <time>2014-10-30T12:41:40.1Z</time>
      </trkpt>
      <trkpt lat="47.85296" lon="6.67707">
        <ele>534</ele>
        <time>2014-10-30T12:41:42.1Z</time>
      </trkpt>
      <trkpt lat="47.85292" lon="6.67707">
        <ele>534</ele>
        <time>2014-10-30T12:41:45.1Z</time>
      </trkpt>
      <trkpt lat="47.85289" lon="6.67707">
        <ele>534</ele>
        <time>2014-10-30T12:41:47.1Z</time>
      </trkpt>
      <trkpt lat="47.85287" lon="6.67707">
        <ele>534</ele>
        <time>2014-10-30T12:41:49.1Z</time>
      </trkpt>
      <trkpt lat="47.85286" lon="6.67707">
        <ele>534</ele>
        <time>2014-10-30T12:41:52.1Z</time>
      </trkpt>
      <trkpt lat="47.85284" lon="6.67707">
        <ele>535</ele>
        <time>2014-10-30T12:41:54.1Z</time>
      </trkpt>
      <trkpt lat="47.85283" lon="6.67707">
        <ele>535</ele>
        <time>2014-10-30T12:41:56.1Z</time>
      </trkpt>
      <trkpt lat="47.8528" lon="6.67708">
        <ele>535</ele>
        <time>2014-10-30T12:41:59.1Z</time>
      </trkpt>
      <trkpt lat="47.85276" lon="6.67707">
        <ele>535</ele>
        <time>2014-10-30T12:42:01.1Z</time>
      </trkpt>
      <trkpt lat="47.8527" lon="6.67707">
        <ele>534</ele>
        <time>2014-10-30T12:42:04.1Z</time>
      </trkpt>
      <trkpt lat="47.85265" lon="6.67706">
        <ele>535</ele>
        <time>2014-10-30T12:42:06.1Z</time>
      </trkpt>
      <trkpt lat="47.85259" lon="6.67703">
        <ele>535</ele>
        <time>2014-10-30T12:42:09.1Z</time>
      </trkpt>
      <trkpt lat="47.85256" lon="6.67702">
        <ele>535</ele>
        <time>2014-10-30T12:42:11.1Z</time>
      </trkpt>
      <trkpt lat="47.85255" lon="6.67702">
        <ele>534</ele>
        <time>2014-10-30T12:42:14.1Z</time>
      </trkpt>
      <trkpt lat="47.85254" lon="6.67701">
        <ele>534</ele>
        <time>2014-10-30T12:42:16.1Z</time>
      </trkpt>
      <trkpt lat="47.85253" lon="6.67702">
        <ele>534</ele>
        <time>2014-10-30T12:42:20.1Z</time>
      </trkpt>
      <trkpt lat="47.85252" lon="6.67702">
        <ele>534</ele>
        <time>2014-10-30T12:42:22.1Z</time>
      </trkpt>
      <trkpt lat="47.85252" lon="6.67702">
        <ele>534</ele>
        <time>2014-10-30T12:42:24.1Z</time>
      </trkpt>
      <trkpt lat="47.85252" lon="6.67702">
        <ele>534</ele>
        <time>2014-10-30T12:42:28.1Z</time>
      </trkpt>
      <trkpt lat="47.85252" lon="6.67704">
        <ele>534</ele>
        <time>2014-10-30T12:42:31.1Z</time>
      </trkpt>
      <trkpt lat="47.85252" lon="6.67705">
        <ele>535</ele>
        <time>2014-10-30T12:42:34.1Z</time>
      </trkpt>
      <trkpt lat="47.85251" lon="6.67705">
        <ele>535</ele>
        <time>2014-10-30T12:42:37.1Z</time>
      </trkpt>
      <trkpt lat="47.85247" lon="6.67706">
        <ele>534</ele>
        <time>2014-10-30T12:42:39.1Z</time>
      </trkpt>
      <trkpt lat="47.8524" lon="6.67705">
        <ele>534</ele>
        <time>2014-10-30T12:42:42.1Z</time>
      </trkpt>
      <trkpt lat="47.8523" lon="6.67705">
        <ele>534</ele>
        <time>2014-10-30T12:42:45.1Z</time>
      </trkpt>
      <trkpt lat="47.85223" lon="6.67704">
        <ele>534</ele>
        <time>2014-10-30T12:42:47.1Z</time>
      </trkpt>
      <trkpt lat="47.85212" lon="6.67703">
        <ele>534</ele>
        <time>2014-10-30T12:42:50.1Z</time>
      </trkpt>
      <trkpt lat="47.85204" lon="6.67702">
        <ele>534</ele>
        <time>2014-10-30T12:42:52.1Z</time>
      </trkpt>
      <trkpt lat="47.85197" lon="6.677">
        <ele>534</ele>
        <time>2014-10-30T12:42:54.1Z</time>
      </trkpt>
      <trkpt lat="47.8519" lon="6.67699">
        <ele>534</ele>
        <time>2014-10-30T12:42:57.1Z</time>
      </trkpt>
      <trkpt lat="47.8519" lon="6.67699">
        <ele>534</ele>
        <time>2014-10-30T12:43:00.1Z</time>
      </trkpt>
      <trkpt lat="47.8519" lon="6.677">
        <ele>534</ele>
        <time>2014-10-30T12:43:02.1Z</time>
      </trkpt>
      <trkpt lat="47.8519" lon="6.67703">
        <ele>535</ele>
        <time>2014-10-30T12:43:05.1Z</time>
      </trkpt>
      <trkpt lat="47.8519" lon="6.67705">
        <ele>535</ele>
        <time>2014-10-30T12:43:07.1Z</time>
      </trkpt>
      <trkpt lat="47.8519" lon="6.67706">
        <ele>535</ele>
        <time>2014-10-30T12:43:12.1Z</time>
      </trkpt>
      <trkpt lat="47.85191" lon="6.67706">
        <ele>535</ele>
        <time>2014-10-30T12:43:14.1Z</time>
      </trkpt>
      <trkpt lat="47.85191" lon="6.67705">
        <ele>535</ele>
        <time>2014-10-30T12:43:16.1Z</time>
      </trkpt>
      <trkpt lat="47.85192" lon="6.67705">
        <ele>535</ele>
        <time>2014-10-30T12:43:20.1Z</time>
      </trkpt>
      <trkpt lat="47.85192" lon="6.67705">
        <ele>535</ele>
        <time>2014-10-30T12:43:23.1Z</time>
      </trkpt>
      <trkpt lat="47.85192" lon="6.67705">
        <ele>535</ele>
        <time>2014-10-30T12:43:25.1Z</time>
      </trkpt>
      <trkpt lat="47.85194" lon="6.67704">
        <ele>535</ele>
        <time>2014-10-30T12:43:28.1Z</time>
      </trkpt>
      <trkpt lat="47.85194" lon="6.677">
        <ele>535</ele>
        <time>2014-10-30T12:43:31.1Z</time>
      </trkpt>
      <trkpt lat="47.85193" lon="6.67698">
        <ele>535</ele>
        <time>2014-10-30T12:43:33.1Z</time>
      </trkpt>
      <trkpt lat="47.85193" lon="6.67697">
        <ele>535</ele>
        <time>2014-10-30T12:43:36.1Z</time>
      </trkpt>
      <trkpt lat="47.85193" lon="6.67697">
        <ele>535</ele>
        <time>2014-10-30T12:43:39.1Z</time>
      </trkpt>
      <trkpt lat="47.85193" lon="6.67698">
        <ele>535</ele>
        <time>2014-10-30T12:43:42.1Z</time>
      </trkpt>
      <trkpt lat="47.85192" lon="6.67698">
        <ele>535</ele>
        <time>2014-10-30T12:43:44.1Z</time>
      </trkpt>
      <trkpt lat="47.85192" lon="6.67699">
        <ele>535</ele>
        <time>2014-10-30T12:43:46.1Z</time>
      </trkpt>
      <trkpt lat="47.85192" lon="6.67699">
        <ele>534</ele>
        <time>2014-10-30T12:43:49.1Z</time>
      </trkpt>
      <trkpt lat="47.85192" lon="6.677">
        <ele>534</ele>
        <time>2014-10-30T12:43:51.1Z</time>
      </trkpt>
      <trkpt lat="47.85191" lon="6.677">
        <ele>534</ele>
        <time>2014-10-30T12:43:54.1Z</time>
      </trkpt>
      <trkpt lat="47.85191" lon="6.677">
        <ele>535</ele>
        <time>2014-10-30T12:43:58.1Z</time>
      </trkpt>
      <trkpt lat="47.85192" lon="6.67701">
        <ele>535</ele>
        <time>2014-10-30T12:44:00.1Z</time>
      </trkpt>
      <trkpt lat="47.85192" lon="6.67701">
        <ele>535</ele>
        <time>2014-10-30T12:44:02.1Z</time>
      </trkpt>
      <trkpt lat="47.85192" lon="6.67701">
        <ele>535</ele>
        <time>2014-10-30T12:44:05.1Z</time>
      </trkpt>
      <trkpt lat="47.8519" lon="6.67699">
        <ele>535</ele>
        <time>2014-10-30T12:44:08.1Z</time>
      </trkpt>
      <trkpt lat="47.85186" lon="6.67697">
        <ele>534</ele>
        <time>2014-10-30T12:44:11.1Z</time>
      </trkpt>
      <trkpt lat="47.85183" lon="6.67695">
        <ele>534</ele>
        <time>2014-10-30T12:44:13.1Z</time>
      </trkpt>
      <trkpt lat="47.85182" lon="6.67695">
        <ele>534</ele>
        <time>2014-10-30T12:44:15.1Z</time>
      </trkpt>
      <trkpt lat="47.85181" lon="6.67695">
        <ele>534</ele>
        <time>2014-10-30T12:44:17.1Z</time>
      </trkpt>
      <trkpt lat="47.8518" lon="6.67695">
        <ele>535</ele>
        <time>2014-10-30T12:44:20.1Z</time>
      </trkpt>
      <trkpt lat="47.8518" lon="6.67696">
        <ele>535</ele>
        <time>2014-10-30T12:44:22.1Z</time>
      </trkpt>
      <trkpt lat="47.85179" lon="6.67696">
        <ele>534</ele>
        <time>2014-10-30T12:44:25.1Z</time>
      </trkpt>
      <trkpt lat="47.85179" lon="6.67696">
        <ele>534</ele>
        <time>2014-10-30T12:44:27.1Z</time>
      </trkpt>
      <trkpt lat="47.85179" lon="6.67697">
        <ele>534</ele>
        <time>2014-10-30T12:44:29.1Z</time>
      </trkpt>
      <trkpt lat="47.85178" lon="6.67697">
        <ele>534</ele>
        <time>2014-10-30T12:44:32.1Z</time>
      </trkpt>
      <trkpt lat="47.85175" lon="6.67697">
        <ele>534</ele>
        <time>2014-10-30T12:44:35.1Z</time>
      </trkpt>
      <trkpt lat="47.85173" lon="6.67697">
        <ele>535</ele>
        <time>2014-10-30T12:44:37.1Z</time>
      </trkpt>
      <trkpt lat="47.85169" lon="6.67696">
        <ele>535</ele>
        <time>2014-10-30T12:44:40.1Z</time>
      </trkpt>
      <trkpt lat="47.85166" lon="6.67695">
        <ele>535</ele>
        <time>2014-10-30T12:44:42.1Z</time>
      </trkpt>
      <trkpt lat="47.85162" lon="6.67694">
        <ele>536</ele>
        <time>2014-10-30T12:44:45.1Z</time>
      </trkpt>
      <trkpt lat="47.8516" lon="6.67693">
        <ele>536</ele>
        <time>2014-10-30T12:44:47.1Z</time>
      </trkpt>
      <trkpt lat="47.85159" lon="6.67692">
        <ele>537</ele>
        <time>2014-10-30T12:44:49.1Z</time>
      </trkpt>
      <trkpt lat="47.85158" lon="6.67691">
        <ele>537</ele>
        <time>2014-10-30T12:44:51.1Z</time>
      </trkpt>
      <trkpt lat="47.85157" lon="6.6769">
        <ele>537</ele>
        <time>2014-10-30T12:44:53.1Z</time>
      </trkpt>
      <trkpt lat="47.85155" lon="6.67688">
        <ele>537</ele>
        <time>2014-10-30T12:44:55.1Z</time>
      </trkpt>
      <trkpt lat="47.85153" lon="6.67686">
        <ele>538</ele>
        <time>2014-10-30T12:44:57.1Z</time>
      </trkpt>
      <trkpt lat="47.85151" lon="6.67685">
        <ele>538</ele>
        <time>2014-10-30T12:44:59.1Z</time>
      </trkpt>
      <trkpt lat="47.85149" lon="6.67685">
        <ele>539</ele>
        <time>2014-10-30T12:45:02.1Z</time>
      </trkpt>
      <trkpt lat="47.85147" lon="6.67684">
        <ele>539</ele>
        <time>2014-10-30T12:45:05.1Z</time>
      </trkpt>
      <trkpt lat="47.85146" lon="6.67683">
        <ele>539</ele>
        <time>2014-10-30T12:45:07.1Z</time>
      </trkpt>
      <trkpt lat="47.85144" lon="6.67682">
        <ele>540</ele>
        <time>2014-10-30T12:45:10.1Z</time>
      </trkpt>
      <trkpt lat="47.85142" lon="6.67681">
        <ele>540</ele>
        <time>2014-10-30T12:45:12.1Z</time>
      </trkpt>
      <trkpt lat="47.85141" lon="6.67681">
        <ele>540</ele>
        <time>2014-10-30T12:45:15.1Z</time>
      </trkpt>
      <trkpt lat="47.85141" lon="6.67679">
        <ele>541</ele>
        <time>2014-10-30T12:45:18.1Z</time>
      </trkpt>
      <trkpt lat="47.8514" lon="6.67678">
        <ele>541</ele>
        <time>2014-10-30T12:45:20.1Z</time>
      </trkpt>
      <trkpt lat="47.85139" lon="6.67677">
        <ele>541</ele>
        <time>2014-10-30T12:45:23.1Z</time>
      </trkpt>
      <trkpt lat="47.85138" lon="6.67676">
        <ele>541</ele>
        <time>2014-10-30T12:45:25.1Z</time>
      </trkpt>
      <trkpt lat="47.85137" lon="6.67676">
        <ele>541</ele>
        <time>2014-10-30T12:45:27.1Z</time>
      </trkpt>
      <trkpt lat="47.85137" lon="6.67675">
        <ele>541</ele>
        <time>2014-10-30T12:45:29.1Z</time>
      </trkpt>
      <trkpt lat="47.85134" lon="6.67674">
        <ele>541</ele>
        <time>2014-10-30T12:45:32.1Z</time>
      </trkpt>
      <trkpt lat="47.85132" lon="6.67673">
        <ele>541</ele>
        <time>2014-10-30T12:45:35.1Z</time>
      </trkpt>
      <trkpt lat="47.85131" lon="6.67673">
        <ele>541</ele>
        <time>2014-10-30T12:45:37.1Z</time>
      </trkpt>
      <trkpt lat="47.8513" lon="6.67672">
        <ele>542</ele>
        <time>2014-10-30T12:45:39.1Z</time>
      </trkpt>
      <trkpt lat="47.85128" lon="6.67673">
        <ele>542</ele>
        <time>2014-10-30T12:45:42.1Z</time>
      </trkpt>
      <trkpt lat="47.85126" lon="6.67673">
        <ele>543</ele>
        <time>2014-10-30T12:45:45.1Z</time>
      </trkpt>
      <trkpt lat="47.85123" lon="6.67674">
        <ele>543</ele>
        <time>2014-10-30T12:45:48.1Z</time>
      </trkpt>
      <trkpt lat="47.85122" lon="6.67675">
        <ele>543</ele>
        <time>2014-10-30T12:45:50.1Z</time>
      </trkpt>
      <trkpt lat="47.85119" lon="6.67675">
        <ele>544</ele>
        <time>2014-10-30T12:45:53.1Z</time>
      </trkpt>
      <trkpt lat="47.85117" lon="6.67676">
        <ele>544</ele>
        <time>2014-10-30T12:45:55.1Z</time>
      </trkpt>
      <trkpt lat="47.85115" lon="6.67678">
        <ele>544</ele>
        <time>2014-10-30T12:45:58.1Z</time>
      </trkpt>
      <trkpt lat="47.85112" lon="6.67679">
        <ele>545</ele>
        <time>2014-10-30T12:46:01.1Z</time>
      </trkpt>
      <trkpt lat="47.85109" lon="6.6768">
        <ele>546</ele>
        <time>2014-10-30T12:46:04.1Z</time>
      </trkpt>
      <trkpt lat="47.85107" lon="6.67682">
        <ele>546</ele>
        <time>2014-10-30T12:46:06.1Z</time>
      </trkpt>
      <trkpt lat="47.85105" lon="6.67682">
        <ele>546</ele>
        <time>2014-10-30T12:46:08.1Z</time>
      </trkpt>
      <trkpt lat="47.85103" lon="6.67683">
        <ele>546</ele>
        <time>2014-10-30T12:46:10.1Z</time>
      </trkpt>
      <trkpt lat="47.85101" lon="6.67683">
        <ele>547</ele>
        <time>2014-10-30T12:46:12.1Z</time>
      </trkpt>
      <trkpt lat="47.851" lon="6.67684">
        <ele>547</ele>
        <time>2014-10-30T12:46:15.1Z</time>
      </trkpt>
      <trkpt lat="47.85099" lon="6.67685">
        <ele>547</ele>
        <time>2014-10-30T12:46:17.1Z</time>
      </trkpt>
      <trkpt lat="47.85097" lon="6.67685">
        <ele>548</ele>
        <time>2014-10-30T12:46:20.1Z</time>
      </trkpt>
      <trkpt lat="47.85094" lon="6.67685">
        <ele>548</ele>
        <time>2014-10-30T12:46:23.1Z</time>
      </trkpt>
      <trkpt lat="47.85093" lon="6.67685">
        <ele>548</ele>
        <time>2014-10-30T12:46:25.1Z</time>
      </trkpt>
      <trkpt lat="47.8509" lon="6.67685">
        <ele>548</ele>
        <time>2014-10-30T12:46:28.1Z</time>
      </trkpt>
      <trkpt lat="47.85089" lon="6.67684">
        <ele>548</ele>
        <time>2014-10-30T12:46:30.1Z</time>
      </trkpt>
      <trkpt lat="47.85088" lon="6.67684">
        <ele>548</ele>
        <time>2014-10-30T12:46:33.1Z</time>
      </trkpt>
      <trkpt lat="47.85087" lon="6.67684">
        <ele>548</ele>
        <time>2014-10-30T12:46:35.1Z</time>
      </trkpt>
      <trkpt lat="47.85086" lon="6.67684">
        <ele>548</ele>
        <time>2014-10-30T12:46:38.1Z</time>
      </trkpt>
      <trkpt lat="47.85084" lon="6.67684">
        <ele>548</ele>
        <time>2014-10-30T12:46:41.1Z</time>
      </trkpt>
      <trkpt lat="47.8508" lon="6.67683">
        <ele>548</ele>
        <time>2014-10-30T12:46:44.1Z</time>
      </trkpt>
      <trkpt lat="47.85077" lon="6.67682">
        <ele>548</ele>
        <time>2014-10-30T12:46:46.1Z</time>
      </trkpt>
      <trkpt lat="47.85072" lon="6.67679">
        <ele>549</ele>
        <time>2014-10-30T12:46:49.1Z</time>
      </trkpt>
      <trkpt lat="47.85068" lon="6.67676">
        <ele>549</ele>
        <time>2014-10-30T12:46:52.1Z</time>
      </trkpt>
      <trkpt lat="47.85064" lon="6.67673">
        <ele>549</ele>
        <time>2014-10-30T12:46:55.1Z</time>
      </trkpt>
      <trkpt lat="47.85062" lon="6.67671">
        <ele>549</ele>
        <time>2014-10-30T12:46:57.1Z</time>
      </trkpt>
      <trkpt lat="47.85056" lon="6.67668">
        <ele>549</ele>
        <time>2014-10-30T12:47:00.1Z</time>
      </trkpt>
      <trkpt lat="47.8505" lon="6.67665">
        <ele>549</ele>
        <time>2014-10-30T12:47:03.1Z</time>
      </trkpt>
      <trkpt lat="47.85045" lon="6.67662">
        <ele>549</ele>
        <time>2014-10-30T12:47:05.1Z</time>
      </trkpt>
      <trkpt lat="47.85038" lon="6.67658">
        <ele>550</ele>
        <time>2014-10-30T12:47:08.1Z</time>
      </trkpt>
      <trkpt lat="47.85034" lon="6.67656">
        <ele>549</ele>
        <time>2014-10-30T12:47:10.1Z</time>
      </trkpt>
      <trkpt lat="47.85027" lon="6.67651">
        <ele>550</ele>
        <time>2014-10-30T12:47:13.1Z</time>
      </trkpt>
      <trkpt lat="47.85023" lon="6.67648">
        <ele>550</ele>
        <time>2014-10-30T12:47:15.1Z</time>
      </trkpt>
      <trkpt lat="47.85017" lon="6.67645">
        <ele>550</ele>
        <time>2014-10-30T12:47:18.1Z</time>
      </trkpt>
      <trkpt lat="47.85011" lon="6.67642">
        <ele>551</ele>
        <time>2014-10-30T12:47:20.1Z</time>
      </trkpt>
      <trkpt lat="47.85006" lon="6.6764">
        <ele>551</ele>
        <time>2014-10-30T12:47:22.1Z</time>
      </trkpt>
      <trkpt lat="47.85" lon="6.67637">
        <ele>551</ele>
        <time>2014-10-30T12:47:25.1Z</time>
      </trkpt>
      <trkpt lat="47.84994" lon="6.67635">
        <ele>552</ele>
        <time>2014-10-30T12:47:28.1Z</time>
      </trkpt>
      <trkpt lat="47.84991" lon="6.67633">
        <ele>552</ele>
        <time>2014-10-30T12:47:30.1Z</time>
      </trkpt>
      <trkpt lat="47.84986" lon="6.67633">
        <ele>552</ele>
        <time>2014-10-30T12:47:32.1Z</time>
      </trkpt>
      <trkpt lat="47.84982" lon="6.67633">
        <ele>552</ele>
        <time>2014-10-30T12:47:34.1Z</time>
      </trkpt>
      <trkpt lat="47.84973" lon="6.6763">
        <ele>551</ele>
        <time>2014-10-30T12:47:37.1Z</time>
      </trkpt>
      <trkpt lat="47.84968" lon="6.67625">
        <ele>551</ele>
        <time>2014-10-30T12:47:39.1Z</time>
      </trkpt>
      <trkpt lat="47.84963" lon="6.67618">
        <ele>551</ele>
        <time>2014-10-30T12:47:41.1Z</time>
      </trkpt>
      <trkpt lat="47.84957" lon="6.67609">
        <ele>551</ele>
        <time>2014-10-30T12:47:44.1Z</time>
      </trkpt>
      <trkpt lat="47.84948" lon="6.676">
        <ele>551</ele>
        <time>2014-10-30T12:47:47.1Z</time>
      </trkpt>
      <trkpt lat="47.84941" lon="6.67596">
        <ele>551</ele>
        <time>2014-10-30T12:47:49.1Z</time>
      </trkpt>
      <trkpt lat="47.84935" lon="6.67593">
        <ele>551</ele>
        <time>2014-10-30T12:47:52.1Z</time>
      </trkpt>
      <trkpt lat="47.84935" lon="6.67593">
        <ele>551</ele>
        <time>2014-10-30T12:47:54.1Z</time>
      </trkpt>
      <trkpt lat="47.84932" lon="6.67593">
        <ele>551</ele>
        <time>2014-10-30T12:47:57.1Z</time>
      </trkpt>
      <trkpt lat="47.84932" lon="6.67593">
        <ele>551</ele>
        <time>2014-10-30T12:47:59.1Z</time>
      </trkpt>
      <trkpt lat="47.84931" lon="6.67593">
        <ele>551</ele>
        <time>2014-10-30T12:48:02.1Z</time>
      </trkpt>
      <trkpt lat="47.8493" lon="6.67592">
        <ele>551</ele>
        <time>2014-10-30T12:48:04.1Z</time>
      </trkpt>
      <trkpt lat="47.84928" lon="6.67591">
        <ele>551</ele>
        <time>2014-10-30T12:48:06.1Z</time>
      </trkpt>
      <trkpt lat="47.84925" lon="6.6759">
        <ele>551</ele>
        <time>2014-10-30T12:48:08.1Z</time>
      </trkpt>
      <trkpt lat="47.84923" lon="6.67586">
        <ele>551</ele>
        <time>2014-10-30T12:48:11.1Z</time>
      </trkpt>
      <trkpt lat="47.8492" lon="6.67583">
        <ele>551</ele>
        <time>2014-10-30T12:48:14.1Z</time>
      </trkpt>
      <trkpt lat="47.84918" lon="6.67581">
        <ele>551</ele>
        <time>2014-10-30T12:48:17.1Z</time>
      </trkpt>
      <trkpt lat="47.84917" lon="6.67581">
        <ele>552</ele>
        <time>2014-10-30T12:48:20.1Z</time>
      </trkpt>
      <trkpt lat="47.84917" lon="6.67581">
        <ele>552</ele>
        <time>2014-10-30T12:48:22.1Z</time>
      </trkpt>
      <trkpt lat="47.84916" lon="6.67579">
        <ele>551</ele>
        <time>2014-10-30T12:48:24.1Z</time>
      </trkpt>
      <trkpt lat="47.84914" lon="6.67578">
        <ele>551</ele>
        <time>2014-10-30T12:48:27.1Z</time>
      </trkpt>
      <trkpt lat="47.84914" lon="6.67577">
        <ele>551</ele>
        <time>2014-10-30T12:48:29.1Z</time>
      </trkpt>
      <trkpt lat="47.84913" lon="6.67575">
        <ele>551</ele>
        <time>2014-10-30T12:48:32.1Z</time>
      </trkpt>
      <trkpt lat="47.84912" lon="6.67574">
        <ele>551</ele>
        <time>2014-10-30T12:48:35.1Z</time>
      </trkpt>
      <trkpt lat="47.84911" lon="6.67573">
        <ele>551</ele>
        <time>2014-10-30T12:48:37.1Z</time>
      </trkpt>
      <trkpt lat="47.84909" lon="6.67569">
        <ele>551</ele>
        <time>2014-10-30T12:48:40.1Z</time>
      </trkpt>
      <trkpt lat="47.84908" lon="6.67565">
        <ele>551</ele>
        <time>2014-10-30T12:48:42.1Z</time>
      </trkpt>
      <trkpt lat="47.84907" lon="6.67561">
        <ele>551</ele>
        <time>2014-10-30T12:48:44.1Z</time>
      </trkpt>
      <trkpt lat="47.84906" lon="6.67556">
        <ele>552</ele>
        <time>2014-10-30T12:48:46.1Z</time>
      </trkpt>
      <trkpt lat="47.84904" lon="6.67552">
        <ele>552</ele>
        <time>2014-10-30T12:48:48.1Z</time>
      </trkpt>
      <trkpt lat="47.84898" lon="6.67544">
        <ele>552</ele>
        <time>2014-10-30T12:48:51.1Z</time>
      </trkpt>
      <trkpt lat="47.84892" lon="6.67537">
        <ele>553</ele>
        <time>2014-10-30T12:48:54.1Z</time>
      </trkpt>
      <trkpt lat="47.84885" lon="6.67531">
        <ele>553</ele>
        <time>2014-10-30T12:48:57.1Z</time>
      </trkpt>
      <trkpt lat="47.8488" lon="6.67525">
        <ele>554</ele>
        <time>2014-10-30T12:48:59.1Z</time>
      </trkpt>
      <trkpt lat="47.84874" lon="6.67517">
        <ele>554</ele>
        <time>2014-10-30T12:49:02.1Z</time>
      </trkpt>
      <trkpt lat="47.84869" lon="6.67514">
        <ele>555</ele>
        <time>2014-10-30T12:49:04.1Z</time>
      </trkpt>
      <trkpt lat="47.84864" lon="6.67511">
        <ele>556</ele>
        <time>2014-10-30T12:49:06.1Z</time>
      </trkpt>
      <trkpt lat="47.84858" lon="6.67507">
        <ele>556</ele>
        <time>2014-10-30T12:49:09.1Z</time>
      </trkpt>
      <trkpt lat="47.84852" lon="6.67503">
        <ele>557</ele>
        <time>2014-10-30T12:49:12.1Z</time>
      </trkpt>
      <trkpt lat="47.84849" lon="6.67501">
        <ele>557</ele>
        <time>2014-10-30T12:49:14.1Z</time>
      </trkpt>
      <trkpt lat="47.84845" lon="6.67497">
        <ele>558</ele>
        <time>2014-10-30T12:49:17.1Z</time>
      </trkpt>
      <trkpt lat="47.8484" lon="6.67493">
        <ele>558</ele>
        <time>2014-10-30T12:49:20.1Z</time>
      </trkpt>
      <trkpt lat="47.84835" lon="6.67489">
        <ele>559</ele>
        <time>2014-10-30T12:49:23.1Z</time>
      </trkpt>
      <trkpt lat="47.8483" lon="6.67486">
        <ele>560</ele>
        <time>2014-10-30T12:49:26.1Z</time>
      </trkpt>
      <trkpt lat="47.84827" lon="6.67486">
        <ele>560</ele>
        <time>2014-10-30T12:49:28.1Z</time>
      </trkpt>
      <trkpt lat="47.84824" lon="6.67486">
        <ele>561</ele>
        <time>2014-10-30T12:49:30.1Z</time>
      </trkpt>
      <trkpt lat="47.84821" lon="6.67485">
        <ele>561</ele>
        <time>2014-10-30T12:49:33.1Z</time>
      </trkpt>
      <trkpt lat="47.84818" lon="6.67485">
        <ele>561</ele>
        <time>2014-10-30T12:49:35.1Z</time>
      </trkpt>
      <trkpt lat="47.84814" lon="6.67486">
        <ele>561</ele>
        <time>2014-10-30T12:49:38.1Z</time>
      </trkpt>
      <trkpt lat="47.84811" lon="6.67485">
        <ele>562</ele>
        <time>2014-10-30T12:49:40.1Z</time>
      </trkpt>
      <trkpt lat="47.84807" lon="6.67486">
        <ele>562</ele>
        <time>2014-10-30T12:49:42.1Z</time>
      </trkpt>
      <trkpt lat="47.84802" lon="6.67486">
        <ele>563</ele>
        <time>2014-10-30T12:49:45.1Z</time>
      </trkpt>
      <trkpt lat="47.84799" lon="6.67485">
        <ele>563</ele>
        <time>2014-10-30T12:49:47.1Z</time>
      </trkpt>
      <trkpt lat="47.84796" lon="6.67486">
        <ele>563</ele>
        <time>2014-10-30T12:49:49.1Z</time>
      </trkpt>
      <trkpt lat="47.84793" lon="6.67486">
        <ele>564</ele>
        <time>2014-10-30T12:49:51.1Z</time>
      </trkpt>
      <trkpt lat="47.8479" lon="6.67486">
        <ele>564</ele>
        <time>2014-10-30T12:49:53.1Z</time>
      </trkpt>
      <trkpt lat="47.84785" lon="6.67485">
        <ele>564</ele>
        <time>2014-10-30T12:49:56.1Z</time>
      </trkpt>
      <trkpt lat="47.84782" lon="6.67485">
        <ele>564</ele>
        <time>2014-10-30T12:49:59.1Z</time>
      </trkpt>
      <trkpt lat="47.84778" lon="6.67485">
        <ele>565</ele>
        <time>2014-10-30T12:50:02.1Z</time>
      </trkpt>
      <trkpt lat="47.84776" lon="6.67485">
        <ele>565</ele>
        <time>2014-10-30T12:50:04.1Z</time>
      </trkpt>
      <trkpt lat="47.84773" lon="6.67485">
        <ele>565</ele>
        <time>2014-10-30T12:50:06.1Z</time>
      </trkpt>
      <trkpt lat="47.8477" lon="6.67484">
        <ele>565</ele>
        <time>2014-10-30T12:50:08.1Z</time>
      </trkpt>
      <trkpt lat="47.84765" lon="6.67484">
        <ele>566</ele>
        <time>2014-10-30T12:50:11.1Z</time>
      </trkpt>
      <trkpt lat="47.84762" lon="6.67485">
        <ele>566</ele>
        <time>2014-10-30T12:50:13.1Z</time>
      </trkpt>
      <trkpt lat="47.84758" lon="6.67486">
        <ele>566</ele>
        <time>2014-10-30T12:50:16.1Z</time>
      </trkpt>
      <trkpt lat="47.84755" lon="6.67487">
        <ele>566</ele>
        <time>2014-10-30T12:50:18.1Z</time>
      </trkpt>
      <trkpt lat="47.84751" lon="6.67488">
        <ele>566</ele>
        <time>2014-10-30T12:50:20.1Z</time>
      </trkpt>
      <trkpt lat="47.84747" lon="6.67489">
        <ele>566</ele>
        <time>2014-10-30T12:50:23.1Z</time>
      </trkpt>
      <trkpt lat="47.84742" lon="6.6749">
        <ele>566</ele>
        <time>2014-10-30T12:50:25.1Z</time>
      </trkpt>
      <trkpt lat="47.84737" lon="6.67491">
        <ele>566</ele>
        <time>2014-10-30T12:50:27.1Z</time>
      </trkpt>
      <trkpt lat="47.84729" lon="6.67493">
        <ele>567</ele>
        <time>2014-10-30T12:50:30.1Z</time>
      </trkpt>
      <trkpt lat="47.84724" lon="6.67492">
        <ele>566</ele>
        <time>2014-10-30T12:50:32.1Z</time>
      </trkpt>
      <trkpt lat="47.84718" lon="6.67492">
        <ele>565</ele>
        <time>2014-10-30T12:50:34.1Z</time>
      </trkpt>
      <trkpt lat="47.84711" lon="6.67492">
        <ele>565</ele>
        <time>2014-10-30T12:50:36.1Z</time>
      </trkpt>
      <trkpt lat="47.84702" lon="6.67491">
        <ele>565</ele>
        <time>2014-10-30T12:50:39.1Z</time>
      </trkpt>
      <trkpt lat="47.84696" lon="6.6749">
        <ele>565</ele>
        <time>2014-10-30T12:50:41.1Z</time>
      </trkpt>
      <trkpt lat="47.84687" lon="6.67491">
        <ele>565</ele>
        <time>2014-10-30T12:50:44.1Z</time>
      </trkpt>
      <trkpt lat="47.84683" lon="6.67492">
        <ele>565</ele>
        <time>2014-10-30T12:50:46.1Z</time>
      </trkpt>
      <trkpt lat="47.84676" lon="6.67494">
        <ele>565</ele>
        <time>2014-10-30T12:50:49.1Z</time>
      </trkpt>
      <trkpt lat="47.8467" lon="6.67495">
        <ele>565</ele>
        <time>2014-10-30T12:50:51.1Z</time>
      </trkpt>
      <trkpt lat="47.8466" lon="6.67499">
        <ele>565</ele>
        <time>2014-10-30T12:50:54.1Z</time>
      </trkpt>
      <trkpt lat="47.84654" lon="6.67501">
        <ele>565</ele>
        <time>2014-10-30T12:50:56.1Z</time>
      </trkpt>
      <trkpt lat="47.84648" lon="6.67504">
        <ele>565</ele>
        <time>2014-10-30T12:50:58.1Z</time>
      </trkpt>
      <trkpt lat="47.84639" lon="6.67511">
        <ele>565</ele>
        <time>2014-10-30T12:51:01.1Z</time>
      </trkpt>
      <trkpt lat="47.84634" lon="6.67517">
        <ele>565</ele>
        <time>2014-10-30T12:51:03.1Z</time>
      </trkpt>
      <trkpt lat="47.84627" lon="6.67524">
        <ele>565</ele>
        <time>2014-10-30T12:51:05.1Z</time>
      </trkpt>
      <trkpt lat="47.84621" lon="6.67532">
        <ele>564</ele>
        <time>2014-10-30T12:51:07.1Z</time>
      </trkpt>
      <trkpt lat="47.84612" lon="6.67548">
        <ele>564</ele>
        <time>2014-10-30T12:51:10.1Z</time>
      </trkpt>
      <trkpt lat="47.84603" lon="6.67563">
        <ele>563</ele>
        <time>2014-10-30T12:51:12.1Z</time>
      </trkpt>
      <trkpt lat="47.84596" lon="6.67573">
        <ele>562</ele>
        <time>2014-10-30T12:51:14.1Z</time>
      </trkpt>
      <trkpt lat="47.84584" lon="6.67586">
        <ele>561</ele>
        <time>2014-10-30T12:51:17.1Z</time>
      </trkpt>
      <trkpt lat="47.84574" lon="6.67591">
        <ele>561</ele>
        <time>2014-10-30T12:51:19.1Z</time>
      </trkpt>
      <trkpt lat="47.8456" lon="6.67598">
        <ele>562</ele>
        <time>2014-10-30T12:51:22.1Z</time>
      </trkpt>
      <trkpt lat="47.8455" lon="6.67605">
        <ele>562</ele>
        <time>2014-10-30T12:51:25.1Z</time>
      </trkpt>
      <trkpt lat="47.84544" lon="6.67614">
        <ele>562</ele>
        <time>2014-10-30T12:51:27.1Z</time>
      </trkpt>
      <trkpt lat="47.84537" lon="6.67622">
        <ele>562</ele>
        <time>2014-10-30T12:51:29.1Z</time>
      </trkpt>
      <trkpt lat="47.84529" lon="6.67634">
        <ele>563</ele>
        <time>2014-10-30T12:51:32.1Z</time>
      </trkpt>
      <trkpt lat="47.84525" lon="6.67641">
        <ele>563</ele>
        <time>2014-10-30T12:51:34.1Z</time>
      </trkpt>
      <trkpt lat="47.84519" lon="6.67649">
        <ele>563</ele>
        <time>2014-10-30T12:51:36.1Z</time>
      </trkpt>
      <trkpt lat="47.84509" lon="6.67661">
        <ele>562</ele>
        <time>2014-10-30T12:51:39.1Z</time>
      </trkpt>
      <trkpt lat="47.84496" lon="6.67674">
        <ele>561</ele>
        <time>2014-10-30T12:51:42.1Z</time>
      </trkpt>
      <trkpt lat="47.84485" lon="6.67683">
        <ele>561</ele>
        <time>2014-10-30T12:51:44.1Z</time>
      </trkpt>
      <trkpt lat="47.84474" lon="6.67691">
        <ele>561</ele>
        <time>2014-10-30T12:51:46.1Z</time>
      </trkpt>
      <trkpt lat="47.8446" lon="6.67708">
        <ele>560</ele>
        <time>2014-10-30T12:51:49.1Z</time>
      </trkpt>
      <trkpt lat="47.84449" lon="6.67729">
        <ele>557</ele>
        <time>2014-10-30T12:51:52.1Z</time>
      </trkpt>
      <trkpt lat="47.84437" lon="6.67742">
        <ele>556</ele>
        <time>2014-10-30T12:51:55.1Z</time>
      </trkpt>
      <trkpt lat="47.84424" lon="6.67743">
        <ele>557</ele>
        <time>2014-10-30T12:51:58.1Z</time>
      </trkpt>
      <trkpt lat="47.84416" lon="6.6774">
        <ele>557</ele>
        <time>2014-10-30T12:52:00.1Z</time>
      </trkpt>
      <trkpt lat="47.84404" lon="6.67732">
        <ele>557</ele>
        <time>2014-10-30T12:52:03.1Z</time>
      </trkpt>
      <trkpt lat="47.84396" lon="6.67727">
        <ele>557</ele>
        <time>2014-10-30T12:52:05.1Z</time>
      </trkpt>
      <trkpt lat="47.84388" lon="6.6772">
        <ele>556</ele>
        <time>2014-10-30T12:52:07.1Z</time>
      </trkpt>
      <trkpt lat="47.84383" lon="6.67707">
        <ele>557</ele>
        <time>2014-10-30T12:52:10.1Z</time>
      </trkpt>
      <trkpt lat="47.84384" lon="6.67699">
        <ele>557</ele>
        <time>2014-10-30T12:52:12.1Z</time>
      </trkpt>
      <trkpt lat="47.84384" lon="6.67692">
        <ele>557</ele>
        <time>2014-10-30T12:52:14.1Z</time>
      </trkpt>
      <trkpt lat="47.84383" lon="6.67679">
        <ele>558</ele>
        <time>2014-10-30T12:52:17.1Z</time>
      </trkpt>
      <trkpt lat="47.84384" lon="6.67663">
        <ele>558</ele>
        <time>2014-10-30T12:52:20.1Z</time>
      </trkpt>
      <trkpt lat="47.84386" lon="6.67648">
        <ele>558</ele>
        <time>2014-10-30T12:52:23.1Z</time>
      </trkpt>
      <trkpt lat="47.84389" lon="6.67639">
        <ele>558</ele>
        <time>2014-10-30T12:52:25.1Z</time>
      </trkpt>
      <trkpt lat="47.84393" lon="6.67631">
        <ele>558</ele>
        <time>2014-10-30T12:52:27.1Z</time>
      </trkpt>
      <trkpt lat="47.84395" lon="6.67631">
        <ele>557</ele>
        <time>2014-10-30T12:52:30.1Z</time>
      </trkpt>
      <trkpt lat="47.84395" lon="6.67631">
        <ele>557</ele>
        <time>2014-10-30T12:52:33.1Z</time>
      </trkpt>
      <trkpt lat="47.84395" lon="6.6763">
        <ele>557</ele>
        <time>2014-10-30T12:52:36.1Z</time>
      </trkpt>
      <trkpt lat="47.84395" lon="6.67631">
        <ele>557</ele>
        <time>2014-10-30T12:52:39.1Z</time>
      </trkpt>
      <trkpt lat="47.84395" lon="6.6763">
        <ele>557</ele>
        <time>2014-10-30T12:52:42.1Z</time>
      </trkpt>
      <trkpt lat="47.84395" lon="6.6763">
        <ele>558</ele>
        <time>2014-10-30T12:52:45.1Z</time>
      </trkpt>
      <trkpt lat="47.84395" lon="6.6763">
        <ele>558</ele>
        <time>2014-10-30T12:52:48.1Z</time>
      </trkpt>
      <trkpt lat="47.84395" lon="6.6763">
        <ele>558</ele>
        <time>2014-10-30T12:52:52.1Z</time>
      </trkpt>
      <trkpt lat="47.84393" lon="6.6763">
        <ele>558</ele>
        <time>2014-10-30T12:52:55.1Z</time>
      </trkpt>
      <trkpt lat="47.84392" lon="6.67628">
        <ele>558</ele>
        <time>2014-10-30T12:52:57.1Z</time>
      </trkpt>
      <trkpt lat="47.84392" lon="6.67627">
        <ele>558</ele>
        <time>2014-10-30T12:52:59.1Z</time>
      </trkpt>
      <trkpt lat="47.84392" lon="6.67627">
        <ele>558</ele>
        <time>2014-10-30T12:53:01.1Z</time>
      </trkpt>
      <trkpt lat="47.84392" lon="6.67627">
        <ele>558</ele>
        <time>2014-10-30T12:53:04.1Z</time>
      </trkpt>
      <trkpt lat="47.84392" lon="6.67627">
        <ele>558</ele>
        <time>2014-10-30T12:53:07.1Z</time>
      </trkpt>
      <trkpt lat="47.84392" lon="6.67627">
        <ele>557</ele>
        <time>2014-10-30T12:53:10.1Z</time>
      </trkpt>
      <trkpt lat="47.84392" lon="6.67627">
        <ele>557</ele>
        <time>2014-10-30T12:53:13.1Z</time>
      </trkpt>
      <trkpt lat="47.84392" lon="6.67627">
        <ele>557</ele>
        <time>2014-10-30T12:53:17.1Z</time>
      </trkpt>
      <trkpt lat="47.84392" lon="6.67626">
        <ele>558</ele>
        <time>2014-10-30T12:53:20.1Z</time>
      </trkpt>
      <trkpt lat="47.84393" lon="6.67619">
        <ele>557</ele>
        <time>2014-10-30T12:53:22.1Z</time>
      </trkpt>
      <trkpt lat="47.84397" lon="6.67608">
        <ele>557</ele>
        <time>2014-10-30T12:53:25.1Z</time>
      </trkpt>
      <trkpt lat="47.844" lon="6.67601">
        <ele>557</ele>
        <time>2014-10-30T12:53:27.1Z</time>
      </trkpt>
      <trkpt lat="47.84407" lon="6.6759">
        <ele>557</ele>
        <time>2014-10-30T12:53:30.1Z</time>
      </trkpt>
      <trkpt lat="47.84415" lon="6.67581">
        <ele>557</ele>
        <time>2014-10-30T12:53:33.1Z</time>
      </trkpt>
      <trkpt lat="47.8442" lon="6.67575">
        <ele>557</ele>
        <time>2014-10-30T12:53:35.1Z</time>
      </trkpt>
      <trkpt lat="47.84426" lon="6.67567">
        <ele>556</ele>
        <time>2014-10-30T12:53:37.1Z</time>
      </trkpt>
      <trkpt lat="47.84434" lon="6.6756">
        <ele>556</ele>
        <time>2014-10-30T12:53:39.1Z</time>
      </trkpt>
      <trkpt lat="47.84439" lon="6.67553">
        <ele>554</ele>
        <time>2014-10-30T12:53:41.1Z</time>
      </trkpt>
      <trkpt lat="47.84441" lon="6.6754">
        <ele>553</ele>
        <time>2014-10-30T12:53:44.1Z</time>
      </trkpt>
      <trkpt lat="47.84438" lon="6.67531">
        <ele>553</ele>
        <time>2014-10-30T12:53:46.1Z</time>
      </trkpt>
      <trkpt lat="47.84434" lon="6.6752">
        <ele>552</ele>
        <time>2014-10-30T12:53:48.1Z</time>
      </trkpt>
      <trkpt lat="47.8443" lon="6.6751">
        <ele>553</ele>
        <time>2014-10-30T12:53:50.1Z</time>
      </trkpt>
      <trkpt lat="47.84424" lon="6.67495">
        <ele>554</ele>
        <time>2014-10-30T12:53:53.1Z</time>
      </trkpt>
      <trkpt lat="47.84419" lon="6.67479">
        <ele>554</ele>
        <time>2014-10-30T12:53:56.1Z</time>
      </trkpt>
      <trkpt lat="47.84417" lon="6.67461">
        <ele>554</ele>
        <time>2014-10-30T12:53:59.1Z</time>
      </trkpt>
      <trkpt lat="47.84421" lon="6.67443">
        <ele>555</ele>
        <time>2014-10-30T12:54:02.1Z</time>
      </trkpt>
      <trkpt lat="47.84428" lon="6.67435">
        <ele>554</ele>
        <time>2014-10-30T12:54:04.1Z</time>
      </trkpt>
      <trkpt lat="47.84437" lon="6.67428">
        <ele>554</ele>
        <time>2014-10-30T12:54:06.1Z</time>
      </trkpt>
      <trkpt lat="47.8445" lon="6.67417">
        <ele>553</ele>
        <time>2014-10-30T12:54:09.1Z</time>
      </trkpt>
      <trkpt lat="47.84456" lon="6.67408">
        <ele>553</ele>
        <time>2014-10-30T12:54:11.1Z</time>
      </trkpt>
      <trkpt lat="47.84459" lon="6.674">
        <ele>553</ele>
        <time>2014-10-30T12:54:13.1Z</time>
      </trkpt>
      <trkpt lat="47.84462" lon="6.67393">
        <ele>553</ele>
        <time>2014-10-30T12:54:15.1Z</time>
      </trkpt>
      <trkpt lat="47.84466" lon="6.67381">
        <ele>553</ele>
        <time>2014-10-30T12:54:18.1Z</time>
      </trkpt>
      <trkpt lat="47.84468" lon="6.67373">
        <ele>553</ele>
        <time>2014-10-30T12:54:20.1Z</time>
      </trkpt>
      <trkpt lat="47.8447" lon="6.67365">
        <ele>554</ele>
        <time>2014-10-30T12:54:22.1Z</time>
      </trkpt>
      <trkpt lat="47.84473" lon="6.67353">
        <ele>554</ele>
        <time>2014-10-30T12:54:25.1Z</time>
      </trkpt>
      <trkpt lat="47.84477" lon="6.67346">
        <ele>554</ele>
        <time>2014-10-30T12:54:27.1Z</time>
      </trkpt>
      <trkpt lat="47.84482" lon="6.67342">
        <ele>554</ele>
        <time>2014-10-30T12:54:29.1Z</time>
      </trkpt>
      <trkpt lat="47.84484" lon="6.67339">
        <ele>554</ele>
        <time>2014-10-30T12:54:32.1Z</time>
      </trkpt>
      <trkpt lat="47.84484" lon="6.67339">
        <ele>554</ele>
        <time>2014-10-30T12:54:35.1Z</time>
      </trkpt>
      <trkpt lat="47.84483" lon="6.67338">
        <ele>554</ele>
        <time>2014-10-30T12:54:38.1Z</time>
      </trkpt>
      <trkpt lat="47.84483" lon="6.67335">
        <ele>554</ele>
        <time>2014-10-30T12:54:41.1Z</time>
      </trkpt>
      <trkpt lat="47.84483" lon="6.67335">
        <ele>554</ele>
        <time>2014-10-30T12:54:44.1Z</time>
      </trkpt>
      <trkpt lat="47.84482" lon="6.67335">
        <ele>554</ele>
        <time>2014-10-30T12:54:46.1Z</time>
      </trkpt>
      <trkpt lat="47.84482" lon="6.67335">
        <ele>554</ele>
        <time>2014-10-30T12:54:48.1Z</time>
      </trkpt>
      <trkpt lat="47.84482" lon="6.67334">
        <ele>554</ele>
        <time>2014-10-30T12:54:50.1Z</time>
      </trkpt>
      <trkpt lat="47.84482" lon="6.67333">
        <ele>554</ele>
        <time>2014-10-30T12:54:53.1Z</time>
      </trkpt>
      <trkpt lat="47.84482" lon="6.67333">
        <ele>554</ele>
        <time>2014-10-30T12:54:55.1Z</time>
      </trkpt>
      <trkpt lat="47.84482" lon="6.67333">
        <ele>554</ele>
        <time>2014-10-30T12:54:57.1Z</time>
      </trkpt>
      <trkpt lat="47.84482" lon="6.67333">
        <ele>554</ele>
        <time>2014-10-30T12:55:00.1Z</time>
      </trkpt>
      <trkpt lat="47.84482" lon="6.67332">
        <ele>554</ele>
        <time>2014-10-30T12:55:02.1Z</time>
      </trkpt>
      <trkpt lat="47.84483" lon="6.67332">
        <ele>554</ele>
        <time>2014-10-30T12:55:05.1Z</time>
      </trkpt>
      <trkpt lat="47.84483" lon="6.67332">
        <ele>554</ele>
        <time>2014-10-30T12:55:08.1Z</time>
      </trkpt>
      <trkpt lat="47.84483" lon="6.67333">
        <ele>555</ele>
        <time>2014-10-30T12:55:12.1Z</time>
      </trkpt>
      <trkpt lat="47.84483" lon="6.67332">
        <ele>554</ele>
        <time>2014-10-30T12:55:17.1Z</time>
      </trkpt>
      <trkpt lat="47.84483" lon="6.67332">
        <ele>554</ele>
        <time>2014-10-30T12:55:20.1Z</time>
      </trkpt>
      <trkpt lat="47.84483" lon="6.67332">
        <ele>554</ele>
        <time>2014-10-30T12:55:22.1Z</time>
      </trkpt>
      <trkpt lat="47.84483" lon="6.67332">
        <ele>554</ele>
        <time>2014-10-30T12:55:25.1Z</time>
      </trkpt>
      <trkpt lat="47.84483" lon="6.67332">
        <ele>554</ele>
        <time>2014-10-30T12:55:28.1Z</time>
      </trkpt>
      <trkpt lat="47.84483" lon="6.67332">
        <ele>554</ele>
        <time>2014-10-30T12:55:30.1Z</time>
      </trkpt>
      <trkpt lat="47.84484" lon="6.67332">
        <ele>554</ele>
        <time>2014-10-30T12:55:33.1Z</time>
      </trkpt>
      <trkpt lat="47.84484" lon="6.67332">
        <ele>554</ele>
        <time>2014-10-30T12:55:36.1Z</time>
      </trkpt>
      <trkpt lat="47.84484" lon="6.67331">
        <ele>554</ele>
        <time>2014-10-30T12:55:40.1Z</time>
      </trkpt>
      <trkpt lat="47.84485" lon="6.67331">
        <ele>554</ele>
        <time>2014-10-30T12:55:43.1Z</time>
      </trkpt>
      <trkpt lat="47.84485" lon="6.67331">
        <ele>554</ele>
        <time>2014-10-30T12:55:46.1Z</time>
      </trkpt>
      <trkpt lat="47.84486" lon="6.67331">
        <ele>554</ele>
        <time>2014-10-30T12:55:48.1Z</time>
      </trkpt>
      <trkpt lat="47.84486" lon="6.67331">
        <ele>554</ele>
        <time>2014-10-30T12:55:50.1Z</time>
      </trkpt>
      <trkpt lat="47.84486" lon="6.67331">
        <ele>554</ele>
        <time>2014-10-30T12:55:52.1Z</time>
      </trkpt>
      <trkpt lat="47.84485" lon="6.67331">
        <ele>555</ele>
        <time>2014-10-30T12:55:58.1Z</time>
      </trkpt>
      <trkpt lat="47.84485" lon="6.67331">
        <ele>555</ele>
        <time>2014-10-30T12:56:01.1Z</time>
      </trkpt>
      <trkpt lat="47.84486" lon="6.67331">
        <ele>555</ele>
        <time>2014-10-30T12:56:03.1Z</time>
      </trkpt>
      <trkpt lat="47.84486" lon="6.67331">
        <ele>554</ele>
        <time>2014-10-30T12:56:06.1Z</time>
      </trkpt>
      <trkpt lat="47.84486" lon="6.67331">
        <ele>554</ele>
        <time>2014-10-30T12:56:09.1Z</time>
      </trkpt>
      <trkpt lat="47.84485" lon="6.67331">
        <ele>554</ele>
        <time>2014-10-30T12:56:12.1Z</time>
      </trkpt>
      <trkpt lat="47.84486" lon="6.67332">
        <ele>554</ele>
        <time>2014-10-30T12:56:15.1Z</time>
      </trkpt>
      <trkpt lat="47.84488" lon="6.67332">
        <ele>554</ele>
        <time>2014-10-30T12:56:17.1Z</time>
      </trkpt>
      <trkpt lat="47.84488" lon="6.67331">
        <ele>554</ele>
        <time>2014-10-30T12:56:19.1Z</time>
      </trkpt>
      <trkpt lat="47.84488" lon="6.67331">
        <ele>554</ele>
        <time>2014-10-30T12:56:22.1Z</time>
      </trkpt>
      <trkpt lat="47.84487" lon="6.67331">
        <ele>554</ele>
        <time>2014-10-30T12:56:24.1Z</time>
      </trkpt>
      <trkpt lat="47.84487" lon="6.6733">
        <ele>554</ele>
        <time>2014-10-30T12:56:27.1Z</time>
      </trkpt>
      <trkpt lat="47.84487" lon="6.6733">
        <ele>554</ele>
        <time>2014-10-30T12:56:32.1Z</time>
      </trkpt>
      <trkpt lat="47.84486" lon="6.67329">
        <ele>554</ele>
        <time>2014-10-30T12:56:35.1Z</time>
      </trkpt>
      <trkpt lat="47.84486" lon="6.67329">
        <ele>554</ele>
        <time>2014-10-30T12:56:38.1Z</time>
      </trkpt>
      <trkpt lat="47.84486" lon="6.67328">
        <ele>554</ele>
        <time>2014-10-30T12:56:41.1Z</time>
      </trkpt>
      <trkpt lat="47.84486" lon="6.67328">
        <ele>554</ele>
        <time>2014-10-30T12:56:43.1Z</time>
      </trkpt>
      <trkpt lat="47.84486" lon="6.67328">
        <ele>554</ele>
        <time>2014-10-30T12:56:45.1Z</time>
      </trkpt>
      <trkpt lat="47.84486" lon="6.67328">
        <ele>554</ele>
        <time>2014-10-30T12:56:51.1Z</time>
      </trkpt>
      <trkpt lat="47.84486" lon="6.67328">
        <ele>554</ele>
        <time>2014-10-30T12:56:54.1Z</time>
      </trkpt>
      <trkpt lat="47.84486" lon="6.67328">
        <ele>555</ele>
        <time>2014-10-30T12:56:57.1Z</time>
      </trkpt>
      <trkpt lat="47.84486" lon="6.67328">
        <ele>555</ele>
        <time>2014-10-30T12:57:00.1Z</time>
      </trkpt>
      <trkpt lat="47.84486" lon="6.67329">
        <ele>555</ele>
        <time>2014-10-30T12:57:03.1Z</time>
      </trkpt>
      <trkpt lat="47.84486" lon="6.67329">
        <ele>554</ele>
        <time>2014-10-30T12:57:08.1Z</time>
      </trkpt>
      <trkpt lat="47.84486" lon="6.67328">
        <ele>554</ele>
        <time>2014-10-30T12:57:13.1Z</time>
      </trkpt>
      <trkpt lat="47.84486" lon="6.67328">
        <ele>554</ele>
        <time>2014-10-30T12:57:17.1Z</time>
      </trkpt>
      <trkpt lat="47.84486" lon="6.67329">
        <ele>554</ele>
        <time>2014-10-30T12:57:20.1Z</time>
      </trkpt>
      <trkpt lat="47.84486" lon="6.67329">
        <ele>554</ele>
        <time>2014-10-30T12:57:23.1Z</time>
      </trkpt>
      <trkpt lat="47.84486" lon="6.67328">
        <ele>554</ele>
        <time>2014-10-30T12:57:27.1Z</time>
      </trkpt>
      <trkpt lat="47.84486" lon="6.67328">
        <ele>554</ele>
        <time>2014-10-30T12:57:29.1Z</time>
      </trkpt>
      <trkpt lat="47.84486" lon="6.67328">
        <ele>554</ele>
        <time>2014-10-30T12:57:32.1Z</time>
      </trkpt>
      <trkpt lat="47.84485" lon="6.67328">
        <ele>554</ele>
        <time>2014-10-30T12:57:34.1Z</time>
      </trkpt>
      <trkpt lat="47.84485" lon="6.67327">
        <ele>554</ele>
        <time>2014-10-30T12:57:37.1Z</time>
      </trkpt>
      <trkpt lat="47.84485" lon="6.67327">
        <ele>554</ele>
        <time>2014-10-30T12:57:39.1Z</time>
      </trkpt>
      <trkpt lat="47.84485" lon="6.67327">
        <ele>554</ele>
        <time>2014-10-30T12:57:41.1Z</time>
      </trkpt>
      <trkpt lat="47.84485" lon="6.67327">
        <ele>554</ele>
        <time>2014-10-30T12:57:44.1Z</time>
      </trkpt>
      <trkpt lat="47.84485" lon="6.67327">
        <ele>554</ele>
        <time>2014-10-30T12:57:46.1Z</time>
      </trkpt>
      <trkpt lat="47.84485" lon="6.67328">
        <ele>554</ele>
        <time>2014-10-30T12:57:49.1Z</time>
      </trkpt>
      <trkpt lat="47.84484" lon="6.67328">
        <ele>555</ele>
        <time>2014-10-30T12:57:51.1Z</time>
      </trkpt>
      <trkpt lat="47.84484" lon="6.67328">
        <ele>555</ele>
        <time>2014-10-30T12:57:54.1Z</time>
      </trkpt>
      <trkpt lat="47.84483" lon="6.67328">
        <ele>555</ele>
        <time>2014-10-30T12:57:56.1Z</time>
      </trkpt>
      <trkpt lat="47.84482" lon="6.67328">
        <ele>554</ele>
        <time>2014-10-30T12:57:59.1Z</time>
      </trkpt>
      <trkpt lat="47.84483" lon="6.67328">
        <ele>554</ele>
        <time>2014-10-30T12:58:01.1Z</time>
      </trkpt>
      <trkpt lat="47.84483" lon="6.67329">
        <ele>554</ele>
        <time>2014-10-30T12:58:04.1Z</time>
      </trkpt>
      <trkpt lat="47.84483" lon="6.67329">
        <ele>555</ele>
        <time>2014-10-30T12:58:06.1Z</time>
      </trkpt>
      <trkpt lat="47.84483" lon="6.6733">
        <ele>554</ele>
        <time>2014-10-30T12:58:09.1Z</time>
      </trkpt>
      <trkpt lat="47.84483" lon="6.6733">
        <ele>554</ele>
        <time>2014-10-30T12:58:12.1Z</time>
      </trkpt>
      <trkpt lat="47.84484" lon="6.6733">
        <ele>554</ele>
        <time>2014-10-30T12:58:15.1Z</time>
      </trkpt>
      <trkpt lat="47.84485" lon="6.6733">
        <ele>554</ele>
        <time>2014-10-30T12:58:17.1Z</time>
      </trkpt>
      <trkpt lat="47.84486" lon="6.6733">
        <ele>554</ele>
        <time>2014-10-30T12:58:20.1Z</time>
      </trkpt>
      <trkpt lat="47.84486" lon="6.6733">
        <ele>554</ele>
        <time>2014-10-30T12:58:22.1Z</time>
      </trkpt>
      <trkpt lat="47.84487" lon="6.6733">
        <ele>554</ele>
        <time>2014-10-30T12:58:25.1Z</time>
      </trkpt>
      <trkpt lat="47.84488" lon="6.6733">
        <ele>554</ele>
        <time>2014-10-30T12:58:32.1Z</time>
      </trkpt>
      <trkpt lat="47.84488" lon="6.6733">
        <ele>555</ele>
        <time>2014-10-30T12:58:35.1Z</time>
      </trkpt>
      <trkpt lat="47.84488" lon="6.6733">
        <ele>555</ele>
        <time>2014-10-30T12:58:38.1Z</time>
      </trkpt>
      <trkpt lat="47.84488" lon="6.6733">
        <ele>554</ele>
        <time>2014-10-30T12:58:43.1Z</time>
      </trkpt>
      <trkpt lat="47.84489" lon="6.6733">
        <ele>554</ele>
        <time>2014-10-30T12:58:47.1Z</time>
      </trkpt>
      <trkpt lat="47.84489" lon="6.6733">
        <ele>554</ele>
        <time>2014-10-30T12:58:51.1Z</time>
      </trkpt>
      <trkpt lat="47.84489" lon="6.6733">
        <ele>554</ele>
        <time>2014-10-30T12:58:54.1Z</time>
      </trkpt>
      <trkpt lat="47.8449" lon="6.6733">
        <ele>554</ele>
        <time>2014-10-30T12:58:57.1Z</time>
      </trkpt>
      <trkpt lat="47.84491" lon="6.6733">
        <ele>554</ele>
        <time>2014-10-30T12:58:59.1Z</time>
      </trkpt>
      <trkpt lat="47.84491" lon="6.6733">
        <ele>554</ele>
        <time>2014-10-30T12:59:05.1Z</time>
      </trkpt>
      <trkpt lat="47.84491" lon="6.6733">
        <ele>554</ele>
        <time>2014-10-30T12:59:07.1Z</time>
      </trkpt>
      <trkpt lat="47.84491" lon="6.6733">
        <ele>554</ele>
        <time>2014-10-30T12:59:10.1Z</time>
      </trkpt>
      <trkpt lat="47.84491" lon="6.6733">
        <ele>554</ele>
        <time>2014-10-30T12:59:12.1Z</time>
      </trkpt>
      <trkpt lat="47.84493" lon="6.67328">
        <ele>554</ele>
        <time>2014-10-30T12:59:15.1Z</time>
      </trkpt>
      <trkpt lat="47.84494" lon="6.67326">
        <ele>554</ele>
        <time>2014-10-30T12:59:17.1Z</time>
      </trkpt>
      <trkpt lat="47.84497" lon="6.67324">
        <ele>554</ele>
        <time>2014-10-30T12:59:19.1Z</time>
      </trkpt>
      <trkpt lat="47.84501" lon="6.6732">
        <ele>554</ele>
        <time>2014-10-30T12:59:22.1Z</time>
      </trkpt>
      <trkpt lat="47.84503" lon="6.67317">
        <ele>553</ele>
        <time>2014-10-30T12:59:24.1Z</time>
      </trkpt>
      <trkpt lat="47.84505" lon="6.67313">
        <ele>553</ele>
        <time>2014-10-30T12:59:26.1Z</time>
      </trkpt>
      <trkpt lat="47.84507" lon="6.6731">
        <ele>553</ele>
        <time>2014-10-30T12:59:28.1Z</time>
      </trkpt>
      <trkpt lat="47.8451" lon="6.67309">
        <ele>553</ele>
        <time>2014-10-30T12:59:31.1Z</time>
      </trkpt>
      <trkpt lat="47.8451" lon="6.67308">
        <ele>553</ele>
        <time>2014-10-30T12:59:33.1Z</time>
      </trkpt>
      <trkpt lat="47.8451" lon="6.67309">
        <ele>554</ele>
        <time>2014-10-30T12:59:36.1Z</time>
      </trkpt>
      <trkpt lat="47.8451" lon="6.67309">
        <ele>553</ele>
        <time>2014-10-30T12:59:39.1Z</time>
      </trkpt>
      <trkpt lat="47.8451" lon="6.67309">
        <ele>553</ele>
        <time>2014-10-30T12:59:42.1Z</time>
      </trkpt>
      <trkpt lat="47.8451" lon="6.67309">
        <ele>553</ele>
        <time>2014-10-30T12:59:45.1Z</time>
      </trkpt>
      <trkpt lat="47.8451" lon="6.67309">
        <ele>553</ele>
        <time>2014-10-30T12:59:47.1Z</time>
      </trkpt>
      <trkpt lat="47.8451" lon="6.67308">
        <ele>554</ele>
        <time>2014-10-30T12:59:50.1Z</time>
      </trkpt>
      <trkpt lat="47.8451" lon="6.67309">
        <ele>553</ele>
        <time>2014-10-30T12:59:52.1Z</time>
      </trkpt>
      <trkpt lat="47.8451" lon="6.67309">
        <ele>553</ele>
        <time>2014-10-30T12:59:56.1Z</time>
      </trkpt>
      <trkpt lat="47.8451" lon="6.67309">
        <ele>553</ele>
        <time>2014-10-30T13:00:00.1Z</time>
      </trkpt>
      <trkpt lat="47.84511" lon="6.67308">
        <ele>553</ele>
        <time>2014-10-30T13:00:03.1Z</time>
      </trkpt>
      <trkpt lat="47.84512" lon="6.67307">
        <ele>553</ele>
        <time>2014-10-30T13:00:06.1Z</time>
      </trkpt>
      <trkpt lat="47.84517" lon="6.67308">
        <ele>553</ele>
        <time>2014-10-30T13:00:09.1Z</time>
      </trkpt>
      <trkpt lat="47.8452" lon="6.6731">
        <ele>553</ele>
        <time>2014-10-30T13:00:11.1Z</time>
      </trkpt>
      <trkpt lat="47.84523" lon="6.67308">
        <ele>553</ele>
        <time>2014-10-30T13:00:13.1Z</time>
      </trkpt>
      <trkpt lat="47.84528" lon="6.67306">
        <ele>553</ele>
        <time>2014-10-30T13:00:16.1Z</time>
      </trkpt>
      <trkpt lat="47.84532" lon="6.67302">
        <ele>553</ele>
        <time>2014-10-30T13:00:18.1Z</time>
      </trkpt>
      <trkpt lat="47.8454" lon="6.6729">
        <ele>553</ele>
        <time>2014-10-30T13:00:21.1Z</time>
      </trkpt>
      <trkpt lat="47.84547" lon="6.67279">
        <ele>552</ele>
        <time>2014-10-30T13:00:23.1Z</time>
      </trkpt>
      <trkpt lat="47.84554" lon="6.67267">
        <ele>552</ele>
        <time>2014-10-30T13:00:25.1Z</time>
      </trkpt>
      <trkpt lat="47.8456" lon="6.67258">
        <ele>552</ele>
        <time>2014-10-30T13:00:27.1Z</time>
      </trkpt>
      <trkpt lat="47.84569" lon="6.67246">
        <ele>551</ele>
        <time>2014-10-30T13:00:30.1Z</time>
      </trkpt>
      <trkpt lat="47.84574" lon="6.67239">
        <ele>551</ele>
        <time>2014-10-30T13:00:32.1Z</time>
      </trkpt>
      <trkpt lat="47.84579" lon="6.67232">
        <ele>552</ele>
        <time>2014-10-30T13:00:35.1Z</time>
      </trkpt>
      <trkpt lat="47.84584" lon="6.6722">
        <ele>552</ele>
        <time>2014-10-30T13:00:38.1Z</time>
      </trkpt>
      <trkpt lat="47.84587" lon="6.67209">
        <ele>552</ele>
        <time>2014-10-30T13:00:40.1Z</time>
      </trkpt>
      <trkpt lat="47.84593" lon="6.67191">
        <ele>552</ele>
        <time>2014-10-30T13:00:43.1Z</time>
      </trkpt>
      <trkpt lat="47.84599" lon="6.67177">
        <ele>551</ele>
        <time>2014-10-30T13:00:45.1Z</time>
      </trkpt>
      <trkpt lat="47.84605" lon="6.67164">
        <ele>551</ele>
        <time>2014-10-30T13:00:47.1Z</time>
      </trkpt>
      <trkpt lat="47.84608" lon="6.67142">
        <ele>552</ele>
        <time>2014-10-30T13:00:50.1Z</time>
      </trkpt>
      <trkpt lat="47.84608" lon="6.67122">
        <ele>552</ele>
        <time>2014-10-30T13:00:53.1Z</time>
      </trkpt>
      <trkpt lat="47.8461" lon="6.67105">
        <ele>553</ele>
        <time>2014-10-30T13:00:56.1Z</time>
      </trkpt>
      <trkpt lat="47.8461" lon="6.67095">
        <ele>553</ele>
        <time>2014-10-30T13:00:58.1Z</time>
      </trkpt>
      <trkpt lat="47.84609" lon="6.67083">
        <ele>553</ele>
        <time>2014-10-30T13:01:00.1Z</time>
      </trkpt>
      <trkpt lat="47.84617" lon="6.6706">
        <ele>552</ele>
        <time>2014-10-30T13:01:03.1Z</time>
      </trkpt>
      <trkpt lat="47.84627" lon="6.67052">
        <ele>551</ele>
        <time>2014-10-30T13:01:05.1Z</time>
      </trkpt>
      <trkpt lat="47.84645" lon="6.67048">
        <ele>549</ele>
        <time>2014-10-30T13:01:08.1Z</time>
      </trkpt>
      <trkpt lat="47.84654" lon="6.6704">
        <ele>549</ele>
        <time>2014-10-30T13:01:10.1Z</time>
      </trkpt>
      <trkpt lat="47.84664" lon="6.67031">
        <ele>548</ele>
        <time>2014-10-30T13:01:12.1Z</time>
      </trkpt>
      <trkpt lat="47.84678" lon="6.67012">
        <ele>547</ele>
        <time>2014-10-30T13:01:15.1Z</time>
      </trkpt>
      <trkpt lat="47.84683" lon="6.66997">
        <ele>547</ele>
        <time>2014-10-30T13:01:17.1Z</time>
      </trkpt>
      <trkpt lat="47.8468" lon="6.66981">
        <ele>546</ele>
        <time>2014-10-30T13:01:19.1Z</time>
      </trkpt>
      <trkpt lat="47.84674" lon="6.66966">
        <ele>545</ele>
        <time>2014-10-30T13:01:21.1Z</time>
      </trkpt>
      <trkpt lat="47.84667" lon="6.6695">
        <ele>545</ele>
        <time>2014-10-30T13:01:24.1Z</time>
      </trkpt>
      <trkpt lat="47.84663" lon="6.66937">
        <ele>543</ele>
        <time>2014-10-30T13:01:27.1Z</time>
      </trkpt>
      <trkpt lat="47.8466" lon="6.6693">
        <ele>543</ele>
        <time>2014-10-30T13:01:29.1Z</time>
      </trkpt>
      <trkpt lat="47.84657" lon="6.66924">
        <ele>543</ele>
        <time>2014-10-30T13:01:31.1Z</time>
      </trkpt>
      <trkpt lat="47.84652" lon="6.66911">
        <ele>542</ele>
        <time>2014-10-30T13:01:34.1Z</time>
      </trkpt>
      <trkpt lat="47.84648" lon="6.66896">
        <ele>542</ele>
        <time>2014-10-30T13:01:36.1Z</time>
      </trkpt>
      <trkpt lat="47.84645" lon="6.6688">
        <ele>541</ele>
        <time>2014-10-30T13:01:38.1Z</time>
      </trkpt>
      <trkpt lat="47.84639" lon="6.66864">
        <ele>539</ele>
        <time>2014-10-30T13:01:41.1Z</time>
      </trkpt>
      <trkpt lat="47.84634" lon="6.66844">
        <ele>538</ele>
        <time>2014-10-30T13:01:44.1Z</time>
      </trkpt>
      <trkpt lat="47.84631" lon="6.66827">
        <ele>537</ele>
        <time>2014-10-30T13:01:46.1Z</time>
      </trkpt>
      <trkpt lat="47.84621" lon="6.66803">
        <ele>535</ele>
        <time>2014-10-30T13:01:49.1Z</time>
      </trkpt>
      <trkpt lat="47.84612" lon="6.6679">
        <ele>534</ele>
        <time>2014-10-30T13:01:51.1Z</time>
      </trkpt>
      <trkpt lat="47.84598" lon="6.66771">
        <ele>532</ele>
        <time>2014-10-30T13:01:54.1Z</time>
      </trkpt>
      <trkpt lat="47.8459" lon="6.6676">
        <ele>531</ele>
        <time>2014-10-30T13:01:56.1Z</time>
      </trkpt>
      <trkpt lat="47.84584" lon="6.66748">
        <ele>530</ele>
        <time>2014-10-30T13:01:58.1Z</time>
      </trkpt>
      <trkpt lat="47.84577" lon="6.66728">
        <ele>529</ele>
        <time>2014-10-30T13:02:01.1Z</time>
      </trkpt>
      <trkpt lat="47.8457" lon="6.66714">
        <ele>528</ele>
        <time>2014-10-30T13:02:03.1Z</time>
      </trkpt>
      <trkpt lat="47.84565" lon="6.66699">
        <ele>526</ele>
        <time>2014-10-30T13:02:05.1Z</time>
      </trkpt>
      <trkpt lat="47.84555" lon="6.66671">
        <ele>524</ele>
        <time>2014-10-30T13:02:08.1Z</time>
      </trkpt>
      <trkpt lat="47.8455" lon="6.66658">
        <ele>523</ele>
        <time>2014-10-30T13:02:10.1Z</time>
      </trkpt>
      <trkpt lat="47.84547" lon="6.66654">
        <ele>522</ele>
        <time>2014-10-30T13:02:12.1Z</time>
      </trkpt>
      <trkpt lat="47.84547" lon="6.66655">
        <ele>521</ele>
        <time>2014-10-30T13:02:14.1Z</time>
      </trkpt>
      <trkpt lat="47.84548" lon="6.66653">
        <ele>521</ele>
        <time>2014-10-30T13:02:17.1Z</time>
      </trkpt>
      <trkpt lat="47.84547" lon="6.66652">
        <ele>521</ele>
        <time>2014-10-30T13:02:20.1Z</time>
      </trkpt>
      <trkpt lat="47.84547" lon="6.6665">
        <ele>522</ele>
        <time>2014-10-30T13:02:23.1Z</time>
      </trkpt>
      <trkpt lat="47.84547" lon="6.66649">
        <ele>522</ele>
        <time>2014-10-30T13:02:25.1Z</time>
      </trkpt>
      <trkpt lat="47.84547" lon="6.66648">
        <ele>522</ele>
        <time>2014-10-30T13:02:28.1Z</time>
      </trkpt>
      <trkpt lat="47.84547" lon="6.66648">
        <ele>521</ele>
        <time>2014-10-30T13:02:31.1Z</time>
      </trkpt>
      <trkpt lat="47.84547" lon="6.66646">
        <ele>522</ele>
        <time>2014-10-30T13:02:33.1Z</time>
      </trkpt>
      <trkpt lat="47.84547" lon="6.66646">
        <ele>521</ele>
        <time>2014-10-30T13:02:35.1Z</time>
      </trkpt>
      <trkpt lat="47.84547" lon="6.66645">
        <ele>522</ele>
        <time>2014-10-30T13:02:39.1Z</time>
      </trkpt>
      <trkpt lat="47.84547" lon="6.66645">
        <ele>521</ele>
        <time>2014-10-30T13:02:42.1Z</time>
      </trkpt>
      <trkpt lat="47.84547" lon="6.66645">
        <ele>521</ele>
        <time>2014-10-30T13:02:45.1Z</time>
      </trkpt>
      <trkpt lat="47.84547" lon="6.66644">
        <ele>521</ele>
        <time>2014-10-30T13:02:50.1Z</time>
      </trkpt>
      <trkpt lat="47.84546" lon="6.66645">
        <ele>521</ele>
        <time>2014-10-30T13:02:54.1Z</time>
      </trkpt>
      <trkpt lat="47.84546" lon="6.66645">
        <ele>522</ele>
        <time>2014-10-30T13:02:58.1Z</time>
      </trkpt>
      <trkpt lat="47.84546" lon="6.66645">
        <ele>522</ele>
        <time>2014-10-30T13:03:00.1Z</time>
      </trkpt>
      <trkpt lat="47.84546" lon="6.66645">
        <ele>522</ele>
        <time>2014-10-30T13:03:03.1Z</time>
      </trkpt>
      <trkpt lat="47.84546" lon="6.66644">
        <ele>522</ele>
        <time>2014-10-30T13:03:06.1Z</time>
      </trkpt>
      <trkpt lat="47.84546" lon="6.66641">
        <ele>522</ele>
        <time>2014-10-30T13:03:08.1Z</time>
      </trkpt>
      <trkpt lat="47.84548" lon="6.66625">
        <ele>521</ele>
        <time>2014-10-30T13:03:11.1Z</time>
      </trkpt>
      <trkpt lat="47.84552" lon="6.66606">
        <ele>520</ele>
        <time>2014-10-30T13:03:14.1Z</time>
      </trkpt>
      <trkpt lat="47.84555" lon="6.66593">
        <ele>518</ele>
        <time>2014-10-30T13:03:16.1Z</time>
      </trkpt>
      <trkpt lat="47.84554" lon="6.66582">
        <ele>517</ele>
        <time>2014-10-30T13:03:18.1Z</time>
      </trkpt>
      <trkpt lat="47.84549" lon="6.66573">
        <ele>516</ele>
        <time>2014-10-30T13:03:20.1Z</time>
      </trkpt>
      <trkpt lat="47.84544" lon="6.66565">
        <ele>515</ele>
        <time>2014-10-30T13:03:22.1Z</time>
      </trkpt>
      <trkpt lat="47.84539" lon="6.66552">
        <ele>515</ele>
        <time>2014-10-30T13:03:25.1Z</time>
      </trkpt>
      <trkpt lat="47.84536" lon="6.66543">
        <ele>515</ele>
        <time>2014-10-30T13:03:27.1Z</time>
      </trkpt>
      <trkpt lat="47.8453" lon="6.66532">
        <ele>516</ele>
        <time>2014-10-30T13:03:30.1Z</time>
      </trkpt>
      <trkpt lat="47.84526" lon="6.6652">
        <ele>516</ele>
        <time>2014-10-30T13:03:33.1Z</time>
      </trkpt>
      <trkpt lat="47.84522" lon="6.66512">
        <ele>517</ele>
        <time>2014-10-30T13:03:35.1Z</time>
      </trkpt>
      <trkpt lat="47.84517" lon="6.66501">
        <ele>517</ele>
        <time>2014-10-30T13:03:38.1Z</time>
      </trkpt>
      <trkpt lat="47.84513" lon="6.66493">
        <ele>517</ele>
        <time>2014-10-30T13:03:40.1Z</time>
      </trkpt>
      <trkpt lat="47.8451" lon="6.66485">
        <ele>517</ele>
        <time>2014-10-30T13:03:42.1Z</time>
      </trkpt>
      <trkpt lat="47.84507" lon="6.66478">
        <ele>517</ele>
        <time>2014-10-30T13:03:44.1Z</time>
      </trkpt>
      <trkpt lat="47.84506" lon="6.6647">
        <ele>518</ele>
        <time>2014-10-30T13:03:46.1Z</time>
      </trkpt>
      <trkpt lat="47.84507" lon="6.66462">
        <ele>518</ele>
        <time>2014-10-30T13:03:48.1Z</time>
      </trkpt>
      <trkpt lat="47.8451" lon="6.66452">
        <ele>519</ele>
        <time>2014-10-30T13:03:51.1Z</time>
      </trkpt>
      <trkpt lat="47.84512" lon="6.66446">
        <ele>519</ele>
        <time>2014-10-30T13:03:53.1Z</time>
      </trkpt>
      <trkpt lat="47.84513" lon="6.6644">
        <ele>519</ele>
        <time>2014-10-30T13:03:55.1Z</time>
      </trkpt>
      <trkpt lat="47.84515" lon="6.66434">
        <ele>519</ele>
        <time>2014-10-30T13:03:57.1Z</time>
      </trkpt>
      <trkpt lat="47.84517" lon="6.66426">
        <ele>520</ele>
        <time>2014-10-30T13:04:00.1Z</time>
      </trkpt>
      <trkpt lat="47.84519" lon="6.66421">
        <ele>520</ele>
        <time>2014-10-30T13:04:02.1Z</time>
      </trkpt>
      <trkpt lat="47.84522" lon="6.66412">
        <ele>520</ele>
        <time>2014-10-30T13:04:05.1Z</time>
      </trkpt>
      <trkpt lat="47.84525" lon="6.66404">
        <ele>520</ele>
        <time>2014-10-30T13:04:07.1Z</time>
      </trkpt>
      <trkpt lat="47.8453" lon="6.66394">
        <ele>520</ele>
        <time>2014-10-30T13:04:09.1Z</time>
      </trkpt>
      <trkpt lat="47.84537" lon="6.66376">
        <ele>519</ele>
        <time>2014-10-30T13:04:12.1Z</time>
      </trkpt>
      <trkpt lat="47.84541" lon="6.66364">
        <ele>519</ele>
        <time>2014-10-30T13:04:14.1Z</time>
      </trkpt>
      <trkpt lat="47.84546" lon="6.66355">
        <ele>519</ele>
        <time>2014-10-30T13:04:16.1Z</time>
      </trkpt>
      <trkpt lat="47.84556" lon="6.66343">
        <ele>519</ele>
        <time>2014-10-30T13:04:19.1Z</time>
      </trkpt>
      <trkpt lat="47.84569" lon="6.66333">
        <ele>519</ele>
        <time>2014-10-30T13:04:22.1Z</time>
      </trkpt>
      <trkpt lat="47.84574" lon="6.66322">
        <ele>518</ele>
        <time>2014-10-30T13:04:24.1Z</time>
      </trkpt>
      <trkpt lat="47.84577" lon="6.66309">
        <ele>518</ele>
        <time>2014-10-30T13:04:26.1Z</time>
      </trkpt>
      <trkpt lat="47.84579" lon="6.6629">
        <ele>517</ele>
        <time>2014-10-30T13:04:29.1Z</time>
      </trkpt>
      <trkpt lat="47.84574" lon="6.66268">
        <ele>517</ele>
        <time>2014-10-30T13:04:32.1Z</time>
      </trkpt>
      <trkpt lat="47.84565" lon="6.6625">
        <ele>516</ele>
        <time>2014-10-30T13:04:34.1Z</time>
      </trkpt>
      <trkpt lat="47.84557" lon="6.66225">
        <ele>515</ele>
        <time>2014-10-30T13:04:37.1Z</time>
      </trkpt>
      <trkpt lat="47.84548" lon="6.66203">
        <ele>515</ele>
        <time>2014-10-30T13:04:40.1Z</time>
      </trkpt>
      <trkpt lat="47.84544" lon="6.66187">
        <ele>515</ele>
        <time>2014-10-30T13:04:42.1Z</time>
      </trkpt>
      <trkpt lat="47.84541" lon="6.6617">
        <ele>515</ele>
        <time>2014-10-30T13:04:44.1Z</time>
      </trkpt>
      <trkpt lat="47.84541" lon="6.66146">
        <ele>515</ele>
        <time>2014-10-30T13:04:47.1Z</time>
      </trkpt>
      <trkpt lat="47.84544" lon="6.66135">
        <ele>515</ele>
        <time>2014-10-30T13:04:49.1Z</time>
      </trkpt>
      <trkpt lat="47.84546" lon="6.66124">
        <ele>516</ele>
        <time>2014-10-30T13:04:52.1Z</time>
      </trkpt>
      <trkpt lat="47.84547" lon="6.66117">
        <ele>516</ele>
        <time>2014-10-30T13:04:54.1Z</time>
      </trkpt>
      <trkpt lat="47.84549" lon="6.66111">
        <ele>517</ele>
        <time>2014-10-30T13:04:56.1Z</time>
      </trkpt>
      <trkpt lat="47.8455" lon="6.66105">
        <ele>517</ele>
        <time>2014-10-30T13:04:58.1Z</time>
      </trkpt>
      <trkpt lat="47.84552" lon="6.66094">
        <ele>518</ele>
        <time>2014-10-30T13:05:01.1Z</time>
      </trkpt>
      <trkpt lat="47.84552" lon="6.66087">
        <ele>518</ele>
        <time>2014-10-30T13:05:03.1Z</time>
      </trkpt>
      <trkpt lat="47.84553" lon="6.6608">
        <ele>518</ele>
        <time>2014-10-30T13:05:05.1Z</time>
      </trkpt>
      <trkpt lat="47.84554" lon="6.66073">
        <ele>519</ele>
        <time>2014-10-30T13:05:07.1Z</time>
      </trkpt>
      <trkpt lat="47.84555" lon="6.66063">
        <ele>519</ele>
        <time>2014-10-30T13:05:10.1Z</time>
      </trkpt>
      <trkpt lat="47.84556" lon="6.66056">
        <ele>520</ele>
        <time>2014-10-30T13:05:12.1Z</time>
      </trkpt>
      <trkpt lat="47.84556" lon="6.66046">
        <ele>520</ele>
        <time>2014-10-30T13:05:15.1Z</time>
      </trkpt>
      <trkpt lat="47.84557" lon="6.6604">
        <ele>521</ele>
        <time>2014-10-30T13:05:17.1Z</time>
      </trkpt>
      <trkpt lat="47.84557" lon="6.6603">
        <ele>521</ele>
        <time>2014-10-30T13:05:20.1Z</time>
      </trkpt>
      <trkpt lat="47.84557" lon="6.66021">
        <ele>521</ele>
        <time>2014-10-30T13:05:23.1Z</time>
      </trkpt>
      <trkpt lat="47.84557" lon="6.66015">
        <ele>522</ele>
        <time>2014-10-30T13:05:25.1Z</time>
      </trkpt>
      <trkpt lat="47.84557" lon="6.66005">
        <ele>523</ele>
        <time>2014-10-30T13:05:28.1Z</time>
      </trkpt>
      <trkpt lat="47.84556" lon="6.65999">
        <ele>523</ele>
        <time>2014-10-30T13:05:30.1Z</time>
      </trkpt>
      <trkpt lat="47.84555" lon="6.65992">
        <ele>524</ele>
        <time>2014-10-30T13:05:32.1Z</time>
      </trkpt>
      <trkpt lat="47.84554" lon="6.65985">
        <ele>524</ele>
        <time>2014-10-30T13:05:34.1Z</time>
      </trkpt>
      <trkpt lat="47.84552" lon="6.65974">
        <ele>524</ele>
        <time>2014-10-30T13:05:37.1Z</time>
      </trkpt>
      <trkpt lat="47.84551" lon="6.65967">
        <ele>524</ele>
        <time>2014-10-30T13:05:39.1Z</time>
      </trkpt>
      <trkpt lat="47.84549" lon="6.65957">
        <ele>525</ele>
        <time>2014-10-30T13:05:42.1Z</time>
      </trkpt>
      <trkpt lat="47.84547" lon="6.65951">
        <ele>525</ele>
        <time>2014-10-30T13:05:44.1Z</time>
      </trkpt>
      <trkpt lat="47.84545" lon="6.65942">
        <ele>525</ele>
        <time>2014-10-30T13:05:47.1Z</time>
      </trkpt>
      <trkpt lat="47.84543" lon="6.65936">
        <ele>525</ele>
        <time>2014-10-30T13:05:49.1Z</time>
      </trkpt>
      <trkpt lat="47.84541" lon="6.65927">
        <ele>526</ele>
        <time>2014-10-30T13:05:52.1Z</time>
      </trkpt>
      <trkpt lat="47.84539" lon="6.6592">
        <ele>526</ele>
        <time>2014-10-30T13:05:54.1Z</time>
      </trkpt>
      <trkpt lat="47.84536" lon="6.65912">
        <ele>527</ele>
        <time>2014-10-30T13:05:57.1Z</time>
      </trkpt>
      <trkpt lat="47.84534" lon="6.65907">
        <ele>527</ele>
        <time>2014-10-30T13:05:59.1Z</time>
      </trkpt>
      <trkpt lat="47.84529" lon="6.65899">
        <ele>527</ele>
        <time>2014-10-30T13:06:02.1Z</time>
      </trkpt>
      <trkpt lat="47.84526" lon="6.65895">
        <ele>528</ele>
        <time>2014-10-30T13:06:04.1Z</time>
      </trkpt>
      <trkpt lat="47.84522" lon="6.6589">
        <ele>528</ele>
        <time>2014-10-30T13:06:06.1Z</time>
      </trkpt>
      <trkpt lat="47.84517" lon="6.65884">
        <ele>528</ele>
        <time>2014-10-30T13:06:09.1Z</time>
      </trkpt>
      <trkpt lat="47.84513" lon="6.6588">
        <ele>529</ele>
        <time>2014-10-30T13:06:11.1Z</time>
      </trkpt>
      <trkpt lat="47.84509" lon="6.65876">
        <ele>529</ele>
        <time>2014-10-30T13:06:13.1Z</time>
      </trkpt>
      <trkpt lat="47.84505" lon="6.65872">
        <ele>529</ele>
        <time>2014-10-30T13:06:15.1Z</time>
      </trkpt>
      <trkpt lat="47.84502" lon="6.65868">
        <ele>529</ele>
        <time>2014-10-30T13:06:17.1Z</time>
      </trkpt>
      <trkpt lat="47.84496" lon="6.65864">
        <ele>530</ele>
        <time>2014-10-30T13:06:20.1Z</time>
      </trkpt>
      <trkpt lat="47.84492" lon="6.65861">
        <ele>530</ele>
        <time>2014-10-30T13:06:22.1Z</time>
      </trkpt>
      <trkpt lat="47.84488" lon="6.65859">
        <ele>530</ele>
        <time>2014-10-30T13:06:24.1Z</time>
      </trkpt>
      <trkpt lat="47.84482" lon="6.65861">
        <ele>531</ele>
        <time>2014-10-30T13:06:27.1Z</time>
      </trkpt>
      <trkpt lat="47.84479" lon="6.65866">
        <ele>531</ele>
        <time>2014-10-30T13:06:29.1Z</time>
      </trkpt>
      <trkpt lat="47.84476" lon="6.65875">
        <ele>531</ele>
        <time>2014-10-30T13:06:32.1Z</time>
      </trkpt>
      <trkpt lat="47.84474" lon="6.65882">
        <ele>531</ele>
        <time>2014-10-30T13:06:34.1Z</time>
      </trkpt>
      <trkpt lat="47.84473" lon="6.65889">
        <ele>532</ele>
        <time>2014-10-30T13:06:36.1Z</time>
      </trkpt>
      <trkpt lat="47.8447" lon="6.659">
        <ele>532</ele>
        <time>2014-10-30T13:06:39.1Z</time>
      </trkpt>
      <trkpt lat="47.84467" lon="6.65913">
        <ele>532</ele>
        <time>2014-10-30T13:06:42.1Z</time>
      </trkpt>
      <trkpt lat="47.84465" lon="6.65921">
        <ele>533</ele>
        <time>2014-10-30T13:06:44.1Z</time>
      </trkpt>
      <trkpt lat="47.84462" lon="6.65936">
        <ele>533</ele>
        <time>2014-10-30T13:06:47.1Z</time>
      </trkpt>
      <trkpt lat="47.84458" lon="6.65949">
        <ele>533</ele>
        <time>2014-10-30T13:06:50.1Z</time>
      </trkpt>
      <trkpt lat="47.84454" lon="6.65962">
        <ele>533</ele>
        <time>2014-10-30T13:06:53.1Z</time>
      </trkpt>
      <trkpt lat="47.84452" lon="6.65968">
        <ele>533</ele>
        <time>2014-10-30T13:06:55.1Z</time>
      </trkpt>
      <trkpt lat="47.84449" lon="6.65973">
        <ele>534</ele>
        <time>2014-10-30T13:06:57.1Z</time>
      </trkpt>
      <trkpt lat="47.84447" lon="6.65976">
        <ele>534</ele>
        <time>2014-10-30T13:06:59.1Z</time>
      </trkpt>
      <trkpt lat="47.84447" lon="6.65976">
        <ele>534</ele>
        <time>2014-10-30T13:07:02.1Z</time>
      </trkpt>
      <trkpt lat="47.84447" lon="6.65976">
        <ele>533</ele>
        <time>2014-10-30T13:07:07.1Z</time>
      </trkpt>
      <trkpt lat="47.84447" lon="6.65977">
        <ele>534</ele>
        <time>2014-10-30T13:07:10.1Z</time>
      </trkpt>
      <trkpt lat="47.84447" lon="6.65977">
        <ele>534</ele>
        <time>2014-10-30T13:07:12.1Z</time>
      </trkpt>
      <trkpt lat="47.84447" lon="6.65978">
        <ele>533</ele>
        <time>2014-10-30T13:07:15.1Z</time>
      </trkpt>
      <trkpt lat="47.84447" lon="6.65978">
        <ele>533</ele>
        <time>2014-10-30T13:07:17.1Z</time>
      </trkpt>
      <trkpt lat="47.84447" lon="6.65978">
        <ele>533</ele>
        <time>2014-10-30T13:07:20.1Z</time>
      </trkpt>
      <trkpt lat="47.84447" lon="6.65978">
        <ele>533</ele>
        <time>2014-10-30T13:07:23.1Z</time>
      </trkpt>
      <trkpt lat="47.84447" lon="6.65978">
        <ele>534</ele>
        <time>2014-10-30T13:07:26.1Z</time>
      </trkpt>
      <trkpt lat="47.84447" lon="6.65978">
        <ele>534</ele>
        <time>2014-10-30T13:07:28.1Z</time>
      </trkpt>
      <trkpt lat="47.84447" lon="6.65978">
        <ele>534</ele>
        <time>2014-10-30T13:07:32.1Z</time>
      </trkpt>
      <trkpt lat="47.84447" lon="6.65978">
        <ele>534</ele>
        <time>2014-10-30T13:07:34.1Z</time>
      </trkpt>
      <trkpt lat="47.84447" lon="6.65978">
        <ele>534</ele>
        <time>2014-10-30T13:07:37.1Z</time>
      </trkpt>
      <trkpt lat="47.84447" lon="6.65979">
        <ele>533</ele>
        <time>2014-10-30T13:07:40.1Z</time>
      </trkpt>
      <trkpt lat="47.84447" lon="6.65979">
        <ele>533</ele>
        <time>2014-10-30T13:07:42.1Z</time>
      </trkpt>
      <trkpt lat="47.84447" lon="6.6598">
        <ele>533</ele>
        <time>2014-10-30T13:07:47.1Z</time>
      </trkpt>
      <trkpt lat="47.84447" lon="6.6598">
        <ele>533</ele>
        <time>2014-10-30T13:07:55.1Z</time>
      </trkpt>
      <trkpt lat="47.84447" lon="6.6598">
        <ele>533</ele>
        <time>2014-10-30T13:07:57.1Z</time>
      </trkpt>
      <trkpt lat="47.84447" lon="6.65979">
        <ele>533</ele>
        <time>2014-10-30T13:08:02.1Z</time>
      </trkpt>
      <trkpt lat="47.84447" lon="6.65979">
        <ele>533</ele>
        <time>2014-10-30T13:08:07.1Z</time>
      </trkpt>
      <trkpt lat="47.84446" lon="6.65979">
        <ele>533</ele>
        <time>2014-10-30T13:08:12.1Z</time>
      </trkpt>
      <trkpt lat="47.84447" lon="6.65979">
        <ele>533</ele>
        <time>2014-10-30T13:08:16.1Z</time>
      </trkpt>
      <trkpt lat="47.84446" lon="6.65981">
        <ele>533</ele>
        <time>2014-10-30T13:08:19.1Z</time>
      </trkpt>
      <trkpt lat="47.84444" lon="6.65984">
        <ele>533</ele>
        <time>2014-10-30T13:08:21.1Z</time>
      </trkpt>
      <trkpt lat="47.84441" lon="6.65988">
        <ele>533</ele>
        <time>2014-10-30T13:08:23.1Z</time>
      </trkpt>
      <trkpt lat="47.84435" lon="6.65991">
        <ele>533</ele>
        <time>2014-10-30T13:08:25.1Z</time>
      </trkpt>
      <trkpt lat="47.8442" lon="6.65992">
        <ele>533</ele>
        <time>2014-10-30T13:08:28.1Z</time>
      </trkpt>
      <trkpt lat="47.84407" lon="6.65992">
        <ele>532</ele>
        <time>2014-10-30T13:08:30.1Z</time>
      </trkpt>
      <trkpt lat="47.84389" lon="6.66007">
        <ele>530</ele>
        <time>2014-10-30T13:08:33.1Z</time>
      </trkpt>
      <trkpt lat="47.8438" lon="6.66024">
        <ele>530</ele>
        <time>2014-10-30T13:08:35.1Z</time>
      </trkpt>
      <trkpt lat="47.84373" lon="6.66041">
        <ele>528</ele>
        <time>2014-10-30T13:08:37.1Z</time>
      </trkpt>
      <trkpt lat="47.84363" lon="6.66065">
        <ele>528</ele>
        <time>2014-10-30T13:08:40.1Z</time>
      </trkpt>
      <trkpt lat="47.84355" lon="6.66081">
        <ele>527</ele>
        <time>2014-10-30T13:08:42.1Z</time>
      </trkpt>
      <trkpt lat="47.84343" lon="6.66102">
        <ele>528</ele>
        <time>2014-10-30T13:08:45.1Z</time>
      </trkpt>
      <trkpt lat="47.84336" lon="6.66115">
        <ele>528</ele>
        <time>2014-10-30T13:08:47.1Z</time>
      </trkpt>
      <trkpt lat="47.84329" lon="6.66127">
        <ele>528</ele>
        <time>2014-10-30T13:08:49.1Z</time>
      </trkpt>
      <trkpt lat="47.84319" lon="6.66145">
        <ele>529</ele>
        <time>2014-10-30T13:08:52.1Z</time>
      </trkpt>
      <trkpt lat="47.84311" lon="6.66155">
        <ele>529</ele>
        <time>2014-10-30T13:08:54.1Z</time>
      </trkpt>
      <trkpt lat="47.84301" lon="6.66164">
        <ele>529</ele>
        <time>2014-10-30T13:08:56.1Z</time>
      </trkpt>
      <trkpt lat="47.84289" lon="6.66173">
        <ele>528</ele>
        <time>2014-10-30T13:08:58.1Z</time>
      </trkpt>
      <trkpt lat="47.84272" lon="6.66186">
        <ele>528</ele>
        <time>2014-10-30T13:09:01.1Z</time>
      </trkpt>
      <trkpt lat="47.84262" lon="6.66198">
        <ele>528</ele>
        <time>2014-10-30T13:09:03.1Z</time>
      </trkpt>
      <trkpt lat="47.84252" lon="6.66211">
        <ele>528</ele>
        <time>2014-10-30T13:09:05.1Z</time>
      </trkpt>
      <trkpt lat="47.84235" lon="6.66225">
        <ele>527</ele>
        <time>2014-10-30T13:09:08.1Z</time>
      </trkpt>
      <trkpt lat="47.84223" lon="6.66232">
        <ele>527</ele>
        <time>2014-10-30T13:09:10.1Z</time>
      </trkpt>
      <trkpt lat="47.84205" lon="6.66244">
        <ele>526</ele>
        <time>2014-10-30T13:09:13.1Z</time>
      </trkpt>
      <trkpt lat="47.84193" lon="6.66251">
        <ele>525</ele>
        <time>2014-10-30T13:09:15.1Z</time>
      </trkpt>
      <trkpt lat="47.84174" lon="6.66262">
        <ele>525</ele>
        <time>2014-10-30T13:09:18.1Z</time>
      </trkpt>
      <trkpt lat="47.84163" lon="6.6627">
        <ele>525</ele>
        <time>2014-10-30T13:09:20.1Z</time>
      </trkpt>
      <trkpt lat="47.84151" lon="6.66277">
        <ele>525</ele>
        <time>2014-10-30T13:09:22.1Z</time>
      </trkpt>
      <trkpt lat="47.8414" lon="6.66281">
        <ele>525</ele>
        <time>2014-10-30T13:09:24.1Z</time>
      </trkpt>
      <trkpt lat="47.84128" lon="6.66281">
        <ele>526</ele>
        <time>2014-10-30T13:09:26.1Z</time>
      </trkpt>
      <trkpt lat="47.84116" lon="6.66278">
        <ele>526</ele>
        <time>2014-10-30T13:09:28.1Z</time>
      </trkpt>
      <trkpt lat="47.841" lon="6.66275">
        <ele>526</ele>
        <time>2014-10-30T13:09:31.1Z</time>
      </trkpt>
      <trkpt lat="47.8409" lon="6.66279">
        <ele>527</ele>
        <time>2014-10-30T13:09:33.1Z</time>
      </trkpt>
      <trkpt lat="47.84079" lon="6.66286">
        <ele>527</ele>
        <time>2014-10-30T13:09:35.1Z</time>
      </trkpt>
      <trkpt lat="47.84061" lon="6.66291">
        <ele>527</ele>
        <time>2014-10-30T13:09:38.1Z</time>
      </trkpt>
      <trkpt lat="47.84043" lon="6.66294">
        <ele>526</ele>
        <time>2014-10-30T13:09:41.1Z</time>
      </trkpt>
      <trkpt lat="47.84032" lon="6.66298">
        <ele>526</ele>
        <time>2014-10-30T13:09:43.1Z</time>
      </trkpt>
      <trkpt lat="47.84018" lon="6.66304">
        <ele>527</ele>
        <time>2014-10-30T13:09:46.1Z</time>
      </trkpt>
      <trkpt lat="47.8401" lon="6.66307">
        <ele>527</ele>
        <time>2014-10-30T13:09:48.1Z</time>
      </trkpt>
      <trkpt lat="47.84002" lon="6.66311">
        <ele>528</ele>
        <time>2014-10-30T13:09:50.1Z</time>
      </trkpt>
      <trkpt lat="47.83995" lon="6.66314">
        <ele>528</ele>
        <time>2014-10-30T13:09:52.1Z</time>
      </trkpt>
      <trkpt lat="47.83987" lon="6.6632">
        <ele>529</ele>
        <time>2014-10-30T13:09:55.1Z</time>
      </trkpt>
      <trkpt lat="47.83984" lon="6.66324">
        <ele>529</ele>
        <time>2014-10-30T13:09:57.1Z</time>
      </trkpt>
      <trkpt lat="47.83978" lon="6.6633">
        <ele>530</ele>
        <time>2014-10-30T13:10:00.1Z</time>
      </trkpt>
      <trkpt lat="47.83973" lon="6.66335">
        <ele>531</ele>
        <time>2014-10-30T13:10:02.1Z</time>
      </trkpt>
      <trkpt lat="47.83963" lon="6.66339">
        <ele>531</ele>
        <time>2014-10-30T13:10:05.1Z</time>
      </trkpt>
      <trkpt lat="47.83957" lon="6.6634">
        <ele>531</ele>
        <time>2014-10-30T13:10:07.1Z</time>
      </trkpt>
      <trkpt lat="47.83949" lon="6.66338">
        <ele>532</ele>
        <time>2014-10-30T13:10:10.1Z</time>
      </trkpt>
      <trkpt lat="47.83945" lon="6.66335">
        <ele>533</ele>
        <time>2014-10-30T13:10:12.1Z</time>
      </trkpt>
      <trkpt lat="47.8394" lon="6.66329">
        <ele>533</ele>
        <time>2014-10-30T13:10:15.1Z</time>
      </trkpt>
      <trkpt lat="47.83938" lon="6.66325">
        <ele>534</ele>
        <time>2014-10-30T13:10:17.1Z</time>
      </trkpt>
      <trkpt lat="47.83935" lon="6.66321">
        <ele>534</ele>
        <time>2014-10-30T13:10:19.1Z</time>
      </trkpt>
      <trkpt lat="47.83933" lon="6.66316">
        <ele>534</ele>
        <time>2014-10-30T13:10:21.1Z</time>
      </trkpt>
      <trkpt lat="47.83929" lon="6.6631">
        <ele>535</ele>
        <time>2014-10-30T13:10:24.1Z</time>
      </trkpt>
      <trkpt lat="47.83925" lon="6.66306">
        <ele>535</ele>
        <time>2014-10-30T13:10:26.1Z</time>
      </trkpt>
      <trkpt lat="47.83921" lon="6.66302">
        <ele>536</ele>
        <time>2014-10-30T13:10:29.1Z</time>
      </trkpt>
      <trkpt lat="47.83917" lon="6.663">
        <ele>536</ele>
        <time>2014-10-30T13:10:31.1Z</time>
      </trkpt>
      <trkpt lat="47.83912" lon="6.66299">
        <ele>536</ele>
        <time>2014-10-30T13:10:34.1Z</time>
      </trkpt>
      <trkpt lat="47.83909" lon="6.663">
        <ele>537</ele>
        <time>2014-10-30T13:10:36.1Z</time>
      </trkpt>
      <trkpt lat="47.83905" lon="6.66305">
        <ele>538</ele>
        <time>2014-10-30T13:10:39.1Z</time>
      </trkpt>
      <trkpt lat="47.83903" lon="6.66309">
        <ele>538</ele>
        <time>2014-10-30T13:10:41.1Z</time>
      </trkpt>
      <trkpt lat="47.839" lon="6.66316">
        <ele>538</ele>
        <time>2014-10-30T13:10:44.1Z</time>
      </trkpt>
      <trkpt lat="47.83898" lon="6.66322">
        <ele>538</ele>
        <time>2014-10-30T13:10:46.1Z</time>
      </trkpt>
      <trkpt lat="47.83896" lon="6.66327">
        <ele>538</ele>
        <time>2014-10-30T13:10:48.1Z</time>
      </trkpt>
      <trkpt lat="47.83894" lon="6.66331">
        <ele>539</ele>
        <time>2014-10-30T13:10:50.1Z</time>
      </trkpt>
      <trkpt lat="47.8389" lon="6.66334">
        <ele>539</ele>
        <time>2014-10-30T13:10:52.1Z</time>
      </trkpt>
      <trkpt lat="47.83884" lon="6.66333">
        <ele>539</ele>
        <time>2014-10-30T13:10:55.1Z</time>
      </trkpt>
      <trkpt lat="47.8388" lon="6.66329">
        <ele>540</ele>
        <time>2014-10-30T13:10:57.1Z</time>
      </trkpt>
      <trkpt lat="47.83876" lon="6.66321">
        <ele>540</ele>
        <time>2014-10-30T13:11:00.1Z</time>
      </trkpt>
      <trkpt lat="47.83873" lon="6.66315">
        <ele>540</ele>
        <time>2014-10-30T13:11:02.1Z</time>
      </trkpt>
      <trkpt lat="47.83871" lon="6.66307">
        <ele>540</ele>
        <time>2014-10-30T13:11:04.1Z</time>
      </trkpt>
      <trkpt lat="47.83867" lon="6.66294">
        <ele>540</ele>
        <time>2014-10-30T13:11:07.1Z</time>
      </trkpt>
      <trkpt lat="47.83861" lon="6.66276">
        <ele>540</ele>
        <time>2014-10-30T13:11:10.1Z</time>
      </trkpt>
      <trkpt lat="47.83854" lon="6.66251">
        <ele>539</ele>
        <time>2014-10-30T13:11:13.1Z</time>
      </trkpt>
      <trkpt lat="47.83847" lon="6.66223">
        <ele>538</ele>
        <time>2014-10-30T13:11:16.1Z</time>
      </trkpt>
      <trkpt lat="47.83838" lon="6.66208">
        <ele>537</ele>
        <time>2014-10-30T13:11:18.1Z</time>
      </trkpt>
      <trkpt lat="47.83831" lon="6.6619">
        <ele>537</ele>
        <time>2014-10-30T13:11:20.1Z</time>
      </trkpt>
      <trkpt lat="47.8383" lon="6.66156">
        <ele>535</ele>
        <time>2014-10-30T13:11:23.1Z</time>
      </trkpt>
      <trkpt lat="47.83821" lon="6.66134">
        <ele>534</ele>
        <time>2014-10-30T13:11:25.1Z</time>
      </trkpt>
      <trkpt lat="47.83805" lon="6.66106">
        <ele>532</ele>
        <time>2014-10-30T13:11:28.1Z</time>
      </trkpt>
      <trkpt lat="47.83791" lon="6.66092">
        <ele>531</ele>
        <time>2014-10-30T13:11:30.1Z</time>
      </trkpt>
      <trkpt lat="47.83777" lon="6.66068">
        <ele>530</ele>
        <time>2014-10-30T13:11:33.1Z</time>
      </trkpt>
      <trkpt lat="47.83778" lon="6.66046">
        <ele>529</ele>
        <time>2014-10-30T13:11:35.1Z</time>
      </trkpt>
      <trkpt lat="47.83789" lon="6.6602">
        <ele>528</ele>
        <time>2014-10-30T13:11:38.1Z</time>
      </trkpt>
      <trkpt lat="47.83798" lon="6.66005">
        <ele>527</ele>
        <time>2014-10-30T13:11:40.1Z</time>
      </trkpt>
      <trkpt lat="47.83806" lon="6.65988">
        <ele>526</ele>
        <time>2014-10-30T13:11:42.1Z</time>
      </trkpt>
      <trkpt lat="47.83815" lon="6.65971">
        <ele>526</ele>
        <time>2014-10-30T13:11:44.1Z</time>
      </trkpt>
      <trkpt lat="47.83813" lon="6.6594">
        <ele>525</ele>
        <time>2014-10-30T13:11:47.1Z</time>
      </trkpt>
      <trkpt lat="47.83802" lon="6.65912">
        <ele>525</ele>
        <time>2014-10-30T13:11:50.1Z</time>
      </trkpt>
      <trkpt lat="47.83794" lon="6.65897">
        <ele>525</ele>
        <time>2014-10-30T13:11:52.1Z</time>
      </trkpt>
      <trkpt lat="47.83783" lon="6.65883">
        <ele>524</ele>
        <time>2014-10-30T13:11:54.1Z</time>
      </trkpt>
      <trkpt lat="47.8377" lon="6.65858">
        <ele>524</ele>
        <time>2014-10-30T13:11:57.1Z</time>
      </trkpt>
      <trkpt lat="47.83768" lon="6.65834">
        <ele>523</ele>
        <time>2014-10-30T13:11:59.1Z</time>
      </trkpt>
      <trkpt lat="47.83765" lon="6.65809">
        <ele>522</ele>
        <time>2014-10-30T13:12:01.1Z</time>
      </trkpt>
      <trkpt lat="47.83749" lon="6.65772">
        <ele>520</ele>
        <time>2014-10-30T13:12:04.1Z</time>
      </trkpt>
      <trkpt lat="47.83737" lon="6.65751">
        <ele>518</ele>
        <time>2014-10-30T13:12:06.1Z</time>
      </trkpt>
      <trkpt lat="47.83718" lon="6.65728">
        <ele>517</ele>
        <time>2014-10-30T13:12:09.1Z</time>
      </trkpt>
      <trkpt lat="47.83704" lon="6.65719">
        <ele>517</ele>
        <time>2014-10-30T13:12:11.1Z</time>
      </trkpt>
      <trkpt lat="47.83682" lon="6.65706">
        <ele>518</ele>
        <time>2014-10-30T13:12:14.1Z</time>
      </trkpt>
      <trkpt lat="47.83663" lon="6.65681">
        <ele>517</ele>
        <time>2014-10-30T13:12:17.1Z</time>
      </trkpt>
      <trkpt lat="47.83656" lon="6.65642">
        <ele>516</ele>
        <time>2014-10-30T13:12:20.1Z</time>
      </trkpt>
      <trkpt lat="47.83646" lon="6.6562">
        <ele>515</ele>
        <time>2014-10-30T13:12:22.1Z</time>
      </trkpt>
      <trkpt lat="47.83629" lon="6.65592">
        <ele>513</ele>
        <time>2014-10-30T13:12:25.1Z</time>
      </trkpt>
      <trkpt lat="47.83627" lon="6.65569">
        <ele>512</ele>
        <time>2014-10-30T13:12:27.1Z</time>
      </trkpt>
      <trkpt lat="47.8363" lon="6.65534">
        <ele>511</ele>
        <time>2014-10-30T13:12:30.1Z</time>
      </trkpt>
      <trkpt lat="47.83634" lon="6.65513">
        <ele>510</ele>
        <time>2014-10-30T13:12:32.1Z</time>
      </trkpt>
      <trkpt lat="47.83636" lon="6.65491">
        <ele>510</ele>
        <time>2014-10-30T13:12:34.1Z</time>
      </trkpt>
      <trkpt lat="47.83639" lon="6.65461">
        <ele>510</ele>
        <time>2014-10-30T13:12:37.1Z</time>
      </trkpt>
      <trkpt lat="47.83641" lon="6.65442">
        <ele>510</ele>
        <time>2014-10-30T13:12:39.1Z</time>
      </trkpt>
      <trkpt lat="47.83645" lon="6.65422">
        <ele>510</ele>
        <time>2014-10-30T13:12:41.1Z</time>
      </trkpt>
      <trkpt lat="47.83647" lon="6.65401">
        <ele>510</ele>
        <time>2014-10-30T13:12:43.1Z</time>
      </trkpt>
      <trkpt lat="47.83643" lon="6.65367">
        <ele>508</ele>
        <time>2014-10-30T13:12:46.1Z</time>
      </trkpt>
      <trkpt lat="47.8364" lon="6.65345">
        <ele>508</ele>
        <time>2014-10-30T13:12:48.1Z</time>
      </trkpt>
      <trkpt lat="47.83648" lon="6.65317">
        <ele>507</ele>
        <time>2014-10-30T13:12:51.1Z</time>
      </trkpt>
      <trkpt lat="47.83654" lon="6.65302">
        <ele>507</ele>
        <time>2014-10-30T13:12:53.1Z</time>
      </trkpt>
      <trkpt lat="47.83659" lon="6.65286">
        <ele>507</ele>
        <time>2014-10-30T13:12:55.1Z</time>
      </trkpt>
      <trkpt lat="47.83663" lon="6.65268">
        <ele>507</ele>
        <time>2014-10-30T13:12:57.1Z</time>
      </trkpt>
      <trkpt lat="47.83667" lon="6.65239">
        <ele>507</ele>
        <time>2014-10-30T13:13:00.1Z</time>
      </trkpt>
      <trkpt lat="47.83668" lon="6.65211">
        <ele>507</ele>
        <time>2014-10-30T13:13:03.1Z</time>
      </trkpt>
      <trkpt lat="47.83667" lon="6.65194">
        <ele>507</ele>
        <time>2014-10-30T13:13:05.1Z</time>
      </trkpt>
      <trkpt lat="47.83662" lon="6.65171">
        <ele>508</ele>
        <time>2014-10-30T13:13:08.1Z</time>
      </trkpt>
      <trkpt lat="47.83657" lon="6.65156">
        <ele>508</ele>
        <time>2014-10-30T13:13:10.1Z</time>
      </trkpt>
      <trkpt lat="47.83651" lon="6.6514">
        <ele>508</ele>
        <time>2014-10-30T13:13:12.1Z</time>
      </trkpt>
      <trkpt lat="47.83646" lon="6.65126">
        <ele>507</ele>
        <time>2014-10-30T13:13:14.1Z</time>
      </trkpt>
      <trkpt lat="47.83642" lon="6.6511">
        <ele>507</ele>
        <time>2014-10-30T13:13:16.1Z</time>
      </trkpt>
      <trkpt lat="47.83639" lon="6.65088">
        <ele>507</ele>
        <time>2014-10-30T13:13:19.1Z</time>
      </trkpt>
      <trkpt lat="47.83638" lon="6.65072">
        <ele>507</ele>
        <time>2014-10-30T13:13:21.1Z</time>
      </trkpt>
      <trkpt lat="47.83636" lon="6.6505">
        <ele>507</ele>
        <time>2014-10-30T13:13:24.1Z</time>
      </trkpt>
      <trkpt lat="47.83635" lon="6.65036">
        <ele>507</ele>
        <time>2014-10-30T13:13:26.1Z</time>
      </trkpt>
      <trkpt lat="47.83635" lon="6.6502">
        <ele>508</ele>
        <time>2014-10-30T13:13:29.1Z</time>
      </trkpt>
      <trkpt lat="47.83634" lon="6.65007">
        <ele>508</ele>
        <time>2014-10-30T13:13:31.1Z</time>
      </trkpt>
      <trkpt lat="47.83632" lon="6.64986">
        <ele>508</ele>
        <time>2014-10-30T13:13:34.1Z</time>
      </trkpt>
      <trkpt lat="47.83631" lon="6.6497">
        <ele>508</ele>
        <time>2014-10-30T13:13:36.1Z</time>
      </trkpt>
      <trkpt lat="47.83631" lon="6.64954">
        <ele>508</ele>
        <time>2014-10-30T13:13:38.1Z</time>
      </trkpt>
      <trkpt lat="47.83632" lon="6.64935">
        <ele>508</ele>
        <time>2014-10-30T13:13:41.1Z</time>
      </trkpt>
      <trkpt lat="47.83632" lon="6.6493">
        <ele>507</ele>
        <time>2014-10-30T13:13:43.1Z</time>
      </trkpt>
      <trkpt lat="47.83632" lon="6.64928">
        <ele>507</ele>
        <time>2014-10-30T13:13:46.1Z</time>
      </trkpt>
      <trkpt lat="47.83632" lon="6.64923">
        <ele>507</ele>
        <time>2014-10-30T13:13:49.1Z</time>
      </trkpt>
      <trkpt lat="47.83632" lon="6.64915">
        <ele>506</ele>
        <time>2014-10-30T13:13:51.1Z</time>
      </trkpt>
      <trkpt lat="47.83629" lon="6.64898">
        <ele>506</ele>
        <time>2014-10-30T13:13:54.1Z</time>
      </trkpt>
      <trkpt lat="47.83625" lon="6.64887">
        <ele>505</ele>
        <time>2014-10-30T13:13:56.1Z</time>
      </trkpt>
      <trkpt lat="47.8362" lon="6.64875">
        <ele>505</ele>
        <time>2014-10-30T13:13:58.1Z</time>
      </trkpt>
      <trkpt lat="47.83616" lon="6.64855">
        <ele>504</ele>
        <time>2014-10-30T13:14:01.1Z</time>
      </trkpt>
      <trkpt lat="47.83616" lon="6.64837">
        <ele>503</ele>
        <time>2014-10-30T13:14:03.1Z</time>
      </trkpt>
      <trkpt lat="47.83621" lon="6.64819">
        <ele>502</ele>
        <time>2014-10-30T13:14:05.1Z</time>
      </trkpt>
      <trkpt lat="47.83626" lon="6.64803">
        <ele>501</ele>
        <time>2014-10-30T13:14:07.1Z</time>
      </trkpt>
      <trkpt lat="47.83627" lon="6.64779">
        <ele>500</ele>
        <time>2014-10-30T13:14:10.1Z</time>
      </trkpt>
      <trkpt lat="47.83624" lon="6.6476">
        <ele>500</ele>
        <time>2014-10-30T13:14:12.1Z</time>
      </trkpt>
      <trkpt lat="47.83622" lon="6.6474">
        <ele>500</ele>
        <time>2014-10-30T13:14:14.1Z</time>
      </trkpt>
      <trkpt lat="47.83616" lon="6.6471">
        <ele>500</ele>
        <time>2014-10-30T13:14:17.1Z</time>
      </trkpt>
      <trkpt lat="47.83611" lon="6.6468">
        <ele>500</ele>
        <time>2014-10-30T13:14:20.1Z</time>
      </trkpt>
      <trkpt lat="47.83608" lon="6.6466">
        <ele>500</ele>
        <time>2014-10-30T13:14:22.1Z</time>
      </trkpt>
      <trkpt lat="47.83605" lon="6.6464">
        <ele>500</ele>
        <time>2014-10-30T13:14:24.1Z</time>
      </trkpt>
      <trkpt lat="47.83606" lon="6.64608">
        <ele>498</ele>
        <time>2014-10-30T13:14:27.1Z</time>
      </trkpt>
      <trkpt lat="47.83608" lon="6.64589">
        <ele>498</ele>
        <time>2014-10-30T13:14:29.1Z</time>
      </trkpt>
      <trkpt lat="47.83608" lon="6.64571">
        <ele>497</ele>
        <time>2014-10-30T13:14:31.1Z</time>
      </trkpt>
      <trkpt lat="47.836" lon="6.64546">
        <ele>498</ele>
        <time>2014-10-30T13:14:34.1Z</time>
      </trkpt>
      <trkpt lat="47.83591" lon="6.64529">
        <ele>499</ele>
        <time>2014-10-30T13:14:37.1Z</time>
      </trkpt>
      <trkpt lat="47.83585" lon="6.64519">
        <ele>501</ele>
        <time>2014-10-30T13:14:39.1Z</time>
      </trkpt>
      <trkpt lat="47.83577" lon="6.64505">
        <ele>502</ele>
        <time>2014-10-30T13:14:42.1Z</time>
      </trkpt>
      <trkpt lat="47.83571" lon="6.64497">
        <ele>502</ele>
        <time>2014-10-30T13:14:44.1Z</time>
      </trkpt>
      <trkpt lat="47.8356" lon="6.64481">
        <ele>502</ele>
        <time>2014-10-30T13:14:47.1Z</time>
      </trkpt>
      <trkpt lat="47.83553" lon="6.64471">
        <ele>502</ele>
        <time>2014-10-30T13:14:49.1Z</time>
      </trkpt>
      <trkpt lat="47.83543" lon="6.64455">
        <ele>501</ele>
        <time>2014-10-30T13:14:52.1Z</time>
      </trkpt>
      <trkpt lat="47.83536" lon="6.64445">
        <ele>501</ele>
        <time>2014-10-30T13:14:54.1Z</time>
      </trkpt>
      <trkpt lat="47.83527" lon="6.64434">
        <ele>500</ele>
        <time>2014-10-30T13:14:57.1Z</time>
      </trkpt>
      <trkpt lat="47.83526" lon="6.64431">
        <ele>499</ele>
        <time>2014-10-30T13:14:59.1Z</time>
      </trkpt>
      <trkpt lat="47.83526" lon="6.6443">
        <ele>499</ele>
        <time>2014-10-30T13:15:01.1Z</time>
      </trkpt>
      <trkpt lat="47.83525" lon="6.64429">
        <ele>499</ele>
        <time>2014-10-30T13:15:04.1Z</time>
      </trkpt>
      <trkpt lat="47.83525" lon="6.64429">
        <ele>499</ele>
        <time>2014-10-30T13:15:06.1Z</time>
      </trkpt>
      <trkpt lat="47.83525" lon="6.64428">
        <ele>499</ele>
        <time>2014-10-30T13:15:08.1Z</time>
      </trkpt>
      <trkpt lat="47.83524" lon="6.64427">
        <ele>499</ele>
        <time>2014-10-30T13:15:11.1Z</time>
      </trkpt>
      <trkpt lat="47.83524" lon="6.64427">
        <ele>499</ele>
        <time>2014-10-30T13:15:13.1Z</time>
      </trkpt>
      <trkpt lat="47.83524" lon="6.64426">
        <ele>498</ele>
        <time>2014-10-30T13:15:16.1Z</time>
      </trkpt>
      <trkpt lat="47.83524" lon="6.64426">
        <ele>498</ele>
        <time>2014-10-30T13:15:19.1Z</time>
      </trkpt>
      <trkpt lat="47.83524" lon="6.64426">
        <ele>498</ele>
        <time>2014-10-30T13:15:22.1Z</time>
      </trkpt>
      <trkpt lat="47.83523" lon="6.64425">
        <ele>498</ele>
        <time>2014-10-30T13:15:25.1Z</time>
      </trkpt>
      <trkpt lat="47.83523" lon="6.64425">
        <ele>498</ele>
        <time>2014-10-30T13:15:27.1Z</time>
      </trkpt>
      <trkpt lat="47.83523" lon="6.64425">
        <ele>499</ele>
        <time>2014-10-30T13:15:30.1Z</time>
      </trkpt>
      <trkpt lat="47.83523" lon="6.64425">
        <ele>499</ele>
        <time>2014-10-30T13:15:35.1Z</time>
      </trkpt>
      <trkpt lat="47.83523" lon="6.64425">
        <ele>499</ele>
        <time>2014-10-30T13:15:38.1Z</time>
      </trkpt>
      <trkpt lat="47.83523" lon="6.64424">
        <ele>499</ele>
        <time>2014-10-30T13:15:41.1Z</time>
      </trkpt>
      <trkpt lat="47.83523" lon="6.64424">
        <ele>499</ele>
        <time>2014-10-30T13:15:44.1Z</time>
      </trkpt>
      <trkpt lat="47.83522" lon="6.64423">
        <ele>499</ele>
        <time>2014-10-30T13:15:46.1Z</time>
      </trkpt>
      <trkpt lat="47.83522" lon="6.64422">
        <ele>499</ele>
        <time>2014-10-30T13:15:49.1Z</time>
      </trkpt>
      <trkpt lat="47.83523" lon="6.64423">
        <ele>499</ele>
        <time>2014-10-30T13:15:52.1Z</time>
      </trkpt>
      <trkpt lat="47.83522" lon="6.64423">
        <ele>499</ele>
        <time>2014-10-30T13:15:54.1Z</time>
      </trkpt>
      <trkpt lat="47.83522" lon="6.64424">
        <ele>499</ele>
        <time>2014-10-30T13:15:56.1Z</time>
      </trkpt>
      <trkpt lat="47.83522" lon="6.64424">
        <ele>499</ele>
        <time>2014-10-30T13:15:58.1Z</time>
      </trkpt>
      <trkpt lat="47.83519" lon="6.6442">
        <ele>499</ele>
        <time>2014-10-30T13:16:01.1Z</time>
      </trkpt>
      <trkpt lat="47.8351" lon="6.64407">
        <ele>498</ele>
        <time>2014-10-30T13:16:04.1Z</time>
      </trkpt>
      <trkpt lat="47.83503" lon="6.64396">
        <ele>498</ele>
        <time>2014-10-30T13:16:06.1Z</time>
      </trkpt>
      <trkpt lat="47.83495" lon="6.64384">
        <ele>497</ele>
        <time>2014-10-30T13:16:08.1Z</time>
      </trkpt>
      <trkpt lat="47.83484" lon="6.64366">
        <ele>497</ele>
        <time>2014-10-30T13:16:11.1Z</time>
      </trkpt>
      <trkpt lat="47.83475" lon="6.64354">
        <ele>497</ele>
        <time>2014-10-30T13:16:13.1Z</time>
      </trkpt>
      <trkpt lat="47.83463" lon="6.64333">
        <ele>496</ele>
        <time>2014-10-30T13:16:16.1Z</time>
      </trkpt>
      <trkpt lat="47.83454" lon="6.64319">
        <ele>496</ele>
        <time>2014-10-30T13:16:18.1Z</time>
      </trkpt>
      <trkpt lat="47.83442" lon="6.64299">
        <ele>496</ele>
        <time>2014-10-30T13:16:21.1Z</time>
      </trkpt>
      <trkpt lat="47.83433" lon="6.64287">
        <ele>496</ele>
        <time>2014-10-30T13:16:23.1Z</time>
      </trkpt>
      <trkpt lat="47.83421" lon="6.64273">
        <ele>496</ele>
        <time>2014-10-30T13:16:26.1Z</time>
      </trkpt>
      <trkpt lat="47.83413" lon="6.64265">
        <ele>497</ele>
        <time>2014-10-30T13:16:28.1Z</time>
      </trkpt>
      <trkpt lat="47.83402" lon="6.64252">
        <ele>497</ele>
        <time>2014-10-30T13:16:31.1Z</time>
      </trkpt>
      <trkpt lat="47.83394" lon="6.64242">
        <ele>497</ele>
        <time>2014-10-30T13:16:33.1Z</time>
      </trkpt>
      <trkpt lat="47.83387" lon="6.64234">
        <ele>497</ele>
        <time>2014-10-30T13:16:35.1Z</time>
      </trkpt>
      <trkpt lat="47.83379" lon="6.64225">
        <ele>497</ele>
        <time>2014-10-30T13:16:37.1Z</time>
      </trkpt>
      <trkpt lat="47.83368" lon="6.6421">
        <ele>497</ele>
        <time>2014-10-30T13:16:40.1Z</time>
      </trkpt>
      <trkpt lat="47.83361" lon="6.642">
        <ele>496</ele>
        <time>2014-10-30T13:16:42.1Z</time>
      </trkpt>
      <trkpt lat="47.83351" lon="6.64186">
        <ele>496</ele>
        <time>2014-10-30T13:16:45.1Z</time>
      </trkpt>
      <trkpt lat="47.83344" lon="6.64176">
        <ele>496</ele>
        <time>2014-10-30T13:16:47.1Z</time>
      </trkpt>
      <trkpt lat="47.83332" lon="6.64157">
        <ele>495</ele>
        <time>2014-10-30T13:16:50.1Z</time>
      </trkpt>
      <trkpt lat="47.83324" lon="6.64143">
        <ele>495</ele>
        <time>2014-10-30T13:16:52.1Z</time>
      </trkpt>
      <trkpt lat="47.83311" lon="6.64119">
        <ele>494</ele>
        <time>2014-10-30T13:16:55.1Z</time>
      </trkpt>
      <trkpt lat="47.83303" lon="6.64103">
        <ele>493</ele>
        <time>2014-10-30T13:16:57.1Z</time>
      </trkpt>
      <trkpt lat="47.83292" lon="6.64083">
        <ele>492</ele>
        <time>2014-10-30T13:17:00.1Z</time>
      </trkpt>
      <trkpt lat="47.83285" lon="6.64069">
        <ele>491</ele>
        <time>2014-10-30T13:17:02.1Z</time>
      </trkpt>
      <trkpt lat="47.8327" lon="6.64047">
        <ele>491</ele>
        <time>2014-10-30T13:17:05.1Z</time>
      </trkpt>
      <trkpt lat="47.83259" lon="6.64032">
        <ele>491</ele>
        <time>2014-10-30T13:17:07.1Z</time>
      </trkpt>
      <trkpt lat="47.83239" lon="6.64018">
        <ele>490</ele>
        <time>2014-10-30T13:17:10.1Z</time>
      </trkpt>
      <trkpt lat="47.83224" lon="6.6401">
        <ele>489</ele>
        <time>2014-10-30T13:17:12.1Z</time>
      </trkpt>
      <trkpt lat="47.83212" lon="6.63996">
        <ele>489</ele>
        <time>2014-10-30T13:17:14.1Z</time>
      </trkpt>
      <trkpt lat="47.83196" lon="6.6397">
        <ele>488</ele>
        <time>2014-10-30T13:17:17.1Z</time>
      </trkpt>
      <trkpt lat="47.83179" lon="6.63943">
        <ele>486</ele>
        <time>2014-10-30T13:17:20.1Z</time>
      </trkpt>
      <trkpt lat="47.83168" lon="6.63927">
        <ele>485</ele>
        <time>2014-10-30T13:17:22.1Z</time>
      </trkpt>
      <trkpt lat="47.83154" lon="6.63903">
        <ele>484</ele>
        <time>2014-10-30T13:17:25.1Z</time>
      </trkpt>
      <trkpt lat="47.83147" lon="6.63875">
        <ele>483</ele>
        <time>2014-10-30T13:17:28.1Z</time>
      </trkpt>
      <trkpt lat="47.83145" lon="6.63859">
        <ele>483</ele>
        <time>2014-10-30T13:17:30.1Z</time>
      </trkpt>
      <trkpt lat="47.83137" lon="6.63844">
        <ele>483</ele>
        <time>2014-10-30T13:17:33.1Z</time>
      </trkpt>
      <trkpt lat="47.8313" lon="6.63834">
        <ele>483</ele>
        <time>2014-10-30T13:17:35.1Z</time>
      </trkpt>
      <trkpt lat="47.83121" lon="6.63823">
        <ele>482</ele>
        <time>2014-10-30T13:17:37.1Z</time>
      </trkpt>
      <trkpt lat="47.83107" lon="6.63806">
        <ele>482</ele>
        <time>2014-10-30T13:17:40.1Z</time>
      </trkpt>
      <trkpt lat="47.831" lon="6.63789">
        <ele>482</ele>
        <time>2014-10-30T13:17:43.1Z</time>
      </trkpt>
      <trkpt lat="47.83097" lon="6.63779">
        <ele>483</ele>
        <time>2014-10-30T13:17:45.1Z</time>
      </trkpt>
      <trkpt lat="47.83095" lon="6.63764">
        <ele>484</ele>
        <time>2014-10-30T13:17:48.1Z</time>
      </trkpt>
      <trkpt lat="47.83094" lon="6.6375">
        <ele>483</ele>
        <time>2014-10-30T13:17:50.1Z</time>
      </trkpt>
      <trkpt lat="47.83091" lon="6.63733">
        <ele>482</ele>
        <time>2014-10-30T13:17:53.1Z</time>
      </trkpt>
      <trkpt lat="47.83088" lon="6.6372">
        <ele>481</ele>
        <time>2014-10-30T13:17:55.1Z</time>
      </trkpt>
      <trkpt lat="47.83088" lon="6.63696">
        <ele>480</ele>
        <time>2014-10-30T13:17:58.1Z</time>
      </trkpt>
      <trkpt lat="47.83089" lon="6.63679">
        <ele>479</ele>
        <time>2014-10-30T13:18:00.1Z</time>
      </trkpt>
      <trkpt lat="47.83092" lon="6.63658">
        <ele>478</ele>
        <time>2014-10-30T13:18:03.1Z</time>
      </trkpt>
      <trkpt lat="47.83093" lon="6.63644">
        <ele>477</ele>
        <time>2014-10-30T13:18:05.1Z</time>
      </trkpt>
      <trkpt lat="47.83092" lon="6.63616">
        <ele>475</ele>
        <time>2014-10-30T13:18:08.1Z</time>
      </trkpt>
      <trkpt lat="47.83088" lon="6.63585">
        <ele>471</ele>
        <time>2014-10-30T13:18:11.1Z</time>
      </trkpt>
      <trkpt lat="47.83086" lon="6.63567">
        <ele>469</ele>
        <time>2014-10-30T13:18:13.1Z</time>
      </trkpt>
      <trkpt lat="47.83086" lon="6.63541">
        <ele>468</ele>
        <time>2014-10-30T13:18:16.1Z</time>
      </trkpt>
      <trkpt lat="47.83086" lon="6.63523">
        <ele>469</ele>
        <time>2014-10-30T13:18:18.1Z</time>
      </trkpt>
      <trkpt lat="47.83083" lon="6.63505">
        <ele>469</ele>
        <time>2014-10-30T13:18:20.1Z</time>
      </trkpt>
      <trkpt lat="47.83077" lon="6.63489">
        <ele>469</ele>
        <time>2014-10-30T13:18:22.1Z</time>
      </trkpt>
      <trkpt lat="47.83065" lon="6.63463">
        <ele>468</ele>
        <time>2014-10-30T13:18:25.1Z</time>
      </trkpt>
      <trkpt lat="47.83059" lon="6.63442">
        <ele>467</ele>
        <time>2014-10-30T13:18:27.1Z</time>
      </trkpt>
      <trkpt lat="47.83055" lon="6.63421">
        <ele>465</ele>
        <time>2014-10-30T13:18:29.1Z</time>
      </trkpt>
      <trkpt lat="47.83048" lon="6.63401">
        <ele>464</ele>
        <time>2014-10-30T13:18:31.1Z</time>
      </trkpt>
      <trkpt lat="47.83037" lon="6.63374">
        <ele>463</ele>
        <time>2014-10-30T13:18:34.1Z</time>
      </trkpt>
      <trkpt lat="47.83025" lon="6.63357">
        <ele>462</ele>
        <time>2014-10-30T13:18:37.1Z</time>
      </trkpt>
      <trkpt lat="47.83018" lon="6.63351">
        <ele>461</ele>
        <time>2014-10-30T13:18:39.1Z</time>
      </trkpt>
      <trkpt lat="47.83015" lon="6.63336">
        <ele>460</ele>
        <time>2014-10-30T13:18:42.1Z</time>
      </trkpt>
      <trkpt lat="47.83013" lon="6.63323">
        <ele>458</ele>
        <time>2014-10-30T13:18:44.1Z</time>
      </trkpt>
      <trkpt lat="47.83009" lon="6.63311">
        <ele>458</ele>
        <time>2014-10-30T13:18:46.1Z</time>
      </trkpt>
      <trkpt lat="47.83011" lon="6.63304">
        <ele>456</ele>
        <time>2014-10-30T13:18:48.1Z</time>
      </trkpt>
      <trkpt lat="47.83011" lon="6.63287">
        <ele>455</ele>
        <time>2014-10-30T13:18:51.1Z</time>
      </trkpt>
      <trkpt lat="47.83009" lon="6.63272">
        <ele>453</ele>
        <time>2014-10-30T13:18:53.1Z</time>
      </trkpt>
      <trkpt lat="47.83003" lon="6.63257">
        <ele>452</ele>
        <time>2014-10-30T13:18:55.1Z</time>
      </trkpt>
      <trkpt lat="47.82992" lon="6.6325">
        <ele>451</ele>
        <time>2014-10-30T13:18:58.1Z</time>
      </trkpt>
      <trkpt lat="47.82985" lon="6.63249">
        <ele>450</ele>
        <time>2014-10-30T13:19:00.1Z</time>
      </trkpt>
      <trkpt lat="47.82978" lon="6.63242">
        <ele>449</ele>
        <time>2014-10-30T13:19:03.1Z</time>
      </trkpt>
      <trkpt lat="47.82974" lon="6.63236">
        <ele>449</ele>
        <time>2014-10-30T13:19:05.1Z</time>
      </trkpt>
      <trkpt lat="47.82965" lon="6.63227">
        <ele>449</ele>
        <time>2014-10-30T13:19:08.1Z</time>
      </trkpt>
      <trkpt lat="47.82959" lon="6.63222">
        <ele>449</ele>
        <time>2014-10-30T13:19:10.1Z</time>
      </trkpt>
      <trkpt lat="47.8295" lon="6.63216">
        <ele>449</ele>
        <time>2014-10-30T13:19:13.1Z</time>
      </trkpt>
      <trkpt lat="47.82945" lon="6.63212">
        <ele>450</ele>
        <time>2014-10-30T13:19:15.1Z</time>
      </trkpt>
      <trkpt lat="47.82937" lon="6.63206">
        <ele>450</ele>
        <time>2014-10-30T13:19:18.1Z</time>
      </trkpt>
      <trkpt lat="47.82933" lon="6.63202">
        <ele>450</ele>
        <time>2014-10-30T13:19:20.1Z</time>
      </trkpt>
      <trkpt lat="47.8293" lon="6.63195">
        <ele>451</ele>
        <time>2014-10-30T13:19:23.1Z</time>
      </trkpt>
      <trkpt lat="47.82927" lon="6.63191">
        <ele>452</ele>
        <time>2014-10-30T13:19:25.1Z</time>
      </trkpt>
      <trkpt lat="47.82924" lon="6.63186">
        <ele>452</ele>
        <time>2014-10-30T13:19:27.1Z</time>
      </trkpt>
      <trkpt lat="47.8292" lon="6.63176">
        <ele>452</ele>
        <time>2014-10-30T13:19:30.1Z</time>
      </trkpt>
      <trkpt lat="47.82917" lon="6.6317">
        <ele>452</ele>
        <time>2014-10-30T13:19:32.1Z</time>
      </trkpt>
      <trkpt lat="47.82914" lon="6.63165">
        <ele>451</ele>
        <time>2014-10-30T13:19:34.1Z</time>
      </trkpt>
      <trkpt lat="47.82911" lon="6.63162">
        <ele>451</ele>
        <time>2014-10-30T13:19:37.1Z</time>
      </trkpt>
      <trkpt lat="47.8291" lon="6.63161">
        <ele>451</ele>
        <time>2014-10-30T13:19:39.1Z</time>
      </trkpt>
      <trkpt lat="47.82909" lon="6.6316">
        <ele>451</ele>
        <time>2014-10-30T13:19:41.1Z</time>
      </trkpt>
      <trkpt lat="47.82908" lon="6.6316">
        <ele>452</ele>
        <time>2014-10-30T13:19:43.1Z</time>
      </trkpt>
      <trkpt lat="47.82906" lon="6.63159">
        <ele>451</ele>
        <time>2014-10-30T13:19:46.1Z</time>
      </trkpt>
      <trkpt lat="47.82906" lon="6.63158">
        <ele>451</ele>
        <time>2014-10-30T13:19:48.1Z</time>
      </trkpt>
      <trkpt lat="47.82905" lon="6.63157">
        <ele>451</ele>
        <time>2014-10-30T13:19:50.1Z</time>
      </trkpt>
      <trkpt lat="47.82904" lon="6.63157">
        <ele>451</ele>
        <time>2014-10-30T13:19:52.1Z</time>
      </trkpt>
      <trkpt lat="47.82904" lon="6.63158">
        <ele>452</ele>
        <time>2014-10-30T13:19:55.1Z</time>
      </trkpt>
      <trkpt lat="47.82904" lon="6.63157">
        <ele>452</ele>
        <time>2014-10-30T13:19:57.1Z</time>
      </trkpt>
      <trkpt lat="47.82904" lon="6.63155">
        <ele>452</ele>
        <time>2014-10-30T13:20:00.1Z</time>
      </trkpt>
      <trkpt lat="47.82905" lon="6.63154">
        <ele>451</ele>
        <time>2014-10-30T13:20:02.1Z</time>
      </trkpt>
      <trkpt lat="47.82904" lon="6.63153">
        <ele>451</ele>
        <time>2014-10-30T13:20:05.1Z</time>
      </trkpt>
      <trkpt lat="47.82904" lon="6.63153">
        <ele>451</ele>
        <time>2014-10-30T13:20:07.1Z</time>
      </trkpt>
      <trkpt lat="47.82905" lon="6.63153">
        <ele>451</ele>
        <time>2014-10-30T13:20:09.1Z</time>
      </trkpt>
      <trkpt lat="47.82905" lon="6.63152">
        <ele>451</ele>
        <time>2014-10-30T13:20:12.1Z</time>
      </trkpt>
      <trkpt lat="47.82905" lon="6.63151">
        <ele>451</ele>
        <time>2014-10-30T13:20:14.1Z</time>
      </trkpt>
      <trkpt lat="47.82905" lon="6.6315">
        <ele>451</ele>
        <time>2014-10-30T13:20:19.1Z</time>
      </trkpt>
      <trkpt lat="47.82905" lon="6.6315">
        <ele>451</ele>
        <time>2014-10-30T13:20:21.1Z</time>
      </trkpt>
      <trkpt lat="47.82905" lon="6.6315">
        <ele>451</ele>
        <time>2014-10-30T13:20:23.1Z</time>
      </trkpt>
      <trkpt lat="47.82905" lon="6.6315">
        <ele>451</ele>
        <time>2014-10-30T13:20:25.1Z</time>
      </trkpt>
      <trkpt lat="47.82905" lon="6.6315">
        <ele>451</ele>
        <time>2014-10-30T13:20:27.1Z</time>
      </trkpt>
      <trkpt lat="47.82904" lon="6.6315">
        <ele>451</ele>
        <time>2014-10-30T13:20:29.1Z</time>
      </trkpt>
      <trkpt lat="47.82904" lon="6.6315">
        <ele>451</ele>
        <time>2014-10-30T13:20:32.1Z</time>
      </trkpt>
      <trkpt lat="47.82904" lon="6.6315">
        <ele>451</ele>
        <time>2014-10-30T13:20:35.1Z</time>
      </trkpt>
      <trkpt lat="47.82903" lon="6.63151">
        <ele>451</ele>
        <time>2014-10-30T13:20:38.1Z</time>
      </trkpt>
      <trkpt lat="47.82903" lon="6.63152">
        <ele>452</ele>
        <time>2014-10-30T13:20:43.1Z</time>
      </trkpt>
      <trkpt lat="47.82903" lon="6.63152">
        <ele>452</ele>
        <time>2014-10-30T13:20:46.1Z</time>
      </trkpt>
      <trkpt lat="47.82904" lon="6.63153">
        <ele>452</ele>
        <time>2014-10-30T13:20:48.1Z</time>
      </trkpt>
      <trkpt lat="47.82904" lon="6.63154">
        <ele>451</ele>
        <time>2014-10-30T13:20:51.1Z</time>
      </trkpt>
      <trkpt lat="47.82904" lon="6.63154">
        <ele>451</ele>
        <time>2014-10-30T13:20:53.1Z</time>
      </trkpt>
      <trkpt lat="47.82905" lon="6.63153">
        <ele>451</ele>
        <time>2014-10-30T13:20:56.1Z</time>
      </trkpt>
      <trkpt lat="47.82904" lon="6.63154">
        <ele>451</ele>
        <time>2014-10-30T13:20:59.1Z</time>
      </trkpt>
      <trkpt lat="47.82904" lon="6.63154">
        <ele>451</ele>
        <time>2014-10-30T13:21:01.1Z</time>
      </trkpt>
      <trkpt lat="47.82904" lon="6.63155">
        <ele>451</ele>
        <time>2014-10-30T13:21:03.1Z</time>
      </trkpt>
      <trkpt lat="47.82904" lon="6.63155">
        <ele>451</ele>
        <time>2014-10-30T13:21:05.1Z</time>
      </trkpt>
      <trkpt lat="47.82904" lon="6.63154">
        <ele>451</ele>
        <time>2014-10-30T13:21:09.1Z</time>
      </trkpt>
      <trkpt lat="47.82904" lon="6.63153">
        <ele>451</ele>
        <time>2014-10-30T13:21:12.1Z</time>
      </trkpt>
      <trkpt lat="47.82903" lon="6.63153">
        <ele>451</ele>
        <time>2014-10-30T13:21:14.1Z</time>
      </trkpt>
      <trkpt lat="47.82901" lon="6.63153">
        <ele>451</ele>
        <time>2014-10-30T13:21:17.1Z</time>
      </trkpt>
      <trkpt lat="47.82901" lon="6.63152">
        <ele>452</ele>
        <time>2014-10-30T13:21:20.1Z</time>
      </trkpt>
      <trkpt lat="47.829" lon="6.63152">
        <ele>452</ele>
        <time>2014-10-30T13:21:22.1Z</time>
      </trkpt>
      <trkpt lat="47.829" lon="6.63153">
        <ele>452</ele>
        <time>2014-10-30T13:21:24.1Z</time>
      </trkpt>
      <trkpt lat="47.829" lon="6.63154">
        <ele>452</ele>
        <time>2014-10-30T13:21:27.1Z</time>
      </trkpt>
      <trkpt lat="47.829" lon="6.63155">
        <ele>452</ele>
        <time>2014-10-30T13:21:29.1Z</time>
      </trkpt>
      <trkpt lat="47.829" lon="6.63155">
        <ele>452</ele>
        <time>2014-10-30T13:21:32.1Z</time>
      </trkpt>
      <trkpt lat="47.829" lon="6.63155">
        <ele>452</ele>
        <time>2014-10-30T13:21:35.1Z</time>
      </trkpt>
      <trkpt lat="47.829" lon="6.63155">
        <ele>452</ele>
        <time>2014-10-30T13:21:37.1Z</time>
      </trkpt>
      <trkpt lat="47.829" lon="6.63156">
        <ele>452</ele>
        <time>2014-10-30T13:21:40.1Z</time>
      </trkpt>
      <trkpt lat="47.829" lon="6.63158">
        <ele>451</ele>
        <time>2014-10-30T13:21:43.1Z</time>
      </trkpt>
      <trkpt lat="47.829" lon="6.63158">
        <ele>452</ele>
        <time>2014-10-30T13:21:45.1Z</time>
      </trkpt>
      <trkpt lat="47.829" lon="6.63159">
        <ele>452</ele>
        <time>2014-10-30T13:21:48.1Z</time>
      </trkpt>
      <trkpt lat="47.82899" lon="6.63159">
        <ele>452</ele>
        <time>2014-10-30T13:21:51.1Z</time>
      </trkpt>
      <trkpt lat="47.82898" lon="6.63159">
        <ele>452</ele>
        <time>2014-10-30T13:21:53.1Z</time>
      </trkpt>
      <trkpt lat="47.82898" lon="6.6316">
        <ele>452</ele>
        <time>2014-10-30T13:21:55.1Z</time>
      </trkpt>
      <trkpt lat="47.82897" lon="6.6316">
        <ele>452</ele>
        <time>2014-10-30T13:21:58.1Z</time>
      </trkpt>
      <trkpt lat="47.82897" lon="6.6316">
        <ele>452</ele>
        <time>2014-10-30T13:22:01.1Z</time>
      </trkpt>
      <trkpt lat="47.82897" lon="6.6316">
        <ele>452</ele>
        <time>2014-10-30T13:22:03.1Z</time>
      </trkpt>
      <trkpt lat="47.82898" lon="6.63157">
        <ele>452</ele>
        <time>2014-10-30T13:22:06.1Z</time>
      </trkpt>
      <trkpt lat="47.82898" lon="6.63154">
        <ele>452</ele>
        <time>2014-10-30T13:22:09.1Z</time>
      </trkpt>
      <trkpt lat="47.82899" lon="6.6315">
        <ele>452</ele>
        <time>2014-10-30T13:22:12.1Z</time>
      </trkpt>
      <trkpt lat="47.82899" lon="6.63147">
        <ele>452</ele>
        <time>2014-10-30T13:22:14.1Z</time>
      </trkpt>
      <trkpt lat="47.829" lon="6.63142">
        <ele>452</ele>
        <time>2014-10-30T13:22:17.1Z</time>
      </trkpt>
      <trkpt lat="47.82902" lon="6.6314">
        <ele>452</ele>
        <time>2014-10-30T13:22:19.1Z</time>
      </trkpt>
      <trkpt lat="47.82904" lon="6.63136">
        <ele>452</ele>
        <time>2014-10-30T13:22:22.1Z</time>
      </trkpt>
      <trkpt lat="47.82904" lon="6.63134">
        <ele>452</ele>
        <time>2014-10-30T13:22:24.1Z</time>
      </trkpt>
      <trkpt lat="47.82904" lon="6.63132">
        <ele>452</ele>
        <time>2014-10-30T13:22:27.1Z</time>
      </trkpt>
      <trkpt lat="47.82905" lon="6.63131">
        <ele>452</ele>
        <time>2014-10-30T13:22:29.1Z</time>
      </trkpt>
      <trkpt lat="47.82907" lon="6.63124">
        <ele>452</ele>
        <time>2014-10-30T13:22:32.1Z</time>
      </trkpt>
      <trkpt lat="47.8291" lon="6.63118">
        <ele>452</ele>
        <time>2014-10-30T13:22:34.1Z</time>
      </trkpt>
      <trkpt lat="47.82914" lon="6.63109">
        <ele>453</ele>
        <time>2014-10-30T13:22:37.1Z</time>
      </trkpt>
      <trkpt lat="47.82916" lon="6.63103">
        <ele>453</ele>
        <time>2014-10-30T13:22:39.1Z</time>
      </trkpt>
      <trkpt lat="47.82919" lon="6.63096">
        <ele>454</ele>
        <time>2014-10-30T13:22:42.1Z</time>
      </trkpt>
      <trkpt lat="47.82921" lon="6.6309">
        <ele>454</ele>
        <time>2014-10-30T13:22:44.1Z</time>
      </trkpt>
      <trkpt lat="47.82924" lon="6.63082">
        <ele>455</ele>
        <time>2014-10-30T13:22:47.1Z</time>
      </trkpt>
      <trkpt lat="47.82926" lon="6.63076">
        <ele>456</ele>
        <time>2014-10-30T13:22:49.1Z</time>
      </trkpt>
      <trkpt lat="47.8293" lon="6.63067">
        <ele>456</ele>
        <time>2014-10-30T13:22:52.1Z</time>
      </trkpt>
      <trkpt lat="47.82932" lon="6.63062">
        <ele>457</ele>
        <time>2014-10-30T13:22:54.1Z</time>
      </trkpt>
      <trkpt lat="47.82934" lon="6.63055">
        <ele>457</ele>
        <time>2014-10-30T13:22:57.1Z</time>
      </trkpt>
      <trkpt lat="47.82935" lon="6.63051">
        <ele>458</ele>
        <time>2014-10-30T13:22:59.1Z</time>
      </trkpt>
      <trkpt lat="47.82937" lon="6.63043">
        <ele>458</ele>
        <time>2014-10-30T13:23:02.1Z</time>
      </trkpt>
      <trkpt lat="47.82939" lon="6.63037">
        <ele>458</ele>
        <time>2014-10-30T13:23:04.1Z</time>
      </trkpt>
      <trkpt lat="47.8294" lon="6.6303">
        <ele>458</ele>
        <time>2014-10-30T13:23:06.1Z</time>
      </trkpt>
      <trkpt lat="47.8294" lon="6.63023">
        <ele>458</ele>
        <time>2014-10-30T13:23:08.1Z</time>
      </trkpt>
      <trkpt lat="47.8294" lon="6.63016">
        <ele>458</ele>
        <time>2014-10-30T13:23:10.1Z</time>
      </trkpt>
      <trkpt lat="47.82942" lon="6.63004">
        <ele>458</ele>
        <time>2014-10-30T13:23:13.1Z</time>
      </trkpt>
      <trkpt lat="47.82945" lon="6.62997">
        <ele>458</ele>
        <time>2014-10-30T13:23:15.1Z</time>
      </trkpt>
      <trkpt lat="47.82949" lon="6.62988">
        <ele>458</ele>
        <time>2014-10-30T13:23:18.1Z</time>
      </trkpt>
      <trkpt lat="47.82951" lon="6.62983">
        <ele>458</ele>
        <time>2014-10-30T13:23:20.1Z</time>
      </trkpt>
      <trkpt lat="47.82953" lon="6.62975">
        <ele>459</ele>
        <time>2014-10-30T13:23:23.1Z</time>
      </trkpt>
      <trkpt lat="47.82955" lon="6.6297">
        <ele>459</ele>
        <time>2014-10-30T13:23:25.1Z</time>
      </trkpt>
      <trkpt lat="47.82958" lon="6.62963">
        <ele>460</ele>
        <time>2014-10-30T13:23:28.1Z</time>
      </trkpt>
      <trkpt lat="47.82959" lon="6.62959">
        <ele>460</ele>
        <time>2014-10-30T13:23:30.1Z</time>
      </trkpt>
      <trkpt lat="47.82961" lon="6.62953">
        <ele>461</ele>
        <time>2014-10-30T13:23:33.1Z</time>
      </trkpt>
      <trkpt lat="47.82962" lon="6.6295">
        <ele>461</ele>
        <time>2014-10-30T13:23:35.1Z</time>
      </trkpt>
      <trkpt lat="47.82964" lon="6.62945">
        <ele>461</ele>
        <time>2014-10-30T13:23:38.1Z</time>
      </trkpt>
      <trkpt lat="47.82965" lon="6.62942">
        <ele>461</ele>
        <time>2014-10-30T13:23:40.1Z</time>
      </trkpt>
      <trkpt lat="47.82966" lon="6.62937">
        <ele>461</ele>
        <time>2014-10-30T13:23:43.1Z</time>
      </trkpt>
      <trkpt lat="47.82968" lon="6.62935">
        <ele>462</ele>
        <time>2014-10-30T13:23:45.1Z</time>
      </trkpt>
      <trkpt lat="47.82969" lon="6.62932">
        <ele>462</ele>
        <time>2014-10-30T13:23:47.1Z</time>
      </trkpt>
      <trkpt lat="47.8297" lon="6.62929">
        <ele>462</ele>
        <time>2014-10-30T13:23:49.1Z</time>
      </trkpt>
      <trkpt lat="47.82972" lon="6.62925">
        <ele>463</ele>
        <time>2014-10-30T13:23:52.1Z</time>
      </trkpt>
      <trkpt lat="47.82973" lon="6.62922">
        <ele>463</ele>
        <time>2014-10-30T13:23:54.1Z</time>
      </trkpt>
      <trkpt lat="47.82975" lon="6.62917">
        <ele>464</ele>
        <time>2014-10-30T13:23:57.1Z</time>
      </trkpt>
      <trkpt lat="47.82975" lon="6.62914">
        <ele>464</ele>
        <time>2014-10-30T13:23:59.1Z</time>
      </trkpt>
      <trkpt lat="47.82977" lon="6.62908">
        <ele>465</ele>
        <time>2014-10-30T13:24:02.1Z</time>
      </trkpt>
      <trkpt lat="47.82978" lon="6.62905">
        <ele>465</ele>
        <time>2014-10-30T13:24:04.1Z</time>
      </trkpt>
      <trkpt lat="47.82978" lon="6.629">
        <ele>465</ele>
        <time>2014-10-30T13:24:07.1Z</time>
      </trkpt>
      <trkpt lat="47.82979" lon="6.62896">
        <ele>466</ele>
        <time>2014-10-30T13:24:09.1Z</time>
      </trkpt>
      <trkpt lat="47.8298" lon="6.62893">
        <ele>466</ele>
        <time>2014-10-30T13:24:11.1Z</time>
      </trkpt>
      <trkpt lat="47.8298" lon="6.62889">
        <ele>466</ele>
        <time>2014-10-30T13:24:13.1Z</time>
      </trkpt>
      <trkpt lat="47.8298" lon="6.62885">
        <ele>467</ele>
        <time>2014-10-30T13:24:15.1Z</time>
      </trkpt>
      <trkpt lat="47.82981" lon="6.62882">
        <ele>467</ele>
        <time>2014-10-30T13:24:17.1Z</time>
      </trkpt>
      <trkpt lat="47.82982" lon="6.62878">
        <ele>467</ele>
        <time>2014-10-30T13:24:19.1Z</time>
      </trkpt>
      <trkpt lat="47.82983" lon="6.62871">
        <ele>467</ele>
        <time>2014-10-30T13:24:22.1Z</time>
      </trkpt>
      <trkpt lat="47.82984" lon="6.62868">
        <ele>467</ele>
        <time>2014-10-30T13:24:24.1Z</time>
      </trkpt>
      <trkpt lat="47.82985" lon="6.62862">
        <ele>467</ele>
        <time>2014-10-30T13:24:27.1Z</time>
      </trkpt>
      <trkpt lat="47.82985" lon="6.62858">
        <ele>467</ele>
        <time>2014-10-30T13:24:29.1Z</time>
      </trkpt>
      <trkpt lat="47.82984" lon="6.62854">
        <ele>467</ele>
        <time>2014-10-30T13:24:31.1Z</time>
      </trkpt>
      <trkpt lat="47.82982" lon="6.6285">
        <ele>467</ele>
        <time>2014-10-30T13:24:33.1Z</time>
      </trkpt>
      <trkpt lat="47.82979" lon="6.62845">
        <ele>468</ele>
        <time>2014-10-30T13:24:36.1Z</time>
      </trkpt>
      <trkpt lat="47.82977" lon="6.62842">
        <ele>468</ele>
        <time>2014-10-30T13:24:38.1Z</time>
      </trkpt>
      <trkpt lat="47.82975" lon="6.62835">
        <ele>468</ele>
        <time>2014-10-30T13:24:41.1Z</time>
      </trkpt>
      <trkpt lat="47.82974" lon="6.62831">
        <ele>468</ele>
        <time>2014-10-30T13:24:43.1Z</time>
      </trkpt>
      <trkpt lat="47.82972" lon="6.62824">
        <ele>468</ele>
        <time>2014-10-30T13:24:46.1Z</time>
      </trkpt>
      <trkpt lat="47.8297" lon="6.62818">
        <ele>468</ele>
        <time>2014-10-30T13:24:48.1Z</time>
      </trkpt>
      <trkpt lat="47.82967" lon="6.62812">
        <ele>468</ele>
        <time>2014-10-30T13:24:51.1Z</time>
      </trkpt>
      <trkpt lat="47.82964" lon="6.62802">
        <ele>468</ele>
        <time>2014-10-30T13:24:54.1Z</time>
      </trkpt>
      <trkpt lat="47.82962" lon="6.62795">
        <ele>468</ele>
        <time>2014-10-30T13:24:56.1Z</time>
      </trkpt>
      <trkpt lat="47.82958" lon="6.62787">
        <ele>468</ele>
        <time>2014-10-30T13:24:59.1Z</time>
      </trkpt>
      <trkpt lat="47.82955" lon="6.62781">
        <ele>468</ele>
        <time>2014-10-30T13:25:01.1Z</time>
      </trkpt>
      <trkpt lat="47.82951" lon="6.62771">
        <ele>468</ele>
        <time>2014-10-30T13:25:04.1Z</time>
      </trkpt>
      <trkpt lat="47.82948" lon="6.62765">
        <ele>468</ele>
        <time>2014-10-30T13:25:06.1Z</time>
      </trkpt>
      <trkpt lat="47.82943" lon="6.62756">
        <ele>468</ele>
        <time>2014-10-30T13:25:09.1Z</time>
      </trkpt>
      <trkpt lat="47.8294" lon="6.62751">
        <ele>468</ele>
        <time>2014-10-30T13:25:11.1Z</time>
      </trkpt>
      <trkpt lat="47.82937" lon="6.62746">
        <ele>468</ele>
        <time>2014-10-30T13:25:13.1Z</time>
      </trkpt>
      <trkpt lat="47.82933" lon="6.62742">
        <ele>469</ele>
        <time>2014-10-30T13:25:15.1Z</time>
      </trkpt>
      <trkpt lat="47.8293" lon="6.62738">
        <ele>469</ele>
        <time>2014-10-30T13:25:17.1Z</time>
      </trkpt>
      <trkpt lat="47.82923" lon="6.62729">
        <ele>470</ele>
        <time>2014-10-30T13:25:20.1Z</time>
      </trkpt>
      <trkpt lat="47.82919" lon="6.62723">
        <ele>469</ele>
        <time>2014-10-30T13:25:22.1Z</time>
      </trkpt>
      <trkpt lat="47.82914" lon="6.62717">
        <ele>469</ele>
        <time>2014-10-30T13:25:25.1Z</time>
      </trkpt>
      <trkpt lat="47.82911" lon="6.62711">
        <ele>470</ele>
        <time>2014-10-30T13:25:27.1Z</time>
      </trkpt>
      <trkpt lat="47.82904" lon="6.627">
        <ele>469</ele>
        <time>2014-10-30T13:25:30.1Z</time>
      </trkpt>
      <trkpt lat="47.82898" lon="6.62692">
        <ele>469</ele>
        <time>2014-10-30T13:25:32.1Z</time>
      </trkpt>
      <trkpt lat="47.8289" lon="6.62684">
        <ele>469</ele>
        <time>2014-10-30T13:25:35.1Z</time>
      </trkpt>
      <trkpt lat="47.82887" lon="6.62678">
        <ele>469</ele>
        <time>2014-10-30T13:25:37.1Z</time>
      </trkpt>
      <trkpt lat="47.82881" lon="6.62671">
        <ele>470</ele>
        <time>2014-10-30T13:25:40.1Z</time>
      </trkpt>
      <trkpt lat="47.82878" lon="6.62668">
        <ele>470</ele>
        <time>2014-10-30T13:25:42.1Z</time>
      </trkpt>
      <trkpt lat="47.82872" lon="6.62665">
        <ele>470</ele>
        <time>2014-10-30T13:25:45.1Z</time>
      </trkpt>
      <trkpt lat="47.82867" lon="6.62662">
        <ele>470</ele>
        <time>2014-10-30T13:25:47.1Z</time>
      </trkpt>
      <trkpt lat="47.82861" lon="6.62659">
        <ele>470</ele>
        <time>2014-10-30T13:25:50.1Z</time>
      </trkpt>
      <trkpt lat="47.82858" lon="6.62659">
        <ele>470</ele>
        <time>2014-10-30T13:25:52.1Z</time>
      </trkpt>
      <trkpt lat="47.82854" lon="6.62659">
        <ele>471</ele>
        <time>2014-10-30T13:25:54.1Z</time>
      </trkpt>
      <trkpt lat="47.82852" lon="6.6266">
        <ele>471</ele>
        <time>2014-10-30T13:25:56.1Z</time>
      </trkpt>
      <trkpt lat="47.8285" lon="6.62661">
        <ele>471</ele>
        <time>2014-10-30T13:25:58.1Z</time>
      </trkpt>
      <trkpt lat="47.82846" lon="6.62662">
        <ele>472</ele>
        <time>2014-10-30T13:26:01.1Z</time>
      </trkpt>
      <trkpt lat="47.82843" lon="6.62661">
        <ele>472</ele>
        <time>2014-10-30T13:26:03.1Z</time>
      </trkpt>
      <trkpt lat="47.8284" lon="6.62661">
        <ele>472</ele>
        <time>2014-10-30T13:26:06.1Z</time>
      </trkpt>
      <trkpt lat="47.82837" lon="6.6266">
        <ele>473</ele>
        <time>2014-10-30T13:26:08.1Z</time>
      </trkpt>
      <trkpt lat="47.82834" lon="6.6266">
        <ele>473</ele>
        <time>2014-10-30T13:26:11.1Z</time>
      </trkpt>
      <trkpt lat="47.82832" lon="6.62658">
        <ele>473</ele>
        <time>2014-10-30T13:26:13.1Z</time>
      </trkpt>
      <trkpt lat="47.82829" lon="6.62656">
        <ele>474</ele>
        <time>2014-10-30T13:26:16.1Z</time>
      </trkpt>
      <trkpt lat="47.82826" lon="6.62656">
        <ele>474</ele>
        <time>2014-10-30T13:26:18.1Z</time>
      </trkpt>
      <trkpt lat="47.82821" lon="6.62655">
        <ele>474</ele>
        <time>2014-10-30T13:26:21.1Z</time>
      </trkpt>
      <trkpt lat="47.82818" lon="6.62655">
        <ele>474</ele>
        <time>2014-10-30T13:26:23.1Z</time>
      </trkpt>
      <trkpt lat="47.82813" lon="6.62656">
        <ele>474</ele>
        <time>2014-10-30T13:26:26.1Z</time>
      </trkpt>
      <trkpt lat="47.8281" lon="6.62658">
        <ele>474</ele>
        <time>2014-10-30T13:26:28.1Z</time>
      </trkpt>
      <trkpt lat="47.82805" lon="6.62659">
        <ele>475</ele>
        <time>2014-10-30T13:26:31.1Z</time>
      </trkpt>
      <trkpt lat="47.82802" lon="6.62659">
        <ele>475</ele>
        <time>2014-10-30T13:26:33.1Z</time>
      </trkpt>
      <trkpt lat="47.82799" lon="6.62656">
        <ele>475</ele>
        <time>2014-10-30T13:26:35.1Z</time>
      </trkpt>
      <trkpt lat="47.82795" lon="6.62653">
        <ele>475</ele>
        <time>2014-10-30T13:26:37.1Z</time>
      </trkpt>
      <trkpt lat="47.8279" lon="6.62647">
        <ele>475</ele>
        <time>2014-10-30T13:26:40.1Z</time>
      </trkpt>
      <trkpt lat="47.82786" lon="6.62644">
        <ele>474</ele>
        <time>2014-10-30T13:26:42.1Z</time>
      </trkpt>
      <trkpt lat="47.82781" lon="6.62641">
        <ele>474</ele>
        <time>2014-10-30T13:26:45.1Z</time>
      </trkpt>
      <trkpt lat="47.82775" lon="6.6264">
        <ele>474</ele>
        <time>2014-10-30T13:26:47.1Z</time>
      </trkpt>
      <trkpt lat="47.82764" lon="6.62631">
        <ele>473</ele>
        <time>2014-10-30T13:26:50.1Z</time>
      </trkpt>
      <trkpt lat="47.82759" lon="6.62617">
        <ele>472</ele>
        <time>2014-10-30T13:26:52.1Z</time>
      </trkpt>
      <trkpt lat="47.82757" lon="6.62601">
        <ele>471</ele>
        <time>2014-10-30T13:26:54.1Z</time>
      </trkpt>
      <trkpt lat="47.82759" lon="6.62572">
        <ele>469</ele>
        <time>2014-10-30T13:26:57.1Z</time>
      </trkpt>
      <trkpt lat="47.82763" lon="6.62554">
        <ele>468</ele>
        <time>2014-10-30T13:26:59.1Z</time>
      </trkpt>
      <trkpt lat="47.82765" lon="6.6254">
        <ele>467</ele>
        <time>2014-10-30T13:27:01.1Z</time>
      </trkpt>
      <trkpt lat="47.82768" lon="6.62515">
        <ele>465</ele>
        <time>2014-10-30T13:27:04.1Z</time>
      </trkpt>
      <trkpt lat="47.82764" lon="6.62485">
        <ele>463</ele>
        <time>2014-10-30T13:27:07.1Z</time>
      </trkpt>
      <trkpt lat="47.82759" lon="6.62456">
        <ele>459</ele>
        <time>2014-10-30T13:27:10.1Z</time>
      </trkpt>
      <trkpt lat="47.82759" lon="6.62435">
        <ele>456</ele>
        <time>2014-10-30T13:27:13.1Z</time>
      </trkpt>
      <trkpt lat="47.82758" lon="6.62418">
        <ele>455</ele>
        <time>2014-10-30T13:27:15.1Z</time>
      </trkpt>
      <trkpt lat="47.82756" lon="6.624">
        <ele>455</ele>
        <time>2014-10-30T13:27:17.1Z</time>
      </trkpt>
      <trkpt lat="47.82745" lon="6.62379">
        <ele>454</ele>
        <time>2014-10-30T13:27:20.1Z</time>
      </trkpt>
      <trkpt lat="47.82734" lon="6.62362">
        <ele>454</ele>
        <time>2014-10-30T13:27:23.1Z</time>
      </trkpt>
      <trkpt lat="47.82729" lon="6.62358">
        <ele>453</ele>
        <time>2014-10-30T13:27:25.1Z</time>
      </trkpt>
      <trkpt lat="47.82726" lon="6.62356">
        <ele>453</ele>
        <time>2014-10-30T13:27:28.1Z</time>
      </trkpt>
      <trkpt lat="47.82726" lon="6.62355">
        <ele>453</ele>
        <time>2014-10-30T13:27:30.1Z</time>
      </trkpt>
      <trkpt lat="47.82725" lon="6.62354">
        <ele>453</ele>
        <time>2014-10-30T13:27:33.1Z</time>
      </trkpt>
      <trkpt lat="47.82726" lon="6.62353">
        <ele>454</ele>
        <time>2014-10-30T13:27:35.1Z</time>
      </trkpt>
      <trkpt lat="47.82726" lon="6.62352">
        <ele>454</ele>
        <time>2014-10-30T13:27:37.1Z</time>
      </trkpt>
      <trkpt lat="47.82727" lon="6.62352">
        <ele>454</ele>
        <time>2014-10-30T13:27:40.1Z</time>
      </trkpt>
      <trkpt lat="47.82725" lon="6.62357">
        <ele>454</ele>
        <time>2014-10-30T13:27:43.1Z</time>
      </trkpt>
      <trkpt lat="47.82721" lon="6.62368">
        <ele>454</ele>
        <time>2014-10-30T13:27:46.1Z</time>
      </trkpt>
      <trkpt lat="47.82717" lon="6.62378">
        <ele>454</ele>
        <time>2014-10-30T13:27:49.1Z</time>
      </trkpt>
      <trkpt lat="47.82716" lon="6.62383">
        <ele>455</ele>
        <time>2014-10-30T13:27:51.1Z</time>
      </trkpt>
      <trkpt lat="47.82712" lon="6.62389">
        <ele>456</ele>
        <time>2014-10-30T13:27:54.1Z</time>
      </trkpt>
      <trkpt lat="47.82708" lon="6.62394">
        <ele>456</ele>
        <time>2014-10-30T13:27:56.1Z</time>
      </trkpt>
      <trkpt lat="47.82703" lon="6.62399">
        <ele>456</ele>
        <time>2014-10-30T13:27:59.1Z</time>
      </trkpt>
      <trkpt lat="47.82703" lon="6.624">
        <ele>456</ele>
        <time>2014-10-30T13:28:02.1Z</time>
      </trkpt>
      <trkpt lat="47.82702" lon="6.62401">
        <ele>455</ele>
        <time>2014-10-30T13:28:05.1Z</time>
      </trkpt>
      <trkpt lat="47.82701" lon="6.62402">
        <ele>456</ele>
        <time>2014-10-30T13:28:07.1Z</time>
      </trkpt>
      <trkpt lat="47.82701" lon="6.62403">
        <ele>456</ele>
        <time>2014-10-30T13:28:09.1Z</time>
      </trkpt>
      <trkpt lat="47.827" lon="6.62404">
        <ele>456</ele>
        <time>2014-10-30T13:28:11.1Z</time>
      </trkpt>
      <trkpt lat="47.827" lon="6.62405">
        <ele>456</ele>
        <time>2014-10-30T13:28:13.1Z</time>
      </trkpt>
      <trkpt lat="47.827" lon="6.62407">
        <ele>456</ele>
        <time>2014-10-30T13:28:15.1Z</time>
      </trkpt>
      <trkpt lat="47.82699" lon="6.62408">
        <ele>456</ele>
        <time>2014-10-30T13:28:17.1Z</time>
      </trkpt>
      <trkpt lat="47.82698" lon="6.6241">
        <ele>456</ele>
        <time>2014-10-30T13:28:19.1Z</time>
      </trkpt>
      <trkpt lat="47.82694" lon="6.62412">
        <ele>455</ele>
        <time>2014-10-30T13:28:22.1Z</time>
      </trkpt>
      <trkpt lat="47.8269" lon="6.6241">
        <ele>455</ele>
        <time>2014-10-30T13:28:25.1Z</time>
      </trkpt>
      <trkpt lat="47.82682" lon="6.62405">
        <ele>454</ele>
        <time>2014-10-30T13:28:28.1Z</time>
      </trkpt>
      <trkpt lat="47.82675" lon="6.62403">
        <ele>453</ele>
        <time>2014-10-30T13:28:30.1Z</time>
      </trkpt>
      <trkpt lat="47.82664" lon="6.62406">
        <ele>451</ele>
        <time>2014-10-30T13:28:33.1Z</time>
      </trkpt>
      <trkpt lat="47.82658" lon="6.62409">
        <ele>449</ele>
        <time>2014-10-30T13:28:35.1Z</time>
      </trkpt>
      <trkpt lat="47.82652" lon="6.6241">
        <ele>447</ele>
        <time>2014-10-30T13:28:37.1Z</time>
      </trkpt>
      <trkpt lat="47.82643" lon="6.62411">
        <ele>445</ele>
        <time>2014-10-30T13:28:40.1Z</time>
      </trkpt>
      <trkpt lat="47.82639" lon="6.62405">
        <ele>443</ele>
        <time>2014-10-30T13:28:42.1Z</time>
      </trkpt>
      <trkpt lat="47.82635" lon="6.62395">
        <ele>441</ele>
        <time>2014-10-30T13:28:44.1Z</time>
      </trkpt>
      <trkpt lat="47.82628" lon="6.6238">
        <ele>439</ele>
        <time>2014-10-30T13:28:47.1Z</time>
      </trkpt>
      <trkpt lat="47.82622" lon="6.62367">
        <ele>437</ele>
        <time>2014-10-30T13:28:49.1Z</time>
      </trkpt>
      <trkpt lat="47.82614" lon="6.62344">
        <ele>434</ele>
        <time>2014-10-30T13:28:52.1Z</time>
      </trkpt>
      <trkpt lat="47.82611" lon="6.62335">
        <ele>433</ele>
        <time>2014-10-30T13:28:54.1Z</time>
      </trkpt>
      <trkpt lat="47.82608" lon="6.6233">
        <ele>432</ele>
        <time>2014-10-30T13:28:57.1Z</time>
      </trkpt>
      <trkpt lat="47.82603" lon="6.62327">
        <ele>431</ele>
        <time>2014-10-30T13:29:00.1Z</time>
      </trkpt>
      <trkpt lat="47.82601" lon="6.62325">
        <ele>430</ele>
        <time>2014-10-30T13:29:02.1Z</time>
      </trkpt>
      <trkpt lat="47.82599" lon="6.62321">
        <ele>430</ele>
        <time>2014-10-30T13:29:05.1Z</time>
      </trkpt>
      <trkpt lat="47.82596" lon="6.62314">
        <ele>431</ele>
        <time>2014-10-30T13:29:08.1Z</time>
      </trkpt>
      <trkpt lat="47.82594" lon="6.62309">
        <ele>431</ele>
        <time>2014-10-30T13:29:10.1Z</time>
      </trkpt>
      <trkpt lat="47.82593" lon="6.62305">
        <ele>431</ele>
        <time>2014-10-30T13:29:12.1Z</time>
      </trkpt>
      <trkpt lat="47.82588" lon="6.62298">
        <ele>431</ele>
        <time>2014-10-30T13:29:15.1Z</time>
      </trkpt>
      <trkpt lat="47.82586" lon="6.62292">
        <ele>431</ele>
        <time>2014-10-30T13:29:17.1Z</time>
      </trkpt>
      <trkpt lat="47.82587" lon="6.62286">
        <ele>431</ele>
        <time>2014-10-30T13:29:19.1Z</time>
      </trkpt>
      <trkpt lat="47.82583" lon="6.62274">
        <ele>431</ele>
        <time>2014-10-30T13:29:22.1Z</time>
      </trkpt>
      <trkpt lat="47.82578" lon="6.62262">
        <ele>430</ele>
        <time>2014-10-30T13:29:24.1Z</time>
      </trkpt>
      <trkpt lat="47.82573" lon="6.62252">
        <ele>430</ele>
        <time>2014-10-30T13:29:26.1Z</time>
      </trkpt>
      <trkpt lat="47.82564" lon="6.62235">
        <ele>429</ele>
        <time>2014-10-30T13:29:29.1Z</time>
      </trkpt>
      <trkpt lat="47.82557" lon="6.62226">
        <ele>429</ele>
        <time>2014-10-30T13:29:31.1Z</time>
      </trkpt>
      <trkpt lat="47.8255" lon="6.62219">
        <ele>429</ele>
        <time>2014-10-30T13:29:33.1Z</time>
      </trkpt>
      <trkpt lat="47.82538" lon="6.6221">
        <ele>429</ele>
        <time>2014-10-30T13:29:36.1Z</time>
      </trkpt>
      <trkpt lat="47.82532" lon="6.62205">
        <ele>429</ele>
        <time>2014-10-30T13:29:38.1Z</time>
      </trkpt>
      <trkpt lat="47.82528" lon="6.62201">
        <ele>429</ele>
        <time>2014-10-30T13:29:41.1Z</time>
      </trkpt>
      <trkpt lat="47.82524" lon="6.62198">
        <ele>429</ele>
        <time>2014-10-30T13:29:43.1Z</time>
      </trkpt>
      <trkpt lat="47.82523" lon="6.62195">
        <ele>429</ele>
        <time>2014-10-30T13:29:45.1Z</time>
      </trkpt>
      <trkpt lat="47.82521" lon="6.62194">
        <ele>429</ele>
        <time>2014-10-30T13:29:47.1Z</time>
      </trkpt>
      <trkpt lat="47.8252" lon="6.62193">
        <ele>429</ele>
        <time>2014-10-30T13:29:49.1Z</time>
      </trkpt>
      <trkpt lat="47.82518" lon="6.62192">
        <ele>430</ele>
        <time>2014-10-30T13:29:51.1Z</time>
      </trkpt>
      <trkpt lat="47.82515" lon="6.6219">
        <ele>430</ele>
        <time>2014-10-30T13:29:54.1Z</time>
      </trkpt>
      <trkpt lat="47.82513" lon="6.62189">
        <ele>429</ele>
        <time>2014-10-30T13:29:56.1Z</time>
      </trkpt>
      <trkpt lat="47.82512" lon="6.62189">
        <ele>429</ele>
        <time>2014-10-30T13:29:58.1Z</time>
      </trkpt>
      <trkpt lat="47.82511" lon="6.62189">
        <ele>429</ele>
        <time>2014-10-30T13:30:00.1Z</time>
      </trkpt>
      <trkpt lat="47.82508" lon="6.62187">
        <ele>429</ele>
        <time>2014-10-30T13:30:03.1Z</time>
      </trkpt>
      <trkpt lat="47.82507" lon="6.62185">
        <ele>429</ele>
        <time>2014-10-30T13:30:05.1Z</time>
      </trkpt>
      <trkpt lat="47.82507" lon="6.62186">
        <ele>429</ele>
        <time>2014-10-30T13:30:07.1Z</time>
      </trkpt>
      <trkpt lat="47.82505" lon="6.62185">
        <ele>429</ele>
        <time>2014-10-30T13:30:10.1Z</time>
      </trkpt>
      <trkpt lat="47.82504" lon="6.62183">
        <ele>429</ele>
        <time>2014-10-30T13:30:12.1Z</time>
      </trkpt>
      <trkpt lat="47.82501" lon="6.62181">
        <ele>429</ele>
        <time>2014-10-30T13:30:15.1Z</time>
      </trkpt>
      <trkpt lat="47.825" lon="6.6218">
        <ele>429</ele>
        <time>2014-10-30T13:30:17.1Z</time>
      </trkpt>
      <trkpt lat="47.82498" lon="6.62179">
        <ele>429</ele>
        <time>2014-10-30T13:30:20.1Z</time>
      </trkpt>
      <trkpt lat="47.82496" lon="6.62177">
        <ele>429</ele>
        <time>2014-10-30T13:30:22.1Z</time>
      </trkpt>
      <trkpt lat="47.82494" lon="6.62175">
        <ele>429</ele>
        <time>2014-10-30T13:30:24.1Z</time>
      </trkpt>
      <trkpt lat="47.8249" lon="6.6217">
        <ele>429</ele>
        <time>2014-10-30T13:30:27.1Z</time>
      </trkpt>
      <trkpt lat="47.82487" lon="6.62167">
        <ele>429</ele>
        <time>2014-10-30T13:30:29.1Z</time>
      </trkpt>
      <trkpt lat="47.82486" lon="6.62167">
        <ele>429</ele>
        <time>2014-10-30T13:30:31.1Z</time>
      </trkpt>
      <trkpt lat="47.82484" lon="6.62165">
        <ele>430</ele>
        <time>2014-10-30T13:30:33.1Z</time>
      </trkpt>
      <trkpt lat="47.82481" lon="6.62164">
        <ele>431</ele>
        <time>2014-10-30T13:30:36.1Z</time>
      </trkpt>
      <trkpt lat="47.82479" lon="6.62163">
        <ele>432</ele>
        <time>2014-10-30T13:30:38.1Z</time>
      </trkpt>
      <trkpt lat="47.82477" lon="6.62163">
        <ele>432</ele>
        <time>2014-10-30T13:30:40.1Z</time>
      </trkpt>
      <trkpt lat="47.82475" lon="6.62163">
        <ele>432</ele>
        <time>2014-10-30T13:30:42.1Z</time>
      </trkpt>
      <trkpt lat="47.82473" lon="6.62162">
        <ele>432</ele>
        <time>2014-10-30T13:30:44.1Z</time>
      </trkpt>
      <trkpt lat="47.8247" lon="6.62163">
        <ele>433</ele>
        <time>2014-10-30T13:30:47.1Z</time>
      </trkpt>
      <trkpt lat="47.82467" lon="6.62163">
        <ele>433</ele>
        <time>2014-10-30T13:30:50.1Z</time>
      </trkpt>
      <trkpt lat="47.82466" lon="6.62163">
        <ele>433</ele>
        <time>2014-10-30T13:30:52.1Z</time>
      </trkpt>
      <trkpt lat="47.82463" lon="6.62164">
        <ele>434</ele>
        <time>2014-10-30T13:30:55.1Z</time>
      </trkpt>
      <trkpt lat="47.82461" lon="6.62165">
        <ele>434</ele>
        <time>2014-10-30T13:30:57.1Z</time>
      </trkpt>
      <trkpt lat="47.82459" lon="6.62167">
        <ele>434</ele>
        <time>2014-10-30T13:31:00.1Z</time>
      </trkpt>
      <trkpt lat="47.82458" lon="6.62169">
        <ele>434</ele>
        <time>2014-10-30T13:31:02.1Z</time>
      </trkpt>
      <trkpt lat="47.82456" lon="6.62171">
        <ele>435</ele>
        <time>2014-10-30T13:31:05.1Z</time>
      </trkpt>
      <trkpt lat="47.82455" lon="6.62171">
        <ele>435</ele>
        <time>2014-10-30T13:31:07.1Z</time>
      </trkpt>
      <trkpt lat="47.82454" lon="6.62173">
        <ele>435</ele>
        <time>2014-10-30T13:31:09.1Z</time>
      </trkpt>
      <trkpt lat="47.82452" lon="6.62173">
        <ele>435</ele>
        <time>2014-10-30T13:31:11.1Z</time>
      </trkpt>
      <trkpt lat="47.82451" lon="6.62174">
        <ele>434</ele>
        <time>2014-10-30T13:31:13.1Z</time>
      </trkpt>
      <trkpt lat="47.8245" lon="6.62175">
        <ele>434</ele>
        <time>2014-10-30T13:31:16.1Z</time>
      </trkpt>
      <trkpt lat="47.82449" lon="6.62175">
        <ele>435</ele>
        <time>2014-10-30T13:31:18.1Z</time>
      </trkpt>
      <trkpt lat="47.82448" lon="6.62176">
        <ele>435</ele>
        <time>2014-10-30T13:31:21.1Z</time>
      </trkpt>
      <trkpt lat="47.82447" lon="6.62176">
        <ele>435</ele>
        <time>2014-10-30T13:31:24.1Z</time>
      </trkpt>
      <trkpt lat="47.82447" lon="6.62177">
        <ele>435</ele>
        <time>2014-10-30T13:31:26.1Z</time>
      </trkpt>
      <trkpt lat="47.82446" lon="6.62179">
        <ele>435</ele>
        <time>2014-10-30T13:31:29.1Z</time>
      </trkpt>
      <trkpt lat="47.82445" lon="6.62181">
        <ele>435</ele>
        <time>2014-10-30T13:31:31.1Z</time>
      </trkpt>
      <trkpt lat="47.82445" lon="6.62183">
        <ele>435</ele>
        <time>2014-10-30T13:31:34.1Z</time>
      </trkpt>
      <trkpt lat="47.82444" lon="6.62183">
        <ele>435</ele>
        <time>2014-10-30T13:31:36.1Z</time>
      </trkpt>
      <trkpt lat="47.82444" lon="6.62184">
        <ele>435</ele>
        <time>2014-10-30T13:31:39.1Z</time>
      </trkpt>
      <trkpt lat="47.82444" lon="6.62184">
        <ele>435</ele>
        <time>2014-10-30T13:31:42.1Z</time>
      </trkpt>
      <trkpt lat="47.82444" lon="6.62184">
        <ele>435</ele>
        <time>2014-10-30T13:31:45.1Z</time>
      </trkpt>
      <trkpt lat="47.82445" lon="6.62184">
        <ele>436</ele>
        <time>2014-10-30T13:31:47.1Z</time>
      </trkpt>
      <trkpt lat="47.82446" lon="6.62183">
        <ele>436</ele>
        <time>2014-10-30T13:31:50.1Z</time>
      </trkpt>
      <trkpt lat="47.82446" lon="6.62184">
        <ele>435</ele>
        <time>2014-10-30T13:31:53.1Z</time>
      </trkpt>
      <trkpt lat="47.82447" lon="6.62184">
        <ele>435</ele>
        <time>2014-10-30T13:31:55.1Z</time>
      </trkpt>
      <trkpt lat="47.82447" lon="6.62184">
        <ele>435</ele>
        <time>2014-10-30T13:31:58.1Z</time>
      </trkpt>
      <trkpt lat="47.82448" lon="6.62185">
        <ele>435</ele>
        <time>2014-10-30T13:32:00.1Z</time>
      </trkpt>
      <trkpt lat="47.82449" lon="6.62185">
        <ele>435</ele>
        <time>2014-10-30T13:32:03.1Z</time>
      </trkpt>
      <trkpt lat="47.82449" lon="6.62185">
        <ele>435</ele>
        <time>2014-10-30T13:32:05.1Z</time>
      </trkpt>
      <trkpt lat="47.82449" lon="6.62185">
        <ele>435</ele>
        <time>2014-10-30T13:32:08.1Z</time>
      </trkpt>
      <trkpt lat="47.82449" lon="6.62185">
        <ele>435</ele>
        <time>2014-10-30T13:32:11.1Z</time>
      </trkpt>
      <trkpt lat="47.82448" lon="6.62184">
        <ele>435</ele>
        <time>2014-10-30T13:32:14.1Z</time>
      </trkpt>
      <trkpt lat="47.82448" lon="6.62183">
        <ele>434</ele>
        <time>2014-10-30T13:32:17.1Z</time>
      </trkpt>
      <trkpt lat="47.82448" lon="6.62183">
        <ele>434</ele>
        <time>2014-10-30T13:32:19.1Z</time>
      </trkpt>
      <trkpt lat="47.82448" lon="6.62182">
        <ele>434</ele>
        <time>2014-10-30T13:32:22.1Z</time>
      </trkpt>
      <trkpt lat="47.82448" lon="6.62182">
        <ele>434</ele>
        <time>2014-10-30T13:32:25.1Z</time>
      </trkpt>
      <trkpt lat="47.82448" lon="6.62182">
        <ele>434</ele>
        <time>2014-10-30T13:32:27.1Z</time>
      </trkpt>
      <trkpt lat="47.82448" lon="6.62183">
        <ele>435</ele>
        <time>2014-10-30T13:32:29.1Z</time>
      </trkpt>
      <trkpt lat="47.82448" lon="6.62183">
        <ele>434</ele>
        <time>2014-10-30T13:32:31.1Z</time>
      </trkpt>
      <trkpt lat="47.82449" lon="6.62184">
        <ele>435</ele>
        <time>2014-10-30T13:32:35.1Z</time>
      </trkpt>
      <trkpt lat="47.82449" lon="6.62185">
        <ele>435</ele>
        <time>2014-10-30T13:32:38.1Z</time>
      </trkpt>
      <trkpt lat="47.82449" lon="6.62185">
        <ele>435</ele>
        <time>2014-10-30T13:32:40.1Z</time>
      </trkpt>
      <trkpt lat="47.82449" lon="6.62185">
        <ele>434</ele>
        <time>2014-10-30T13:32:43.1Z</time>
      </trkpt>
      <trkpt lat="47.82448" lon="6.62185">
        <ele>434</ele>
        <time>2014-10-30T13:32:46.1Z</time>
      </trkpt>
      <trkpt lat="47.82448" lon="6.62186">
        <ele>435</ele>
        <time>2014-10-30T13:32:49.1Z</time>
      </trkpt>
      <trkpt lat="47.82448" lon="6.62186">
        <ele>435</ele>
        <time>2014-10-30T13:32:53.1Z</time>
      </trkpt>
      <trkpt lat="47.82448" lon="6.62187">
        <ele>435</ele>
        <time>2014-10-30T13:32:55.1Z</time>
      </trkpt>
      <trkpt lat="47.82448" lon="6.62188">
        <ele>435</ele>
        <time>2014-10-30T13:32:57.1Z</time>
      </trkpt>
      <trkpt lat="47.82449" lon="6.62188">
        <ele>435</ele>
        <time>2014-10-30T13:33:00.1Z</time>
      </trkpt>
      <trkpt lat="47.82448" lon="6.62189">
        <ele>435</ele>
        <time>2014-10-30T13:33:03.1Z</time>
      </trkpt>
      <trkpt lat="47.82448" lon="6.62189">
        <ele>434</ele>
        <time>2014-10-30T13:33:06.1Z</time>
      </trkpt>
      <trkpt lat="47.82448" lon="6.6219">
        <ele>434</ele>
        <time>2014-10-30T13:33:08.1Z</time>
      </trkpt>
      <trkpt lat="47.82449" lon="6.62191">
        <ele>434</ele>
        <time>2014-10-30T13:33:11.1Z</time>
      </trkpt>
      <trkpt lat="47.82449" lon="6.62192">
        <ele>435</ele>
        <time>2014-10-30T13:33:13.1Z</time>
      </trkpt>
      <trkpt lat="47.82449" lon="6.62193">
        <ele>435</ele>
        <time>2014-10-30T13:33:17.1Z</time>
      </trkpt>
      <trkpt lat="47.82449" lon="6.62193">
        <ele>435</ele>
        <time>2014-10-30T13:33:19.1Z</time>
      </trkpt>
      <trkpt lat="47.82449" lon="6.62192">
        <ele>434</ele>
        <time>2014-10-30T13:33:21.1Z</time>
      </trkpt>
      <trkpt lat="47.82448" lon="6.6219">
        <ele>434</ele>
        <time>2014-10-30T13:33:24.1Z</time>
      </trkpt>
      <trkpt lat="47.82446" lon="6.62189">
        <ele>435</ele>
        <time>2014-10-30T13:33:27.1Z</time>
      </trkpt>
      <trkpt lat="47.82444" lon="6.62188">
        <ele>435</ele>
        <time>2014-10-30T13:33:30.1Z</time>
      </trkpt>
      <trkpt lat="47.82444" lon="6.62187">
        <ele>435</ele>
        <time>2014-10-30T13:33:32.1Z</time>
      </trkpt>
      <trkpt lat="47.82443" lon="6.62185">
        <ele>436</ele>
        <time>2014-10-30T13:33:35.1Z</time>
      </trkpt>
      <trkpt lat="47.82444" lon="6.62184">
        <ele>436</ele>
        <time>2014-10-30T13:33:37.1Z</time>
      </trkpt>
      <trkpt lat="47.82443" lon="6.62184">
        <ele>436</ele>
        <time>2014-10-30T13:33:39.1Z</time>
      </trkpt>
      <trkpt lat="47.82443" lon="6.62184">
        <ele>436</ele>
        <time>2014-10-30T13:33:42.1Z</time>
      </trkpt>
      <trkpt lat="47.82442" lon="6.62183">
        <ele>436</ele>
        <time>2014-10-30T13:33:44.1Z</time>
      </trkpt>
      <trkpt lat="47.82443" lon="6.62183">
        <ele>436</ele>
        <time>2014-10-30T13:33:46.1Z</time>
      </trkpt>
      <trkpt lat="47.82444" lon="6.62183">
        <ele>436</ele>
        <time>2014-10-30T13:33:49.1Z</time>
      </trkpt>
      <trkpt lat="47.82444" lon="6.62183">
        <ele>436</ele>
        <time>2014-10-30T13:33:51.1Z</time>
      </trkpt>
      <trkpt lat="47.82444" lon="6.62183">
        <ele>435</ele>
        <time>2014-10-30T13:33:54.1Z</time>
      </trkpt>
      <trkpt lat="47.82444" lon="6.62184">
        <ele>435</ele>
        <time>2014-10-30T13:33:57.1Z</time>
      </trkpt>
      <trkpt lat="47.82445" lon="6.62184">
        <ele>435</ele>
        <time>2014-10-30T13:34:00.1Z</time>
      </trkpt>
      <trkpt lat="47.82445" lon="6.62185">
        <ele>435</ele>
        <time>2014-10-30T13:34:02.1Z</time>
      </trkpt>
      <trkpt lat="47.82445" lon="6.62186">
        <ele>435</ele>
        <time>2014-10-30T13:34:04.1Z</time>
      </trkpt>
      <trkpt lat="47.82446" lon="6.62186">
        <ele>435</ele>
        <time>2014-10-30T13:34:07.1Z</time>
      </trkpt>
      <trkpt lat="47.82446" lon="6.62186">
        <ele>434</ele>
        <time>2014-10-30T13:34:10.1Z</time>
      </trkpt>
      <trkpt lat="47.82446" lon="6.62186">
        <ele>434</ele>
        <time>2014-10-30T13:34:12.1Z</time>
      </trkpt>
      <trkpt lat="47.82447" lon="6.62185">
        <ele>435</ele>
        <time>2014-10-30T13:34:15.1Z</time>
      </trkpt>
      <trkpt lat="47.82447" lon="6.62184">
        <ele>435</ele>
        <time>2014-10-30T13:34:17.1Z</time>
      </trkpt>
      <trkpt lat="47.82448" lon="6.62183">
        <ele>435</ele>
        <time>2014-10-30T13:34:20.1Z</time>
      </trkpt>
      <trkpt lat="47.82449" lon="6.62183">
        <ele>435</ele>
        <time>2014-10-30T13:34:22.1Z</time>
      </trkpt>
      <trkpt lat="47.8245" lon="6.62182">
        <ele>435</ele>
        <time>2014-10-30T13:34:24.1Z</time>
      </trkpt>
      <trkpt lat="47.8245" lon="6.62182">
        <ele>435</ele>
        <time>2014-10-30T13:34:26.1Z</time>
      </trkpt>
      <trkpt lat="47.8245" lon="6.62181">
        <ele>435</ele>
        <time>2014-10-30T13:34:28.1Z</time>
      </trkpt>
      <trkpt lat="47.8245" lon="6.62181">
        <ele>435</ele>
        <time>2014-10-30T13:34:31.1Z</time>
      </trkpt>
      <trkpt lat="47.8245" lon="6.62182">
        <ele>435</ele>
        <time>2014-10-30T13:34:34.1Z</time>
      </trkpt>
      <trkpt lat="47.8245" lon="6.62182">
        <ele>435</ele>
        <time>2014-10-30T13:34:36.1Z</time>
      </trkpt>
      <trkpt lat="47.8245" lon="6.6218">
        <ele>435</ele>
        <time>2014-10-30T13:34:39.1Z</time>
      </trkpt>
      <trkpt lat="47.82451" lon="6.62179">
        <ele>435</ele>
        <time>2014-10-30T13:34:42.1Z</time>
      </trkpt>
      <trkpt lat="47.82451" lon="6.62179">
        <ele>435</ele>
        <time>2014-10-30T13:34:44.1Z</time>
      </trkpt>
      <trkpt lat="47.82452" lon="6.62179">
        <ele>435</ele>
        <time>2014-10-30T13:34:47.1Z</time>
      </trkpt>
      <trkpt lat="47.82452" lon="6.62179">
        <ele>435</ele>
        <time>2014-10-30T13:34:49.1Z</time>
      </trkpt>
      <trkpt lat="47.82452" lon="6.62178">
        <ele>435</ele>
        <time>2014-10-30T13:34:52.1Z</time>
      </trkpt>
      <trkpt lat="47.82452" lon="6.62178">
        <ele>435</ele>
        <time>2014-10-30T13:34:54.1Z</time>
      </trkpt>
      <trkpt lat="47.82452" lon="6.62178">
        <ele>435</ele>
        <time>2014-10-30T13:34:57.1Z</time>
      </trkpt>
      <trkpt lat="47.82452" lon="6.62179">
        <ele>435</ele>
        <time>2014-10-30T13:35:00.1Z</time>
      </trkpt>
      <trkpt lat="47.82451" lon="6.62179">
        <ele>436</ele>
        <time>2014-10-30T13:35:02.1Z</time>
      </trkpt>
      <trkpt lat="47.82451" lon="6.62179">
        <ele>436</ele>
        <time>2014-10-30T13:35:04.1Z</time>
      </trkpt>
      <trkpt lat="47.82451" lon="6.62179">
        <ele>436</ele>
        <time>2014-10-30T13:35:07.1Z</time>
      </trkpt>
      <trkpt lat="47.8245" lon="6.6218">
        <ele>436</ele>
        <time>2014-10-30T13:35:10.1Z</time>
      </trkpt>
      <trkpt lat="47.8245" lon="6.6218">
        <ele>435</ele>
        <time>2014-10-30T13:35:14.1Z</time>
      </trkpt>
      <trkpt lat="47.8245" lon="6.62181">
        <ele>435</ele>
        <time>2014-10-30T13:35:18.1Z</time>
      </trkpt>
      <trkpt lat="47.8245" lon="6.62182">
        <ele>435</ele>
        <time>2014-10-30T13:35:22.1Z</time>
      </trkpt>
      <trkpt lat="47.82451" lon="6.62182">
        <ele>435</ele>
        <time>2014-10-30T13:35:25.1Z</time>
      </trkpt>
      <trkpt lat="47.82451" lon="6.62183">
        <ele>435</ele>
        <time>2014-10-30T13:35:28.1Z</time>
      </trkpt>
      <trkpt lat="47.82451" lon="6.62183">
        <ele>435</ele>
        <time>2014-10-30T13:35:30.1Z</time>
      </trkpt>
      <trkpt lat="47.82451" lon="6.62183">
        <ele>435</ele>
        <time>2014-10-30T13:35:34.1Z</time>
      </trkpt>
      <trkpt lat="47.82451" lon="6.62183">
        <ele>435</ele>
        <time>2014-10-30T13:35:36.1Z</time>
      </trkpt>
      <trkpt lat="47.82451" lon="6.62182">
        <ele>435</ele>
        <time>2014-10-30T13:35:39.1Z</time>
      </trkpt>
      <trkpt lat="47.82452" lon="6.62182">
        <ele>435</ele>
        <time>2014-10-30T13:35:41.1Z</time>
      </trkpt>
      <trkpt lat="47.82452" lon="6.62182">
        <ele>435</ele>
        <time>2014-10-30T13:35:44.1Z</time>
      </trkpt>
      <trkpt lat="47.82453" lon="6.62183">
        <ele>435</ele>
        <time>2014-10-30T13:35:46.1Z</time>
      </trkpt>
      <trkpt lat="47.82454" lon="6.62183">
        <ele>435</ele>
        <time>2014-10-30T13:35:48.1Z</time>
      </trkpt>
      <trkpt lat="47.82455" lon="6.62182">
        <ele>435</ele>
        <time>2014-10-30T13:35:51.1Z</time>
      </trkpt>
      <trkpt lat="47.82455" lon="6.62182">
        <ele>435</ele>
        <time>2014-10-30T13:35:54.1Z</time>
      </trkpt>
      <trkpt lat="47.82456" lon="6.62182">
        <ele>435</ele>
        <time>2014-10-30T13:35:56.1Z</time>
      </trkpt>
      <trkpt lat="47.82457" lon="6.62181">
        <ele>435</ele>
        <time>2014-10-30T13:35:58.1Z</time>
      </trkpt>
      <trkpt lat="47.82458" lon="6.62181">
        <ele>435</ele>
        <time>2014-10-30T13:36:00.1Z</time>
      </trkpt>
      <trkpt lat="47.82458" lon="6.62181">
        <ele>435</ele>
        <time>2014-10-30T13:36:02.1Z</time>
      </trkpt>
      <trkpt lat="47.82459" lon="6.62181">
        <ele>435</ele>
        <time>2014-10-30T13:36:05.1Z</time>
      </trkpt>
      <trkpt lat="47.82459" lon="6.62182">
        <ele>435</ele>
        <time>2014-10-30T13:36:09.1Z</time>
      </trkpt>
      <trkpt lat="47.82459" lon="6.62182">
        <ele>435</ele>
        <time>2014-10-30T13:36:12.1Z</time>
      </trkpt>
      <trkpt lat="47.82459" lon="6.62184">
        <ele>435</ele>
        <time>2014-10-30T13:36:15.1Z</time>
      </trkpt>
      <trkpt lat="47.82459" lon="6.62184">
        <ele>435</ele>
        <time>2014-10-30T13:36:18.1Z</time>
      </trkpt>
      <trkpt lat="47.82459" lon="6.62185">
        <ele>435</ele>
        <time>2014-10-30T13:36:21.1Z</time>
      </trkpt>
      <trkpt lat="47.82458" lon="6.62185">
        <ele>435</ele>
        <time>2014-10-30T13:36:24.1Z</time>
      </trkpt>
      <trkpt lat="47.82458" lon="6.62186">
        <ele>435</ele>
        <time>2014-10-30T13:36:26.1Z</time>
      </trkpt>
      <trkpt lat="47.82458" lon="6.62187">
        <ele>435</ele>
        <time>2014-10-30T13:36:28.1Z</time>
      </trkpt>
      <trkpt lat="47.82458" lon="6.62187">
        <ele>435</ele>
        <time>2014-10-30T13:36:30.1Z</time>
      </trkpt>
      <trkpt lat="47.82458" lon="6.62186">
        <ele>435</ele>
        <time>2014-10-30T13:36:33.1Z</time>
      </trkpt>
      <trkpt lat="47.82457" lon="6.62186">
        <ele>435</ele>
        <time>2014-10-30T13:36:35.1Z</time>
      </trkpt>
      <trkpt lat="47.82456" lon="6.62186">
        <ele>435</ele>
        <time>2014-10-30T13:36:38.1Z</time>
      </trkpt>
      <trkpt lat="47.82455" lon="6.62186">
        <ele>435</ele>
        <time>2014-10-30T13:36:40.1Z</time>
      </trkpt>
      <trkpt lat="47.82454" lon="6.62186">
        <ele>435</ele>
        <time>2014-10-30T13:36:43.1Z</time>
      </trkpt>
      <trkpt lat="47.82454" lon="6.62186">
        <ele>435</ele>
        <time>2014-10-30T13:36:46.1Z</time>
      </trkpt>
      <trkpt lat="47.82453" lon="6.62186">
        <ele>435</ele>
        <time>2014-10-30T13:36:49.1Z</time>
      </trkpt>
      <trkpt lat="47.82452" lon="6.62185">
        <ele>435</ele>
        <time>2014-10-30T13:36:51.1Z</time>
      </trkpt>
      <trkpt lat="47.82452" lon="6.62185">
        <ele>435</ele>
        <time>2014-10-30T13:36:53.1Z</time>
      </trkpt>
      <trkpt lat="47.82452" lon="6.62184">
        <ele>435</ele>
        <time>2014-10-30T13:36:55.1Z</time>
      </trkpt>
      <trkpt lat="47.82452" lon="6.62183">
        <ele>435</ele>
        <time>2014-10-30T13:36:58.1Z</time>
      </trkpt>
      <trkpt lat="47.82452" lon="6.62182">
        <ele>436</ele>
        <time>2014-10-30T13:37:01.1Z</time>
      </trkpt>
      <trkpt lat="47.82451" lon="6.62182">
        <ele>436</ele>
        <time>2014-10-30T13:37:03.1Z</time>
      </trkpt>
      <trkpt lat="47.82451" lon="6.62181">
        <ele>436</ele>
        <time>2014-10-30T13:37:05.1Z</time>
      </trkpt>
      <trkpt lat="47.8245" lon="6.62181">
        <ele>436</ele>
        <time>2014-10-30T13:37:07.1Z</time>
      </trkpt>
      <trkpt lat="47.82449" lon="6.6218">
        <ele>435</ele>
        <time>2014-10-30T13:37:10.1Z</time>
      </trkpt>
      <trkpt lat="47.82449" lon="6.62179">
        <ele>435</ele>
        <time>2014-10-30T13:37:13.1Z</time>
      </trkpt>
      <trkpt lat="47.8245" lon="6.62179">
        <ele>435</ele>
        <time>2014-10-30T13:37:15.1Z</time>
      </trkpt>
      <trkpt lat="47.82449" lon="6.62178">
        <ele>435</ele>
        <time>2014-10-30T13:37:18.1Z</time>
      </trkpt>
      <trkpt lat="47.82449" lon="6.62178">
        <ele>435</ele>
        <time>2014-10-30T13:37:21.1Z</time>
      </trkpt>
      <trkpt lat="47.82448" lon="6.62177">
        <ele>435</ele>
        <time>2014-10-30T13:37:23.1Z</time>
      </trkpt>
      <trkpt lat="47.82447" lon="6.62177">
        <ele>436</ele>
        <time>2014-10-30T13:37:25.1Z</time>
      </trkpt>
      <trkpt lat="47.82447" lon="6.62177">
        <ele>436</ele>
        <time>2014-10-30T13:37:27.1Z</time>
      </trkpt>
      <trkpt lat="47.82446" lon="6.62177">
        <ele>436</ele>
        <time>2014-10-30T13:37:30.1Z</time>
      </trkpt>
      <trkpt lat="47.82446" lon="6.62177">
        <ele>435</ele>
        <time>2014-10-30T13:37:32.1Z</time>
      </trkpt>
      <trkpt lat="47.82446" lon="6.62175">
        <ele>435</ele>
        <time>2014-10-30T13:37:35.1Z</time>
      </trkpt>
      <trkpt lat="47.82446" lon="6.62175">
        <ele>435</ele>
        <time>2014-10-30T13:37:38.1Z</time>
      </trkpt>
      <trkpt lat="47.82446" lon="6.62174">
        <ele>435</ele>
        <time>2014-10-30T13:37:40.1Z</time>
      </trkpt>
      <trkpt lat="47.82447" lon="6.62173">
        <ele>435</ele>
        <time>2014-10-30T13:37:42.1Z</time>
      </trkpt>
      <trkpt lat="47.82447" lon="6.62173">
        <ele>435</ele>
        <time>2014-10-30T13:37:44.1Z</time>
      </trkpt>
      <trkpt lat="47.82447" lon="6.62173">
        <ele>435</ele>
        <time>2014-10-30T13:37:46.1Z</time>
      </trkpt>
      <trkpt lat="47.82446" lon="6.62174">
        <ele>435</ele>
        <time>2014-10-30T13:37:49.1Z</time>
      </trkpt>
      <trkpt lat="47.82446" lon="6.62174">
        <ele>435</ele>
        <time>2014-10-30T13:37:51.1Z</time>
      </trkpt>
      <trkpt lat="47.82446" lon="6.62175">
        <ele>435</ele>
        <time>2014-10-30T13:37:55.1Z</time>
      </trkpt>
      <trkpt lat="47.82446" lon="6.62175">
        <ele>435</ele>
        <time>2014-10-30T13:37:57.1Z</time>
      </trkpt>
      <trkpt lat="47.82446" lon="6.62175">
        <ele>435</ele>
        <time>2014-10-30T13:38:00.1Z</time>
      </trkpt>
      <trkpt lat="47.82447" lon="6.62174">
        <ele>435</ele>
        <time>2014-10-30T13:38:03.1Z</time>
      </trkpt>
      <trkpt lat="47.82447" lon="6.62174">
        <ele>435</ele>
        <time>2014-10-30T13:38:06.1Z</time>
      </trkpt>
      <trkpt lat="47.82448" lon="6.62175">
        <ele>435</ele>
        <time>2014-10-30T13:38:08.1Z</time>
      </trkpt>
      <trkpt lat="47.82449" lon="6.62176">
        <ele>435</ele>
        <time>2014-10-30T13:38:11.1Z</time>
      </trkpt>
      <trkpt lat="47.82449" lon="6.62178">
        <ele>435</ele>
        <time>2014-10-30T13:38:15.1Z</time>
      </trkpt>
      <trkpt lat="47.8245" lon="6.62179">
        <ele>435</ele>
        <time>2014-10-30T13:38:18.1Z</time>
      </trkpt>
      <trkpt lat="47.8245" lon="6.6218">
        <ele>435</ele>
        <time>2014-10-30T13:38:20.1Z</time>
      </trkpt>
      <trkpt lat="47.8245" lon="6.62181">
        <ele>435</ele>
        <time>2014-10-30T13:38:22.1Z</time>
      </trkpt>
      <trkpt lat="47.8245" lon="6.62181">
        <ele>435</ele>
        <time>2014-10-30T13:38:25.1Z</time>
      </trkpt>
      <trkpt lat="47.8245" lon="6.62181">
        <ele>435</ele>
        <time>2014-10-30T13:38:28.1Z</time>
      </trkpt>
      <trkpt lat="47.8245" lon="6.62182">
        <ele>435</ele>
        <time>2014-10-30T13:38:31.1Z</time>
      </trkpt>
      <trkpt lat="47.8245" lon="6.62182">
        <ele>435</ele>
        <time>2014-10-30T13:38:34.1Z</time>
      </trkpt>
      <trkpt lat="47.82449" lon="6.62182">
        <ele>435</ele>
        <time>2014-10-30T13:38:36.1Z</time>
      </trkpt>
      <trkpt lat="47.8245" lon="6.62182">
        <ele>435</ele>
        <time>2014-10-30T13:38:39.1Z</time>
      </trkpt>
      <trkpt lat="47.8245" lon="6.62183">
        <ele>435</ele>
        <time>2014-10-30T13:38:41.1Z</time>
      </trkpt>
      <trkpt lat="47.82451" lon="6.62183">
        <ele>435</ele>
        <time>2014-10-30T13:38:44.1Z</time>
      </trkpt>
      <trkpt lat="47.8245" lon="6.62184">
        <ele>435</ele>
        <time>2014-10-30T13:38:46.1Z</time>
      </trkpt>
      <trkpt lat="47.8245" lon="6.62184">
        <ele>435</ele>
        <time>2014-10-30T13:38:48.1Z</time>
      </trkpt>
      <trkpt lat="47.8245" lon="6.62185">
        <ele>435</ele>
        <time>2014-10-30T13:38:54.1Z</time>
      </trkpt>
      <trkpt lat="47.82449" lon="6.62186">
        <ele>435</ele>
        <time>2014-10-30T13:38:57.1Z</time>
      </trkpt>
      <trkpt lat="47.82449" lon="6.62186">
        <ele>435</ele>
        <time>2014-10-30T13:38:59.1Z</time>
      </trkpt>
      <trkpt lat="47.82449" lon="6.62186">
        <ele>435</ele>
        <time>2014-10-30T13:39:02.1Z</time>
      </trkpt>
      <trkpt lat="47.82449" lon="6.62187">
        <ele>435</ele>
        <time>2014-10-30T13:39:04.1Z</time>
      </trkpt>
      <trkpt lat="47.82449" lon="6.62187">
        <ele>435</ele>
        <time>2014-10-30T13:39:06.1Z</time>
      </trkpt>
      <trkpt lat="47.82448" lon="6.62187">
        <ele>435</ele>
        <time>2014-10-30T13:39:09.1Z</time>
      </trkpt>
      <trkpt lat="47.82448" lon="6.62186">
        <ele>435</ele>
        <time>2014-10-30T13:39:12.1Z</time>
      </trkpt>
      <trkpt lat="47.82449" lon="6.62186">
        <ele>435</ele>
        <time>2014-10-30T13:39:14.1Z</time>
      </trkpt>
      <trkpt lat="47.82449" lon="6.62185">
        <ele>436</ele>
        <time>2014-10-30T13:39:16.1Z</time>
      </trkpt>
      <trkpt lat="47.82449" lon="6.62185">
        <ele>435</ele>
        <time>2014-10-30T13:39:19.1Z</time>
      </trkpt>
      <trkpt lat="47.82448" lon="6.62186">
        <ele>435</ele>
        <time>2014-10-30T13:39:21.1Z</time>
      </trkpt>
      <trkpt lat="47.82447" lon="6.62186">
        <ele>436</ele>
        <time>2014-10-30T13:39:23.1Z</time>
      </trkpt>
      <trkpt lat="47.82447" lon="6.62186">
        <ele>436</ele>
        <time>2014-10-30T13:39:26.1Z</time>
      </trkpt>
      <trkpt lat="47.82447" lon="6.62187">
        <ele>436</ele>
        <time>2014-10-30T13:39:28.1Z</time>
      </trkpt>
      <trkpt lat="47.82447" lon="6.62187">
        <ele>436</ele>
        <time>2014-10-30T13:39:30.1Z</time>
      </trkpt>
      <trkpt lat="47.82446" lon="6.62187">
        <ele>437</ele>
        <time>2014-10-30T13:39:32.1Z</time>
      </trkpt>
      <trkpt lat="47.82446" lon="6.62187">
        <ele>436</ele>
        <time>2014-10-30T13:39:34.1Z</time>
      </trkpt>
      <trkpt lat="47.82445" lon="6.62188">
        <ele>436</ele>
        <time>2014-10-30T13:39:36.1Z</time>
      </trkpt>
      <trkpt lat="47.82444" lon="6.62189">
        <ele>436</ele>
        <time>2014-10-30T13:39:38.1Z</time>
      </trkpt>
      <trkpt lat="47.82444" lon="6.62189">
        <ele>436</ele>
        <time>2014-10-30T13:39:41.1Z</time>
      </trkpt>
      <trkpt lat="47.82444" lon="6.62189">
        <ele>436</ele>
        <time>2014-10-30T13:39:43.1Z</time>
      </trkpt>
      <trkpt lat="47.82444" lon="6.62189">
        <ele>435</ele>
        <time>2014-10-30T13:39:45.1Z</time>
      </trkpt>
      <trkpt lat="47.82444" lon="6.62189">
        <ele>435</ele>
        <time>2014-10-30T13:39:48.1Z</time>
      </trkpt>
      <trkpt lat="47.82444" lon="6.62188">
        <ele>435</ele>
        <time>2014-10-30T13:39:51.1Z</time>
      </trkpt>
      <trkpt lat="47.82444" lon="6.62188">
        <ele>435</ele>
        <time>2014-10-30T13:39:54.1Z</time>
      </trkpt>
      <trkpt lat="47.82444" lon="6.62187">
        <ele>435</ele>
        <time>2014-10-30T13:39:56.1Z</time>
      </trkpt>
      <trkpt lat="47.82444" lon="6.62184">
        <ele>435</ele>
        <time>2014-10-30T13:39:59.1Z</time>
      </trkpt>
      <trkpt lat="47.82443" lon="6.62184">
        <ele>435</ele>
        <time>2014-10-30T13:40:01.1Z</time>
      </trkpt>
      <trkpt lat="47.82443" lon="6.62182">
        <ele>435</ele>
        <time>2014-10-30T13:40:03.1Z</time>
      </trkpt>
      <trkpt lat="47.82442" lon="6.62179">
        <ele>435</ele>
        <time>2014-10-30T13:40:06.1Z</time>
      </trkpt>
      <trkpt lat="47.82441" lon="6.62177">
        <ele>435</ele>
        <time>2014-10-30T13:40:08.1Z</time>
      </trkpt>
      <trkpt lat="47.8244" lon="6.62174">
        <ele>435</ele>
        <time>2014-10-30T13:40:10.1Z</time>
      </trkpt>
      <trkpt lat="47.82439" lon="6.62172">
        <ele>435</ele>
        <time>2014-10-30T13:40:12.1Z</time>
      </trkpt>
      <trkpt lat="47.82439" lon="6.6217">
        <ele>435</ele>
        <time>2014-10-30T13:40:14.1Z</time>
      </trkpt>
      <trkpt lat="47.8244" lon="6.62169">
        <ele>435</ele>
        <time>2014-10-30T13:40:16.1Z</time>
      </trkpt>
      <trkpt lat="47.82439" lon="6.62168">
        <ele>435</ele>
        <time>2014-10-30T13:40:19.1Z</time>
      </trkpt>
      <trkpt lat="47.8244" lon="6.62169">
        <ele>435</ele>
        <time>2014-10-30T13:40:22.1Z</time>
      </trkpt>
      <trkpt lat="47.8244" lon="6.6217">
        <ele>436</ele>
        <time>2014-10-30T13:40:24.1Z</time>
      </trkpt>
      <trkpt lat="47.8244" lon="6.6217">
        <ele>435</ele>
        <time>2014-10-30T13:40:26.1Z</time>
      </trkpt>
      <trkpt lat="47.8244" lon="6.62171">
        <ele>436</ele>
        <time>2014-10-30T13:40:29.1Z</time>
      </trkpt>
      <trkpt lat="47.8244" lon="6.62172">
        <ele>436</ele>
        <time>2014-10-30T13:40:31.1Z</time>
      </trkpt>
      <trkpt lat="47.82441" lon="6.62174">
        <ele>436</ele>
        <time>2014-10-30T13:40:34.1Z</time>
      </trkpt>
      <trkpt lat="47.82441" lon="6.62175">
        <ele>436</ele>
        <time>2014-10-30T13:40:36.1Z</time>
      </trkpt>
      <trkpt lat="47.82441" lon="6.62176">
        <ele>436</ele>
        <time>2014-10-30T13:40:38.1Z</time>
      </trkpt>
      <trkpt lat="47.8244" lon="6.62178">
        <ele>436</ele>
        <time>2014-10-30T13:40:41.1Z</time>
      </trkpt>
      <trkpt lat="47.8244" lon="6.62179">
        <ele>436</ele>
        <time>2014-10-30T13:40:44.1Z</time>
      </trkpt>
      <trkpt lat="47.82441" lon="6.62179">
        <ele>435</ele>
        <time>2014-10-30T13:40:46.1Z</time>
      </trkpt>
      <trkpt lat="47.82441" lon="6.6218">
        <ele>436</ele>
        <time>2014-10-30T13:40:49.1Z</time>
      </trkpt>
      <trkpt lat="47.82441" lon="6.62179">
        <ele>436</ele>
        <time>2014-10-30T13:40:52.1Z</time>
      </trkpt>
      <trkpt lat="47.82442" lon="6.62179">
        <ele>436</ele>
        <time>2014-10-30T13:40:54.1Z</time>
      </trkpt>
      <trkpt lat="47.82444" lon="6.62178">
        <ele>436</ele>
        <time>2014-10-30T13:40:56.1Z</time>
      </trkpt>
      <trkpt lat="47.82444" lon="6.62176">
        <ele>436</ele>
        <time>2014-10-30T13:40:58.1Z</time>
      </trkpt>
      <trkpt lat="47.82444" lon="6.62175">
        <ele>436</ele>
        <time>2014-10-30T13:41:01.1Z</time>
      </trkpt>
      <trkpt lat="47.82445" lon="6.62175">
        <ele>436</ele>
        <time>2014-10-30T13:41:03.1Z</time>
      </trkpt>
      <trkpt lat="47.82445" lon="6.62173">
        <ele>436</ele>
        <time>2014-10-30T13:41:06.1Z</time>
      </trkpt>
      <trkpt lat="47.82444" lon="6.62173">
        <ele>436</ele>
        <time>2014-10-30T13:41:08.1Z</time>
      </trkpt>
      <trkpt lat="47.82444" lon="6.62172">
        <ele>436</ele>
        <time>2014-10-30T13:41:11.1Z</time>
      </trkpt>
      <trkpt lat="47.82443" lon="6.62171">
        <ele>436</ele>
        <time>2014-10-30T13:41:14.1Z</time>
      </trkpt>
      <trkpt lat="47.82443" lon="6.62171">
        <ele>436</ele>
        <time>2014-10-30T13:41:17.1Z</time>
      </trkpt>
      <trkpt lat="47.82443" lon="6.62171">
        <ele>436</ele>
        <time>2014-10-30T13:41:20.1Z</time>
      </trkpt>
      <trkpt lat="47.82443" lon="6.62172">
        <ele>436</ele>
        <time>2014-10-30T13:41:23.1Z</time>
      </trkpt>
      <trkpt lat="47.82442" lon="6.62172">
        <ele>436</ele>
        <time>2014-10-30T13:41:26.1Z</time>
      </trkpt>
      <trkpt lat="47.82442" lon="6.62171">
        <ele>436</ele>
        <time>2014-10-30T13:41:28.1Z</time>
      </trkpt>
      <trkpt lat="47.82443" lon="6.62169">
        <ele>436</ele>
        <time>2014-10-30T13:41:31.1Z</time>
      </trkpt>
      <trkpt lat="47.82443" lon="6.62166">
        <ele>436</ele>
        <time>2014-10-30T13:41:33.1Z</time>
      </trkpt>
      <trkpt lat="47.82442" lon="6.62163">
        <ele>436</ele>
        <time>2014-10-30T13:41:36.1Z</time>
      </trkpt>
      <trkpt lat="47.82441" lon="6.62161">
        <ele>436</ele>
        <time>2014-10-30T13:41:39.1Z</time>
      </trkpt>
      <trkpt lat="47.82442" lon="6.6216">
        <ele>436</ele>
        <time>2014-10-30T13:41:42.1Z</time>
      </trkpt>
      <trkpt lat="47.82442" lon="6.62159">
        <ele>436</ele>
        <time>2014-10-30T13:41:45.1Z</time>
      </trkpt>
      <trkpt lat="47.82442" lon="6.62158">
        <ele>436</ele>
        <time>2014-10-30T13:41:47.1Z</time>
      </trkpt>
      <trkpt lat="47.82442" lon="6.62157">
        <ele>436</ele>
        <time>2014-10-30T13:41:50.1Z</time>
      </trkpt>
      <trkpt lat="47.82443" lon="6.62158">
        <ele>436</ele>
        <time>2014-10-30T13:41:52.1Z</time>
      </trkpt>
      <trkpt lat="47.82444" lon="6.62157">
        <ele>436</ele>
        <time>2014-10-30T13:41:55.1Z</time>
      </trkpt>
      <trkpt lat="47.82445" lon="6.62156">
        <ele>436</ele>
        <time>2014-10-30T13:41:58.1Z</time>
      </trkpt>
      <trkpt lat="47.82446" lon="6.62156">
        <ele>436</ele>
        <time>2014-10-30T13:42:00.1Z</time>
      </trkpt>
      <trkpt lat="47.82446" lon="6.62156">
        <ele>436</ele>
        <time>2014-10-30T13:42:03.1Z</time>
      </trkpt>
      <trkpt lat="47.82447" lon="6.62157">
        <ele>436</ele>
        <time>2014-10-30T13:42:06.1Z</time>
      </trkpt>
      <trkpt lat="47.82447" lon="6.62158">
        <ele>436</ele>
        <time>2014-10-30T13:42:08.1Z</time>
      </trkpt>
      <trkpt lat="47.82448" lon="6.62159">
        <ele>436</ele>
        <time>2014-10-30T13:42:10.1Z</time>
      </trkpt>
      <trkpt lat="47.82448" lon="6.62159">
        <ele>436</ele>
        <time>2014-10-30T13:42:12.1Z</time>
      </trkpt>
      <trkpt lat="47.82448" lon="6.62158">
        <ele>436</ele>
        <time>2014-10-30T13:42:14.1Z</time>
      </trkpt>
      <trkpt lat="47.82448" lon="6.62158">
        <ele>436</ele>
        <time>2014-10-30T13:42:17.1Z</time>
      </trkpt>
      <trkpt lat="47.82449" lon="6.62158">
        <ele>436</ele>
        <time>2014-10-30T13:42:19.1Z</time>
      </trkpt>
      <trkpt lat="47.82449" lon="6.62158">
        <ele>436</ele>
        <time>2014-10-30T13:42:21.1Z</time>
      </trkpt>
      <trkpt lat="47.82449" lon="6.62159">
        <ele>436</ele>
        <time>2014-10-30T13:42:24.1Z</time>
      </trkpt>
      <trkpt lat="47.82449" lon="6.6216">
        <ele>436</ele>
        <time>2014-10-30T13:42:26.1Z</time>
      </trkpt>
      <trkpt lat="47.82449" lon="6.62161">
        <ele>436</ele>
        <time>2014-10-30T13:42:28.1Z</time>
      </trkpt>
      <trkpt lat="47.82448" lon="6.62163">
        <ele>436</ele>
        <time>2014-10-30T13:42:31.1Z</time>
      </trkpt>
      <trkpt lat="47.82449" lon="6.62164">
        <ele>436</ele>
        <time>2014-10-30T13:42:33.1Z</time>
      </trkpt>
      <trkpt lat="47.82449" lon="6.62165">
        <ele>436</ele>
        <time>2014-10-30T13:42:35.1Z</time>
      </trkpt>
      <trkpt lat="47.82449" lon="6.62167">
        <ele>436</ele>
        <time>2014-10-30T13:42:37.1Z</time>
      </trkpt>
      <trkpt lat="47.82449" lon="6.62168">
        <ele>436</ele>
        <time>2014-10-30T13:42:39.1Z</time>
      </trkpt>
      <trkpt lat="47.82449" lon="6.62169">
        <ele>436</ele>
        <time>2014-10-30T13:42:41.1Z</time>
      </trkpt>
      <trkpt lat="47.82449" lon="6.6217">
        <ele>436</ele>
        <time>2014-10-30T13:42:44.1Z</time>
      </trkpt>
      <trkpt lat="47.8245" lon="6.62171">
        <ele>436</ele>
        <time>2014-10-30T13:42:46.1Z</time>
      </trkpt>
      <trkpt lat="47.8245" lon="6.62172">
        <ele>436</ele>
        <time>2014-10-30T13:42:48.1Z</time>
      </trkpt>
      <trkpt lat="47.82451" lon="6.62174">
        <ele>436</ele>
        <time>2014-10-30T13:42:51.1Z</time>
      </trkpt>
      <trkpt lat="47.82451" lon="6.62176">
        <ele>436</ele>
        <time>2014-10-30T13:42:54.1Z</time>
      </trkpt>
      <trkpt lat="47.82452" lon="6.62177">
        <ele>436</ele>
        <time>2014-10-30T13:42:58.1Z</time>
      </trkpt>
      <trkpt lat="47.82452" lon="6.62178">
        <ele>436</ele>
        <time>2014-10-30T13:43:01.1Z</time>
      </trkpt>
      <trkpt lat="47.82452" lon="6.62178">
        <ele>436</ele>
        <time>2014-10-30T13:43:04.1Z</time>
      </trkpt>
      <trkpt lat="47.82452" lon="6.62178">
        <ele>436</ele>
        <time>2014-10-30T13:43:06.1Z</time>
      </trkpt>
      <trkpt lat="47.8245" lon="6.62175">
        <ele>436</ele>
        <time>2014-10-30T13:43:09.1Z</time>
      </trkpt>
      <trkpt lat="47.8245" lon="6.62173">
        <ele>436</ele>
        <time>2014-10-30T13:43:11.1Z</time>
      </trkpt>
      <trkpt lat="47.8245" lon="6.62173">
        <ele>436</ele>
        <time>2014-10-30T13:43:13.1Z</time>
      </trkpt>
      <trkpt lat="47.82449" lon="6.62172">
        <ele>436</ele>
        <time>2014-10-30T13:43:16.1Z</time>
      </trkpt>
      <trkpt lat="47.82449" lon="6.62172">
        <ele>436</ele>
        <time>2014-10-30T13:43:18.1Z</time>
      </trkpt>
      <trkpt lat="47.82449" lon="6.62172">
        <ele>436</ele>
        <time>2014-10-30T13:43:22.1Z</time>
      </trkpt>
      <trkpt lat="47.82449" lon="6.62173">
        <ele>436</ele>
        <time>2014-10-30T13:43:24.1Z</time>
      </trkpt>
      <trkpt lat="47.82449" lon="6.62174">
        <ele>436</ele>
        <time>2014-10-30T13:43:26.1Z</time>
      </trkpt>
      <trkpt lat="47.82448" lon="6.62174">
        <ele>436</ele>
        <time>2014-10-30T13:43:29.1Z</time>
      </trkpt>
      <trkpt lat="47.82448" lon="6.62174">
        <ele>436</ele>
        <time>2014-10-30T13:43:31.1Z</time>
      </trkpt>
      <trkpt lat="47.82448" lon="6.62174">
        <ele>436</ele>
        <time>2014-10-30T13:43:34.1Z</time>
      </trkpt>
      <trkpt lat="47.82449" lon="6.62174">
        <ele>436</ele>
        <time>2014-10-30T13:43:37.1Z</time>
      </trkpt>
      <trkpt lat="47.8245" lon="6.62174">
        <ele>436</ele>
        <time>2014-10-30T13:43:40.1Z</time>
      </trkpt>
      <trkpt lat="47.82451" lon="6.62174">
        <ele>436</ele>
        <time>2014-10-30T13:43:42.1Z</time>
      </trkpt>
      <trkpt lat="47.82451" lon="6.62174">
        <ele>436</ele>
        <time>2014-10-30T13:43:44.1Z</time>
      </trkpt>
      <trkpt lat="47.82452" lon="6.62174">
        <ele>435</ele>
        <time>2014-10-30T13:43:47.1Z</time>
      </trkpt>
      <trkpt lat="47.82452" lon="6.62173">
        <ele>436</ele>
        <time>2014-10-30T13:43:49.1Z</time>
      </trkpt>
      <trkpt lat="47.82452" lon="6.62173">
        <ele>436</ele>
        <time>2014-10-30T13:43:51.1Z</time>
      </trkpt>
      <trkpt lat="47.82453" lon="6.62173">
        <ele>436</ele>
        <time>2014-10-30T13:43:55.1Z</time>
      </trkpt>
      <trkpt lat="47.82452" lon="6.62174">
        <ele>436</ele>
        <time>2014-10-30T13:43:58.1Z</time>
      </trkpt>
      <trkpt lat="47.82452" lon="6.62174">
        <ele>436</ele>
        <time>2014-10-30T13:44:01.1Z</time>
      </trkpt>
      <trkpt lat="47.82452" lon="6.62174">
        <ele>436</ele>
        <time>2014-10-30T13:44:04.1Z</time>
      </trkpt>
      <trkpt lat="47.82452" lon="6.62174">
        <ele>436</ele>
        <time>2014-10-30T13:44:06.1Z</time>
      </trkpt>
      <trkpt lat="47.82451" lon="6.62174">
        <ele>436</ele>
        <time>2014-10-30T13:44:09.1Z</time>
      </trkpt>
      <trkpt lat="47.8245" lon="6.62174">
        <ele>436</ele>
        <time>2014-10-30T13:44:11.1Z</time>
      </trkpt>
      <trkpt lat="47.8245" lon="6.62174">
        <ele>436</ele>
        <time>2014-10-30T13:44:14.1Z</time>
      </trkpt>
      <trkpt lat="47.8245" lon="6.62174">
        <ele>436</ele>
        <time>2014-10-30T13:44:17.1Z</time>
      </trkpt>
      <trkpt lat="47.8245" lon="6.62175">
        <ele>436</ele>
        <time>2014-10-30T13:44:19.1Z</time>
      </trkpt>
      <trkpt lat="47.82451" lon="6.62176">
        <ele>436</ele>
        <time>2014-10-30T13:44:22.1Z</time>
      </trkpt>
      <trkpt lat="47.82452" lon="6.62176">
        <ele>436</ele>
        <time>2014-10-30T13:44:24.1Z</time>
      </trkpt>
      <trkpt lat="47.82452" lon="6.62176">
        <ele>436</ele>
        <time>2014-10-30T13:44:26.1Z</time>
      </trkpt>
      <trkpt lat="47.82453" lon="6.62176">
        <ele>436</ele>
        <time>2014-10-30T13:44:28.1Z</time>
      </trkpt>
      <trkpt lat="47.82454" lon="6.62176">
        <ele>436</ele>
        <time>2014-10-30T13:44:31.1Z</time>
      </trkpt>
      <trkpt lat="47.82455" lon="6.62175">
        <ele>436</ele>
        <time>2014-10-30T13:44:33.1Z</time>
      </trkpt>
      <trkpt lat="47.82455" lon="6.62174">
        <ele>436</ele>
        <time>2014-10-30T13:44:36.1Z</time>
      </trkpt>
      <trkpt lat="47.82456" lon="6.62174">
        <ele>436</ele>
        <time>2014-10-30T13:44:38.1Z</time>
      </trkpt>
      <trkpt lat="47.82456" lon="6.62173">
        <ele>436</ele>
        <time>2014-10-30T13:44:40.1Z</time>
      </trkpt>
      <trkpt lat="47.82457" lon="6.62172">
        <ele>436</ele>
        <time>2014-10-30T13:44:42.1Z</time>
      </trkpt>
      <trkpt lat="47.82457" lon="6.62172">
        <ele>436</ele>
        <time>2014-10-30T13:44:44.1Z</time>
      </trkpt>
      <trkpt lat="47.82458" lon="6.62173">
        <ele>436</ele>
        <time>2014-10-30T13:44:47.1Z</time>
      </trkpt>
      <trkpt lat="47.82459" lon="6.62173">
        <ele>436</ele>
        <time>2014-10-30T13:44:50.1Z</time>
      </trkpt>
      <trkpt lat="47.8246" lon="6.62173">
        <ele>436</ele>
        <time>2014-10-30T13:44:53.1Z</time>
      </trkpt>
      <trkpt lat="47.8246" lon="6.62172">
        <ele>436</ele>
        <time>2014-10-30T13:44:55.1Z</time>
      </trkpt>
      <trkpt lat="47.8246" lon="6.62171">
        <ele>436</ele>
        <time>2014-10-30T13:44:57.1Z</time>
      </trkpt>
      <trkpt lat="47.8246" lon="6.6217">
        <ele>436</ele>
        <time>2014-10-30T13:44:59.1Z</time>
      </trkpt>
      <trkpt lat="47.82461" lon="6.62169">
        <ele>436</ele>
        <time>2014-10-30T13:45:01.1Z</time>
      </trkpt>
      <trkpt lat="47.82462" lon="6.62168">
        <ele>436</ele>
        <time>2014-10-30T13:45:04.1Z</time>
      </trkpt>
      <trkpt lat="47.82462" lon="6.62168">
        <ele>436</ele>
        <time>2014-10-30T13:45:07.1Z</time>
      </trkpt>
      <trkpt lat="47.82462" lon="6.62168">
        <ele>436</ele>
        <time>2014-10-30T13:45:09.1Z</time>
      </trkpt>
      <trkpt lat="47.82463" lon="6.62168">
        <ele>436</ele>
        <time>2014-10-30T13:45:11.1Z</time>
      </trkpt>
      <trkpt lat="47.82463" lon="6.62168">
        <ele>436</ele>
        <time>2014-10-30T13:45:14.1Z</time>
      </trkpt>
      <trkpt lat="47.82463" lon="6.62168">
        <ele>436</ele>
        <time>2014-10-30T13:45:17.1Z</time>
      </trkpt>
      <trkpt lat="47.82463" lon="6.62168">
        <ele>436</ele>
        <time>2014-10-30T13:45:20.1Z</time>
      </trkpt>
      <trkpt lat="47.82463" lon="6.62168">
        <ele>436</ele>
        <time>2014-10-30T13:45:22.1Z</time>
      </trkpt>
      <trkpt lat="47.82463" lon="6.6217">
        <ele>436</ele>
        <time>2014-10-30T13:45:25.1Z</time>
      </trkpt>
      <trkpt lat="47.82463" lon="6.6217">
        <ele>436</ele>
        <time>2014-10-30T13:45:27.1Z</time>
      </trkpt>
      <trkpt lat="47.82464" lon="6.62171">
        <ele>436</ele>
        <time>2014-10-30T13:45:30.1Z</time>
      </trkpt>
      <trkpt lat="47.82465" lon="6.62172">
        <ele>436</ele>
        <time>2014-10-30T13:45:33.1Z</time>
      </trkpt>
      <trkpt lat="47.82466" lon="6.62174">
        <ele>436</ele>
        <time>2014-10-30T13:45:36.1Z</time>
      </trkpt>
      <trkpt lat="47.82467" lon="6.62174">
        <ele>436</ele>
        <time>2014-10-30T13:45:38.1Z</time>
      </trkpt>
      <trkpt lat="47.82467" lon="6.62174">
        <ele>436</ele>
        <time>2014-10-30T13:45:41.1Z</time>
      </trkpt>
      <trkpt lat="47.82467" lon="6.62174">
        <ele>436</ele>
        <time>2014-10-30T13:45:44.1Z</time>
      </trkpt>
      <trkpt lat="47.82467" lon="6.62174">
        <ele>436</ele>
        <time>2014-10-30T13:45:48.1Z</time>
      </trkpt>
      <trkpt lat="47.82466" lon="6.62173">
        <ele>436</ele>
        <time>2014-10-30T13:45:50.1Z</time>
      </trkpt>
      <trkpt lat="47.82465" lon="6.62172">
        <ele>436</ele>
        <time>2014-10-30T13:45:53.1Z</time>
      </trkpt>
      <trkpt lat="47.82465" lon="6.62171">
        <ele>436</ele>
        <time>2014-10-30T13:45:55.1Z</time>
      </trkpt>
      <trkpt lat="47.82464" lon="6.62169">
        <ele>436</ele>
        <time>2014-10-30T13:45:58.1Z</time>
      </trkpt>
      <trkpt lat="47.82465" lon="6.62167">
        <ele>436</ele>
        <time>2014-10-30T13:46:00.1Z</time>
      </trkpt>
      <trkpt lat="47.82464" lon="6.62166">
        <ele>436</ele>
        <time>2014-10-30T13:46:02.1Z</time>
      </trkpt>
      <trkpt lat="47.82464" lon="6.62166">
        <ele>436</ele>
        <time>2014-10-30T13:46:04.1Z</time>
      </trkpt>
      <trkpt lat="47.82464" lon="6.62165">
        <ele>436</ele>
        <time>2014-10-30T13:46:07.1Z</time>
      </trkpt>
      <trkpt lat="47.82463" lon="6.62166">
        <ele>436</ele>
        <time>2014-10-30T13:46:10.1Z</time>
      </trkpt>
      <trkpt lat="47.82462" lon="6.62166">
        <ele>436</ele>
        <time>2014-10-30T13:46:12.1Z</time>
      </trkpt>
      <trkpt lat="47.82461" lon="6.62165">
        <ele>435</ele>
        <time>2014-10-30T13:46:14.1Z</time>
      </trkpt>
      <trkpt lat="47.8246" lon="6.62166">
        <ele>436</ele>
        <time>2014-10-30T13:46:16.1Z</time>
      </trkpt>
      <trkpt lat="47.82459" lon="6.62166">
        <ele>436</ele>
        <time>2014-10-30T13:46:18.1Z</time>
      </trkpt>
      <trkpt lat="47.82459" lon="6.62168">
        <ele>436</ele>
        <time>2014-10-30T13:46:20.1Z</time>
      </trkpt>
      <trkpt lat="47.82458" lon="6.62169">
        <ele>437</ele>
        <time>2014-10-30T13:46:23.1Z</time>
      </trkpt>
      <trkpt lat="47.82458" lon="6.6217">
        <ele>436</ele>
        <time>2014-10-30T13:46:26.1Z</time>
      </trkpt>
      <trkpt lat="47.82457" lon="6.62171">
        <ele>436</ele>
        <time>2014-10-30T13:46:28.1Z</time>
      </trkpt>
      <trkpt lat="47.82457" lon="6.62172">
        <ele>437</ele>
        <time>2014-10-30T13:46:31.1Z</time>
      </trkpt>
      <trkpt lat="47.82457" lon="6.62172">
        <ele>437</ele>
        <time>2014-10-30T13:46:33.1Z</time>
      </trkpt>
      <trkpt lat="47.82458" lon="6.62172">
        <ele>437</ele>
        <time>2014-10-30T13:46:35.1Z</time>
      </trkpt>
      <trkpt lat="47.82459" lon="6.62172">
        <ele>437</ele>
        <time>2014-10-30T13:46:38.1Z</time>
      </trkpt>
      <trkpt lat="47.82459" lon="6.62173">
        <ele>436</ele>
        <time>2014-10-30T13:46:40.1Z</time>
      </trkpt>
      <trkpt lat="47.82459" lon="6.62173">
        <ele>436</ele>
        <time>2014-10-30T13:46:42.1Z</time>
      </trkpt>
      <trkpt lat="47.82459" lon="6.62173">
        <ele>436</ele>
        <time>2014-10-30T13:46:45.1Z</time>
      </trkpt>
      <trkpt lat="47.82458" lon="6.62174">
        <ele>436</ele>
        <time>2014-10-30T13:46:48.1Z</time>
      </trkpt>
      <trkpt lat="47.82457" lon="6.62175">
        <ele>436</ele>
        <time>2014-10-30T13:46:50.1Z</time>
      </trkpt>
      <trkpt lat="47.82456" lon="6.62176">
        <ele>436</ele>
        <time>2014-10-30T13:46:52.1Z</time>
      </trkpt>
      <trkpt lat="47.82455" lon="6.62177">
        <ele>436</ele>
        <time>2014-10-30T13:46:54.1Z</time>
      </trkpt>
      <trkpt lat="47.82454" lon="6.62178">
        <ele>436</ele>
        <time>2014-10-30T13:46:57.1Z</time>
      </trkpt>
      <trkpt lat="47.82453" lon="6.62179">
        <ele>436</ele>
        <time>2014-10-30T13:46:59.1Z</time>
      </trkpt>
      <trkpt lat="47.82452" lon="6.6218">
        <ele>436</ele>
        <time>2014-10-30T13:47:01.1Z</time>
      </trkpt>
      <trkpt lat="47.8245" lon="6.6218">
        <ele>436</ele>
        <time>2014-10-30T13:47:04.1Z</time>
      </trkpt>
      <trkpt lat="47.82448" lon="6.62182">
        <ele>436</ele>
        <time>2014-10-30T13:47:06.1Z</time>
      </trkpt>
      <trkpt lat="47.82443" lon="6.62185">
        <ele>436</ele>
        <time>2014-10-30T13:47:09.1Z</time>
      </trkpt>
      <trkpt lat="47.82438" lon="6.62185">
        <ele>435</ele>
        <time>2014-10-30T13:47:11.1Z</time>
      </trkpt>
      <trkpt lat="47.8243" lon="6.62186">
        <ele>434</ele>
        <time>2014-10-30T13:47:13.1Z</time>
      </trkpt>
      <trkpt lat="47.82421" lon="6.62189">
        <ele>432</ele>
        <time>2014-10-30T13:47:15.1Z</time>
      </trkpt>
      <trkpt lat="47.82418" lon="6.6219">
        <ele>431</ele>
        <time>2014-10-30T13:47:17.1Z</time>
      </trkpt>
      <trkpt lat="47.82414" lon="6.62193">
        <ele>429</ele>
        <time>2014-10-30T13:47:20.1Z</time>
      </trkpt>
      <trkpt lat="47.8241" lon="6.62196">
        <ele>428</ele>
        <time>2014-10-30T13:47:23.1Z</time>
      </trkpt>
      <trkpt lat="47.82407" lon="6.62199">
        <ele>428</ele>
        <time>2014-10-30T13:47:25.1Z</time>
      </trkpt>
      <trkpt lat="47.82403" lon="6.62206">
        <ele>428</ele>
        <time>2014-10-30T13:47:28.1Z</time>
      </trkpt>
      <trkpt lat="47.82401" lon="6.6221">
        <ele>428</ele>
        <time>2014-10-30T13:47:30.1Z</time>
      </trkpt>
      <trkpt lat="47.82398" lon="6.6222">
        <ele>427</ele>
        <time>2014-10-30T13:47:33.1Z</time>
      </trkpt>
      <trkpt lat="47.82396" lon="6.62226">
        <ele>426</ele>
        <time>2014-10-30T13:47:35.1Z</time>
      </trkpt>
      <trkpt lat="47.82387" lon="6.62232">
        <ele>425</ele>
        <time>2014-10-30T13:47:38.1Z</time>
      </trkpt>
      <trkpt lat="47.8238" lon="6.62234">
        <ele>424</ele>
        <time>2014-10-30T13:47:40.1Z</time>
      </trkpt>
      <trkpt lat="47.8237" lon="6.62235">
        <ele>421</ele>
        <time>2014-10-30T13:47:43.1Z</time>
      </trkpt>
      <trkpt lat="47.82365" lon="6.62232">
        <ele>420</ele>
        <time>2014-10-30T13:47:45.1Z</time>
      </trkpt>
      <trkpt lat="47.8236" lon="6.62226">
        <ele>419</ele>
        <time>2014-10-30T13:47:47.1Z</time>
      </trkpt>
      <trkpt lat="47.82352" lon="6.62218">
        <ele>418</ele>
        <time>2014-10-30T13:47:50.1Z</time>
      </trkpt>
      <trkpt lat="47.82344" lon="6.62212">
        <ele>419</ele>
        <time>2014-10-30T13:47:52.1Z</time>
      </trkpt>
      <trkpt lat="47.82331" lon="6.62206">
        <ele>419</ele>
        <time>2014-10-30T13:47:55.1Z</time>
      </trkpt>
      <trkpt lat="47.82325" lon="6.62205">
        <ele>419</ele>
        <time>2014-10-30T13:47:57.1Z</time>
      </trkpt>
      <trkpt lat="47.82319" lon="6.62201">
        <ele>418</ele>
        <time>2014-10-30T13:47:59.1Z</time>
      </trkpt>
      <trkpt lat="47.82312" lon="6.62197">
        <ele>417</ele>
        <time>2014-10-30T13:48:02.1Z</time>
      </trkpt>
      <trkpt lat="47.82308" lon="6.62191">
        <ele>417</ele>
        <time>2014-10-30T13:48:05.1Z</time>
      </trkpt>
      <trkpt lat="47.82301" lon="6.62183">
        <ele>416</ele>
        <time>2014-10-30T13:48:08.1Z</time>
      </trkpt>
      <trkpt lat="47.82297" lon="6.62179">
        <ele>416</ele>
        <time>2014-10-30T13:48:10.1Z</time>
      </trkpt>
      <trkpt lat="47.82292" lon="6.62178">
        <ele>415</ele>
        <time>2014-10-30T13:48:13.1Z</time>
      </trkpt>
      <trkpt lat="47.82289" lon="6.62176">
        <ele>416</ele>
        <time>2014-10-30T13:48:15.1Z</time>
      </trkpt>
      <trkpt lat="47.82286" lon="6.62174">
        <ele>415</ele>
        <time>2014-10-30T13:48:18.1Z</time>
      </trkpt>
      <trkpt lat="47.82284" lon="6.62174">
        <ele>415</ele>
        <time>2014-10-30T13:48:20.1Z</time>
      </trkpt>
      <trkpt lat="47.82282" lon="6.62173">
        <ele>415</ele>
        <time>2014-10-30T13:48:22.1Z</time>
      </trkpt>
      <trkpt lat="47.82281" lon="6.62174">
        <ele>415</ele>
        <time>2014-10-30T13:48:24.1Z</time>
      </trkpt>
      <trkpt lat="47.8228" lon="6.62174">
        <ele>415</ele>
        <time>2014-10-30T13:48:26.1Z</time>
      </trkpt>
      <trkpt lat="47.82279" lon="6.62176">
        <ele>415</ele>
        <time>2014-10-30T13:48:28.1Z</time>
      </trkpt>
      <trkpt lat="47.82278" lon="6.62176">
        <ele>415</ele>
        <time>2014-10-30T13:48:30.1Z</time>
      </trkpt>
      <trkpt lat="47.82277" lon="6.62177">
        <ele>415</ele>
        <time>2014-10-30T13:48:32.1Z</time>
      </trkpt>
      <trkpt lat="47.82277" lon="6.62178">
        <ele>415</ele>
        <time>2014-10-30T13:48:35.1Z</time>
      </trkpt>
      <trkpt lat="47.82277" lon="6.62179">
        <ele>415</ele>
        <time>2014-10-30T13:48:37.1Z</time>
      </trkpt>
      <trkpt lat="47.82277" lon="6.6218">
        <ele>415</ele>
        <time>2014-10-30T13:48:39.1Z</time>
      </trkpt>
      <trkpt lat="47.82276" lon="6.62182">
        <ele>415</ele>
        <time>2014-10-30T13:48:41.1Z</time>
      </trkpt>
      <trkpt lat="47.82276" lon="6.62184">
        <ele>416</ele>
        <time>2014-10-30T13:48:44.1Z</time>
      </trkpt>
      <trkpt lat="47.82276" lon="6.62184">
        <ele>416</ele>
        <time>2014-10-30T13:48:46.1Z</time>
      </trkpt>
      <trkpt lat="47.82276" lon="6.62185">
        <ele>416</ele>
        <time>2014-10-30T13:48:48.1Z</time>
      </trkpt>
      <trkpt lat="47.82275" lon="6.62187">
        <ele>416</ele>
        <time>2014-10-30T13:48:51.1Z</time>
      </trkpt>
      <trkpt lat="47.82275" lon="6.62188">
        <ele>416</ele>
        <time>2014-10-30T13:48:53.1Z</time>
      </trkpt>
      <trkpt lat="47.82274" lon="6.62188">
        <ele>416</ele>
        <time>2014-10-30T13:48:55.1Z</time>
      </trkpt>
      <trkpt lat="47.82273" lon="6.62188">
        <ele>416</ele>
        <time>2014-10-30T13:48:58.1Z</time>
      </trkpt>
      <trkpt lat="47.82273" lon="6.62188">
        <ele>416</ele>
        <time>2014-10-30T13:49:02.1Z</time>
      </trkpt>
      <trkpt lat="47.82273" lon="6.62187">
        <ele>416</ele>
        <time>2014-10-30T13:49:05.1Z</time>
      </trkpt>
      <trkpt lat="47.82273" lon="6.62187">
        <ele>416</ele>
        <time>2014-10-30T13:49:07.1Z</time>
      </trkpt>
      <trkpt lat="47.82273" lon="6.62186">
        <ele>416</ele>
        <time>2014-10-30T13:49:10.1Z</time>
      </trkpt>
      <trkpt lat="47.82272" lon="6.62185">
        <ele>416</ele>
        <time>2014-10-30T13:49:13.1Z</time>
      </trkpt>
      <trkpt lat="47.82272" lon="6.62184">
        <ele>416</ele>
        <time>2014-10-30T13:49:16.1Z</time>
      </trkpt>
      <trkpt lat="47.82271" lon="6.62184">
        <ele>416</ele>
        <time>2014-10-30T13:49:18.1Z</time>
      </trkpt>
      <trkpt lat="47.82271" lon="6.62183">
        <ele>415</ele>
        <time>2014-10-30T13:49:21.1Z</time>
      </trkpt>
      <trkpt lat="47.82271" lon="6.62183">
        <ele>416</ele>
        <time>2014-10-30T13:49:24.1Z</time>
      </trkpt>
      <trkpt lat="47.82272" lon="6.62183">
        <ele>415</ele>
        <time>2014-10-30T13:49:26.1Z</time>
      </trkpt>
      <trkpt lat="47.82272" lon="6.62183">
        <ele>415</ele>
        <time>2014-10-30T13:49:29.1Z</time>
      </trkpt>
      <trkpt lat="47.8227" lon="6.62182">
        <ele>415</ele>
        <time>2014-10-30T13:49:31.1Z</time>
      </trkpt>
      <trkpt lat="47.82268" lon="6.6218">
        <ele>415</ele>
        <time>2014-10-30T13:49:33.1Z</time>
      </trkpt>
      <trkpt lat="47.82266" lon="6.62177">
        <ele>415</ele>
        <time>2014-10-30T13:49:35.1Z</time>
      </trkpt>
      <trkpt lat="47.82265" lon="6.62173">
        <ele>415</ele>
        <time>2014-10-30T13:49:37.1Z</time>
      </trkpt>
      <trkpt lat="47.82262" lon="6.62168">
        <ele>415</ele>
        <time>2014-10-30T13:49:40.1Z</time>
      </trkpt>
      <trkpt lat="47.8226" lon="6.62166">
        <ele>415</ele>
        <time>2014-10-30T13:49:42.1Z</time>
      </trkpt>
      <trkpt lat="47.82259" lon="6.62164">
        <ele>415</ele>
        <time>2014-10-30T13:49:44.1Z</time>
      </trkpt>
      <trkpt lat="47.82259" lon="6.62162">
        <ele>415</ele>
        <time>2014-10-30T13:49:46.1Z</time>
      </trkpt>
      <trkpt lat="47.82258" lon="6.6216">
        <ele>415</ele>
        <time>2014-10-30T13:49:49.1Z</time>
      </trkpt>
      <trkpt lat="47.82257" lon="6.6216">
        <ele>416</ele>
        <time>2014-10-30T13:49:51.1Z</time>
      </trkpt>
      <trkpt lat="47.82257" lon="6.62159">
        <ele>415</ele>
        <time>2014-10-30T13:49:53.1Z</time>
      </trkpt>
      <trkpt lat="47.82256" lon="6.62156">
        <ele>416</ele>
        <time>2014-10-30T13:49:56.1Z</time>
      </trkpt>
      <trkpt lat="47.82256" lon="6.62155">
        <ele>416</ele>
        <time>2014-10-30T13:49:58.1Z</time>
      </trkpt>
      <trkpt lat="47.82255" lon="6.62154">
        <ele>416</ele>
        <time>2014-10-30T13:50:00.1Z</time>
      </trkpt>
      <trkpt lat="47.82254" lon="6.62153">
        <ele>416</ele>
        <time>2014-10-30T13:50:03.1Z</time>
      </trkpt>
      <trkpt lat="47.82253" lon="6.62152">
        <ele>416</ele>
        <time>2014-10-30T13:50:06.1Z</time>
      </trkpt>
      <trkpt lat="47.82253" lon="6.62152">
        <ele>416</ele>
        <time>2014-10-30T13:50:09.1Z</time>
      </trkpt>
      <trkpt lat="47.82252" lon="6.62152">
        <ele>416</ele>
        <time>2014-10-30T13:50:11.1Z</time>
      </trkpt>
      <trkpt lat="47.82252" lon="6.62152">
        <ele>416</ele>
        <time>2014-10-30T13:50:14.1Z</time>
      </trkpt>
      <trkpt lat="47.82251" lon="6.62152">
        <ele>416</ele>
        <time>2014-10-30T13:50:17.1Z</time>
      </trkpt>
      <trkpt lat="47.82251" lon="6.62152">
        <ele>416</ele>
        <time>2014-10-30T13:50:19.1Z</time>
      </trkpt>
      <trkpt lat="47.82249" lon="6.62151">
        <ele>416</ele>
        <time>2014-10-30T13:50:22.1Z</time>
      </trkpt>
      <trkpt lat="47.82248" lon="6.6215">
        <ele>415</ele>
        <time>2014-10-30T13:50:25.1Z</time>
      </trkpt>
      <trkpt lat="47.82248" lon="6.6215">
        <ele>415</ele>
        <time>2014-10-30T13:50:27.1Z</time>
      </trkpt>
      <trkpt lat="47.82247" lon="6.62151">
        <ele>415</ele>
        <time>2014-10-30T13:50:30.1Z</time>
      </trkpt>
      <trkpt lat="47.82248" lon="6.62152">
        <ele>416</ele>
        <time>2014-10-30T13:50:32.1Z</time>
      </trkpt>
      <trkpt lat="47.82248" lon="6.62153">
        <ele>416</ele>
        <time>2014-10-30T13:50:35.1Z</time>
      </trkpt>
      <trkpt lat="47.82247" lon="6.62153">
        <ele>416</ele>
        <time>2014-10-30T13:50:37.1Z</time>
      </trkpt>
      <trkpt lat="47.82247" lon="6.62152">
        <ele>416</ele>
        <time>2014-10-30T13:50:40.1Z</time>
      </trkpt>
      <trkpt lat="47.82246" lon="6.62151">
        <ele>416</ele>
        <time>2014-10-30T13:50:42.1Z</time>
      </trkpt>
      <trkpt lat="47.82245" lon="6.6215">
        <ele>416</ele>
        <time>2014-10-30T13:50:45.1Z</time>
      </trkpt>
      <trkpt lat="47.82245" lon="6.62149">
        <ele>416</ele>
        <time>2014-10-30T13:50:47.1Z</time>
      </trkpt>
      <trkpt lat="47.82245" lon="6.62148">
        <ele>416</ele>
        <time>2014-10-30T13:50:49.1Z</time>
      </trkpt>
      <trkpt lat="47.82245" lon="6.62147">
        <ele>416</ele>
        <time>2014-10-30T13:50:51.1Z</time>
      </trkpt>
      <trkpt lat="47.82245" lon="6.62146">
        <ele>416</ele>
        <time>2014-10-30T13:50:54.1Z</time>
      </trkpt>
      <trkpt lat="47.82245" lon="6.62145">
        <ele>415</ele>
        <time>2014-10-30T13:50:56.1Z</time>
      </trkpt>
      <trkpt lat="47.82246" lon="6.62144">
        <ele>415</ele>
        <time>2014-10-30T13:50:58.1Z</time>
      </trkpt>
      <trkpt lat="47.82246" lon="6.62144">
        <ele>415</ele>
        <time>2014-10-30T13:51:00.1Z</time>
      </trkpt>
      <trkpt lat="47.82247" lon="6.62143">
        <ele>415</ele>
        <time>2014-10-30T13:51:02.1Z</time>
      </trkpt>
      <trkpt lat="47.82248" lon="6.62143">
        <ele>415</ele>
        <time>2014-10-30T13:51:04.1Z</time>
      </trkpt>
      <trkpt lat="47.82249" lon="6.62143">
        <ele>415</ele>
        <time>2014-10-30T13:51:06.1Z</time>
      </trkpt>
      <trkpt lat="47.8225" lon="6.62143">
        <ele>415</ele>
        <time>2014-10-30T13:51:09.1Z</time>
      </trkpt>
      <trkpt lat="47.8225" lon="6.62143">
        <ele>415</ele>
        <time>2014-10-30T13:51:12.1Z</time>
      </trkpt>
      <trkpt lat="47.8225" lon="6.62142">
        <ele>416</ele>
        <time>2014-10-30T13:51:16.1Z</time>
      </trkpt>
      <trkpt lat="47.8225" lon="6.62142">
        <ele>416</ele>
        <time>2014-10-30T13:51:18.1Z</time>
      </trkpt>
      <trkpt lat="47.8225" lon="6.62142">
        <ele>415</ele>
        <time>2014-10-30T13:51:21.1Z</time>
      </trkpt>
      <trkpt lat="47.8225" lon="6.62141">
        <ele>415</ele>
        <time>2014-10-30T13:51:24.1Z</time>
      </trkpt>
      <trkpt lat="47.8225" lon="6.62141">
        <ele>416</ele>
        <time>2014-10-30T13:51:26.1Z</time>
      </trkpt>
      <trkpt lat="47.8225" lon="6.62141">
        <ele>416</ele>
        <time>2014-10-30T13:51:28.1Z</time>
      </trkpt>
      <trkpt lat="47.82251" lon="6.62143">
        <ele>416</ele>
        <time>2014-10-30T13:51:31.1Z</time>
      </trkpt>
      <trkpt lat="47.82253" lon="6.62143">
        <ele>415</ele>
        <time>2014-10-30T13:51:34.1Z</time>
      </trkpt>
      <trkpt lat="47.82253" lon="6.62142">
        <ele>415</ele>
        <time>2014-10-30T13:51:36.1Z</time>
      </trkpt>
      <trkpt lat="47.82253" lon="6.62141">
        <ele>415</ele>
        <time>2014-10-30T13:51:39.1Z</time>
      </trkpt>
      <trkpt lat="47.82253" lon="6.62139">
        <ele>416</ele>
        <time>2014-10-30T13:51:41.1Z</time>
      </trkpt>
      <trkpt lat="47.82253" lon="6.62138">
        <ele>416</ele>
        <time>2014-10-30T13:51:43.1Z</time>
      </trkpt>
      <trkpt lat="47.82253" lon="6.62136">
        <ele>416</ele>
        <time>2014-10-30T13:51:46.1Z</time>
      </trkpt>
      <trkpt lat="47.82252" lon="6.62135">
        <ele>416</ele>
        <time>2014-10-30T13:51:48.1Z</time>
      </trkpt>
      <trkpt lat="47.8225" lon="6.62133">
        <ele>415</ele>
        <time>2014-10-30T13:51:50.1Z</time>
      </trkpt>
      <trkpt lat="47.82248" lon="6.62129">
        <ele>415</ele>
        <time>2014-10-30T13:51:52.1Z</time>
      </trkpt>
      <trkpt lat="47.82245" lon="6.62124">
        <ele>415</ele>
        <time>2014-10-30T13:51:54.1Z</time>
      </trkpt>
      <trkpt lat="47.82241" lon="6.62117">
        <ele>415</ele>
        <time>2014-10-30T13:51:57.1Z</time>
      </trkpt>
      <trkpt lat="47.82238" lon="6.62113">
        <ele>415</ele>
        <time>2014-10-30T13:51:59.1Z</time>
      </trkpt>
      <trkpt lat="47.82234" lon="6.62108">
        <ele>416</ele>
        <time>2014-10-30T13:52:02.1Z</time>
      </trkpt>
      <trkpt lat="47.82232" lon="6.62105">
        <ele>416</ele>
        <time>2014-10-30T13:52:04.1Z</time>
      </trkpt>
      <trkpt lat="47.82228" lon="6.621">
        <ele>417</ele>
        <time>2014-10-30T13:52:07.1Z</time>
      </trkpt>
      <trkpt lat="47.82225" lon="6.62091">
        <ele>417</ele>
        <time>2014-10-30T13:52:10.1Z</time>
      </trkpt>
      <trkpt lat="47.82223" lon="6.62084">
        <ele>417</ele>
        <time>2014-10-30T13:52:12.1Z</time>
      </trkpt>
      <trkpt lat="47.8222" lon="6.62075">
        <ele>417</ele>
        <time>2014-10-30T13:52:15.1Z</time>
      </trkpt>
      <trkpt lat="47.82216" lon="6.62065">
        <ele>417</ele>
        <time>2014-10-30T13:52:18.1Z</time>
      </trkpt>
      <trkpt lat="47.82213" lon="6.62058">
        <ele>418</ele>
        <time>2014-10-30T13:52:20.1Z</time>
      </trkpt>
      <trkpt lat="47.82209" lon="6.62046">
        <ele>418</ele>
        <time>2014-10-30T13:52:23.1Z</time>
      </trkpt>
      <trkpt lat="47.82207" lon="6.62039">
        <ele>418</ele>
        <time>2014-10-30T13:52:25.1Z</time>
      </trkpt>
      <trkpt lat="47.82203" lon="6.62028">
        <ele>418</ele>
        <time>2014-10-30T13:52:28.1Z</time>
      </trkpt>
      <trkpt lat="47.82199" lon="6.62016">
        <ele>418</ele>
        <time>2014-10-30T13:52:31.1Z</time>
      </trkpt>
      <trkpt lat="47.82196" lon="6.62008">
        <ele>418</ele>
        <time>2014-10-30T13:52:33.1Z</time>
      </trkpt>
      <trkpt lat="47.82193" lon="6.62002">
        <ele>418</ele>
        <time>2014-10-30T13:52:35.1Z</time>
      </trkpt>
      <trkpt lat="47.82191" lon="6.61995">
        <ele>419</ele>
        <time>2014-10-30T13:52:37.1Z</time>
      </trkpt>
      <trkpt lat="47.82187" lon="6.61986">
        <ele>419</ele>
        <time>2014-10-30T13:52:40.1Z</time>
      </trkpt>
      <trkpt lat="47.82184" lon="6.6198">
        <ele>420</ele>
        <time>2014-10-30T13:52:42.1Z</time>
      </trkpt>
      <trkpt lat="47.82179" lon="6.6197">
        <ele>420</ele>
        <time>2014-10-30T13:52:45.1Z</time>
      </trkpt>
      <trkpt lat="47.82175" lon="6.61961">
        <ele>420</ele>
        <time>2014-10-30T13:52:48.1Z</time>
      </trkpt>
      <trkpt lat="47.82172" lon="6.61957">
        <ele>420</ele>
        <time>2014-10-30T13:52:50.1Z</time>
      </trkpt>
      <trkpt lat="47.82167" lon="6.61948">
        <ele>420</ele>
        <time>2014-10-30T13:52:53.1Z</time>
      </trkpt>
      <trkpt lat="47.82161" lon="6.61941">
        <ele>421</ele>
        <time>2014-10-30T13:52:56.1Z</time>
      </trkpt>
      <trkpt lat="47.82156" lon="6.61937">
        <ele>422</ele>
        <time>2014-10-30T13:52:59.1Z</time>
      </trkpt>
      <trkpt lat="47.82151" lon="6.61932">
        <ele>423</ele>
        <time>2014-10-30T13:53:02.1Z</time>
      </trkpt>
      <trkpt lat="47.82148" lon="6.61931">
        <ele>423</ele>
        <time>2014-10-30T13:53:04.1Z</time>
      </trkpt>
      <trkpt lat="47.82145" lon="6.61931">
        <ele>423</ele>
        <time>2014-10-30T13:53:06.1Z</time>
      </trkpt>
      <trkpt lat="47.82141" lon="6.61932">
        <ele>424</ele>
        <time>2014-10-30T13:53:09.1Z</time>
      </trkpt>
      <trkpt lat="47.82139" lon="6.61934">
        <ele>425</ele>
        <time>2014-10-30T13:53:12.1Z</time>
      </trkpt>
      <trkpt lat="47.82138" lon="6.61935">
        <ele>425</ele>
        <time>2014-10-30T13:53:14.1Z</time>
      </trkpt>
      <trkpt lat="47.82138" lon="6.61936">
        <ele>425</ele>
        <time>2014-10-30T13:53:16.1Z</time>
      </trkpt>
      <trkpt lat="47.82138" lon="6.61936">
        <ele>426</ele>
        <time>2014-10-30T13:53:18.1Z</time>
      </trkpt>
      <trkpt lat="47.82137" lon="6.61938">
        <ele>425</ele>
        <time>2014-10-30T13:53:20.1Z</time>
      </trkpt>
      <trkpt lat="47.82136" lon="6.61939">
        <ele>425</ele>
        <time>2014-10-30T13:53:22.1Z</time>
      </trkpt>
      <trkpt lat="47.82135" lon="6.6194">
        <ele>425</ele>
        <time>2014-10-30T13:53:24.1Z</time>
      </trkpt>
      <trkpt lat="47.82134" lon="6.61941">
        <ele>425</ele>
        <time>2014-10-30T13:53:27.1Z</time>
      </trkpt>
      <trkpt lat="47.82133" lon="6.61942">
        <ele>425</ele>
        <time>2014-10-30T13:53:29.1Z</time>
      </trkpt>
      <trkpt lat="47.82132" lon="6.61942">
        <ele>425</ele>
        <time>2014-10-30T13:53:32.1Z</time>
      </trkpt>
      <trkpt lat="47.82132" lon="6.61943">
        <ele>425</ele>
        <time>2014-10-30T13:53:34.1Z</time>
      </trkpt>
      <trkpt lat="47.82131" lon="6.61943">
        <ele>425</ele>
        <time>2014-10-30T13:53:36.1Z</time>
      </trkpt>
      <trkpt lat="47.8213" lon="6.61943">
        <ele>425</ele>
        <time>2014-10-30T13:53:38.1Z</time>
      </trkpt>
      <trkpt lat="47.8213" lon="6.61943">
        <ele>425</ele>
        <time>2014-10-30T13:53:41.1Z</time>
      </trkpt>
      <trkpt lat="47.8213" lon="6.61942">
        <ele>425</ele>
        <time>2014-10-30T13:53:43.1Z</time>
      </trkpt>
      <trkpt lat="47.82129" lon="6.61942">
        <ele>425</ele>
        <time>2014-10-30T13:53:45.1Z</time>
      </trkpt>
      <trkpt lat="47.8213" lon="6.61942">
        <ele>426</ele>
        <time>2014-10-30T13:53:48.1Z</time>
      </trkpt>
      <trkpt lat="47.82129" lon="6.61943">
        <ele>426</ele>
        <time>2014-10-30T13:53:50.1Z</time>
      </trkpt>
      <trkpt lat="47.82129" lon="6.61943">
        <ele>426</ele>
        <time>2014-10-30T13:53:52.1Z</time>
      </trkpt>
      <trkpt lat="47.82128" lon="6.61943">
        <ele>426</ele>
        <time>2014-10-30T13:53:54.1Z</time>
      </trkpt>
      <trkpt lat="47.82126" lon="6.6194">
        <ele>426</ele>
        <time>2014-10-30T13:53:56.1Z</time>
      </trkpt>
      <trkpt lat="47.82125" lon="6.61937">
        <ele>425</ele>
        <time>2014-10-30T13:53:58.1Z</time>
      </trkpt>
      <trkpt lat="47.82124" lon="6.61935">
        <ele>425</ele>
        <time>2014-10-30T13:54:01.1Z</time>
      </trkpt>
      <trkpt lat="47.82124" lon="6.61935">
        <ele>424</ele>
        <time>2014-10-30T13:54:03.1Z</time>
      </trkpt>
      <trkpt lat="47.82124" lon="6.61934">
        <ele>424</ele>
        <time>2014-10-30T13:54:05.1Z</time>
      </trkpt>
      <trkpt lat="47.82124" lon="6.61934">
        <ele>424</ele>
        <time>2014-10-30T13:54:07.1Z</time>
      </trkpt>
      <trkpt lat="47.82124" lon="6.61934">
        <ele>423</ele>
        <time>2014-10-30T13:54:11.1Z</time>
      </trkpt>
      <trkpt lat="47.82124" lon="6.61934">
        <ele>423</ele>
        <time>2014-10-30T13:54:14.1Z</time>
      </trkpt>
      <trkpt lat="47.82124" lon="6.61935">
        <ele>424</ele>
        <time>2014-10-30T13:54:17.1Z</time>
      </trkpt>
      <trkpt lat="47.82125" lon="6.61936">
        <ele>424</ele>
        <time>2014-10-30T13:54:19.1Z</time>
      </trkpt>
      <trkpt lat="47.82127" lon="6.61937">
        <ele>424</ele>
        <time>2014-10-30T13:54:21.1Z</time>
      </trkpt>
      <trkpt lat="47.82129" lon="6.61941">
        <ele>425</ele>
        <time>2014-10-30T13:54:24.1Z</time>
      </trkpt>
      <trkpt lat="47.8213" lon="6.61945">
        <ele>425</ele>
        <time>2014-10-30T13:54:26.1Z</time>
      </trkpt>
      <trkpt lat="47.82132" lon="6.61948">
        <ele>426</ele>
        <time>2014-10-30T13:54:29.1Z</time>
      </trkpt>
      <trkpt lat="47.82132" lon="6.6195">
        <ele>426</ele>
        <time>2014-10-30T13:54:31.1Z</time>
      </trkpt>
      <trkpt lat="47.82133" lon="6.61952">
        <ele>427</ele>
        <time>2014-10-30T13:54:34.1Z</time>
      </trkpt>
      <trkpt lat="47.82134" lon="6.61954">
        <ele>427</ele>
        <time>2014-10-30T13:54:36.1Z</time>
      </trkpt>
      <trkpt lat="47.82134" lon="6.61958">
        <ele>427</ele>
        <time>2014-10-30T13:54:38.1Z</time>
      </trkpt>
      <trkpt lat="47.82135" lon="6.61966">
        <ele>427</ele>
        <time>2014-10-30T13:54:41.1Z</time>
      </trkpt>
      <trkpt lat="47.82135" lon="6.61972">
        <ele>426</ele>
        <time>2014-10-30T13:54:44.1Z</time>
      </trkpt>
      <trkpt lat="47.82134" lon="6.61978">
        <ele>427</ele>
        <time>2014-10-30T13:54:46.1Z</time>
      </trkpt>
      <trkpt lat="47.8213" lon="6.61987">
        <ele>427</ele>
        <time>2014-10-30T13:54:49.1Z</time>
      </trkpt>
      <trkpt lat="47.82127" lon="6.61992">
        <ele>427</ele>
        <time>2014-10-30T13:54:52.1Z</time>
      </trkpt>
      <trkpt lat="47.82125" lon="6.61995">
        <ele>427</ele>
        <time>2014-10-30T13:54:54.1Z</time>
      </trkpt>
      <trkpt lat="47.82122" lon="6.61998">
        <ele>428</ele>
        <time>2014-10-30T13:54:56.1Z</time>
      </trkpt>
      <trkpt lat="47.82119" lon="6.62002">
        <ele>428</ele>
        <time>2014-10-30T13:54:58.1Z</time>
      </trkpt>
      <trkpt lat="47.82111" lon="6.62006">
        <ele>428</ele>
        <time>2014-10-30T13:55:01.1Z</time>
      </trkpt>
      <trkpt lat="47.82108" lon="6.62009">
        <ele>428</ele>
        <time>2014-10-30T13:55:03.1Z</time>
      </trkpt>
      <trkpt lat="47.82102" lon="6.62013">
        <ele>428</ele>
        <time>2014-10-30T13:55:06.1Z</time>
      </trkpt>
      <trkpt lat="47.82096" lon="6.62016">
        <ele>429</ele>
        <time>2014-10-30T13:55:09.1Z</time>
      </trkpt>
      <trkpt lat="47.82092" lon="6.62017">
        <ele>430</ele>
        <time>2014-10-30T13:55:11.1Z</time>
      </trkpt>
      <trkpt lat="47.82085" lon="6.62016">
        <ele>430</ele>
        <time>2014-10-30T13:55:14.1Z</time>
      </trkpt>
      <trkpt lat="47.82078" lon="6.62015">
        <ele>430</ele>
        <time>2014-10-30T13:55:17.1Z</time>
      </trkpt>
      <trkpt lat="47.82074" lon="6.62014">
        <ele>430</ele>
        <time>2014-10-30T13:55:19.1Z</time>
      </trkpt>
      <trkpt lat="47.82066" lon="6.62015">
        <ele>430</ele>
        <time>2014-10-30T13:55:22.1Z</time>
      </trkpt>
      <trkpt lat="47.82056" lon="6.62015">
        <ele>430</ele>
        <time>2014-10-30T13:55:25.1Z</time>
      </trkpt>
      <trkpt lat="47.82048" lon="6.62015">
        <ele>429</ele>
        <time>2014-10-30T13:55:27.1Z</time>
      </trkpt>
      <trkpt lat="47.82038" lon="6.62015">
        <ele>428</ele>
        <time>2014-10-30T13:55:29.1Z</time>
      </trkpt>
      <trkpt lat="47.82029" lon="6.62014">
        <ele>428</ele>
        <time>2014-10-30T13:55:31.1Z</time>
      </trkpt>
      <trkpt lat="47.82014" lon="6.62017">
        <ele>427</ele>
        <time>2014-10-30T13:55:34.1Z</time>
      </trkpt>
      <trkpt lat="47.82006" lon="6.62021">
        <ele>427</ele>
        <time>2014-10-30T13:55:36.1Z</time>
      </trkpt>
      <trkpt lat="47.81992" lon="6.62028">
        <ele>427</ele>
        <time>2014-10-30T13:55:39.1Z</time>
      </trkpt>
      <trkpt lat="47.81981" lon="6.62035">
        <ele>428</ele>
        <time>2014-10-30T13:55:42.1Z</time>
      </trkpt>
      <trkpt lat="47.81974" lon="6.6204">
        <ele>428</ele>
        <time>2014-10-30T13:55:44.1Z</time>
      </trkpt>
      <trkpt lat="47.81966" lon="6.62048">
        <ele>429</ele>
        <time>2014-10-30T13:55:47.1Z</time>
      </trkpt>
      <trkpt lat="47.81958" lon="6.62056">
        <ele>430</ele>
        <time>2014-10-30T13:55:50.1Z</time>
      </trkpt>
      <trkpt lat="47.81954" lon="6.6206">
        <ele>431</ele>
        <time>2014-10-30T13:55:52.1Z</time>
      </trkpt>
      <trkpt lat="47.8195" lon="6.62065">
        <ele>432</ele>
        <time>2014-10-30T13:55:55.1Z</time>
      </trkpt>
      <trkpt lat="47.81946" lon="6.62075">
        <ele>432</ele>
        <time>2014-10-30T13:55:58.1Z</time>
      </trkpt>
      <trkpt lat="47.81943" lon="6.62084">
        <ele>432</ele>
        <time>2014-10-30T13:56:00.1Z</time>
      </trkpt>
      <trkpt lat="47.8194" lon="6.62093">
        <ele>432</ele>
        <time>2014-10-30T13:56:02.1Z</time>
      </trkpt>
      <trkpt lat="47.81937" lon="6.621">
        <ele>432</ele>
        <time>2014-10-30T13:56:04.1Z</time>
      </trkpt>
      <trkpt lat="47.81934" lon="6.62109">
        <ele>432</ele>
        <time>2014-10-30T13:56:06.1Z</time>
      </trkpt>
      <trkpt lat="47.81926" lon="6.6212">
        <ele>432</ele>
        <time>2014-10-30T13:56:09.1Z</time>
      </trkpt>
      <trkpt lat="47.81919" lon="6.62132">
        <ele>432</ele>
        <time>2014-10-30T13:56:12.1Z</time>
      </trkpt>
      <trkpt lat="47.81914" lon="6.62143">
        <ele>431</ele>
        <time>2014-10-30T13:56:14.1Z</time>
      </trkpt>
      <trkpt lat="47.81906" lon="6.62158">
        <ele>431</ele>
        <time>2014-10-30T13:56:17.1Z</time>
      </trkpt>
      <trkpt lat="47.81901" lon="6.62166">
        <ele>432</ele>
        <time>2014-10-30T13:56:19.1Z</time>
      </trkpt>
      <trkpt lat="47.81896" lon="6.62174">
        <ele>432</ele>
        <time>2014-10-30T13:56:21.1Z</time>
      </trkpt>
      <trkpt lat="47.8189" lon="6.6218">
        <ele>432</ele>
        <time>2014-10-30T13:56:23.1Z</time>
      </trkpt>
      <trkpt lat="47.8188" lon="6.62185">
        <ele>433</ele>
        <time>2014-10-30T13:56:26.1Z</time>
      </trkpt>
      <trkpt lat="47.81871" lon="6.62187">
        <ele>432</ele>
        <time>2014-10-30T13:56:28.1Z</time>
      </trkpt>
      <trkpt lat="47.81859" lon="6.6219">
        <ele>432</ele>
        <time>2014-10-30T13:56:31.1Z</time>
      </trkpt>
      <trkpt lat="47.81843" lon="6.62189">
        <ele>431</ele>
        <time>2014-10-30T13:56:34.1Z</time>
      </trkpt>
      <trkpt lat="47.81833" lon="6.6218">
        <ele>430</ele>
        <time>2014-10-30T13:56:36.1Z</time>
      </trkpt>
      <trkpt lat="47.81823" lon="6.62159">
        <ele>429</ele>
        <time>2014-10-30T13:56:39.1Z</time>
      </trkpt>
      <trkpt lat="47.81815" lon="6.62135">
        <ele>428</ele>
        <time>2014-10-30T13:56:42.1Z</time>
      </trkpt>
      <trkpt lat="47.81809" lon="6.62118">
        <ele>428</ele>
        <time>2014-10-30T13:56:44.1Z</time>
      </trkpt>
      <trkpt lat="47.81802" lon="6.62103">
        <ele>428</ele>
        <time>2014-10-30T13:56:46.1Z</time>
      </trkpt>
      <trkpt lat="47.81788" lon="6.62083">
        <ele>428</ele>
        <time>2014-10-30T13:56:49.1Z</time>
      </trkpt>
      <trkpt lat="47.81779" lon="6.6207">
        <ele>428</ele>
        <time>2014-10-30T13:56:51.1Z</time>
      </trkpt>
      <trkpt lat="47.81771" lon="6.62055">
        <ele>428</ele>
        <time>2014-10-30T13:56:53.1Z</time>
      </trkpt>
      <trkpt lat="47.81765" lon="6.62039">
        <ele>428</ele>
        <time>2014-10-30T13:56:55.1Z</time>
      </trkpt>
      <trkpt lat="47.81761" lon="6.62012">
        <ele>427</ele>
        <time>2014-10-30T13:56:58.1Z</time>
      </trkpt>
      <trkpt lat="47.81756" lon="6.6199">
        <ele>427</ele>
        <time>2014-10-30T13:57:00.1Z</time>
      </trkpt>
      <trkpt lat="47.81749" lon="6.61971">
        <ele>425</ele>
        <time>2014-10-30T13:57:02.1Z</time>
      </trkpt>
      <trkpt lat="47.81734" lon="6.61941">
        <ele>424</ele>
        <time>2014-10-30T13:57:05.1Z</time>
      </trkpt>
      <trkpt lat="47.81726" lon="6.61922">
        <ele>423</ele>
        <time>2014-10-30T13:57:07.1Z</time>
      </trkpt>
      <trkpt lat="47.81715" lon="6.61896">
        <ele>422</ele>
        <time>2014-10-30T13:57:10.1Z</time>
      </trkpt>
      <trkpt lat="47.81707" lon="6.61878">
        <ele>421</ele>
        <time>2014-10-30T13:57:12.1Z</time>
      </trkpt>
      <trkpt lat="47.81697" lon="6.61862">
        <ele>420</ele>
        <time>2014-10-30T13:57:14.1Z</time>
      </trkpt>
      <trkpt lat="47.81687" lon="6.61846">
        <ele>419</ele>
        <time>2014-10-30T13:57:16.1Z</time>
      </trkpt>
      <trkpt lat="47.81678" lon="6.61831">
        <ele>418</ele>
        <time>2014-10-30T13:57:18.1Z</time>
      </trkpt>
      <trkpt lat="47.81673" lon="6.61821">
        <ele>418</ele>
        <time>2014-10-30T13:57:21.1Z</time>
      </trkpt>
      <trkpt lat="47.81672" lon="6.6182">
        <ele>418</ele>
        <time>2014-10-30T13:57:24.1Z</time>
      </trkpt>
      <trkpt lat="47.8167" lon="6.61819">
        <ele>418</ele>
        <time>2014-10-30T13:57:27.1Z</time>
      </trkpt>
      <trkpt lat="47.81668" lon="6.61818">
        <ele>418</ele>
        <time>2014-10-30T13:57:29.1Z</time>
      </trkpt>
      <trkpt lat="47.81667" lon="6.61818">
        <ele>418</ele>
        <time>2014-10-30T13:57:31.1Z</time>
      </trkpt>
      <trkpt lat="47.81666" lon="6.61818">
        <ele>418</ele>
        <time>2014-10-30T13:57:33.1Z</time>
      </trkpt>
      <trkpt lat="47.81664" lon="6.61817">
        <ele>418</ele>
        <time>2014-10-30T13:57:36.1Z</time>
      </trkpt>
      <trkpt lat="47.81663" lon="6.61817">
        <ele>418</ele>
        <time>2014-10-30T13:57:38.1Z</time>
      </trkpt>
      <trkpt lat="47.81662" lon="6.61817">
        <ele>418</ele>
        <time>2014-10-30T13:57:40.1Z</time>
      </trkpt>
      <trkpt lat="47.81661" lon="6.61817">
        <ele>418</ele>
        <time>2014-10-30T13:57:42.1Z</time>
      </trkpt>
      <trkpt lat="47.81659" lon="6.61816">
        <ele>418</ele>
        <time>2014-10-30T13:57:45.1Z</time>
      </trkpt>
      <trkpt lat="47.81659" lon="6.61815">
        <ele>418</ele>
        <time>2014-10-30T13:57:47.1Z</time>
      </trkpt>
      <trkpt lat="47.81657" lon="6.61815">
        <ele>418</ele>
        <time>2014-10-30T13:57:49.1Z</time>
      </trkpt>
      <trkpt lat="47.81655" lon="6.61815">
        <ele>418</ele>
        <time>2014-10-30T13:57:52.1Z</time>
      </trkpt>
      <trkpt lat="47.81653" lon="6.61815">
        <ele>418</ele>
        <time>2014-10-30T13:57:55.1Z</time>
      </trkpt>
      <trkpt lat="47.81652" lon="6.61815">
        <ele>418</ele>
        <time>2014-10-30T13:57:57.1Z</time>
      </trkpt>
      <trkpt lat="47.81651" lon="6.61816">
        <ele>418</ele>
        <time>2014-10-30T13:57:59.1Z</time>
      </trkpt>
      <trkpt lat="47.8165" lon="6.61816">
        <ele>418</ele>
        <time>2014-10-30T13:58:01.1Z</time>
      </trkpt>
      <trkpt lat="47.81649" lon="6.61816">
        <ele>418</ele>
        <time>2014-10-30T13:58:04.1Z</time>
      </trkpt>
      <trkpt lat="47.81649" lon="6.61816">
        <ele>418</ele>
        <time>2014-10-30T13:58:06.1Z</time>
      </trkpt>
      <trkpt lat="47.81647" lon="6.61816">
        <ele>418</ele>
        <time>2014-10-30T13:58:09.1Z</time>
      </trkpt>
      <trkpt lat="47.81647" lon="6.61816">
        <ele>418</ele>
        <time>2014-10-30T13:58:11.1Z</time>
      </trkpt>
      <trkpt lat="47.81646" lon="6.61816">
        <ele>418</ele>
        <time>2014-10-30T13:58:13.1Z</time>
      </trkpt>
      <trkpt lat="47.81645" lon="6.61816">
        <ele>418</ele>
        <time>2014-10-30T13:58:15.1Z</time>
      </trkpt>
      <trkpt lat="47.81645" lon="6.61816">
        <ele>419</ele>
        <time>2014-10-30T13:58:17.1Z</time>
      </trkpt>
      <trkpt lat="47.81645" lon="6.61816">
        <ele>419</ele>
        <time>2014-10-30T13:58:22.1Z</time>
      </trkpt>
      <trkpt lat="47.81645" lon="6.61817">
        <ele>419</ele>
        <time>2014-10-30T13:58:24.1Z</time>
      </trkpt>
      <trkpt lat="47.81646" lon="6.61817">
        <ele>419</ele>
        <time>2014-10-30T13:58:26.1Z</time>
      </trkpt>
      <trkpt lat="47.81646" lon="6.61817">
        <ele>419</ele>
        <time>2014-10-30T13:58:28.1Z</time>
      </trkpt>
      <trkpt lat="47.81647" lon="6.61818">
        <ele>419</ele>
        <time>2014-10-30T13:58:30.1Z</time>
      </trkpt>
      <trkpt lat="47.81648" lon="6.61819">
        <ele>419</ele>
        <time>2014-10-30T13:58:32.1Z</time>
      </trkpt>
      <trkpt lat="47.81648" lon="6.61819">
        <ele>419</ele>
        <time>2014-10-30T13:58:34.1Z</time>
      </trkpt>
      <trkpt lat="47.81647" lon="6.61819">
        <ele>419</ele>
        <time>2014-10-30T13:58:37.1Z</time>
      </trkpt>
      <trkpt lat="47.81647" lon="6.6182">
        <ele>419</ele>
        <time>2014-10-30T13:58:39.1Z</time>
      </trkpt>
      <trkpt lat="47.81647" lon="6.6182">
        <ele>419</ele>
        <time>2014-10-30T13:58:41.1Z</time>
      </trkpt>
      <trkpt lat="47.81646" lon="6.6182">
        <ele>419</ele>
        <time>2014-10-30T13:58:44.1Z</time>
      </trkpt>
      <trkpt lat="47.81645" lon="6.61821">
        <ele>419</ele>
        <time>2014-10-30T13:58:46.1Z</time>
      </trkpt>
      <trkpt lat="47.81644" lon="6.61821">
        <ele>419</ele>
        <time>2014-10-30T13:58:48.1Z</time>
      </trkpt>
      <trkpt lat="47.81644" lon="6.61821">
        <ele>419</ele>
        <time>2014-10-30T13:58:51.1Z</time>
      </trkpt>
      <trkpt lat="47.81643" lon="6.6182">
        <ele>419</ele>
        <time>2014-10-30T13:58:54.1Z</time>
      </trkpt>
      <trkpt lat="47.81643" lon="6.61819">
        <ele>419</ele>
        <time>2014-10-30T13:58:57.1Z</time>
      </trkpt>
      <trkpt lat="47.81643" lon="6.61819">
        <ele>419</ele>
        <time>2014-10-30T13:58:59.1Z</time>
      </trkpt>
      <trkpt lat="47.81642" lon="6.61819">
        <ele>419</ele>
        <time>2014-10-30T13:59:01.1Z</time>
      </trkpt>
      <trkpt lat="47.81641" lon="6.61816">
        <ele>419</ele>
        <time>2014-10-30T13:59:04.1Z</time>
      </trkpt>
      <trkpt lat="47.81642" lon="6.61816">
        <ele>419</ele>
        <time>2014-10-30T13:59:06.1Z</time>
      </trkpt>
      <trkpt lat="47.81643" lon="6.61816">
        <ele>418</ele>
        <time>2014-10-30T13:59:08.1Z</time>
      </trkpt>
      <trkpt lat="47.81643" lon="6.61816">
        <ele>418</ele>
        <time>2014-10-30T13:59:10.1Z</time>
      </trkpt>
      <trkpt lat="47.81644" lon="6.61816">
        <ele>418</ele>
        <time>2014-10-30T13:59:13.1Z</time>
      </trkpt>
      <trkpt lat="47.81644" lon="6.61816">
        <ele>419</ele>
        <time>2014-10-30T13:59:16.1Z</time>
      </trkpt>
      <trkpt lat="47.81646" lon="6.61816">
        <ele>418</ele>
        <time>2014-10-30T13:59:19.1Z</time>
      </trkpt>
      <trkpt lat="47.81646" lon="6.61816">
        <ele>419</ele>
        <time>2014-10-30T13:59:22.1Z</time>
      </trkpt>
      <trkpt lat="47.81647" lon="6.61817">
        <ele>418</ele>
        <time>2014-10-30T13:59:24.1Z</time>
      </trkpt>
      <trkpt lat="47.81649" lon="6.61817">
        <ele>418</ele>
        <time>2014-10-30T13:59:27.1Z</time>
      </trkpt>
      <trkpt lat="47.8165" lon="6.61818">
        <ele>418</ele>
        <time>2014-10-30T13:59:29.1Z</time>
      </trkpt>
      <trkpt lat="47.81651" lon="6.61818">
        <ele>418</ele>
        <time>2014-10-30T13:59:31.1Z</time>
      </trkpt>
      <trkpt lat="47.81652" lon="6.61818">
        <ele>418</ele>
        <time>2014-10-30T13:59:34.1Z</time>
      </trkpt>
      <trkpt lat="47.81652" lon="6.61818">
        <ele>419</ele>
        <time>2014-10-30T13:59:37.1Z</time>
      </trkpt>
      <trkpt lat="47.81652" lon="6.61818">
        <ele>419</ele>
        <time>2014-10-30T13:59:41.1Z</time>
      </trkpt>
      <trkpt lat="47.81651" lon="6.61817">
        <ele>419</ele>
        <time>2014-10-30T13:59:44.1Z</time>
      </trkpt>
      <trkpt lat="47.8165" lon="6.61817">
        <ele>419</ele>
        <time>2014-10-30T13:59:47.1Z</time>
      </trkpt>
      <trkpt lat="47.8165" lon="6.61816">
        <ele>419</ele>
        <time>2014-10-30T13:59:50.1Z</time>
      </trkpt>
      <trkpt lat="47.81651" lon="6.61815">
        <ele>419</ele>
        <time>2014-10-30T13:59:53.1Z</time>
      </trkpt>
      <trkpt lat="47.81651" lon="6.61814">
        <ele>418</ele>
        <time>2014-10-30T13:59:55.1Z</time>
      </trkpt>
      <trkpt lat="47.81651" lon="6.61814">
        <ele>418</ele>
        <time>2014-10-30T13:59:57.1Z</time>
      </trkpt>
      <trkpt lat="47.81652" lon="6.61813">
        <ele>418</ele>
        <time>2014-10-30T13:59:59.1Z</time>
      </trkpt>
      <trkpt lat="47.81652" lon="6.61813">
        <ele>418</ele>
        <time>2014-10-30T14:00:01.1Z</time>
      </trkpt>
      <trkpt lat="47.81652" lon="6.61813">
        <ele>418</ele>
        <time>2014-10-30T14:00:03.1Z</time>
      </trkpt>
      <trkpt lat="47.81652" lon="6.61811">
        <ele>419</ele>
        <time>2014-10-30T14:00:06.1Z</time>
      </trkpt>
      <trkpt lat="47.81652" lon="6.6181">
        <ele>419</ele>
        <time>2014-10-30T14:00:09.1Z</time>
      </trkpt>
      <trkpt lat="47.81652" lon="6.6181">
        <ele>418</ele>
        <time>2014-10-30T14:00:11.1Z</time>
      </trkpt>
      <trkpt lat="47.81652" lon="6.61809">
        <ele>418</ele>
        <time>2014-10-30T14:00:13.1Z</time>
      </trkpt>
      <trkpt lat="47.81651" lon="6.61808">
        <ele>418</ele>
        <time>2014-10-30T14:00:16.1Z</time>
      </trkpt>
      <trkpt lat="47.8165" lon="6.61807">
        <ele>418</ele>
        <time>2014-10-30T14:00:19.1Z</time>
      </trkpt>
      <trkpt lat="47.81649" lon="6.61805">
        <ele>418</ele>
        <time>2014-10-30T14:00:22.1Z</time>
      </trkpt>
      <trkpt lat="47.81649" lon="6.61804">
        <ele>418</ele>
        <time>2014-10-30T14:00:24.1Z</time>
      </trkpt>
      <trkpt lat="47.81649" lon="6.61803">
        <ele>418</ele>
        <time>2014-10-30T14:00:26.1Z</time>
      </trkpt>
      <trkpt lat="47.81649" lon="6.61801">
        <ele>418</ele>
        <time>2014-10-30T14:00:29.1Z</time>
      </trkpt>
      <trkpt lat="47.81648" lon="6.61801">
        <ele>418</ele>
        <time>2014-10-30T14:00:31.1Z</time>
      </trkpt>
      <trkpt lat="47.81648" lon="6.618">
        <ele>418</ele>
        <time>2014-10-30T14:00:33.1Z</time>
      </trkpt>
      <trkpt lat="47.81649" lon="6.618">
        <ele>418</ele>
        <time>2014-10-30T14:00:36.1Z</time>
      </trkpt>
      <trkpt lat="47.81649" lon="6.61799">
        <ele>418</ele>
        <time>2014-10-30T14:00:39.1Z</time>
      </trkpt>
      <trkpt lat="47.81648" lon="6.61799">
        <ele>418</ele>
        <time>2014-10-30T14:00:42.1Z</time>
      </trkpt>
      <trkpt lat="47.81647" lon="6.61799">
        <ele>418</ele>
        <time>2014-10-30T14:00:44.1Z</time>
      </trkpt>
      <trkpt lat="47.81648" lon="6.618">
        <ele>418</ele>
        <time>2014-10-30T14:00:46.1Z</time>
      </trkpt>
      <trkpt lat="47.81648" lon="6.618">
        <ele>418</ele>
        <time>2014-10-30T14:00:49.1Z</time>
      </trkpt>
      <trkpt lat="47.81648" lon="6.618">
        <ele>418</ele>
        <time>2014-10-30T14:00:51.1Z</time>
      </trkpt>
      <trkpt lat="47.81648" lon="6.61801">
        <ele>418</ele>
        <time>2014-10-30T14:00:54.1Z</time>
      </trkpt>
      <trkpt lat="47.81649" lon="6.61801">
        <ele>418</ele>
        <time>2014-10-30T14:00:56.1Z</time>
      </trkpt>
      <trkpt lat="47.81649" lon="6.61802">
        <ele>418</ele>
        <time>2014-10-30T14:00:58.1Z</time>
      </trkpt>
      <trkpt lat="47.8165" lon="6.61802">
        <ele>418</ele>
        <time>2014-10-30T14:01:00.1Z</time>
      </trkpt>
      <trkpt lat="47.81651" lon="6.61802">
        <ele>419</ele>
        <time>2014-10-30T14:01:03.1Z</time>
      </trkpt>
      <trkpt lat="47.81651" lon="6.61802">
        <ele>419</ele>
        <time>2014-10-30T14:01:05.1Z</time>
      </trkpt>
      <trkpt lat="47.81651" lon="6.61802">
        <ele>419</ele>
        <time>2014-10-30T14:01:08.1Z</time>
      </trkpt>
      <trkpt lat="47.81651" lon="6.61803">
        <ele>419</ele>
        <time>2014-10-30T14:01:10.1Z</time>
      </trkpt>
      <trkpt lat="47.8165" lon="6.61803">
        <ele>419</ele>
        <time>2014-10-30T14:01:13.1Z</time>
      </trkpt>
      <trkpt lat="47.81649" lon="6.61803">
        <ele>419</ele>
        <time>2014-10-30T14:01:16.1Z</time>
      </trkpt>
      <trkpt lat="47.81649" lon="6.61803">
        <ele>419</ele>
        <time>2014-10-30T14:01:18.1Z</time>
      </trkpt>
      <trkpt lat="47.81648" lon="6.61803">
        <ele>419</ele>
        <time>2014-10-30T14:01:21.1Z</time>
      </trkpt>
      <trkpt lat="47.81648" lon="6.61803">
        <ele>419</ele>
        <time>2014-10-30T14:01:23.1Z</time>
      </trkpt>
      <trkpt lat="47.81647" lon="6.61803">
        <ele>419</ele>
        <time>2014-10-30T14:01:25.1Z</time>
      </trkpt>
      <trkpt lat="47.81646" lon="6.61803">
        <ele>419</ele>
        <time>2014-10-30T14:01:28.1Z</time>
      </trkpt>
      <trkpt lat="47.81645" lon="6.61803">
        <ele>419</ele>
        <time>2014-10-30T14:01:30.1Z</time>
      </trkpt>
      <trkpt lat="47.81644" lon="6.61803">
        <ele>419</ele>
        <time>2014-10-30T14:01:33.1Z</time>
      </trkpt>
      <trkpt lat="47.81643" lon="6.61803">
        <ele>419</ele>
        <time>2014-10-30T14:01:36.1Z</time>
      </trkpt>
      <trkpt lat="47.81643" lon="6.61804">
        <ele>419</ele>
        <time>2014-10-30T14:01:39.1Z</time>
      </trkpt>
      <trkpt lat="47.8164" lon="6.618">
        <ele>419</ele>
        <time>2014-10-30T14:01:42.1Z</time>
      </trkpt>
      <trkpt lat="47.81638" lon="6.61792">
        <ele>418</ele>
        <time>2014-10-30T14:01:45.1Z</time>
      </trkpt>
      <trkpt lat="47.81636" lon="6.61785">
        <ele>418</ele>
        <time>2014-10-30T14:01:47.1Z</time>
      </trkpt>
      <trkpt lat="47.81635" lon="6.61776">
        <ele>418</ele>
        <time>2014-10-30T14:01:50.1Z</time>
      </trkpt>
      <trkpt lat="47.81633" lon="6.61768">
        <ele>419</ele>
        <time>2014-10-30T14:01:53.1Z</time>
      </trkpt>
      <trkpt lat="47.81631" lon="6.61763">
        <ele>419</ele>
        <time>2014-10-30T14:01:55.1Z</time>
      </trkpt>
      <trkpt lat="47.81628" lon="6.61754">
        <ele>419</ele>
        <time>2014-10-30T14:01:58.1Z</time>
      </trkpt>
      <trkpt lat="47.81626" lon="6.61746">
        <ele>419</ele>
        <time>2014-10-30T14:02:00.1Z</time>
      </trkpt>
      <trkpt lat="47.81623" lon="6.61739">
        <ele>419</ele>
        <time>2014-10-30T14:02:02.1Z</time>
      </trkpt>
      <trkpt lat="47.8162" lon="6.61726">
        <ele>419</ele>
        <time>2014-10-30T14:02:05.1Z</time>
      </trkpt>
      <trkpt lat="47.81617" lon="6.61717">
        <ele>419</ele>
        <time>2014-10-30T14:02:07.1Z</time>
      </trkpt>
      <trkpt lat="47.81613" lon="6.61702">
        <ele>419</ele>
        <time>2014-10-30T14:02:10.1Z</time>
      </trkpt>
      <trkpt lat="47.81609" lon="6.61691">
        <ele>419</ele>
        <time>2014-10-30T14:02:12.1Z</time>
      </trkpt>
      <trkpt lat="47.81602" lon="6.61672">
        <ele>418</ele>
        <time>2014-10-30T14:02:15.1Z</time>
      </trkpt>
      <trkpt lat="47.81599" lon="6.61659">
        <ele>418</ele>
        <time>2014-10-30T14:02:17.1Z</time>
      </trkpt>
      <trkpt lat="47.81594" lon="6.6164">
        <ele>418</ele>
        <time>2014-10-30T14:02:20.1Z</time>
      </trkpt>
      <trkpt lat="47.81591" lon="6.61627">
        <ele>419</ele>
        <time>2014-10-30T14:02:22.1Z</time>
      </trkpt>
      <trkpt lat="47.81588" lon="6.61615">
        <ele>419</ele>
        <time>2014-10-30T14:02:24.1Z</time>
      </trkpt>
      <trkpt lat="47.81578" lon="6.61595">
        <ele>419</ele>
        <time>2014-10-30T14:02:27.1Z</time>
      </trkpt>
      <trkpt lat="47.81571" lon="6.61579">
        <ele>418</ele>
        <time>2014-10-30T14:02:29.1Z</time>
      </trkpt>
      <trkpt lat="47.81562" lon="6.61561">
        <ele>416</ele>
        <time>2014-10-30T14:02:31.1Z</time>
      </trkpt>
      <trkpt lat="47.81552" lon="6.61542">
        <ele>415</ele>
        <time>2014-10-30T14:02:33.1Z</time>
      </trkpt>
      <trkpt lat="47.81542" lon="6.61522">
        <ele>413</ele>
        <time>2014-10-30T14:02:35.1Z</time>
      </trkpt>
      <trkpt lat="47.81532" lon="6.61501">
        <ele>412</ele>
        <time>2014-10-30T14:02:37.1Z</time>
      </trkpt>
      <trkpt lat="47.81516" lon="6.61472">
        <ele>411</ele>
        <time>2014-10-30T14:02:40.1Z</time>
      </trkpt>
      <trkpt lat="47.815" lon="6.61443">
        <ele>410</ele>
        <time>2014-10-30T14:02:43.1Z</time>
      </trkpt>
      <trkpt lat="47.8149" lon="6.61423">
        <ele>410</ele>
        <time>2014-10-30T14:02:45.1Z</time>
      </trkpt>
      <trkpt lat="47.81477" lon="6.61394">
        <ele>409</ele>
        <time>2014-10-30T14:02:48.1Z</time>
      </trkpt>
      <trkpt lat="47.81463" lon="6.61368">
        <ele>409</ele>
        <time>2014-10-30T14:02:51.1Z</time>
      </trkpt>
      <trkpt lat="47.81455" lon="6.61351">
        <ele>410</ele>
        <time>2014-10-30T14:02:53.1Z</time>
      </trkpt>
      <trkpt lat="47.81447" lon="6.61335">
        <ele>410</ele>
        <time>2014-10-30T14:02:55.1Z</time>
      </trkpt>
      <trkpt lat="47.81435" lon="6.61311">
        <ele>409</ele>
        <time>2014-10-30T14:02:58.1Z</time>
      </trkpt>
      <trkpt lat="47.81426" lon="6.61295">
        <ele>409</ele>
        <time>2014-10-30T14:03:00.1Z</time>
      </trkpt>
      <trkpt lat="47.81413" lon="6.61274">
        <ele>409</ele>
        <time>2014-10-30T14:03:03.1Z</time>
      </trkpt>
      <trkpt lat="47.81404" lon="6.61262">
        <ele>410</ele>
        <time>2014-10-30T14:03:05.1Z</time>
      </trkpt>
      <trkpt lat="47.81392" lon="6.61243">
        <ele>411</ele>
        <time>2014-10-30T14:03:08.1Z</time>
      </trkpt>
      <trkpt lat="47.81384" lon="6.61232">
        <ele>411</ele>
        <time>2014-10-30T14:03:10.1Z</time>
      </trkpt>
      <trkpt lat="47.81377" lon="6.61221">
        <ele>411</ele>
        <time>2014-10-30T14:03:13.1Z</time>
      </trkpt>
      <trkpt lat="47.81374" lon="6.61216">
        <ele>411</ele>
        <time>2014-10-30T14:03:15.1Z</time>
      </trkpt>
      <trkpt lat="47.81372" lon="6.61212">
        <ele>411</ele>
        <time>2014-10-30T14:03:17.1Z</time>
      </trkpt>
      <trkpt lat="47.8137" lon="6.61206">
        <ele>411</ele>
        <time>2014-10-30T14:03:20.1Z</time>
      </trkpt>
      <trkpt lat="47.81368" lon="6.61205">
        <ele>412</ele>
        <time>2014-10-30T14:03:23.1Z</time>
      </trkpt>
      <trkpt lat="47.81367" lon="6.61207">
        <ele>412</ele>
        <time>2014-10-30T14:03:25.1Z</time>
      </trkpt>
      <trkpt lat="47.81369" lon="6.61211">
        <ele>411</ele>
        <time>2014-10-30T14:03:28.1Z</time>
      </trkpt>
      <trkpt lat="47.81371" lon="6.61214">
        <ele>411</ele>
        <time>2014-10-30T14:03:30.1Z</time>
      </trkpt>
      <trkpt lat="47.81372" lon="6.61216">
        <ele>411</ele>
        <time>2014-10-30T14:03:32.1Z</time>
      </trkpt>
      <trkpt lat="47.81372" lon="6.61217">
        <ele>411</ele>
        <time>2014-10-30T14:03:35.1Z</time>
      </trkpt>
      <trkpt lat="47.81372" lon="6.61218">
        <ele>411</ele>
        <time>2014-10-30T14:03:38.1Z</time>
      </trkpt>
      <trkpt lat="47.81372" lon="6.61218">
        <ele>411</ele>
        <time>2014-10-30T14:03:41.1Z</time>
      </trkpt>
      <trkpt lat="47.81372" lon="6.61219">
        <ele>411</ele>
        <time>2014-10-30T14:03:43.1Z</time>
      </trkpt>
      <trkpt lat="47.81372" lon="6.61219">
        <ele>411</ele>
        <time>2014-10-30T14:03:46.1Z</time>
      </trkpt>
      <trkpt lat="47.81373" lon="6.61219">
        <ele>411</ele>
        <time>2014-10-30T14:03:48.1Z</time>
      </trkpt>
      <trkpt lat="47.81374" lon="6.61219">
        <ele>411</ele>
        <time>2014-10-30T14:03:51.1Z</time>
      </trkpt>
      <trkpt lat="47.81374" lon="6.61219">
        <ele>411</ele>
        <time>2014-10-30T14:03:54.1Z</time>
      </trkpt>
      <trkpt lat="47.81375" lon="6.61219">
        <ele>411</ele>
        <time>2014-10-30T14:03:56.1Z</time>
      </trkpt>
      <trkpt lat="47.81376" lon="6.61218">
        <ele>411</ele>
        <time>2014-10-30T14:03:58.1Z</time>
      </trkpt>
      <trkpt lat="47.81377" lon="6.61216">
        <ele>411</ele>
        <time>2014-10-30T14:04:00.1Z</time>
      </trkpt>
      <trkpt lat="47.81377" lon="6.61213">
        <ele>411</ele>
        <time>2014-10-30T14:04:03.1Z</time>
      </trkpt>
      <trkpt lat="47.81376" lon="6.61212">
        <ele>411</ele>
        <time>2014-10-30T14:04:05.1Z</time>
      </trkpt>
      <trkpt lat="47.81374" lon="6.61211">
        <ele>411</ele>
        <time>2014-10-30T14:04:07.1Z</time>
      </trkpt>
      <trkpt lat="47.81374" lon="6.61209">
        <ele>411</ele>
        <time>2014-10-30T14:04:09.1Z</time>
      </trkpt>
      <trkpt lat="47.81373" lon="6.61208">
        <ele>412</ele>
        <time>2014-10-30T14:04:11.1Z</time>
      </trkpt>
      <trkpt lat="47.81371" lon="6.61205">
        <ele>412</ele>
        <time>2014-10-30T14:04:14.1Z</time>
      </trkpt>
      <trkpt lat="47.81369" lon="6.61202">
        <ele>412</ele>
        <time>2014-10-30T14:04:17.1Z</time>
      </trkpt>
      <trkpt lat="47.81368" lon="6.61199">
        <ele>412</ele>
        <time>2014-10-30T14:04:20.1Z</time>
      </trkpt>
      <trkpt lat="47.81366" lon="6.61195">
        <ele>411</ele>
        <time>2014-10-30T14:04:22.1Z</time>
      </trkpt>
      <trkpt lat="47.81363" lon="6.61189">
        <ele>411</ele>
        <time>2014-10-30T14:04:25.1Z</time>
      </trkpt>
      <trkpt lat="47.81359" lon="6.61185">
        <ele>411</ele>
        <time>2014-10-30T14:04:27.1Z</time>
      </trkpt>
      <trkpt lat="47.81356" lon="6.61179">
        <ele>411</ele>
        <time>2014-10-30T14:04:29.1Z</time>
      </trkpt>
      <trkpt lat="47.81352" lon="6.6117">
        <ele>411</ele>
        <time>2014-10-30T14:04:32.1Z</time>
      </trkpt>
      <trkpt lat="47.81347" lon="6.61159">
        <ele>412</ele>
        <time>2014-10-30T14:04:35.1Z</time>
      </trkpt>
      <trkpt lat="47.81341" lon="6.61149">
        <ele>412</ele>
        <time>2014-10-30T14:04:38.1Z</time>
      </trkpt>
      <trkpt lat="47.81334" lon="6.6114">
        <ele>412</ele>
        <time>2014-10-30T14:04:41.1Z</time>
      </trkpt>
      <trkpt lat="47.8133" lon="6.61134">
        <ele>412</ele>
        <time>2014-10-30T14:04:43.1Z</time>
      </trkpt>
      <trkpt lat="47.81323" lon="6.61123">
        <ele>412</ele>
        <time>2014-10-30T14:04:46.1Z</time>
      </trkpt>
      <trkpt lat="47.81316" lon="6.61112">
        <ele>412</ele>
        <time>2014-10-30T14:04:49.1Z</time>
      </trkpt>
      <trkpt lat="47.81311" lon="6.61102">
        <ele>412</ele>
        <time>2014-10-30T14:04:52.1Z</time>
      </trkpt>
      <trkpt lat="47.81304" lon="6.61091">
        <ele>412</ele>
        <time>2014-10-30T14:04:55.1Z</time>
      </trkpt>
      <trkpt lat="47.81299" lon="6.61084">
        <ele>412</ele>
        <time>2014-10-30T14:04:57.1Z</time>
      </trkpt>
      <trkpt lat="47.81291" lon="6.61074">
        <ele>412</ele>
        <time>2014-10-30T14:05:00.1Z</time>
      </trkpt>
      <trkpt lat="47.81285" lon="6.61066">
        <ele>411</ele>
        <time>2014-10-30T14:05:02.1Z</time>
      </trkpt>
      <trkpt lat="47.81276" lon="6.61054">
        <ele>411</ele>
        <time>2014-10-30T14:05:05.1Z</time>
      </trkpt>
      <trkpt lat="47.81269" lon="6.61047">
        <ele>410</ele>
        <time>2014-10-30T14:05:07.1Z</time>
      </trkpt>
      <trkpt lat="47.8126" lon="6.61034">
        <ele>410</ele>
        <time>2014-10-30T14:05:10.1Z</time>
      </trkpt>
      <trkpt lat="47.8125" lon="6.61023">
        <ele>410</ele>
        <time>2014-10-30T14:05:13.1Z</time>
      </trkpt>
      <trkpt lat="47.81243" lon="6.61014">
        <ele>410</ele>
        <time>2014-10-30T14:05:15.1Z</time>
      </trkpt>
      <trkpt lat="47.81233" lon="6.61001">
        <ele>410</ele>
        <time>2014-10-30T14:05:18.1Z</time>
      </trkpt>
      <trkpt lat="47.81226" lon="6.60993">
        <ele>410</ele>
        <time>2014-10-30T14:05:20.1Z</time>
      </trkpt>
      <trkpt lat="47.81216" lon="6.60981">
        <ele>410</ele>
        <time>2014-10-30T14:05:23.1Z</time>
      </trkpt>
      <trkpt lat="47.8121" lon="6.60973">
        <ele>410</ele>
        <time>2014-10-30T14:05:25.1Z</time>
      </trkpt>
      <trkpt lat="47.81203" lon="6.60964">
        <ele>410</ele>
        <time>2014-10-30T14:05:27.1Z</time>
      </trkpt>
      <trkpt lat="47.81193" lon="6.60949">
        <ele>410</ele>
        <time>2014-10-30T14:05:30.1Z</time>
      </trkpt>
      <trkpt lat="47.81182" lon="6.60935">
        <ele>409</ele>
        <time>2014-10-30T14:05:33.1Z</time>
      </trkpt>
      <trkpt lat="47.81171" lon="6.60919">
        <ele>407</ele>
        <time>2014-10-30T14:05:36.1Z</time>
      </trkpt>
      <trkpt lat="47.81163" lon="6.60908">
        <ele>406</ele>
        <time>2014-10-30T14:05:38.1Z</time>
      </trkpt>
      <trkpt lat="47.81152" lon="6.60892">
        <ele>406</ele>
        <time>2014-10-30T14:05:41.1Z</time>
      </trkpt>
      <trkpt lat="47.81141" lon="6.60878">
        <ele>406</ele>
        <time>2014-10-30T14:05:44.1Z</time>
      </trkpt>
      <trkpt lat="47.81134" lon="6.60868">
        <ele>406</ele>
        <time>2014-10-30T14:05:46.1Z</time>
      </trkpt>
      <trkpt lat="47.81125" lon="6.60854">
        <ele>406</ele>
        <time>2014-10-30T14:05:49.1Z</time>
      </trkpt>
      <trkpt lat="47.81115" lon="6.60841">
        <ele>406</ele>
        <time>2014-10-30T14:05:52.1Z</time>
      </trkpt>
      <trkpt lat="47.81109" lon="6.60832">
        <ele>407</ele>
        <time>2014-10-30T14:05:54.1Z</time>
      </trkpt>
      <trkpt lat="47.81102" lon="6.60822">
        <ele>407</ele>
        <time>2014-10-30T14:05:56.1Z</time>
      </trkpt>
      <trkpt lat="47.8109" lon="6.60806">
        <ele>406</ele>
        <time>2014-10-30T14:05:59.1Z</time>
      </trkpt>
      <trkpt lat="47.81083" lon="6.60796">
        <ele>406</ele>
        <time>2014-10-30T14:06:01.1Z</time>
      </trkpt>
      <trkpt lat="47.81071" lon="6.6078">
        <ele>405</ele>
        <time>2014-10-30T14:06:04.1Z</time>
      </trkpt>
      <trkpt lat="47.81059" lon="6.60765">
        <ele>405</ele>
        <time>2014-10-30T14:06:07.1Z</time>
      </trkpt>
      <trkpt lat="47.81051" lon="6.60754">
        <ele>405</ele>
        <time>2014-10-30T14:06:09.1Z</time>
      </trkpt>
      <trkpt lat="47.81039" lon="6.60737">
        <ele>404</ele>
        <time>2014-10-30T14:06:12.1Z</time>
      </trkpt>
      <trkpt lat="47.81026" lon="6.60719">
        <ele>404</ele>
        <time>2014-10-30T14:06:15.1Z</time>
      </trkpt>
      <trkpt lat="47.81017" lon="6.60707">
        <ele>403</ele>
        <time>2014-10-30T14:06:17.1Z</time>
      </trkpt>
      <trkpt lat="47.81002" lon="6.60686">
        <ele>403</ele>
        <time>2014-10-30T14:06:20.1Z</time>
      </trkpt>
      <trkpt lat="47.80987" lon="6.60666">
        <ele>402</ele>
        <time>2014-10-30T14:06:23.1Z</time>
      </trkpt>
      <trkpt lat="47.80976" lon="6.60654">
        <ele>402</ele>
        <time>2014-10-30T14:06:25.1Z</time>
      </trkpt>
      <trkpt lat="47.80965" lon="6.6064">
        <ele>402</ele>
        <time>2014-10-30T14:06:27.1Z</time>
      </trkpt>
      <trkpt lat="47.80954" lon="6.60626">
        <ele>401</ele>
        <time>2014-10-30T14:06:29.1Z</time>
      </trkpt>
      <trkpt lat="47.80937" lon="6.60604">
        <ele>401</ele>
        <time>2014-10-30T14:06:32.1Z</time>
      </trkpt>
      <trkpt lat="47.80926" lon="6.60589">
        <ele>400</ele>
        <time>2014-10-30T14:06:34.1Z</time>
      </trkpt>
      <trkpt lat="47.80909" lon="6.60566">
        <ele>399</ele>
        <time>2014-10-30T14:06:37.1Z</time>
      </trkpt>
      <trkpt lat="47.80891" lon="6.60543">
        <ele>398</ele>
        <time>2014-10-30T14:06:40.1Z</time>
      </trkpt>
      <trkpt lat="47.80879" lon="6.60527">
        <ele>398</ele>
        <time>2014-10-30T14:06:42.1Z</time>
      </trkpt>
      <trkpt lat="47.80862" lon="6.60504">
        <ele>397</ele>
        <time>2014-10-30T14:06:45.1Z</time>
      </trkpt>
      <trkpt lat="47.80851" lon="6.60489">
        <ele>397</ele>
        <time>2014-10-30T14:06:47.1Z</time>
      </trkpt>
      <trkpt lat="47.80836" lon="6.60469">
        <ele>396</ele>
        <time>2014-10-30T14:06:50.1Z</time>
      </trkpt>
      <trkpt lat="47.8083" lon="6.60459">
        <ele>396</ele>
        <time>2014-10-30T14:06:52.1Z</time>
      </trkpt>
      <trkpt lat="47.80824" lon="6.60451">
        <ele>395</ele>
        <time>2014-10-30T14:06:54.1Z</time>
      </trkpt>
      <trkpt lat="47.80818" lon="6.60448">
        <ele>395</ele>
        <time>2014-10-30T14:06:56.1Z</time>
      </trkpt>
      <trkpt lat="47.80811" lon="6.60448">
        <ele>395</ele>
        <time>2014-10-30T14:06:58.1Z</time>
      </trkpt>
      <trkpt lat="47.80801" lon="6.60445">
        <ele>395</ele>
        <time>2014-10-30T14:07:01.1Z</time>
      </trkpt>
      <trkpt lat="47.80794" lon="6.60444">
        <ele>395</ele>
        <time>2014-10-30T14:07:03.1Z</time>
      </trkpt>
      <trkpt lat="47.80782" lon="6.60443">
        <ele>394</ele>
        <time>2014-10-30T14:07:06.1Z</time>
      </trkpt>
      <trkpt lat="47.80769" lon="6.60441">
        <ele>393</ele>
        <time>2014-10-30T14:07:09.1Z</time>
      </trkpt>
      <trkpt lat="47.8076" lon="6.6044">
        <ele>394</ele>
        <time>2014-10-30T14:07:11.1Z</time>
      </trkpt>
      <trkpt lat="47.80745" lon="6.60436">
        <ele>393</ele>
        <time>2014-10-30T14:07:14.1Z</time>
      </trkpt>
      <trkpt lat="47.8073" lon="6.60431">
        <ele>393</ele>
        <time>2014-10-30T14:07:17.1Z</time>
      </trkpt>
      <trkpt lat="47.8072" lon="6.60428">
        <ele>392</ele>
        <time>2014-10-30T14:07:19.1Z</time>
      </trkpt>
      <trkpt lat="47.80708" lon="6.60424">
        <ele>392</ele>
        <time>2014-10-30T14:07:22.1Z</time>
      </trkpt>
      <trkpt lat="47.80696" lon="6.60419">
        <ele>390</ele>
        <time>2014-10-30T14:07:25.1Z</time>
      </trkpt>
      <trkpt lat="47.8069" lon="6.60415">
        <ele>390</ele>
        <time>2014-10-30T14:07:27.1Z</time>
      </trkpt>
      <trkpt lat="47.80684" lon="6.60407">
        <ele>389</ele>
        <time>2014-10-30T14:07:30.1Z</time>
      </trkpt>
      <trkpt lat="47.80679" lon="6.60399">
        <ele>388</ele>
        <time>2014-10-30T14:07:32.1Z</time>
      </trkpt>
      <trkpt lat="47.80672" lon="6.6039">
        <ele>388</ele>
        <time>2014-10-30T14:07:34.1Z</time>
      </trkpt>
      <trkpt lat="47.80664" lon="6.60381">
        <ele>388</ele>
        <time>2014-10-30T14:07:36.1Z</time>
      </trkpt>
      <trkpt lat="47.8065" lon="6.60372">
        <ele>387</ele>
        <time>2014-10-30T14:07:39.1Z</time>
      </trkpt>
      <trkpt lat="47.80634" lon="6.60366">
        <ele>386</ele>
        <time>2014-10-30T14:07:42.1Z</time>
      </trkpt>
      <trkpt lat="47.80623" lon="6.60362">
        <ele>385</ele>
        <time>2014-10-30T14:07:44.1Z</time>
      </trkpt>
      <trkpt lat="47.80606" lon="6.60354">
        <ele>383</ele>
        <time>2014-10-30T14:07:47.1Z</time>
      </trkpt>
      <trkpt lat="47.80591" lon="6.60359">
        <ele>382</ele>
        <time>2014-10-30T14:07:50.1Z</time>
      </trkpt>
      <trkpt lat="47.80575" lon="6.6037">
        <ele>381</ele>
        <time>2014-10-30T14:07:53.1Z</time>
      </trkpt>
      <trkpt lat="47.80564" lon="6.60376">
        <ele>381</ele>
        <time>2014-10-30T14:07:55.1Z</time>
      </trkpt>
      <trkpt lat="47.80551" lon="6.60378">
        <ele>380</ele>
        <time>2014-10-30T14:07:58.1Z</time>
      </trkpt>
      <trkpt lat="47.8054" lon="6.60376">
        <ele>380</ele>
        <time>2014-10-30T14:08:01.1Z</time>
      </trkpt>
      <trkpt lat="47.80533" lon="6.60366">
        <ele>381</ele>
        <time>2014-10-30T14:08:04.1Z</time>
      </trkpt>
      <trkpt lat="47.80527" lon="6.60359">
        <ele>381</ele>
        <time>2014-10-30T14:08:07.1Z</time>
      </trkpt>
      <trkpt lat="47.80523" lon="6.60352">
        <ele>382</ele>
        <time>2014-10-30T14:08:10.1Z</time>
      </trkpt>
      <trkpt lat="47.80519" lon="6.60347">
        <ele>382</ele>
        <time>2014-10-30T14:08:12.1Z</time>
      </trkpt>
      <trkpt lat="47.80509" lon="6.60333">
        <ele>382</ele>
        <time>2014-10-30T14:08:15.1Z</time>
      </trkpt>
      <trkpt lat="47.80496" lon="6.60317">
        <ele>381</ele>
        <time>2014-10-30T14:08:18.1Z</time>
      </trkpt>
      <trkpt lat="47.80482" lon="6.60301">
        <ele>380</ele>
        <time>2014-10-30T14:08:21.1Z</time>
      </trkpt>
      <trkpt lat="47.80465" lon="6.60291">
        <ele>380</ele>
        <time>2014-10-30T14:08:24.1Z</time>
      </trkpt>
      <trkpt lat="47.80448" lon="6.60282">
        <ele>380</ele>
        <time>2014-10-30T14:08:27.1Z</time>
      </trkpt>
      <trkpt lat="47.80437" lon="6.60277">
        <ele>380</ele>
        <time>2014-10-30T14:08:29.1Z</time>
      </trkpt>
      <trkpt lat="47.8042" lon="6.60271">
        <ele>380</ele>
        <time>2014-10-30T14:08:32.1Z</time>
      </trkpt>
      <trkpt lat="47.80408" lon="6.60267">
        <ele>381</ele>
        <time>2014-10-30T14:08:34.1Z</time>
      </trkpt>
      <trkpt lat="47.80392" lon="6.60265">
        <ele>381</ele>
        <time>2014-10-30T14:08:37.1Z</time>
      </trkpt>
      <trkpt lat="47.80381" lon="6.60265">
        <ele>380</ele>
        <time>2014-10-30T14:08:39.1Z</time>
      </trkpt>
      <trkpt lat="47.8037" lon="6.60268">
        <ele>380</ele>
        <time>2014-10-30T14:08:41.1Z</time>
      </trkpt>
      <trkpt lat="47.80352" lon="6.60272">
        <ele>380</ele>
        <time>2014-10-30T14:08:44.1Z</time>
      </trkpt>
      <trkpt lat="47.80334" lon="6.60269">
        <ele>379</ele>
        <time>2014-10-30T14:08:47.1Z</time>
      </trkpt>
      <trkpt lat="47.80315" lon="6.60262">
        <ele>379</ele>
        <time>2014-10-30T14:08:50.1Z</time>
      </trkpt>
      <trkpt lat="47.80302" lon="6.60257">
        <ele>378</ele>
        <time>2014-10-30T14:08:52.1Z</time>
      </trkpt>
      <trkpt lat="47.80289" lon="6.60253">
        <ele>378</ele>
        <time>2014-10-30T14:08:54.1Z</time>
      </trkpt>
      <trkpt lat="47.8027" lon="6.60249">
        <ele>377</ele>
        <time>2014-10-30T14:08:57.1Z</time>
      </trkpt>
      <trkpt lat="47.80249" lon="6.60249">
        <ele>376</ele>
        <time>2014-10-30T14:09:00.1Z</time>
      </trkpt>
      <trkpt lat="47.80225" lon="6.60244">
        <ele>374</ele>
        <time>2014-10-30T14:09:03.1Z</time>
      </trkpt>
      <trkpt lat="47.80199" lon="6.60249">
        <ele>373</ele>
        <time>2014-10-30T14:09:06.1Z</time>
      </trkpt>
      <trkpt lat="47.80178" lon="6.60267">
        <ele>372</ele>
        <time>2014-10-30T14:09:09.1Z</time>
      </trkpt>
      <trkpt lat="47.80165" lon="6.60265">
        <ele>371</ele>
        <time>2014-10-30T14:09:11.1Z</time>
      </trkpt>
      <trkpt lat="47.80152" lon="6.60259">
        <ele>371</ele>
        <time>2014-10-30T14:09:13.1Z</time>
      </trkpt>
      <trkpt lat="47.80131" lon="6.60252">
        <ele>371</ele>
        <time>2014-10-30T14:09:16.1Z</time>
      </trkpt>
      <trkpt lat="47.80111" lon="6.60238">
        <ele>370</ele>
        <time>2014-10-30T14:09:19.1Z</time>
      </trkpt>
      <trkpt lat="47.80098" lon="6.6022">
        <ele>369</ele>
        <time>2014-10-30T14:09:21.1Z</time>
      </trkpt>
      <trkpt lat="47.80077" lon="6.6019">
        <ele>366</ele>
        <time>2014-10-30T14:09:24.1Z</time>
      </trkpt>
      <trkpt lat="47.80064" lon="6.60169">
        <ele>364</ele>
        <time>2014-10-30T14:09:26.1Z</time>
      </trkpt>
      <trkpt lat="47.80054" lon="6.60146">
        <ele>363</ele>
        <time>2014-10-30T14:09:28.1Z</time>
      </trkpt>
      <trkpt lat="47.80044" lon="6.60122">
        <ele>362</ele>
        <time>2014-10-30T14:09:30.1Z</time>
      </trkpt>
      <trkpt lat="47.80028" lon="6.60087">
        <ele>361</ele>
        <time>2014-10-30T14:09:33.1Z</time>
      </trkpt>
      <trkpt lat="47.80013" lon="6.60057">
        <ele>360</ele>
        <time>2014-10-30T14:09:36.1Z</time>
      </trkpt>
      <trkpt lat="47.80003" lon="6.60038">
        <ele>359</ele>
        <time>2014-10-30T14:09:38.1Z</time>
      </trkpt>
      <trkpt lat="47.79995" lon="6.60018">
        <ele>359</ele>
        <time>2014-10-30T14:09:40.1Z</time>
      </trkpt>
      <trkpt lat="47.79983" lon="6.59989">
        <ele>359</ele>
        <time>2014-10-30T14:09:43.1Z</time>
      </trkpt>
      <trkpt lat="47.79974" lon="6.59959">
        <ele>359</ele>
        <time>2014-10-30T14:09:46.1Z</time>
      </trkpt>
      <trkpt lat="47.79967" lon="6.59939">
        <ele>358</ele>
        <time>2014-10-30T14:09:48.1Z</time>
      </trkpt>
      <trkpt lat="47.7995" lon="6.59912">
        <ele>357</ele>
        <time>2014-10-30T14:09:51.1Z</time>
      </trkpt>
      <trkpt lat="47.79927" lon="6.59884">
        <ele>354</ele>
        <time>2014-10-30T14:09:54.1Z</time>
      </trkpt>
      <trkpt lat="47.79908" lon="6.59847">
        <ele>351</ele>
        <time>2014-10-30T14:09:57.1Z</time>
      </trkpt>
      <trkpt lat="47.799" lon="6.59817">
        <ele>348</ele>
        <time>2014-10-30T14:09:59.1Z</time>
      </trkpt>
      <trkpt lat="47.79891" lon="6.5977">
        <ele>346</ele>
        <time>2014-10-30T14:10:02.1Z</time>
      </trkpt>
      <trkpt lat="47.79876" lon="6.5973">
        <ele>344</ele>
        <time>2014-10-30T14:10:05.1Z</time>
      </trkpt>
      <trkpt lat="47.79862" lon="6.59706">
        <ele>344</ele>
        <time>2014-10-30T14:10:07.1Z</time>
      </trkpt>
      <trkpt lat="47.79848" lon="6.59684">
        <ele>344</ele>
        <time>2014-10-30T14:10:09.1Z</time>
      </trkpt>
      <trkpt lat="47.79832" lon="6.59649">
        <ele>344</ele>
        <time>2014-10-30T14:10:12.1Z</time>
      </trkpt>
      <trkpt lat="47.79813" lon="6.59619">
        <ele>344</ele>
        <time>2014-10-30T14:10:15.1Z</time>
      </trkpt>
      <trkpt lat="47.79792" lon="6.59594">
        <ele>343</ele>
        <time>2014-10-30T14:10:18.1Z</time>
      </trkpt>
      <trkpt lat="47.79779" lon="6.59576">
        <ele>343</ele>
        <time>2014-10-30T14:10:20.1Z</time>
      </trkpt>
      <trkpt lat="47.79761" lon="6.5955">
        <ele>343</ele>
        <time>2014-10-30T14:10:23.1Z</time>
      </trkpt>
      <trkpt lat="47.79751" lon="6.59534">
        <ele>342</ele>
        <time>2014-10-30T14:10:25.1Z</time>
      </trkpt>
      <trkpt lat="47.79739" lon="6.59509">
        <ele>341</ele>
        <time>2014-10-30T14:10:28.1Z</time>
      </trkpt>
      <trkpt lat="47.79733" lon="6.59481">
        <ele>341</ele>
        <time>2014-10-30T14:10:31.1Z</time>
      </trkpt>
      <trkpt lat="47.79731" lon="6.59453">
        <ele>341</ele>
        <time>2014-10-30T14:10:34.1Z</time>
      </trkpt>
      <trkpt lat="47.79724" lon="6.59429">
        <ele>341</ele>
        <time>2014-10-30T14:10:37.1Z</time>
      </trkpt>
      <trkpt lat="47.79714" lon="6.59409">
        <ele>341</ele>
        <time>2014-10-30T14:10:40.1Z</time>
      </trkpt>
      <trkpt lat="47.79703" lon="6.59393">
        <ele>342</ele>
        <time>2014-10-30T14:10:43.1Z</time>
      </trkpt>
      <trkpt lat="47.79695" lon="6.59383">
        <ele>342</ele>
        <time>2014-10-30T14:10:45.1Z</time>
      </trkpt>
      <trkpt lat="47.79682" lon="6.59371">
        <ele>342</ele>
        <time>2014-10-30T14:10:48.1Z</time>
      </trkpt>
      <trkpt lat="47.7967" lon="6.59359">
        <ele>342</ele>
        <time>2014-10-30T14:10:51.1Z</time>
      </trkpt>
      <trkpt lat="47.79659" lon="6.59344">
        <ele>343</ele>
        <time>2014-10-30T14:10:54.1Z</time>
      </trkpt>
      <trkpt lat="47.7965" lon="6.59331">
        <ele>344</ele>
        <time>2014-10-30T14:10:57.1Z</time>
      </trkpt>
      <trkpt lat="47.79642" lon="6.59317">
        <ele>345</ele>
        <time>2014-10-30T14:11:00.1Z</time>
      </trkpt>
      <trkpt lat="47.79634" lon="6.59304">
        <ele>346</ele>
        <time>2014-10-30T14:11:03.1Z</time>
      </trkpt>
      <trkpt lat="47.79624" lon="6.59291">
        <ele>346</ele>
        <time>2014-10-30T14:11:06.1Z</time>
      </trkpt>
      <trkpt lat="47.79618" lon="6.59281">
        <ele>346</ele>
        <time>2014-10-30T14:11:08.1Z</time>
      </trkpt>
      <trkpt lat="47.79611" lon="6.59272">
        <ele>346</ele>
        <time>2014-10-30T14:11:10.1Z</time>
      </trkpt>
      <trkpt lat="47.79602" lon="6.59259">
        <ele>346</ele>
        <time>2014-10-30T14:11:13.1Z</time>
      </trkpt>
      <trkpt lat="47.79593" lon="6.59246">
        <ele>346</ele>
        <time>2014-10-30T14:11:16.1Z</time>
      </trkpt>
      <trkpt lat="47.79585" lon="6.59234">
        <ele>347</ele>
        <time>2014-10-30T14:11:19.1Z</time>
      </trkpt>
      <trkpt lat="47.79578" lon="6.59226">
        <ele>348</ele>
        <time>2014-10-30T14:11:21.1Z</time>
      </trkpt>
      <trkpt lat="47.7957" lon="6.59214">
        <ele>348</ele>
        <time>2014-10-30T14:11:24.1Z</time>
      </trkpt>
      <trkpt lat="47.7956" lon="6.59201">
        <ele>348</ele>
        <time>2014-10-30T14:11:27.1Z</time>
      </trkpt>
      <trkpt lat="47.79554" lon="6.59193">
        <ele>348</ele>
        <time>2014-10-30T14:11:29.1Z</time>
      </trkpt>
      <trkpt lat="47.79544" lon="6.59181">
        <ele>348</ele>
        <time>2014-10-30T14:11:32.1Z</time>
      </trkpt>
      <trkpt lat="47.79533" lon="6.59169">
        <ele>348</ele>
        <time>2014-10-30T14:11:35.1Z</time>
      </trkpt>
      <trkpt lat="47.79522" lon="6.59157">
        <ele>348</ele>
        <time>2014-10-30T14:11:38.1Z</time>
      </trkpt>
      <trkpt lat="47.79511" lon="6.59144">
        <ele>348</ele>
        <time>2014-10-30T14:11:41.1Z</time>
      </trkpt>
      <trkpt lat="47.795" lon="6.5913">
        <ele>347</ele>
        <time>2014-10-30T14:11:44.1Z</time>
      </trkpt>
      <trkpt lat="47.79488" lon="6.59116">
        <ele>347</ele>
        <time>2014-10-30T14:11:47.1Z</time>
      </trkpt>
      <trkpt lat="47.79476" lon="6.59102">
        <ele>347</ele>
        <time>2014-10-30T14:11:50.1Z</time>
      </trkpt>
      <trkpt lat="47.79468" lon="6.59093">
        <ele>347</ele>
        <time>2014-10-30T14:11:52.1Z</time>
      </trkpt>
      <trkpt lat="47.7946" lon="6.59084">
        <ele>347</ele>
        <time>2014-10-30T14:11:54.1Z</time>
      </trkpt>
      <trkpt lat="47.79448" lon="6.59071">
        <ele>347</ele>
        <time>2014-10-30T14:11:57.1Z</time>
      </trkpt>
      <trkpt lat="47.79437" lon="6.59059">
        <ele>347</ele>
        <time>2014-10-30T14:12:00.1Z</time>
      </trkpt>
      <trkpt lat="47.79425" lon="6.59046">
        <ele>348</ele>
        <time>2014-10-30T14:12:03.1Z</time>
      </trkpt>
      <trkpt lat="47.79414" lon="6.59035">
        <ele>348</ele>
        <time>2014-10-30T14:12:06.1Z</time>
      </trkpt>
      <trkpt lat="47.79404" lon="6.59024">
        <ele>348</ele>
        <time>2014-10-30T14:12:09.1Z</time>
      </trkpt>
      <trkpt lat="47.79393" lon="6.59014">
        <ele>349</ele>
        <time>2014-10-30T14:12:12.1Z</time>
      </trkpt>
      <trkpt lat="47.79382" lon="6.59002">
        <ele>349</ele>
        <time>2014-10-30T14:12:15.1Z</time>
      </trkpt>
      <trkpt lat="47.79375" lon="6.58994">
        <ele>349</ele>
        <time>2014-10-30T14:12:17.1Z</time>
      </trkpt>
      <trkpt lat="47.79368" lon="6.58987">
        <ele>348</ele>
        <time>2014-10-30T14:12:19.1Z</time>
      </trkpt>
      <trkpt lat="47.79357" lon="6.58975">
        <ele>348</ele>
        <time>2014-10-30T14:12:22.1Z</time>
      </trkpt>
      <trkpt lat="47.79346" lon="6.58962">
        <ele>349</ele>
        <time>2014-10-30T14:12:25.1Z</time>
      </trkpt>
      <trkpt lat="47.79335" lon="6.58949">
        <ele>348</ele>
        <time>2014-10-30T14:12:28.1Z</time>
      </trkpt>
      <trkpt lat="47.79324" lon="6.58936">
        <ele>348</ele>
        <time>2014-10-30T14:12:31.1Z</time>
      </trkpt>
      <trkpt lat="47.79317" lon="6.58927">
        <ele>348</ele>
        <time>2014-10-30T14:12:33.1Z</time>
      </trkpt>
      <trkpt lat="47.79307" lon="6.58914">
        <ele>348</ele>
        <time>2014-10-30T14:12:36.1Z</time>
      </trkpt>
      <trkpt lat="47.793" lon="6.58906">
        <ele>348</ele>
        <time>2014-10-30T14:12:38.1Z</time>
      </trkpt>
      <trkpt lat="47.79288" lon="6.58895">
        <ele>347</ele>
        <time>2014-10-30T14:12:41.1Z</time>
      </trkpt>
      <trkpt lat="47.79274" lon="6.58885">
        <ele>347</ele>
        <time>2014-10-30T14:12:44.1Z</time>
      </trkpt>
      <trkpt lat="47.79257" lon="6.58875">
        <ele>346</ele>
        <time>2014-10-30T14:12:47.1Z</time>
      </trkpt>
      <trkpt lat="47.79241" lon="6.58866">
        <ele>345</ele>
        <time>2014-10-30T14:12:50.1Z</time>
      </trkpt>
      <trkpt lat="47.79226" lon="6.58858">
        <ele>345</ele>
        <time>2014-10-30T14:12:53.1Z</time>
      </trkpt>
      <trkpt lat="47.79211" lon="6.58851">
        <ele>345</ele>
        <time>2014-10-30T14:12:56.1Z</time>
      </trkpt>
      <trkpt lat="47.79199" lon="6.58843">
        <ele>345</ele>
        <time>2014-10-30T14:12:59.1Z</time>
      </trkpt>
      <trkpt lat="47.79192" lon="6.58839">
        <ele>345</ele>
        <time>2014-10-30T14:13:01.1Z</time>
      </trkpt>
      <trkpt lat="47.79182" lon="6.58833">
        <ele>345</ele>
        <time>2014-10-30T14:13:04.1Z</time>
      </trkpt>
      <trkpt lat="47.79171" lon="6.58826">
        <ele>344</ele>
        <time>2014-10-30T14:13:07.1Z</time>
      </trkpt>
      <trkpt lat="47.79161" lon="6.5882">
        <ele>344</ele>
        <time>2014-10-30T14:13:10.1Z</time>
      </trkpt>
      <trkpt lat="47.79153" lon="6.58816">
        <ele>343</ele>
        <time>2014-10-30T14:13:13.1Z</time>
      </trkpt>
      <trkpt lat="47.79149" lon="6.58814">
        <ele>343</ele>
        <time>2014-10-30T14:13:16.1Z</time>
      </trkpt>
      <trkpt lat="47.79148" lon="6.58813">
        <ele>343</ele>
        <time>2014-10-30T14:13:19.1Z</time>
      </trkpt>
      <trkpt lat="47.79147" lon="6.58814">
        <ele>343</ele>
        <time>2014-10-30T14:13:22.1Z</time>
      </trkpt>
      <trkpt lat="47.79146" lon="6.58814">
        <ele>343</ele>
        <time>2014-10-30T14:13:24.1Z</time>
      </trkpt>
      <trkpt lat="47.79146" lon="6.58814">
        <ele>343</ele>
        <time>2014-10-30T14:13:26.1Z</time>
      </trkpt>
      <trkpt lat="47.79146" lon="6.58814">
        <ele>343</ele>
        <time>2014-10-30T14:13:29.1Z</time>
      </trkpt>
      <trkpt lat="47.79145" lon="6.58814">
        <ele>343</ele>
        <time>2014-10-30T14:13:31.1Z</time>
      </trkpt>
      <trkpt lat="47.79145" lon="6.58815">
        <ele>343</ele>
        <time>2014-10-30T14:13:34.1Z</time>
      </trkpt>
      <trkpt lat="47.79144" lon="6.58815">
        <ele>343</ele>
        <time>2014-10-30T14:13:36.1Z</time>
      </trkpt>
      <trkpt lat="47.79144" lon="6.58816">
        <ele>343</ele>
        <time>2014-10-30T14:13:39.1Z</time>
      </trkpt>
      <trkpt lat="47.79143" lon="6.58816">
        <ele>343</ele>
        <time>2014-10-30T14:13:41.1Z</time>
      </trkpt>
      <trkpt lat="47.79143" lon="6.58817">
        <ele>343</ele>
        <time>2014-10-30T14:13:44.1Z</time>
      </trkpt>
      <trkpt lat="47.79143" lon="6.58817">
        <ele>343</ele>
        <time>2014-10-30T14:13:48.1Z</time>
      </trkpt>
      <trkpt lat="47.79142" lon="6.58818">
        <ele>343</ele>
        <time>2014-10-30T14:13:51.1Z</time>
      </trkpt>
      <trkpt lat="47.79142" lon="6.58818">
        <ele>343</ele>
        <time>2014-10-30T14:13:54.1Z</time>
      </trkpt>
      <trkpt lat="47.79142" lon="6.58819">
        <ele>343</ele>
        <time>2014-10-30T14:13:56.1Z</time>
      </trkpt>
      <trkpt lat="47.79142" lon="6.58819">
        <ele>344</ele>
        <time>2014-10-30T14:13:58.1Z</time>
      </trkpt>
      <trkpt lat="47.79142" lon="6.5882">
        <ele>343</ele>
        <time>2014-10-30T14:14:01.1Z</time>
      </trkpt>
      <trkpt lat="47.79142" lon="6.58821">
        <ele>343</ele>
        <time>2014-10-30T14:14:03.1Z</time>
      </trkpt>
      <trkpt lat="47.79141" lon="6.58821">
        <ele>343</ele>
        <time>2014-10-30T14:14:05.1Z</time>
      </trkpt>
      <trkpt lat="47.79141" lon="6.58822">
        <ele>343</ele>
        <time>2014-10-30T14:14:08.1Z</time>
      </trkpt>
      <trkpt lat="47.79141" lon="6.58823">
        <ele>343</ele>
        <time>2014-10-30T14:14:11.1Z</time>
      </trkpt>
      <trkpt lat="47.79141" lon="6.58823">
        <ele>343</ele>
        <time>2014-10-30T14:14:14.1Z</time>
      </trkpt>
      <trkpt lat="47.7914" lon="6.58824">
        <ele>343</ele>
        <time>2014-10-30T14:14:16.1Z</time>
      </trkpt>
      <trkpt lat="47.7914" lon="6.58824">
        <ele>343</ele>
        <time>2014-10-30T14:14:18.1Z</time>
      </trkpt>
      <trkpt lat="47.7914" lon="6.58825">
        <ele>343</ele>
        <time>2014-10-30T14:14:20.1Z</time>
      </trkpt>
      <trkpt lat="47.79138" lon="6.58825">
        <ele>343</ele>
        <time>2014-10-30T14:14:22.1Z</time>
      </trkpt>
      <trkpt lat="47.79131" lon="6.58822">
        <ele>343</ele>
        <time>2014-10-30T14:14:25.1Z</time>
      </trkpt>
      <trkpt lat="47.79118" lon="6.58818">
        <ele>343</ele>
        <time>2014-10-30T14:14:28.1Z</time>
      </trkpt>
      <trkpt lat="47.79108" lon="6.58814">
        <ele>342</ele>
        <time>2014-10-30T14:14:30.1Z</time>
      </trkpt>
      <trkpt lat="47.79093" lon="6.58809">
        <ele>342</ele>
        <time>2014-10-30T14:14:33.1Z</time>
      </trkpt>
      <trkpt lat="47.79076" lon="6.58804">
        <ele>342</ele>
        <time>2014-10-30T14:14:36.1Z</time>
      </trkpt>
      <trkpt lat="47.79058" lon="6.58802">
        <ele>342</ele>
        <time>2014-10-30T14:14:39.1Z</time>
      </trkpt>
      <trkpt lat="47.79039" lon="6.58802">
        <ele>341</ele>
        <time>2014-10-30T14:14:42.1Z</time>
      </trkpt>
      <trkpt lat="47.79017" lon="6.58805">
        <ele>340</ele>
        <time>2014-10-30T14:14:45.1Z</time>
      </trkpt>
      <trkpt lat="47.79003" lon="6.58807">
        <ele>340</ele>
        <time>2014-10-30T14:14:47.1Z</time>
      </trkpt>
      <trkpt lat="47.78981" lon="6.5881">
        <ele>339</ele>
        <time>2014-10-30T14:14:50.1Z</time>
      </trkpt>
      <trkpt lat="47.78967" lon="6.58812">
        <ele>339</ele>
        <time>2014-10-30T14:14:52.1Z</time>
      </trkpt>
      <trkpt lat="47.78953" lon="6.58814">
        <ele>338</ele>
        <time>2014-10-30T14:14:54.1Z</time>
      </trkpt>
      <trkpt lat="47.78939" lon="6.58815">
        <ele>338</ele>
        <time>2014-10-30T14:14:56.1Z</time>
      </trkpt>
      <trkpt lat="47.7892" lon="6.58817">
        <ele>337</ele>
        <time>2014-10-30T14:14:59.1Z</time>
      </trkpt>
      <trkpt lat="47.789" lon="6.5882">
        <ele>338</ele>
        <time>2014-10-30T14:15:02.1Z</time>
      </trkpt>
      <trkpt lat="47.78887" lon="6.58819">
        <ele>338</ele>
        <time>2014-10-30T14:15:04.1Z</time>
      </trkpt>
      <trkpt lat="47.78868" lon="6.58818">
        <ele>338</ele>
        <time>2014-10-30T14:15:07.1Z</time>
      </trkpt>
      <trkpt lat="47.78849" lon="6.58815">
        <ele>338</ele>
        <time>2014-10-30T14:15:10.1Z</time>
      </trkpt>
      <trkpt lat="47.78829" lon="6.58814">
        <ele>338</ele>
        <time>2014-10-30T14:15:13.1Z</time>
      </trkpt>
      <trkpt lat="47.78817" lon="6.58814">
        <ele>338</ele>
        <time>2014-10-30T14:15:15.1Z</time>
      </trkpt>
      <trkpt lat="47.788" lon="6.58812">
        <ele>338</ele>
        <time>2014-10-30T14:15:18.1Z</time>
      </trkpt>
      <trkpt lat="47.78784" lon="6.58803">
        <ele>338</ele>
        <time>2014-10-30T14:15:21.1Z</time>
      </trkpt>
      <trkpt lat="47.7877" lon="6.58789">
        <ele>337</ele>
        <time>2014-10-30T14:15:24.1Z</time>
      </trkpt>
      <trkpt lat="47.78755" lon="6.58773">
        <ele>337</ele>
        <time>2014-10-30T14:15:27.1Z</time>
      </trkpt>
      <trkpt lat="47.78739" lon="6.5876">
        <ele>336</ele>
        <time>2014-10-30T14:15:30.1Z</time>
      </trkpt>
      <trkpt lat="47.78727" lon="6.58758">
        <ele>335</ele>
        <time>2014-10-30T14:15:32.1Z</time>
      </trkpt>
      <trkpt lat="47.78705" lon="6.58758">
        <ele>334</ele>
        <time>2014-10-30T14:15:35.1Z</time>
      </trkpt>
      <trkpt lat="47.78682" lon="6.58759">
        <ele>334</ele>
        <time>2014-10-30T14:15:37.1Z</time>
      </trkpt>
      <trkpt lat="47.78666" lon="6.58756">
        <ele>333</ele>
        <time>2014-10-30T14:15:40.1Z</time>
      </trkpt>
      <trkpt lat="47.78645" lon="6.58745">
        <ele>332</ele>
        <time>2014-10-30T14:15:43.1Z</time>
      </trkpt>
      <trkpt lat="47.78627" lon="6.58736">
        <ele>332</ele>
        <time>2014-10-30T14:15:46.1Z</time>
      </trkpt>
      <trkpt lat="47.78608" lon="6.58727">
        <ele>332</ele>
        <time>2014-10-30T14:15:49.1Z</time>
      </trkpt>
      <trkpt lat="47.78591" lon="6.58718">
        <ele>332</ele>
        <time>2014-10-30T14:15:52.1Z</time>
      </trkpt>
      <trkpt lat="47.78581" lon="6.58712">
        <ele>331</ele>
        <time>2014-10-30T14:15:54.1Z</time>
      </trkpt>
      <trkpt lat="47.78564" lon="6.58702">
        <ele>331</ele>
        <time>2014-10-30T14:15:57.1Z</time>
      </trkpt>
      <trkpt lat="47.78543" lon="6.58691">
        <ele>330</ele>
        <time>2014-10-30T14:16:00.1Z</time>
      </trkpt>
      <trkpt lat="47.78521" lon="6.58681">
        <ele>330</ele>
        <time>2014-10-30T14:16:03.1Z</time>
      </trkpt>
      <trkpt lat="47.78498" lon="6.58675">
        <ele>328</ele>
        <time>2014-10-30T14:16:05.1Z</time>
      </trkpt>
      <trkpt lat="47.78476" lon="6.58671">
        <ele>327</ele>
        <time>2014-10-30T14:16:09.1Z</time>
      </trkpt>
      <trkpt lat="47.78461" lon="6.58669">
        <ele>327</ele>
        <time>2014-10-30T14:16:11.1Z</time>
      </trkpt>
      <trkpt lat="47.78437" lon="6.58665">
        <ele>326</ele>
        <time>2014-10-30T14:16:13.1Z</time>
      </trkpt>
      <trkpt lat="47.78419" lon="6.58661">
        <ele>325</ele>
        <time>2014-10-30T14:16:16.1Z</time>
      </trkpt>
      <trkpt lat="47.78402" lon="6.58653">
        <ele>324</ele>
        <time>2014-10-30T14:16:18.1Z</time>
      </trkpt>
      <trkpt lat="47.78379" lon="6.58627">
        <ele>322</ele>
        <time>2014-10-30T14:16:21.1Z</time>
      </trkpt>
      <trkpt lat="47.78358" lon="6.58593">
        <ele>320</ele>
        <time>2014-10-30T14:16:23.1Z</time>
      </trkpt>
      <trkpt lat="47.78341" lon="6.58575">
        <ele>318</ele>
        <time>2014-10-30T14:16:26.1Z</time>
      </trkpt>
      <trkpt lat="47.78315" lon="6.58554">
        <ele>317</ele>
        <time>2014-10-30T14:16:28.1Z</time>
      </trkpt>
      <trkpt lat="47.78297" lon="6.58541">
        <ele>316</ele>
        <time>2014-10-30T14:16:30.1Z</time>
      </trkpt>
      <trkpt lat="47.78278" lon="6.58527">
        <ele>315</ele>
        <time>2014-10-30T14:16:33.1Z</time>
      </trkpt>
      <trkpt lat="47.78252" lon="6.58512">
        <ele>314</ele>
        <time>2014-10-30T14:16:36.1Z</time>
      </trkpt>
      <trkpt lat="47.78235" lon="6.58502">
        <ele>314</ele>
        <time>2014-10-30T14:16:38.1Z</time>
      </trkpt>
      <trkpt lat="47.78213" lon="6.58489">
        <ele>313</ele>
        <time>2014-10-30T14:16:41.1Z</time>
      </trkpt>
      <trkpt lat="47.78199" lon="6.5848">
        <ele>313</ele>
        <time>2014-10-30T14:16:43.1Z</time>
      </trkpt>
      <trkpt lat="47.78178" lon="6.58465">
        <ele>312</ele>
        <time>2014-10-30T14:16:46.1Z</time>
      </trkpt>
      <trkpt lat="47.78165" lon="6.58454">
        <ele>312</ele>
        <time>2014-10-30T14:16:48.1Z</time>
      </trkpt>
      <trkpt lat="47.78146" lon="6.58438">
        <ele>312</ele>
        <time>2014-10-30T14:16:51.1Z</time>
      </trkpt>
      <trkpt lat="47.78133" lon="6.5843">
        <ele>311</ele>
        <time>2014-10-30T14:16:53.1Z</time>
      </trkpt>
      <trkpt lat="47.78114" lon="6.5842">
        <ele>311</ele>
        <time>2014-10-30T14:16:56.1Z</time>
      </trkpt>
      <trkpt lat="47.78094" lon="6.5841">
        <ele>310</ele>
        <time>2014-10-30T14:16:59.1Z</time>
      </trkpt>
      <trkpt lat="47.78074" lon="6.58399">
        <ele>309</ele>
        <time>2014-10-30T14:17:02.1Z</time>
      </trkpt>
      <trkpt lat="47.78054" lon="6.58386">
        <ele>309</ele>
        <time>2014-10-30T14:17:05.1Z</time>
      </trkpt>
      <trkpt lat="47.78034" lon="6.58374">
        <ele>308</ele>
        <time>2014-10-30T14:17:08.1Z</time>
      </trkpt>
      <trkpt lat="47.7802" lon="6.58364">
        <ele>307</ele>
        <time>2014-10-30T14:17:10.1Z</time>
      </trkpt>
      <trkpt lat="47.78" lon="6.58348">
        <ele>306</ele>
        <time>2014-10-30T14:17:13.1Z</time>
      </trkpt>
      <trkpt lat="47.77984" lon="6.58337">
        <ele>305</ele>
        <time>2014-10-30T14:17:15.1Z</time>
      </trkpt>
      <trkpt lat="47.77958" lon="6.58323">
        <ele>303</ele>
        <time>2014-10-30T14:17:18.1Z</time>
      </trkpt>
      <trkpt lat="47.77931" lon="6.58301">
        <ele>300</ele>
        <time>2014-10-30T14:17:21.1Z</time>
      </trkpt>
      <trkpt lat="47.77903" lon="6.58276">
        <ele>297</ele>
        <time>2014-10-30T14:17:24.1Z</time>
      </trkpt>
      <trkpt lat="47.77885" lon="6.58259">
        <ele>296</ele>
        <time>2014-10-30T14:17:26.1Z</time>
      </trkpt>
      <trkpt lat="47.77865" lon="6.58243">
        <ele>295</ele>
        <time>2014-10-30T14:17:28.1Z</time>
      </trkpt>
      <trkpt lat="47.77835" lon="6.58221">
        <ele>294</ele>
        <time>2014-10-30T14:17:30.1Z</time>
      </trkpt>
      <trkpt lat="47.77813" lon="6.58212">
        <ele>292</ele>
        <time>2014-10-30T14:17:33.1Z</time>
      </trkpt>
      <trkpt lat="47.77781" lon="6.58202">
        <ele>288</ele>
        <time>2014-10-30T14:17:36.1Z</time>
      </trkpt>
      <trkpt lat="47.77752" lon="6.58197">
        <ele>286</ele>
        <time>2014-10-30T14:17:39.1Z</time>
      </trkpt>
      <trkpt lat="47.77727" lon="6.58193">
        <ele>286</ele>
        <time>2014-10-30T14:17:42.1Z</time>
      </trkpt>
      <trkpt lat="47.77705" lon="6.58188">
        <ele>286</ele>
        <time>2014-10-30T14:17:45.1Z</time>
      </trkpt>
      <trkpt lat="47.77683" lon="6.5818">
        <ele>286</ele>
        <time>2014-10-30T14:17:48.1Z</time>
      </trkpt>
      <trkpt lat="47.77663" lon="6.5817">
        <ele>286</ele>
        <time>2014-10-30T14:17:51.1Z</time>
      </trkpt>
      <trkpt lat="47.77649" lon="6.58163">
        <ele>286</ele>
        <time>2014-10-30T14:17:53.1Z</time>
      </trkpt>
      <trkpt lat="47.77629" lon="6.58153">
        <ele>286</ele>
        <time>2014-10-30T14:17:55.1Z</time>
      </trkpt>
      <trkpt lat="47.77616" lon="6.58147">
        <ele>285</ele>
        <time>2014-10-30T14:17:58.1Z</time>
      </trkpt>
      <trkpt lat="47.77595" lon="6.58138">
        <ele>284</ele>
        <time>2014-10-30T14:18:01.1Z</time>
      </trkpt>
      <trkpt lat="47.77575" lon="6.58125">
        <ele>283</ele>
        <time>2014-10-30T14:18:03.1Z</time>
      </trkpt>
      <trkpt lat="47.77562" lon="6.58116">
        <ele>283</ele>
        <time>2014-10-30T14:18:06.1Z</time>
      </trkpt>
      <trkpt lat="47.77549" lon="6.58106">
        <ele>283</ele>
        <time>2014-10-30T14:18:08.1Z</time>
      </trkpt>
      <trkpt lat="47.77537" lon="6.58097">
        <ele>283</ele>
        <time>2014-10-30T14:18:10.1Z</time>
      </trkpt>
      <trkpt lat="47.77518" lon="6.58089">
        <ele>283</ele>
        <time>2014-10-30T14:18:13.1Z</time>
      </trkpt>
      <trkpt lat="47.77498" lon="6.58082">
        <ele>282</ele>
        <time>2014-10-30T14:18:16.1Z</time>
      </trkpt>
      <trkpt lat="47.77478" lon="6.58079">
        <ele>281</ele>
        <time>2014-10-30T14:18:19.1Z</time>
      </trkpt>
      <trkpt lat="47.77458" lon="6.58077">
        <ele>281</ele>
        <time>2014-10-30T14:18:21.1Z</time>
      </trkpt>
      <trkpt lat="47.77437" lon="6.58076">
        <ele>280</ele>
        <time>2014-10-30T14:18:24.1Z</time>
      </trkpt>
      <trkpt lat="47.77416" lon="6.58075">
        <ele>279</ele>
        <time>2014-10-30T14:18:27.1Z</time>
      </trkpt>
      <trkpt lat="47.774" lon="6.58071">
        <ele>278</ele>
        <time>2014-10-30T14:18:30.1Z</time>
      </trkpt>
      <trkpt lat="47.77384" lon="6.58067">
        <ele>278</ele>
        <time>2014-10-30T14:18:32.1Z</time>
      </trkpt>
      <trkpt lat="47.77359" lon="6.58063">
        <ele>277</ele>
        <time>2014-10-30T14:18:35.1Z</time>
      </trkpt>
      <trkpt lat="47.77335" lon="6.58058">
        <ele>275</ele>
        <time>2014-10-30T14:18:38.1Z</time>
      </trkpt>
      <trkpt lat="47.7731" lon="6.58055">
        <ele>274</ele>
        <time>2014-10-30T14:18:41.1Z</time>
      </trkpt>
      <trkpt lat="47.77287" lon="6.58056">
        <ele>274</ele>
        <time>2014-10-30T14:18:44.1Z</time>
      </trkpt>
      <trkpt lat="47.77263" lon="6.58063">
        <ele>274</ele>
        <time>2014-10-30T14:18:47.1Z</time>
      </trkpt>
      <trkpt lat="47.77238" lon="6.58069">
        <ele>273</ele>
        <time>2014-10-30T14:18:50.1Z</time>
      </trkpt>
      <trkpt lat="47.77215" lon="6.58073">
        <ele>273</ele>
        <time>2014-10-30T14:18:53.1Z</time>
      </trkpt>
      <trkpt lat="47.772" lon="6.58075">
        <ele>273</ele>
        <time>2014-10-30T14:18:55.1Z</time>
      </trkpt>
      <trkpt lat="47.77178" lon="6.58075">
        <ele>273</ele>
        <time>2014-10-30T14:18:57.1Z</time>
      </trkpt>
      <trkpt lat="47.77156" lon="6.5807">
        <ele>272</ele>
        <time>2014-10-30T14:19:00.1Z</time>
      </trkpt>
      <trkpt lat="47.77142" lon="6.58058">
        <ele>272</ele>
        <time>2014-10-30T14:19:03.1Z</time>
      </trkpt>
      <trkpt lat="47.77127" lon="6.58033">
        <ele>272</ele>
        <time>2014-10-30T14:19:06.1Z</time>
      </trkpt>
      <trkpt lat="47.77117" lon="6.58004">
        <ele>272</ele>
        <time>2014-10-30T14:19:08.1Z</time>
      </trkpt>
      <trkpt lat="47.77111" lon="6.57975">
        <ele>272</ele>
        <time>2014-10-30T14:19:11.1Z</time>
      </trkpt>
      <trkpt lat="47.7711" lon="6.57956">
        <ele>272</ele>
        <time>2014-10-30T14:19:14.1Z</time>
      </trkpt>
      <trkpt lat="47.77109" lon="6.57937">
        <ele>272</ele>
        <time>2014-10-30T14:19:16.1Z</time>
      </trkpt>
      <trkpt lat="47.77108" lon="6.5791">
        <ele>271</ele>
        <time>2014-10-30T14:19:19.1Z</time>
      </trkpt>
      <trkpt lat="47.77106" lon="6.57884">
        <ele>271</ele>
        <time>2014-10-30T14:19:22.1Z</time>
      </trkpt>
      <trkpt lat="47.77105" lon="6.57858">
        <ele>270</ele>
        <time>2014-10-30T14:19:25.1Z</time>
      </trkpt>
      <trkpt lat="47.77095" lon="6.57838">
        <ele>270</ele>
        <time>2014-10-30T14:19:27.1Z</time>
      </trkpt>
      <trkpt lat="47.77084" lon="6.57834">
        <ele>270</ele>
        <time>2014-10-30T14:19:29.1Z</time>
      </trkpt>
      <trkpt lat="47.77073" lon="6.57831">
        <ele>271</ele>
        <time>2014-10-30T14:19:31.1Z</time>
      </trkpt>
      <trkpt lat="47.77061" lon="6.57826">
        <ele>271</ele>
        <time>2014-10-30T14:19:34.1Z</time>
      </trkpt>
      <trkpt lat="47.77051" lon="6.5782">
        <ele>271</ele>
        <time>2014-10-30T14:19:36.1Z</time>
      </trkpt>
      <trkpt lat="47.77036" lon="6.57808">
        <ele>271</ele>
        <time>2014-10-30T14:19:39.1Z</time>
      </trkpt>
      <trkpt lat="47.77022" lon="6.57796">
        <ele>271</ele>
        <time>2014-10-30T14:19:42.1Z</time>
      </trkpt>
      <trkpt lat="47.77007" lon="6.57785">
        <ele>271</ele>
        <time>2014-10-30T14:19:45.1Z</time>
      </trkpt>
      <trkpt lat="47.7699" lon="6.57771">
        <ele>270</ele>
        <time>2014-10-30T14:19:48.1Z</time>
      </trkpt>
      <trkpt lat="47.76971" lon="6.5776">
        <ele>269</ele>
        <time>2014-10-30T14:19:51.1Z</time>
      </trkpt>
      <trkpt lat="47.7695" lon="6.57759">
        <ele>267</ele>
        <time>2014-10-30T14:19:54.1Z</time>
      </trkpt>
      <trkpt lat="47.76936" lon="6.57758">
        <ele>267</ele>
        <time>2014-10-30T14:19:56.1Z</time>
      </trkpt>
      <trkpt lat="47.76916" lon="6.57761">
        <ele>266</ele>
        <time>2014-10-30T14:19:58.1Z</time>
      </trkpt>
      <trkpt lat="47.76894" lon="6.57767">
        <ele>266</ele>
        <time>2014-10-30T14:20:01.1Z</time>
      </trkpt>
      <trkpt lat="47.7687" lon="6.57768">
        <ele>265</ele>
        <time>2014-10-30T14:20:04.1Z</time>
      </trkpt>
      <trkpt lat="47.76847" lon="6.57766">
        <ele>263</ele>
        <time>2014-10-30T14:20:07.1Z</time>
      </trkpt>
      <trkpt lat="47.76826" lon="6.57764">
        <ele>263</ele>
        <time>2014-10-30T14:20:10.1Z</time>
      </trkpt>
      <trkpt lat="47.76807" lon="6.57761">
        <ele>262</ele>
        <time>2014-10-30T14:20:14.1Z</time>
      </trkpt>
      <trkpt lat="47.76786" lon="6.57756">
        <ele>262</ele>
        <time>2014-10-30T14:20:16.1Z</time>
      </trkpt>
      <trkpt lat="47.76773" lon="6.57753">
        <ele>262</ele>
        <time>2014-10-30T14:20:18.1Z</time>
      </trkpt>
      <trkpt lat="47.76759" lon="6.57749">
        <ele>262</ele>
        <time>2014-10-30T14:20:20.1Z</time>
      </trkpt>
      <trkpt lat="47.76736" lon="6.57742">
        <ele>261</ele>
        <time>2014-10-30T14:20:23.1Z</time>
      </trkpt>
      <trkpt lat="47.7672" lon="6.57738">
        <ele>260</ele>
        <time>2014-10-30T14:20:25.1Z</time>
      </trkpt>
      <trkpt lat="47.76696" lon="6.57732">
        <ele>259</ele>
        <time>2014-10-30T14:20:28.1Z</time>
      </trkpt>
      <trkpt lat="47.76681" lon="6.57729">
        <ele>258</ele>
        <time>2014-10-30T14:20:31.1Z</time>
      </trkpt>
      <trkpt lat="47.76665" lon="6.57726">
        <ele>258</ele>
        <time>2014-10-30T14:20:33.1Z</time>
      </trkpt>
      <trkpt lat="47.76642" lon="6.57722">
        <ele>257</ele>
        <time>2014-10-30T14:20:35.1Z</time>
      </trkpt>
      <trkpt lat="47.76627" lon="6.57719">
        <ele>257</ele>
        <time>2014-10-30T14:20:38.1Z</time>
      </trkpt>
      <trkpt lat="47.76612" lon="6.57719">
        <ele>257</ele>
        <time>2014-10-30T14:20:40.1Z</time>
      </trkpt>
      <trkpt lat="47.76591" lon="6.57721">
        <ele>257</ele>
        <time>2014-10-30T14:20:43.1Z</time>
      </trkpt>
      <trkpt lat="47.76579" lon="6.57726">
        <ele>257</ele>
        <time>2014-10-30T14:20:45.1Z</time>
      </trkpt>
      <trkpt lat="47.76559" lon="6.57735">
        <ele>257</ele>
        <time>2014-10-30T14:20:48.1Z</time>
      </trkpt>
      <trkpt lat="47.76538" lon="6.57744">
        <ele>256</ele>
        <time>2014-10-30T14:20:50.1Z</time>
      </trkpt>
      <trkpt lat="47.76516" lon="6.57747">
        <ele>255</ele>
        <time>2014-10-30T14:20:54.1Z</time>
      </trkpt>
      <trkpt lat="47.76492" lon="6.57745">
        <ele>254</ele>
        <time>2014-10-30T14:20:56.1Z</time>
      </trkpt>
      <trkpt lat="47.76476" lon="6.57741">
        <ele>252</ele>
        <time>2014-10-30T14:20:59.1Z</time>
      </trkpt>
      <trkpt lat="47.76451" lon="6.57735">
        <ele>251</ele>
        <time>2014-10-30T14:21:01.1Z</time>
      </trkpt>
      <trkpt lat="47.76434" lon="6.57735">
        <ele>250</ele>
        <time>2014-10-30T14:21:04.1Z</time>
      </trkpt>
      <trkpt lat="47.76408" lon="6.57734">
        <ele>248</ele>
        <time>2014-10-30T14:21:07.1Z</time>
      </trkpt>
      <trkpt lat="47.76379" lon="6.5773">
        <ele>247</ele>
        <time>2014-10-30T14:21:09.1Z</time>
      </trkpt>
      <trkpt lat="47.76359" lon="6.57728">
        <ele>246</ele>
        <time>2014-10-30T14:21:12.1Z</time>
      </trkpt>
      <trkpt lat="47.76327" lon="6.5772">
        <ele>245</ele>
        <time>2014-10-30T14:21:14.1Z</time>
      </trkpt>
      <trkpt lat="47.76297" lon="6.57709">
        <ele>243</ele>
        <time>2014-10-30T14:21:17.1Z</time>
      </trkpt>
      <trkpt lat="47.76277" lon="6.57707">
        <ele>243</ele>
        <time>2014-10-30T14:21:20.1Z</time>
      </trkpt>
      <trkpt lat="47.7625" lon="6.57709">
        <ele>242</ele>
        <time>2014-10-30T14:21:23.1Z</time>
      </trkpt>
      <trkpt lat="47.76226" lon="6.57712">
        <ele>242</ele>
        <time>2014-10-30T14:21:25.1Z</time>
      </trkpt>
      <trkpt lat="47.76202" lon="6.57717">
        <ele>241</ele>
        <time>2014-10-30T14:21:28.1Z</time>
      </trkpt>
      <trkpt lat="47.76181" lon="6.57726">
        <ele>241</ele>
        <time>2014-10-30T14:21:31.1Z</time>
      </trkpt>
      <trkpt lat="47.76162" lon="6.57739">
        <ele>241</ele>
        <time>2014-10-30T14:21:34.1Z</time>
      </trkpt>
      <trkpt lat="47.76145" lon="6.57749">
        <ele>241</ele>
        <time>2014-10-30T14:21:37.1Z</time>
      </trkpt>
      <trkpt lat="47.76128" lon="6.57758">
        <ele>241</ele>
        <time>2014-10-30T14:21:40.1Z</time>
      </trkpt>
      <trkpt lat="47.76116" lon="6.57763">
        <ele>241</ele>
        <time>2014-10-30T14:21:43.1Z</time>
      </trkpt>
      <trkpt lat="47.76104" lon="6.57767">
        <ele>240</ele>
        <time>2014-10-30T14:21:45.1Z</time>
      </trkpt>
      <trkpt lat="47.76086" lon="6.57773">
        <ele>240</ele>
        <time>2014-10-30T14:21:48.1Z</time>
      </trkpt>
      <trkpt lat="47.76067" lon="6.57773">
        <ele>240</ele>
        <time>2014-10-30T14:21:50.1Z</time>
      </trkpt>
      <trkpt lat="47.76056" lon="6.57765">
        <ele>240</ele>
        <time>2014-10-30T14:21:53.1Z</time>
      </trkpt>
      <trkpt lat="47.76041" lon="6.57748">
        <ele>240</ele>
        <time>2014-10-30T14:21:55.1Z</time>
      </trkpt>
      <trkpt lat="47.76024" lon="6.57735">
        <ele>240</ele>
        <time>2014-10-30T14:21:59.1Z</time>
      </trkpt>
      <trkpt lat="47.76011" lon="6.57734">
        <ele>240</ele>
        <time>2014-10-30T14:22:01.1Z</time>
      </trkpt>
      <trkpt lat="47.75993" lon="6.57738">
        <ele>240</ele>
        <time>2014-10-30T14:22:04.1Z</time>
      </trkpt>
      <trkpt lat="47.75977" lon="6.5775">
        <ele>240</ele>
        <time>2014-10-30T14:22:06.1Z</time>
      </trkpt>
      <trkpt lat="47.75965" lon="6.5777">
        <ele>240</ele>
        <time>2014-10-30T14:22:09.1Z</time>
      </trkpt>
      <trkpt lat="47.75955" lon="6.57792">
        <ele>240</ele>
        <time>2014-10-30T14:22:12.1Z</time>
      </trkpt>
      <trkpt lat="47.75948" lon="6.57804">
        <ele>239</ele>
        <time>2014-10-30T14:22:14.1Z</time>
      </trkpt>
      <trkpt lat="47.75941" lon="6.57816">
        <ele>240</ele>
        <time>2014-10-30T14:22:16.1Z</time>
      </trkpt>
      <trkpt lat="47.75933" lon="6.57835">
        <ele>240</ele>
        <time>2014-10-30T14:22:19.1Z</time>
      </trkpt>
      <trkpt lat="47.75927" lon="6.57853">
        <ele>240</ele>
        <time>2014-10-30T14:22:22.1Z</time>
      </trkpt>
      <trkpt lat="47.7592" lon="6.57871">
        <ele>240</ele>
        <time>2014-10-30T14:22:25.1Z</time>
      </trkpt>
      <trkpt lat="47.75914" lon="6.57888">
        <ele>240</ele>
        <time>2014-10-30T14:22:28.1Z</time>
      </trkpt>
      <trkpt lat="47.75908" lon="6.57898">
        <ele>240</ele>
        <time>2014-10-30T14:22:30.1Z</time>
      </trkpt>
      <trkpt lat="47.75903" lon="6.57908">
        <ele>240</ele>
        <time>2014-10-30T14:22:32.1Z</time>
      </trkpt>
      <trkpt lat="47.75896" lon="6.57919">
        <ele>240</ele>
        <time>2014-10-30T14:22:34.1Z</time>
      </trkpt>
      <trkpt lat="47.75889" lon="6.57928">
        <ele>240</ele>
        <time>2014-10-30T14:22:36.1Z</time>
      </trkpt>
      <trkpt lat="47.75881" lon="6.57937">
        <ele>240</ele>
        <time>2014-10-30T14:22:38.1Z</time>
      </trkpt>
      <trkpt lat="47.75874" lon="6.57946">
        <ele>240</ele>
        <time>2014-10-30T14:22:41.1Z</time>
      </trkpt>
      <trkpt lat="47.75863" lon="6.57962">
        <ele>240</ele>
        <time>2014-10-30T14:22:43.1Z</time>
      </trkpt>
      <trkpt lat="47.75856" lon="6.57974">
        <ele>240</ele>
        <time>2014-10-30T14:22:46.1Z</time>
      </trkpt>
      <trkpt lat="47.75845" lon="6.57991">
        <ele>240</ele>
        <time>2014-10-30T14:22:49.1Z</time>
      </trkpt>
      <trkpt lat="47.75834" lon="6.58009">
        <ele>240</ele>
        <time>2014-10-30T14:22:52.1Z</time>
      </trkpt>
      <trkpt lat="47.75821" lon="6.58028">
        <ele>240</ele>
        <time>2014-10-30T14:22:55.1Z</time>
      </trkpt>
      <trkpt lat="47.75809" lon="6.58048">
        <ele>240</ele>
        <time>2014-10-30T14:22:57.1Z</time>
      </trkpt>
      <trkpt lat="47.758" lon="6.58061">
        <ele>239</ele>
        <time>2014-10-30T14:22:59.1Z</time>
      </trkpt>
      <trkpt lat="47.75787" lon="6.58082">
        <ele>239</ele>
        <time>2014-10-30T14:23:03.1Z</time>
      </trkpt>
      <trkpt lat="47.75772" lon="6.581">
        <ele>239</ele>
        <time>2014-10-30T14:23:05.1Z</time>
      </trkpt>
      <trkpt lat="47.75756" lon="6.58115">
        <ele>239</ele>
        <time>2014-10-30T14:23:08.1Z</time>
      </trkpt>
      <trkpt lat="47.75745" lon="6.58123">
        <ele>238</ele>
        <time>2014-10-30T14:23:11.1Z</time>
      </trkpt>
      <trkpt lat="47.7573" lon="6.58135">
        <ele>238</ele>
        <time>2014-10-30T14:23:13.1Z</time>
      </trkpt>
      <trkpt lat="47.75719" lon="6.58143">
        <ele>238</ele>
        <time>2014-10-30T14:23:15.1Z</time>
      </trkpt>
      <trkpt lat="47.75708" lon="6.58149">
        <ele>239</ele>
        <time>2014-10-30T14:23:17.1Z</time>
      </trkpt>
      <trkpt lat="47.75697" lon="6.58154">
        <ele>239</ele>
        <time>2014-10-30T14:23:19.1Z</time>
      </trkpt>
      <trkpt lat="47.75686" lon="6.58158">
        <ele>239</ele>
        <time>2014-10-30T14:23:21.1Z</time>
      </trkpt>
      <trkpt lat="47.75674" lon="6.5816">
        <ele>239</ele>
        <time>2014-10-30T14:23:23.1Z</time>
      </trkpt>
      <trkpt lat="47.75663" lon="6.58161">
        <ele>238</ele>
        <time>2014-10-30T14:23:26.1Z</time>
      </trkpt>
      <trkpt lat="47.75651" lon="6.58161">
        <ele>238</ele>
        <time>2014-10-30T14:23:28.1Z</time>
      </trkpt>
      <trkpt lat="47.75633" lon="6.5816">
        <ele>238</ele>
        <time>2014-10-30T14:23:30.1Z</time>
      </trkpt>
      <trkpt lat="47.75621" lon="6.58159">
        <ele>238</ele>
        <time>2014-10-30T14:23:32.1Z</time>
      </trkpt>
      <trkpt lat="47.75608" lon="6.58158">
        <ele>238</ele>
        <time>2014-10-30T14:23:34.1Z</time>
      </trkpt>
      <trkpt lat="47.75596" lon="6.58158">
        <ele>238</ele>
        <time>2014-10-30T14:23:36.1Z</time>
      </trkpt>
      <trkpt lat="47.75585" lon="6.58157">
        <ele>238</ele>
        <time>2014-10-30T14:23:38.1Z</time>
      </trkpt>
      <trkpt lat="47.75574" lon="6.58157">
        <ele>238</ele>
        <time>2014-10-30T14:23:41.1Z</time>
      </trkpt>
      <trkpt lat="47.75558" lon="6.58157">
        <ele>238</ele>
        <time>2014-10-30T14:23:44.1Z</time>
      </trkpt>
      <trkpt lat="47.75547" lon="6.58156">
        <ele>238</ele>
        <time>2014-10-30T14:23:46.1Z</time>
      </trkpt>
      <trkpt lat="47.75531" lon="6.58155">
        <ele>238</ele>
        <time>2014-10-30T14:23:49.1Z</time>
      </trkpt>
      <trkpt lat="47.75515" lon="6.58156">
        <ele>238</ele>
        <time>2014-10-30T14:23:52.1Z</time>
      </trkpt>
      <trkpt lat="47.75498" lon="6.58155">
        <ele>238</ele>
        <time>2014-10-30T14:23:55.1Z</time>
      </trkpt>
      <trkpt lat="47.75486" lon="6.5814">
        <ele>238</ele>
        <time>2014-10-30T14:23:58.1Z</time>
      </trkpt>
      <trkpt lat="47.75476" lon="6.58121">
        <ele>237</ele>
        <time>2014-10-30T14:24:00.1Z</time>
      </trkpt>
      <trkpt lat="47.75465" lon="6.58115">
        <ele>237</ele>
        <time>2014-10-30T14:24:03.1Z</time>
      </trkpt>
      <trkpt lat="47.75462" lon="6.58111">
        <ele>237</ele>
        <time>2014-10-30T14:24:06.1Z</time>
      </trkpt>
      <trkpt lat="47.75459" lon="6.58105">
        <ele>237</ele>
        <time>2014-10-30T14:24:09.1Z</time>
      </trkpt>
      <trkpt lat="47.75456" lon="6.58103">
        <ele>237</ele>
        <time>2014-10-30T14:24:11.1Z</time>
      </trkpt>
      <trkpt lat="47.75456" lon="6.58103">
        <ele>237</ele>
        <time>2014-10-30T14:24:14.1Z</time>
      </trkpt>
      <trkpt lat="47.75456" lon="6.58103">
        <ele>237</ele>
        <time>2014-10-30T14:24:18.1Z</time>
      </trkpt>
      <trkpt lat="47.75456" lon="6.58104">
        <ele>237</ele>
        <time>2014-10-30T14:24:20.1Z</time>
      </trkpt>
      <trkpt lat="47.75456" lon="6.58104">
        <ele>237</ele>
        <time>2014-10-30T14:24:22.1Z</time>
      </trkpt>
      <trkpt lat="47.75456" lon="6.58104">
        <ele>237</ele>
        <time>2014-10-30T14:24:28.1Z</time>
      </trkpt>
      <trkpt lat="47.75454" lon="6.58107">
        <ele>237</ele>
        <time>2014-10-30T14:24:30.1Z</time>
      </trkpt>
      <trkpt lat="47.75453" lon="6.5811">
        <ele>237</ele>
        <time>2014-10-30T14:24:33.1Z</time>
      </trkpt>
      <trkpt lat="47.75454" lon="6.58112">
        <ele>237</ele>
        <time>2014-10-30T14:24:35.1Z</time>
      </trkpt>
      <trkpt lat="47.75454" lon="6.58114">
        <ele>237</ele>
        <time>2014-10-30T14:24:38.1Z</time>
      </trkpt>
      <trkpt lat="47.75455" lon="6.58117">
        <ele>237</ele>
        <time>2014-10-30T14:24:40.1Z</time>
      </trkpt>
      <trkpt lat="47.75454" lon="6.58122">
        <ele>237</ele>
        <time>2014-10-30T14:24:42.1Z</time>
      </trkpt>
      <trkpt lat="47.75452" lon="6.58126">
        <ele>237</ele>
        <time>2014-10-30T14:24:45.1Z</time>
      </trkpt>
      <trkpt lat="47.75445" lon="6.58133">
        <ele>237</ele>
        <time>2014-10-30T14:24:47.1Z</time>
      </trkpt>
      <trkpt lat="47.75439" lon="6.58143">
        <ele>237</ele>
        <time>2014-10-30T14:24:50.1Z</time>
      </trkpt>
      <trkpt lat="47.75431" lon="6.58153">
        <ele>237</ele>
        <time>2014-10-30T14:24:53.1Z</time>
      </trkpt>
      <trkpt lat="47.75423" lon="6.58163">
        <ele>238</ele>
        <time>2014-10-30T14:24:56.1Z</time>
      </trkpt>
      <trkpt lat="47.75417" lon="6.58169">
        <ele>239</ele>
        <time>2014-10-30T14:24:58.1Z</time>
      </trkpt>
      <trkpt lat="47.75407" lon="6.58167">
        <ele>239</ele>
        <time>2014-10-30T14:25:01.1Z</time>
      </trkpt>
      <trkpt lat="47.75401" lon="6.58162">
        <ele>240</ele>
        <time>2014-10-30T14:25:04.1Z</time>
      </trkpt>
      <trkpt lat="47.75395" lon="6.58155">
        <ele>240</ele>
        <time>2014-10-30T14:25:06.1Z</time>
      </trkpt>
      <trkpt lat="47.75391" lon="6.58154">
        <ele>240</ele>
        <time>2014-10-30T14:25:08.1Z</time>
      </trkpt>
      <trkpt lat="47.75386" lon="6.58159">
        <ele>241</ele>
        <time>2014-10-30T14:25:10.1Z</time>
      </trkpt>
      <trkpt lat="47.75383" lon="6.58165">
        <ele>241</ele>
        <time>2014-10-30T14:25:12.1Z</time>
      </trkpt>
      <trkpt lat="47.75374" lon="6.58172">
        <ele>240</ele>
        <time>2014-10-30T14:25:15.1Z</time>
      </trkpt>
      <trkpt lat="47.75365" lon="6.58176">
        <ele>239</ele>
        <time>2014-10-30T14:25:17.1Z</time>
      </trkpt>
      <trkpt lat="47.75357" lon="6.58181">
        <ele>239</ele>
        <time>2014-10-30T14:25:20.1Z</time>
      </trkpt>
      <trkpt lat="47.75341" lon="6.58192">
        <ele>239</ele>
        <time>2014-10-30T14:25:22.1Z</time>
      </trkpt>
      <trkpt lat="47.75324" lon="6.58201">
        <ele>238</ele>
        <time>2014-10-30T14:25:25.1Z</time>
      </trkpt>
      <trkpt lat="47.75305" lon="6.58211">
        <ele>237</ele>
        <time>2014-10-30T14:25:28.1Z</time>
      </trkpt>
      <trkpt lat="47.75292" lon="6.58217">
        <ele>236</ele>
        <time>2014-10-30T14:25:30.1Z</time>
      </trkpt>
      <trkpt lat="47.75275" lon="6.58223">
        <ele>236</ele>
        <time>2014-10-30T14:25:33.1Z</time>
      </trkpt>
      <trkpt lat="47.75263" lon="6.58226">
        <ele>236</ele>
        <time>2014-10-30T14:25:36.1Z</time>
      </trkpt>
      <trkpt lat="47.75253" lon="6.58234">
        <ele>236</ele>
        <time>2014-10-30T14:25:38.1Z</time>
      </trkpt>
      <trkpt lat="47.7524" lon="6.58249">
        <ele>236</ele>
        <time>2014-10-30T14:25:41.1Z</time>
      </trkpt>
      <trkpt lat="47.75229" lon="6.58262">
        <ele>236</ele>
        <time>2014-10-30T14:25:44.1Z</time>
      </trkpt>
      <trkpt lat="47.75219" lon="6.58275">
        <ele>236</ele>
        <time>2014-10-30T14:25:47.1Z</time>
      </trkpt>
      <trkpt lat="47.75211" lon="6.58287">
        <ele>236</ele>
        <time>2014-10-30T14:25:50.1Z</time>
      </trkpt>
      <trkpt lat="47.75203" lon="6.58299">
        <ele>236</ele>
        <time>2014-10-30T14:25:53.1Z</time>
      </trkpt>
      <trkpt lat="47.75197" lon="6.58313">
        <ele>236</ele>
        <time>2014-10-30T14:25:56.1Z</time>
      </trkpt>
      <trkpt lat="47.75187" lon="6.58324">
        <ele>236</ele>
        <time>2014-10-30T14:25:58.1Z</time>
      </trkpt>
      <trkpt lat="47.75182" lon="6.58331">
        <ele>236</ele>
        <time>2014-10-30T14:26:01.1Z</time>
      </trkpt>
      <trkpt lat="47.7518" lon="6.58347">
        <ele>236</ele>
        <time>2014-10-30T14:26:03.1Z</time>
      </trkpt>
      <trkpt lat="47.75184" lon="6.58356">
        <ele>235</ele>
        <time>2014-10-30T14:26:06.1Z</time>
      </trkpt>
      <trkpt lat="47.75188" lon="6.58357">
        <ele>235</ele>
        <time>2014-10-30T14:26:09.1Z</time>
      </trkpt>
      <trkpt lat="47.75188" lon="6.58358">
        <ele>235</ele>
        <time>2014-10-30T14:26:12.1Z</time>
      </trkpt>
      <trkpt lat="47.75188" lon="6.58359">
        <ele>236</ele>
        <time>2014-10-30T14:26:14.1Z</time>
      </trkpt>
      <trkpt lat="47.75188" lon="6.58359">
        <ele>236</ele>
        <time>2014-10-30T14:26:17.1Z</time>
      </trkpt>
      <trkpt lat="47.75188" lon="6.58359">
        <ele>235</ele>
        <time>2014-10-30T14:26:21.1Z</time>
      </trkpt>
      <trkpt lat="47.75188" lon="6.58359">
        <ele>236</ele>
        <time>2014-10-30T14:26:29.1Z</time>
      </trkpt>
      <trkpt lat="47.75187" lon="6.58359">
        <ele>235</ele>
        <time>2014-10-30T14:26:33.1Z</time>
      </trkpt>
      <trkpt lat="47.75187" lon="6.58359">
        <ele>235</ele>
        <time>2014-10-30T14:26:36.1Z</time>
      </trkpt>
      <trkpt lat="47.75188" lon="6.58359">
        <ele>236</ele>
        <time>2014-10-30T14:26:41.1Z</time>
      </trkpt>
      <trkpt lat="47.75187" lon="6.58359">
        <ele>236</ele>
        <time>2014-10-30T14:26:45.1Z</time>
      </trkpt>
      <trkpt lat="47.75188" lon="6.58359">
        <ele>235</ele>
        <time>2014-10-30T14:26:51.1Z</time>
      </trkpt>
      <trkpt lat="47.75188" lon="6.58359">
        <ele>235</ele>
        <time>2014-10-30T14:26:58.1Z</time>
      </trkpt>
      <trkpt lat="47.75188" lon="6.58359">
        <ele>235</ele>
        <time>2014-10-30T14:27:03.1Z</time>
      </trkpt>
      <trkpt lat="47.75188" lon="6.58359">
        <ele>236</ele>
        <time>2014-10-30T14:27:08.1Z</time>
      </trkpt>
      <trkpt lat="47.75188" lon="6.58359">
        <ele>236</ele>
        <time>2014-10-30T14:27:10.1Z</time>
      </trkpt>
      <trkpt lat="47.75188" lon="6.58359">
        <ele>236</ele>
        <time>2014-10-30T14:27:13.1Z</time>
      </trkpt>
      <trkpt lat="47.75188" lon="6.58359">
        <ele>236</ele>
        <time>2014-10-30T14:27:15.1Z</time>
      </trkpt>
      <trkpt lat="47.75188" lon="6.58359">
        <ele>236</ele>
        <time>2014-10-30T14:27:18.1Z</time>
      </trkpt>
      <trkpt lat="47.75188" lon="6.58359">
        <ele>236</ele>
        <time>2014-10-30T14:27:21.1Z</time>
      </trkpt>
      <trkpt lat="47.75188" lon="6.58359">
        <ele>236</ele>
        <time>2014-10-30T14:27:24.1Z</time>
      </trkpt>
      <trkpt lat="47.75188" lon="6.58359">
        <ele>236</ele>
        <time>2014-10-30T14:27:26.1Z</time>
      </trkpt>
      <trkpt lat="47.75188" lon="6.58358">
        <ele>236</ele>
        <time>2014-10-30T14:27:30.1Z</time>
      </trkpt>
      <trkpt lat="47.75188" lon="6.58358">
        <ele>236</ele>
        <time>2014-10-30T14:27:34.1Z</time>
      </trkpt>
      <trkpt lat="47.75188" lon="6.58358">
        <ele>236</ele>
        <time>2014-10-30T14:27:36.1Z</time>
      </trkpt>
      <trkpt lat="47.75188" lon="6.58358">
        <ele>236</ele>
        <time>2014-10-30T14:27:39.1Z</time>
      </trkpt>
      <trkpt lat="47.75188" lon="6.58358">
        <ele>236</ele>
        <time>2014-10-30T14:27:41.1Z</time>
      </trkpt>
      <trkpt lat="47.75188" lon="6.58358">
        <ele>236</ele>
        <time>2014-10-30T14:27:44.1Z</time>
      </trkpt>
      <trkpt lat="47.75188" lon="6.58358">
        <ele>236</ele>
        <time>2014-10-30T14:27:46.1Z</time>
      </trkpt>
      <trkpt lat="47.75188" lon="6.58358">
        <ele>236</ele>
        <time>2014-10-30T14:27:49.1Z</time>
      </trkpt>
      <trkpt lat="47.75188" lon="6.58358">
        <ele>236</ele>
        <time>2014-10-30T14:27:51.1Z</time>
      </trkpt>
      <trkpt lat="47.75188" lon="6.58358">
        <ele>236</ele>
        <time>2014-10-30T14:27:54.1Z</time>
      </trkpt>
      <trkpt lat="47.75188" lon="6.58358">
        <ele>236</ele>
        <time>2014-10-30T14:27:57.1Z</time>
      </trkpt>
      <trkpt lat="47.75188" lon="6.58358">
        <ele>236</ele>
        <time>2014-10-30T14:27:59.1Z</time>
      </trkpt>
      <trkpt lat="47.75189" lon="6.58358">
        <ele>237</ele>
        <time>2014-10-30T14:28:01.1Z</time>
      </trkpt>
      <trkpt lat="47.75189" lon="6.58358">
        <ele>236</ele>
        <time>2014-10-30T14:28:02.1Z</time>
      </trkpt>
    </trkseg>
  </trk>
</gpx>